<?xml version="1.0" encoding="UTF-8" standalone="no" ?>
<gpx xmlns="http://www.topografix.com/GPX/1/1" xmlns:xsi="http://www.w3.org/2001/XMLSchema-instance" xsi:schemaLocation="http://www.topografix.com/GPX/1/1 http://www.topografix.com/GPX/1/1/gpx.xsd" version="1.1" creator="VisuGPX - https://www.visugpx.com">
  <metadata>
    <name>20200913_073810.gpx</name>
  </metadata>
  <trk>
    <name><![CDATA[20200913_073810.gpx]]></name>
    <trkseg>
      <trkpt lat="47.76641" lon="6.54881">
        <ele>451.4</ele>
        <time>2020-09-13T05:38:16Z</time>
      </trkpt>
      <trkpt lat="47.76635" lon="6.54857">
        <ele>435.44345</ele>
        <time>2020-09-13T05:38:21Z</time>
      </trkpt>
      <trkpt lat="47.76662" lon="6.54847">
        <ele>437.5971</ele>
        <time>2020-09-13T05:38:26Z</time>
      </trkpt>
      <trkpt lat="47.76714" lon="6.54821">
        <ele>438.39114</ele>
        <time>2020-09-13T05:38:36Z</time>
      </trkpt>
      <trkpt lat="47.7677" lon="6.54787">
        <ele>439.04477</ele>
        <time>2020-09-13T05:38:46Z</time>
      </trkpt>
      <trkpt lat="47.76828" lon="6.54746">
        <ele>438.87808</ele>
        <time>2020-09-13T05:38:56Z</time>
      </trkpt>
      <trkpt lat="47.76854" lon="6.54732">
        <ele>440.92902</ele>
        <time>2020-09-13T05:39:01Z</time>
      </trkpt>
      <trkpt lat="47.76879" lon="6.54728">
        <ele>441.88986</ele>
        <time>2020-09-13T05:39:06Z</time>
      </trkpt>
      <trkpt lat="47.76907" lon="6.54728">
        <ele>442.84775</ele>
        <time>2020-09-13T05:39:11Z</time>
      </trkpt>
      <trkpt lat="47.76959" lon="6.54729">
        <ele>444.09064</ele>
        <time>2020-09-13T05:39:21Z</time>
      </trkpt>
      <trkpt lat="47.77012" lon="6.5473">
        <ele>444.13913</ele>
        <time>2020-09-13T05:39:31Z</time>
      </trkpt>
      <trkpt lat="47.77066" lon="6.54729">
        <ele>446.35022</ele>
        <time>2020-09-13T05:39:41Z</time>
      </trkpt>
      <trkpt lat="47.77091" lon="6.54729">
        <ele>446.6696</ele>
        <time>2020-09-13T05:39:46Z</time>
      </trkpt>
      <trkpt lat="47.77111" lon="6.54731">
        <ele>447.35376</ele>
        <time>2020-09-13T05:39:51Z</time>
      </trkpt>
      <trkpt lat="47.77136" lon="6.54731">
        <ele>447.57913</ele>
        <time>2020-09-13T05:39:56Z</time>
      </trkpt>
      <trkpt lat="47.77159" lon="6.54732">
        <ele>448.36847</ele>
        <time>2020-09-13T05:40:01Z</time>
      </trkpt>
      <trkpt lat="47.77182" lon="6.54733">
        <ele>448.81622</ele>
        <time>2020-09-13T05:40:06Z</time>
      </trkpt>
      <trkpt lat="47.77229" lon="6.54733">
        <ele>448.93448</ele>
        <time>2020-09-13T05:40:16Z</time>
      </trkpt>
      <trkpt lat="47.77289" lon="6.54733">
        <ele>447.26282</ele>
        <time>2020-09-13T05:40:26Z</time>
      </trkpt>
      <trkpt lat="47.77329" lon="6.54735">
        <ele>445.9187</ele>
        <time>2020-09-13T05:40:31Z</time>
      </trkpt>
      <trkpt lat="47.77366" lon="6.54736">
        <ele>445.62766</ele>
        <time>2020-09-13T05:40:36Z</time>
      </trkpt>
      <trkpt lat="47.77398" lon="6.54743">
        <ele>446.18045</ele>
        <time>2020-09-13T05:40:41Z</time>
      </trkpt>
      <trkpt lat="47.77426" lon="6.54751">
        <ele>446.85352</ele>
        <time>2020-09-13T05:40:46Z</time>
      </trkpt>
      <trkpt lat="47.77451" lon="6.5476">
        <ele>447.44272</ele>
        <time>2020-09-13T05:40:51Z</time>
      </trkpt>
      <trkpt lat="47.77476" lon="6.54766">
        <ele>447.55185</ele>
        <time>2020-09-13T05:40:56Z</time>
      </trkpt>
      <trkpt lat="47.77503" lon="6.54772">
        <ele>446.82117</ele>
        <time>2020-09-13T05:41:01Z</time>
      </trkpt>
      <trkpt lat="47.77563" lon="6.5479">
        <ele>446.63724</ele>
        <time>2020-09-13T05:41:11Z</time>
      </trkpt>
      <trkpt lat="47.77609" lon="6.54812">
        <ele>448.5049</ele>
        <time>2020-09-13T05:41:21Z</time>
      </trkpt>
      <trkpt lat="47.77632" lon="6.54822">
        <ele>449.3044</ele>
        <time>2020-09-13T05:41:26Z</time>
      </trkpt>
      <trkpt lat="47.77652" lon="6.54832">
        <ele>450.5517</ele>
        <time>2020-09-13T05:41:31Z</time>
      </trkpt>
      <trkpt lat="47.77674" lon="6.54839">
        <ele>451.72122</ele>
        <time>2020-09-13T05:41:36Z</time>
      </trkpt>
      <trkpt lat="47.77691" lon="6.54845">
        <ele>451.78085</ele>
        <time>2020-09-13T05:41:41Z</time>
      </trkpt>
      <trkpt lat="47.77696" lon="6.54873">
        <ele>451.5706</ele>
        <time>2020-09-13T05:41:46Z</time>
      </trkpt>
      <trkpt lat="47.77704" lon="6.54992">
        <ele>449.547</ele>
        <time>2020-09-13T05:41:56Z</time>
      </trkpt>
      <trkpt lat="47.77705" lon="6.55095">
        <ele>448.2169</ele>
        <time>2020-09-13T05:42:06Z</time>
      </trkpt>
      <trkpt lat="47.77706" lon="6.55145">
        <ele>447.89548</ele>
        <time>2020-09-13T05:42:11Z</time>
      </trkpt>
      <trkpt lat="47.77711" lon="6.55193">
        <ele>447.1294</ele>
        <time>2020-09-13T05:42:16Z</time>
      </trkpt>
      <trkpt lat="47.77713" lon="6.55242">
        <ele>446.30576</ele>
        <time>2020-09-13T05:42:21Z</time>
      </trkpt>
      <trkpt lat="47.77718" lon="6.55287">
        <ele>447.1082</ele>
        <time>2020-09-13T05:42:26Z</time>
      </trkpt>
      <trkpt lat="47.77735" lon="6.55324">
        <ele>447.26785</ele>
        <time>2020-09-13T05:42:31Z</time>
      </trkpt>
      <trkpt lat="47.77778" lon="6.55331">
        <ele>447.70044</ele>
        <time>2020-09-13T05:42:41Z</time>
      </trkpt>
      <trkpt lat="47.77837" lon="6.55344">
        <ele>448.25528</ele>
        <time>2020-09-13T05:42:51Z</time>
      </trkpt>
      <trkpt lat="47.77856" lon="6.55367">
        <ele>448.39374</ele>
        <time>2020-09-13T05:42:56Z</time>
      </trkpt>
      <trkpt lat="47.77876" lon="6.55387">
        <ele>448.32706</ele>
        <time>2020-09-13T05:43:01Z</time>
      </trkpt>
      <trkpt lat="47.77895" lon="6.55414">
        <ele>448.5484</ele>
        <time>2020-09-13T05:43:06Z</time>
      </trkpt>
      <trkpt lat="47.77922" lon="6.55412">
        <ele>448.3998</ele>
        <time>2020-09-13T05:43:11Z</time>
      </trkpt>
      <trkpt lat="47.77947" lon="6.55397">
        <ele>448.26337</ele>
        <time>2020-09-13T05:43:16Z</time>
      </trkpt>
      <trkpt lat="47.77993" lon="6.55351">
        <ele>447.1749</ele>
        <time>2020-09-13T05:43:26Z</time>
      </trkpt>
      <trkpt lat="47.78046" lon="6.55316">
        <ele>447.10416</ele>
        <time>2020-09-13T05:43:36Z</time>
      </trkpt>
      <trkpt lat="47.78098" lon="6.55293">
        <ele>446.615</ele>
        <time>2020-09-13T05:43:46Z</time>
      </trkpt>
      <trkpt lat="47.78124" lon="6.5529">
        <ele>446.44522</ele>
        <time>2020-09-13T05:43:51Z</time>
      </trkpt>
      <trkpt lat="47.78146" lon="6.55264">
        <ele>447.60947</ele>
        <time>2020-09-13T05:43:56Z</time>
      </trkpt>
      <trkpt lat="47.7817" lon="6.55239">
        <ele>448.34625</ele>
        <time>2020-09-13T05:44:01Z</time>
      </trkpt>
      <trkpt lat="47.78192" lon="6.55214">
        <ele>449.61673</ele>
        <time>2020-09-13T05:44:06Z</time>
      </trkpt>
      <trkpt lat="47.78219" lon="6.55194">
        <ele>450.29495</ele>
        <time>2020-09-13T05:44:11Z</time>
      </trkpt>
      <trkpt lat="47.78271" lon="6.55152">
        <ele>451.3947</ele>
        <time>2020-09-13T05:44:21Z</time>
      </trkpt>
      <trkpt lat="47.78333" lon="6.5514">
        <ele>451.07123</ele>
        <time>2020-09-13T05:44:31Z</time>
      </trkpt>
      <trkpt lat="47.78365" lon="6.55144">
        <ele>451.93246</ele>
        <time>2020-09-13T05:44:36Z</time>
      </trkpt>
      <trkpt lat="47.78392" lon="6.55145">
        <ele>453.02322</ele>
        <time>2020-09-13T05:44:41Z</time>
      </trkpt>
      <trkpt lat="47.78412" lon="6.55148">
        <ele>452.16498</ele>
        <time>2020-09-13T05:44:46Z</time>
      </trkpt>
      <trkpt lat="47.78431" lon="6.55147">
        <ele>454.36575</ele>
        <time>2020-09-13T05:44:51Z</time>
      </trkpt>
      <trkpt lat="47.7845" lon="6.55149">
        <ele>455.26248</ele>
        <time>2020-09-13T05:44:56Z</time>
      </trkpt>
      <trkpt lat="47.78485" lon="6.55151">
        <ele>460.1381</ele>
        <time>2020-09-13T05:45:06Z</time>
      </trkpt>
      <trkpt lat="47.78524" lon="6.55142">
        <ele>462.62787</ele>
        <time>2020-09-13T05:45:16Z</time>
      </trkpt>
      <trkpt lat="47.78545" lon="6.55133">
        <ele>463.6271</ele>
        <time>2020-09-13T05:45:21Z</time>
      </trkpt>
      <trkpt lat="47.78567" lon="6.55121">
        <ele>463.97806</ele>
        <time>2020-09-13T05:45:26Z</time>
      </trkpt>
      <trkpt lat="47.78589" lon="6.55109">
        <ele>464.5303</ele>
        <time>2020-09-13T05:45:31Z</time>
      </trkpt>
      <trkpt lat="47.78613" lon="6.55105">
        <ele>464.9986</ele>
        <time>2020-09-13T05:45:36Z</time>
      </trkpt>
      <trkpt lat="47.78638" lon="6.55101">
        <ele>465.0259</ele>
        <time>2020-09-13T05:45:41Z</time>
      </trkpt>
      <trkpt lat="47.78693" lon="6.55097">
        <ele>464.90656</ele>
        <time>2020-09-13T05:45:51Z</time>
      </trkpt>
      <trkpt lat="47.78748" lon="6.55091">
        <ele>464.17932</ele>
        <time>2020-09-13T05:46:01Z</time>
      </trkpt>
      <trkpt lat="47.78781" lon="6.55144">
        <ele>463.41876</ele>
        <time>2020-09-13T05:46:11Z</time>
      </trkpt>
      <trkpt lat="47.78788" lon="6.55194">
        <ele>461.79556</ele>
        <time>2020-09-13T05:46:16Z</time>
      </trkpt>
      <trkpt lat="47.78794" lon="6.55248">
        <ele>461.04315</ele>
        <time>2020-09-13T05:46:21Z</time>
      </trkpt>
      <trkpt lat="47.78796" lon="6.55299">
        <ele>460.78326</ele>
        <time>2020-09-13T05:46:26Z</time>
      </trkpt>
      <trkpt lat="47.78798" lon="6.55348">
        <ele>459.8428</ele>
        <time>2020-09-13T05:46:31Z</time>
      </trkpt>
      <trkpt lat="47.78803" lon="6.55397">
        <ele>458.92365</ele>
        <time>2020-09-13T05:46:36Z</time>
      </trkpt>
      <trkpt lat="47.78829" lon="6.55479">
        <ele>458.51917</ele>
        <time>2020-09-13T05:46:46Z</time>
      </trkpt>
      <trkpt lat="47.78849" lon="6.55568">
        <ele>457.02475</ele>
        <time>2020-09-13T05:46:56Z</time>
      </trkpt>
      <trkpt lat="47.7884" lon="6.5563">
        <ele>454.14536</ele>
        <time>2020-09-13T05:47:01Z</time>
      </trkpt>
      <trkpt lat="47.78844" lon="6.55696">
        <ele>452.75735</ele>
        <time>2020-09-13T05:47:06Z</time>
      </trkpt>
      <trkpt lat="47.78873" lon="6.55733">
        <ele>451.12683</ele>
        <time>2020-09-13T05:47:11Z</time>
      </trkpt>
      <trkpt lat="47.78912" lon="6.55746">
        <ele>449.35696</ele>
        <time>2020-09-13T05:47:16Z</time>
      </trkpt>
      <trkpt lat="47.78926" lon="6.55797">
        <ele>448.25327</ele>
        <time>2020-09-13T05:47:21Z</time>
      </trkpt>
      <trkpt lat="47.78977" lon="6.55872">
        <ele>448.0673</ele>
        <time>2020-09-13T05:47:31Z</time>
      </trkpt>
      <trkpt lat="47.7903" lon="6.55851">
        <ele>449.18716</ele>
        <time>2020-09-13T05:47:41Z</time>
      </trkpt>
      <trkpt lat="47.79055" lon="6.55868">
        <ele>448.16028</ele>
        <time>2020-09-13T05:47:46Z</time>
      </trkpt>
      <trkpt lat="47.79073" lon="6.55904">
        <ele>448.9648</ele>
        <time>2020-09-13T05:47:51Z</time>
      </trkpt>
      <trkpt lat="47.79088" lon="6.55941">
        <ele>449.2286</ele>
        <time>2020-09-13T05:47:56Z</time>
      </trkpt>
      <trkpt lat="47.79099" lon="6.55979">
        <ele>449.84415</ele>
        <time>2020-09-13T05:48:01Z</time>
      </trkpt>
      <trkpt lat="47.79113" lon="6.56014">
        <ele>450.5072</ele>
        <time>2020-09-13T05:48:06Z</time>
      </trkpt>
      <trkpt lat="47.79148" lon="6.56067">
        <ele>450.20905</ele>
        <time>2020-09-13T05:48:16Z</time>
      </trkpt>
      <trkpt lat="47.79192" lon="6.56117">
        <ele>449.13763</ele>
        <time>2020-09-13T05:48:26Z</time>
      </trkpt>
      <trkpt lat="47.79219" lon="6.56175">
        <ele>453.87442</ele>
        <time>2020-09-13T05:48:36Z</time>
      </trkpt>
      <trkpt lat="47.79229" lon="6.56205">
        <ele>454.8045</ele>
        <time>2020-09-13T05:48:41Z</time>
      </trkpt>
      <trkpt lat="47.79236" lon="6.56236">
        <ele>455.17856</ele>
        <time>2020-09-13T05:48:46Z</time>
      </trkpt>
      <trkpt lat="47.79236" lon="6.56265">
        <ele>454.575</ele>
        <time>2020-09-13T05:48:51Z</time>
      </trkpt>
      <trkpt lat="47.79251" lon="6.56298">
        <ele>454.43246</ele>
        <time>2020-09-13T05:48:56Z</time>
      </trkpt>
      <trkpt lat="47.79274" lon="6.56316">
        <ele>453.96844</ele>
        <time>2020-09-13T05:49:01Z</time>
      </trkpt>
      <trkpt lat="47.7932" lon="6.56324">
        <ele>456.12692</ele>
        <time>2020-09-13T05:49:11Z</time>
      </trkpt>
      <trkpt lat="47.79367" lon="6.56345">
        <ele>455.6123</ele>
        <time>2020-09-13T05:49:21Z</time>
      </trkpt>
      <trkpt lat="47.7939" lon="6.56377">
        <ele>454.58917</ele>
        <time>2020-09-13T05:49:26Z</time>
      </trkpt>
      <trkpt lat="47.79421" lon="6.56404">
        <ele>453.70355</ele>
        <time>2020-09-13T05:49:31Z</time>
      </trkpt>
      <trkpt lat="47.79455" lon="6.56414">
        <ele>453.45084</ele>
        <time>2020-09-13T05:49:36Z</time>
      </trkpt>
      <trkpt lat="47.79483" lon="6.56414">
        <ele>454.06042</ele>
        <time>2020-09-13T05:49:41Z</time>
      </trkpt>
      <trkpt lat="47.79504" lon="6.56401">
        <ele>454.0847</ele>
        <time>2020-09-13T05:49:46Z</time>
      </trkpt>
      <trkpt lat="47.79547" lon="6.56374">
        <ele>453.21426</ele>
        <time>2020-09-13T05:49:56Z</time>
      </trkpt>
      <trkpt lat="47.79606" lon="6.5636">
        <ele>453.97855</ele>
        <time>2020-09-13T05:50:06Z</time>
      </trkpt>
      <trkpt lat="47.79635" lon="6.56338">
        <ele>452.1468</ele>
        <time>2020-09-13T05:50:11Z</time>
      </trkpt>
      <trkpt lat="47.79666" lon="6.56302">
        <ele>450.85898</ele>
        <time>2020-09-13T05:50:16Z</time>
      </trkpt>
      <trkpt lat="47.79702" lon="6.56267">
        <ele>449.80472</ele>
        <time>2020-09-13T05:50:21Z</time>
      </trkpt>
      <trkpt lat="47.79739" lon="6.56242">
        <ele>450.38995</ele>
        <time>2020-09-13T05:50:26Z</time>
      </trkpt>
      <trkpt lat="47.79779" lon="6.56246">
        <ele>450.45972</ele>
        <time>2020-09-13T05:50:31Z</time>
      </trkpt>
      <trkpt lat="47.79853" lon="6.5627">
        <ele>448.54333</ele>
        <time>2020-09-13T05:50:41Z</time>
      </trkpt>
      <trkpt lat="47.79908" lon="6.56268">
        <ele>449.8108</ele>
        <time>2020-09-13T05:50:51Z</time>
      </trkpt>
      <trkpt lat="47.79934" lon="6.56264">
        <ele>449.5864</ele>
        <time>2020-09-13T05:50:56Z</time>
      </trkpt>
      <trkpt lat="47.79959" lon="6.56262">
        <ele>450.00687</ele>
        <time>2020-09-13T05:51:01Z</time>
      </trkpt>
      <trkpt lat="47.79982" lon="6.56263">
        <ele>450.09076</ele>
        <time>2020-09-13T05:51:06Z</time>
      </trkpt>
      <trkpt lat="47.80006" lon="6.56263">
        <ele>450.52438</ele>
        <time>2020-09-13T05:51:11Z</time>
      </trkpt>
      <trkpt lat="47.80035" lon="6.56262">
        <ele>449.63998</ele>
        <time>2020-09-13T05:51:16Z</time>
      </trkpt>
      <trkpt lat="47.80068" lon="6.56256">
        <ele>448.78894</ele>
        <time>2020-09-13T05:51:21Z</time>
      </trkpt>
      <trkpt lat="47.801" lon="6.56232">
        <ele>446.98184</ele>
        <time>2020-09-13T05:51:26Z</time>
      </trkpt>
      <trkpt lat="47.80149" lon="6.56176">
        <ele>447.34567</ele>
        <time>2020-09-13T05:51:36Z</time>
      </trkpt>
      <trkpt lat="47.80176" lon="6.56091">
        <ele>448.2401</ele>
        <time>2020-09-13T05:51:46Z</time>
      </trkpt>
      <trkpt lat="47.8019" lon="6.56051">
        <ele>448.85666</ele>
        <time>2020-09-13T05:51:51Z</time>
      </trkpt>
      <trkpt lat="47.80203" lon="6.56017">
        <ele>449.76733</ele>
        <time>2020-09-13T05:51:56Z</time>
      </trkpt>
      <trkpt lat="47.80212" lon="6.55988">
        <ele>450.7892</ele>
        <time>2020-09-13T05:52:01Z</time>
      </trkpt>
      <trkpt lat="47.80228" lon="6.55966">
        <ele>451.17535</ele>
        <time>2020-09-13T05:52:06Z</time>
      </trkpt>
      <trkpt lat="47.80251" lon="6.55967">
        <ele>452.48846</ele>
        <time>2020-09-13T05:52:11Z</time>
      </trkpt>
      <trkpt lat="47.80294" lon="6.56003">
        <ele>453.98462</ele>
        <time>2020-09-13T05:52:21Z</time>
      </trkpt>
      <trkpt lat="47.80327" lon="6.56043">
        <ele>455.97324</ele>
        <time>2020-09-13T05:52:31Z</time>
      </trkpt>
      <trkpt lat="47.80342" lon="6.56051">
        <ele>455.15228</ele>
        <time>2020-09-13T05:52:36Z</time>
      </trkpt>
      <trkpt lat="47.80354" lon="6.56068">
        <ele>454.33035</ele>
        <time>2020-09-13T05:52:41Z</time>
      </trkpt>
      <trkpt lat="47.80369" lon="6.56083">
        <ele>455.12296</ele>
        <time>2020-09-13T05:52:46Z</time>
      </trkpt>
      <trkpt lat="47.80386" lon="6.56103">
        <ele>457.1774</ele>
        <time>2020-09-13T05:52:51Z</time>
      </trkpt>
      <trkpt lat="47.80404" lon="6.56121">
        <ele>459.52023</ele>
        <time>2020-09-13T05:52:56Z</time>
      </trkpt>
      <trkpt lat="47.8045" lon="6.56142">
        <ele>460.79236</ele>
        <time>2020-09-13T05:53:06Z</time>
      </trkpt>
      <trkpt lat="47.80504" lon="6.56125">
        <ele>452.5946</ele>
        <time>2020-09-13T05:53:16Z</time>
      </trkpt>
      <trkpt lat="47.80531" lon="6.56111">
        <ele>459.22397</ele>
        <time>2020-09-13T05:53:21Z</time>
      </trkpt>
      <trkpt lat="47.80556" lon="6.56099">
        <ele>461.84106</ele>
        <time>2020-09-13T05:53:26Z</time>
      </trkpt>
      <trkpt lat="47.80582" lon="6.56084">
        <ele>462.52777</ele>
        <time>2020-09-13T05:53:31Z</time>
      </trkpt>
      <trkpt lat="47.80608" lon="6.56068">
        <ele>466.13144</ele>
        <time>2020-09-13T05:53:36Z</time>
      </trkpt>
      <trkpt lat="47.80632" lon="6.56046">
        <ele>464.40082</ele>
        <time>2020-09-13T05:53:41Z</time>
      </trkpt>
      <trkpt lat="47.80655" lon="6.56018">
        <ele>463.66858</ele>
        <time>2020-09-13T05:53:46Z</time>
      </trkpt>
      <trkpt lat="47.80677" lon="6.55988">
        <ele>462.07773</ele>
        <time>2020-09-13T05:53:51Z</time>
      </trkpt>
      <trkpt lat="47.80713" lon="6.55887">
        <ele>458.36548</ele>
        <time>2020-09-13T05:54:01Z</time>
      </trkpt>
      <trkpt lat="47.80729" lon="6.55764">
        <ele>452.91605</ele>
        <time>2020-09-13T05:54:11Z</time>
      </trkpt>
      <trkpt lat="47.80775" lon="6.55721">
        <ele>448.09457</ele>
        <time>2020-09-13T05:54:16Z</time>
      </trkpt>
      <trkpt lat="47.80808" lon="6.55667">
        <ele>450.486</ele>
        <time>2020-09-13T05:54:21Z</time>
      </trkpt>
      <trkpt lat="47.80826" lon="6.55595">
        <ele>439.87018</ele>
        <time>2020-09-13T05:54:26Z</time>
      </trkpt>
      <trkpt lat="47.80841" lon="6.55524">
        <ele>447.30426</ele>
        <time>2020-09-13T05:54:31Z</time>
      </trkpt>
      <trkpt lat="47.80874" lon="6.55484">
        <ele>448.47864</ele>
        <time>2020-09-13T05:54:36Z</time>
      </trkpt>
      <trkpt lat="47.80882" lon="6.55383">
        <ele>449.4722</ele>
        <time>2020-09-13T05:54:46Z</time>
      </trkpt>
      <trkpt lat="47.80903" lon="6.55263">
        <ele>448.63226</ele>
        <time>2020-09-13T05:54:56Z</time>
      </trkpt>
      <trkpt lat="47.80921" lon="6.55207">
        <ele>447.95816</ele>
        <time>2020-09-13T05:55:01Z</time>
      </trkpt>
      <trkpt lat="47.80941" lon="6.55151">
        <ele>443.23575</ele>
        <time>2020-09-13T05:55:06Z</time>
      </trkpt>
      <trkpt lat="47.80973" lon="6.55108">
        <ele>444.22504</ele>
        <time>2020-09-13T05:55:11Z</time>
      </trkpt>
      <trkpt lat="47.81014" lon="6.55064">
        <ele>442.583</ele>
        <time>2020-09-13T05:55:16Z</time>
      </trkpt>
      <trkpt lat="47.81054" lon="6.55044">
        <ele>443.48837</ele>
        <time>2020-09-13T05:55:21Z</time>
      </trkpt>
      <trkpt lat="47.81124" lon="6.55077">
        <ele>441.806</ele>
        <time>2020-09-13T05:55:31Z</time>
      </trkpt>
      <trkpt lat="47.81155" lon="6.55177">
        <ele>438.33557</ele>
        <time>2020-09-13T05:55:41Z</time>
      </trkpt>
      <trkpt lat="47.81198" lon="6.5521">
        <ele>436.7617</ele>
        <time>2020-09-13T05:55:46Z</time>
      </trkpt>
      <trkpt lat="47.81237" lon="6.55202">
        <ele>434.3788</ele>
        <time>2020-09-13T05:55:51Z</time>
      </trkpt>
      <trkpt lat="47.81243" lon="6.55116">
        <ele>431.29532</ele>
        <time>2020-09-13T05:55:56Z</time>
      </trkpt>
      <trkpt lat="47.81259" lon="6.55068">
        <ele>428.45663</ele>
        <time>2020-09-13T05:56:01Z</time>
      </trkpt>
      <trkpt lat="47.81307" lon="6.55088">
        <ele>426.80164</ele>
        <time>2020-09-13T05:56:06Z</time>
      </trkpt>
      <trkpt lat="47.81384" lon="6.55194">
        <ele>422.14636</ele>
        <time>2020-09-13T05:56:16Z</time>
      </trkpt>
      <trkpt lat="47.81467" lon="6.55313">
        <ele>421.9515</ele>
        <time>2020-09-13T05:56:26Z</time>
      </trkpt>
      <trkpt lat="47.81551" lon="6.55429">
        <ele>416.05484</ele>
        <time>2020-09-13T05:56:36Z</time>
      </trkpt>
      <trkpt lat="47.81607" lon="6.5545">
        <ele>412.97995</ele>
        <time>2020-09-13T05:56:41Z</time>
      </trkpt>
      <trkpt lat="47.81668" lon="6.55431">
        <ele>409.3092</ele>
        <time>2020-09-13T05:56:46Z</time>
      </trkpt>
      <trkpt lat="47.81728" lon="6.55412">
        <ele>410.45132</ele>
        <time>2020-09-13T05:56:51Z</time>
      </trkpt>
      <trkpt lat="47.81786" lon="6.55397">
        <ele>408.97324</ele>
        <time>2020-09-13T05:56:56Z</time>
      </trkpt>
      <trkpt lat="47.81844" lon="6.55393">
        <ele>404.4316</ele>
        <time>2020-09-13T05:57:01Z</time>
      </trkpt>
      <trkpt lat="47.8196" lon="6.55406">
        <ele>399.15976</ele>
        <time>2020-09-13T05:57:11Z</time>
      </trkpt>
      <trkpt lat="47.82069" lon="6.55352">
        <ele>392.91022</ele>
        <time>2020-09-13T05:57:21Z</time>
      </trkpt>
      <trkpt lat="47.82122" lon="6.55342">
        <ele>391.00992</ele>
        <time>2020-09-13T05:57:26Z</time>
      </trkpt>
      <trkpt lat="47.82172" lon="6.55382">
        <ele>389.95346</ele>
        <time>2020-09-13T05:57:31Z</time>
      </trkpt>
      <trkpt lat="47.82203" lon="6.55457">
        <ele>387.72882</ele>
        <time>2020-09-13T05:57:36Z</time>
      </trkpt>
      <trkpt lat="47.82231" lon="6.55529">
        <ele>386.0416</ele>
        <time>2020-09-13T05:57:41Z</time>
      </trkpt>
      <trkpt lat="47.8227" lon="6.55587">
        <ele>384.1358</ele>
        <time>2020-09-13T05:57:46Z</time>
      </trkpt>
      <trkpt lat="47.82377" lon="6.55625">
        <ele>373.75815</ele>
        <time>2020-09-13T05:57:56Z</time>
      </trkpt>
      <trkpt lat="47.82476" lon="6.55618">
        <ele>376.7994</ele>
        <time>2020-09-13T05:58:06Z</time>
      </trkpt>
      <trkpt lat="47.82519" lon="6.55607">
        <ele>371.8947</ele>
        <time>2020-09-13T05:58:11Z</time>
      </trkpt>
      <trkpt lat="47.82561" lon="6.556">
        <ele>374.2739</ele>
        <time>2020-09-13T05:58:16Z</time>
      </trkpt>
      <trkpt lat="47.82604" lon="6.55591">
        <ele>374.95486</ele>
        <time>2020-09-13T05:58:21Z</time>
      </trkpt>
      <trkpt lat="47.82647" lon="6.55584">
        <ele>375.8353</ele>
        <time>2020-09-13T05:58:26Z</time>
      </trkpt>
      <trkpt lat="47.82689" lon="6.55576">
        <ele>374.9871</ele>
        <time>2020-09-13T05:58:31Z</time>
      </trkpt>
      <trkpt lat="47.82727" lon="6.55565">
        <ele>375.63885</ele>
        <time>2020-09-13T05:58:36Z</time>
      </trkpt>
      <trkpt lat="47.82764" lon="6.55538">
        <ele>374.78763</ele>
        <time>2020-09-13T05:58:41Z</time>
      </trkpt>
      <trkpt lat="47.82852" lon="6.5554">
        <ele>371.91083</ele>
        <time>2020-09-13T05:58:51Z</time>
      </trkpt>
      <trkpt lat="47.82939" lon="6.5551">
        <ele>372.91605</ele>
        <time>2020-09-13T05:59:01Z</time>
      </trkpt>
      <trkpt lat="47.82978" lon="6.55519">
        <ele>372.3399</ele>
        <time>2020-09-13T05:59:06Z</time>
      </trkpt>
      <trkpt lat="47.83011" lon="6.55552">
        <ele>372.01355</ele>
        <time>2020-09-13T05:59:11Z</time>
      </trkpt>
      <trkpt lat="47.83043" lon="6.55583">
        <ele>370.76666</ele>
        <time>2020-09-13T05:59:16Z</time>
      </trkpt>
      <trkpt lat="47.83075" lon="6.55612">
        <ele>370.16537</ele>
        <time>2020-09-13T05:59:21Z</time>
      </trkpt>
      <trkpt lat="47.83104" lon="6.55638">
        <ele>369.548</ele>
        <time>2020-09-13T05:59:26Z</time>
      </trkpt>
      <trkpt lat="47.83163" lon="6.5569">
        <ele>369.87534</ele>
        <time>2020-09-13T05:59:36Z</time>
      </trkpt>
      <trkpt lat="47.83223" lon="6.55745">
        <ele>370.49472</ele>
        <time>2020-09-13T05:59:46Z</time>
      </trkpt>
      <trkpt lat="47.83251" lon="6.55774">
        <ele>369.7696</ele>
        <time>2020-09-13T05:59:51Z</time>
      </trkpt>
      <trkpt lat="47.83279" lon="6.55801">
        <ele>369.4332</ele>
        <time>2020-09-13T05:59:56Z</time>
      </trkpt>
      <trkpt lat="47.83307" lon="6.55829">
        <ele>369.7716</ele>
        <time>2020-09-13T06:00:01Z</time>
      </trkpt>
      <trkpt lat="47.83336" lon="6.55855">
        <ele>368.978</ele>
        <time>2020-09-13T06:00:06Z</time>
      </trkpt>
      <trkpt lat="47.83364" lon="6.55886">
        <ele>368.10788</ele>
        <time>2020-09-13T06:00:11Z</time>
      </trkpt>
      <trkpt lat="47.83422" lon="6.55939">
        <ele>367.7796</ele>
        <time>2020-09-13T06:00:21Z</time>
      </trkpt>
      <trkpt lat="47.83476" lon="6.55993">
        <ele>357.56558</ele>
        <time>2020-09-13T06:00:31Z</time>
      </trkpt>
      <trkpt lat="47.83505" lon="6.56011">
        <ele>364.8302</ele>
        <time>2020-09-13T06:00:36Z</time>
      </trkpt>
      <trkpt lat="47.83533" lon="6.5603">
        <ele>364.4224</ele>
        <time>2020-09-13T06:00:41Z</time>
      </trkpt>
      <trkpt lat="47.83563" lon="6.56046">
        <ele>363.42963</ele>
        <time>2020-09-13T06:00:46Z</time>
      </trkpt>
      <trkpt lat="47.83592" lon="6.56068">
        <ele>362.26575</ele>
        <time>2020-09-13T06:00:51Z</time>
      </trkpt>
      <trkpt lat="47.83624" lon="6.56094">
        <ele>361.8711</ele>
        <time>2020-09-13T06:00:56Z</time>
      </trkpt>
      <trkpt lat="47.83654" lon="6.56118">
        <ele>363.12155</ele>
        <time>2020-09-13T06:01:01Z</time>
      </trkpt>
      <trkpt lat="47.83683" lon="6.56139">
        <ele>362.91113</ele>
        <time>2020-09-13T06:01:06Z</time>
      </trkpt>
      <trkpt lat="47.83741" lon="6.56175">
        <ele>361.20062</ele>
        <time>2020-09-13T06:01:16Z</time>
      </trkpt>
      <trkpt lat="47.83801" lon="6.56222">
        <ele>361.18552</ele>
        <time>2020-09-13T06:01:26Z</time>
      </trkpt>
      <trkpt lat="47.8383" lon="6.56247">
        <ele>361.66373</ele>
        <time>2020-09-13T06:01:31Z</time>
      </trkpt>
      <trkpt lat="47.83859" lon="6.56272">
        <ele>354.68497</ele>
        <time>2020-09-13T06:01:36Z</time>
      </trkpt>
      <trkpt lat="47.83886" lon="6.56302">
        <ele>362.2889</ele>
        <time>2020-09-13T06:01:41Z</time>
      </trkpt>
      <trkpt lat="47.83914" lon="6.56337">
        <ele>357.03915</ele>
        <time>2020-09-13T06:01:46Z</time>
      </trkpt>
      <trkpt lat="47.83944" lon="6.56369">
        <ele>362.3574</ele>
        <time>2020-09-13T06:01:51Z</time>
      </trkpt>
      <trkpt lat="47.83952" lon="6.56409">
        <ele>362.3161</ele>
        <time>2020-09-13T06:02:01Z</time>
      </trkpt>
      <trkpt lat="47.83902" lon="6.56428">
        <ele>361.4986</ele>
        <time>2020-09-13T06:02:11Z</time>
      </trkpt>
      <trkpt lat="47.83872" lon="6.56428">
        <ele>360.7949</ele>
        <time>2020-09-13T06:02:16Z</time>
      </trkpt>
      <trkpt lat="47.83839" lon="6.56424">
        <ele>360.60364</ele>
        <time>2020-09-13T06:02:21Z</time>
      </trkpt>
      <trkpt lat="47.83811" lon="6.56419">
        <ele>361.04153</ele>
        <time>2020-09-13T06:02:26Z</time>
      </trkpt>
      <trkpt lat="47.83783" lon="6.56407">
        <ele>360.55933</ele>
        <time>2020-09-13T06:02:31Z</time>
      </trkpt>
      <trkpt lat="47.83754" lon="6.56391">
        <ele>360.32074</ele>
        <time>2020-09-13T06:02:36Z</time>
      </trkpt>
      <trkpt lat="47.83703" lon="6.56337">
        <ele>360.37408</ele>
        <time>2020-09-13T06:02:46Z</time>
      </trkpt>
      <trkpt lat="47.83659" lon="6.56278">
        <ele>359.76102</ele>
        <time>2020-09-13T06:02:56Z</time>
      </trkpt>
      <trkpt lat="47.8363" lon="6.56273">
        <ele>359.03522</ele>
        <time>2020-09-13T06:03:01Z</time>
      </trkpt>
      <trkpt lat="47.83606" lon="6.56294">
        <ele>359.09262</ele>
        <time>2020-09-13T06:03:06Z</time>
      </trkpt>
      <trkpt lat="47.83593" lon="6.56334">
        <ele>358.21283</ele>
        <time>2020-09-13T06:03:11Z</time>
      </trkpt>
      <trkpt lat="47.83593" lon="6.56377">
        <ele>355.7136</ele>
        <time>2020-09-13T06:03:16Z</time>
      </trkpt>
      <trkpt lat="47.83592" lon="6.56416">
        <ele>357.6441</ele>
        <time>2020-09-13T06:03:21Z</time>
      </trkpt>
      <trkpt lat="47.83587" lon="6.56453">
        <ele>358.19672</ele>
        <time>2020-09-13T06:03:26Z</time>
      </trkpt>
      <trkpt lat="47.83575" lon="6.5648">
        <ele>358.29337</ele>
        <time>2020-09-13T06:03:31Z</time>
      </trkpt>
      <trkpt lat="47.83537" lon="6.56523">
        <ele>358.35678</ele>
        <time>2020-09-13T06:03:41Z</time>
      </trkpt>
      <trkpt lat="47.83499" lon="6.56561">
        <ele>358.83188</ele>
        <time>2020-09-13T06:03:51Z</time>
      </trkpt>
      <trkpt lat="47.83479" lon="6.56583">
        <ele>360.55127</ele>
        <time>2020-09-13T06:03:56Z</time>
      </trkpt>
      <trkpt lat="47.83461" lon="6.56606">
        <ele>360.96</ele>
        <time>2020-09-13T06:04:01Z</time>
      </trkpt>
      <trkpt lat="47.83445" lon="6.56632">
        <ele>361.37378</ele>
        <time>2020-09-13T06:04:06Z</time>
      </trkpt>
      <trkpt lat="47.83434" lon="6.56664">
        <ele>362.5839</ele>
        <time>2020-09-13T06:04:11Z</time>
      </trkpt>
      <trkpt lat="47.83435" lon="6.56698">
        <ele>362.6413</ele>
        <time>2020-09-13T06:04:16Z</time>
      </trkpt>
      <trkpt lat="47.83468" lon="6.56751">
        <ele>363.94614</ele>
        <time>2020-09-13T06:04:26Z</time>
      </trkpt>
      <trkpt lat="47.83491" lon="6.56803">
        <ele>361.23987</ele>
        <time>2020-09-13T06:04:36Z</time>
      </trkpt>
      <trkpt lat="47.8349" lon="6.56831">
        <ele>358.51077</ele>
        <time>2020-09-13T06:04:41Z</time>
      </trkpt>
      <trkpt lat="47.83469" lon="6.56857">
        <ele>363.87064</ele>
        <time>2020-09-13T06:04:46Z</time>
      </trkpt>
      <trkpt lat="47.83452" lon="6.56853">
        <ele>368.06458</ele>
        <time>2020-09-13T06:04:51Z</time>
      </trkpt>
      <trkpt lat="47.83436" lon="6.56844">
        <ele>369.11697</ele>
        <time>2020-09-13T06:04:56Z</time>
      </trkpt>
      <trkpt lat="47.8342" lon="6.56839">
        <ele>371.02246</ele>
        <time>2020-09-13T06:05:01Z</time>
      </trkpt>
      <trkpt lat="47.83385" lon="6.56839">
        <ele>372.33084</ele>
        <time>2020-09-13T06:05:11Z</time>
      </trkpt>
      <trkpt lat="47.83357" lon="6.56873">
        <ele>374.15503</ele>
        <time>2020-09-13T06:05:21Z</time>
      </trkpt>
      <trkpt lat="47.83337" lon="6.56874">
        <ele>375.30945</ele>
        <time>2020-09-13T06:05:26Z</time>
      </trkpt>
      <trkpt lat="47.83321" lon="6.56873">
        <ele>373.8629</ele>
        <time>2020-09-13T06:05:31Z</time>
      </trkpt>
      <trkpt lat="47.83303" lon="6.56873">
        <ele>376.5254</ele>
        <time>2020-09-13T06:05:36Z</time>
      </trkpt>
      <trkpt lat="47.83288" lon="6.56889">
        <ele>377.1228</ele>
        <time>2020-09-13T06:05:41Z</time>
      </trkpt>
      <trkpt lat="47.8328" lon="6.56908">
        <ele>379.4008</ele>
        <time>2020-09-13T06:05:46Z</time>
      </trkpt>
      <trkpt lat="47.83272" lon="6.56964">
        <ele>381.72333</ele>
        <time>2020-09-13T06:05:56Z</time>
      </trkpt>
      <trkpt lat="47.83268" lon="6.57021">
        <ele>380.42447</ele>
        <time>2020-09-13T06:06:06Z</time>
      </trkpt>
      <trkpt lat="47.83255" lon="6.57073">
        <ele>384.7818</ele>
        <time>2020-09-13T06:06:16Z</time>
      </trkpt>
      <trkpt lat="47.83243" lon="6.57093">
        <ele>385.52255</ele>
        <time>2020-09-13T06:06:21Z</time>
      </trkpt>
      <trkpt lat="47.83231" lon="6.57112">
        <ele>386.15952</ele>
        <time>2020-09-13T06:06:26Z</time>
      </trkpt>
      <trkpt lat="47.83238" lon="6.57137">
        <ele>387.5081</ele>
        <time>2020-09-13T06:06:31Z</time>
      </trkpt>
      <trkpt lat="47.83247" lon="6.57161">
        <ele>387.85684</ele>
        <time>2020-09-13T06:06:36Z</time>
      </trkpt>
      <trkpt lat="47.83249" lon="6.57189">
        <ele>388.6239</ele>
        <time>2020-09-13T06:06:41Z</time>
      </trkpt>
      <trkpt lat="47.83234" lon="6.57244">
        <ele>390.1712</ele>
        <time>2020-09-13T06:06:51Z</time>
      </trkpt>
      <trkpt lat="47.83216" lon="6.57287">
        <ele>393.20865</ele>
        <time>2020-09-13T06:07:01Z</time>
      </trkpt>
      <trkpt lat="47.83211" lon="6.57308">
        <ele>392.8457</ele>
        <time>2020-09-13T06:07:06Z</time>
      </trkpt>
      <trkpt lat="47.83214" lon="6.57331">
        <ele>395.0517</ele>
        <time>2020-09-13T06:07:11Z</time>
      </trkpt>
      <trkpt lat="47.8322" lon="6.57362">
        <ele>396.20822</ele>
        <time>2020-09-13T06:07:16Z</time>
      </trkpt>
      <trkpt lat="47.83229" lon="6.57387">
        <ele>394.72098</ele>
        <time>2020-09-13T06:07:21Z</time>
      </trkpt>
      <trkpt lat="47.83241" lon="6.57411">
        <ele>395.2584</ele>
        <time>2020-09-13T06:07:26Z</time>
      </trkpt>
      <trkpt lat="47.83259" lon="6.57467">
        <ele>397.16614</ele>
        <time>2020-09-13T06:07:36Z</time>
      </trkpt>
      <trkpt lat="47.83263" lon="6.5752">
        <ele>400.23886</ele>
        <time>2020-09-13T06:07:46Z</time>
      </trkpt>
      <trkpt lat="47.83266" lon="6.57542">
        <ele>400.9912</ele>
        <time>2020-09-13T06:07:51Z</time>
      </trkpt>
      <trkpt lat="47.83252" lon="6.57565">
        <ele>401.25748</ele>
        <time>2020-09-13T06:07:56Z</time>
      </trkpt>
      <trkpt lat="47.83238" lon="6.57561">
        <ele>401.79907</ele>
        <time>2020-09-13T06:08:01Z</time>
      </trkpt>
      <trkpt lat="47.83224" lon="6.57557">
        <ele>403.0084</ele>
        <time>2020-09-13T06:08:06Z</time>
      </trkpt>
      <trkpt lat="47.83212" lon="6.57573">
        <ele>402.04416</ele>
        <time>2020-09-13T06:08:11Z</time>
      </trkpt>
      <trkpt lat="47.83217" lon="6.57624">
        <ele>406.5167</ele>
        <time>2020-09-13T06:08:21Z</time>
      </trkpt>
      <trkpt lat="47.83222" lon="6.57677">
        <ele>409.35056</ele>
        <time>2020-09-13T06:08:31Z</time>
      </trkpt>
      <trkpt lat="47.83194" lon="6.57658">
        <ele>409.17603</ele>
        <time>2020-09-13T06:08:41Z</time>
      </trkpt>
      <trkpt lat="47.8318" lon="6.57667">
        <ele>411.07083</ele>
        <time>2020-09-13T06:08:46Z</time>
      </trkpt>
      <trkpt lat="47.83171" lon="6.57689">
        <ele>412.5551</ele>
        <time>2020-09-13T06:08:51Z</time>
      </trkpt>
      <trkpt lat="47.83175" lon="6.57715">
        <ele>413.21405</ele>
        <time>2020-09-13T06:08:56Z</time>
      </trkpt>
      <trkpt lat="47.83183" lon="6.57742">
        <ele>414.30997</ele>
        <time>2020-09-13T06:09:01Z</time>
      </trkpt>
      <trkpt lat="47.83191" lon="6.57765">
        <ele>415.75107</ele>
        <time>2020-09-13T06:09:06Z</time>
      </trkpt>
      <trkpt lat="47.83201" lon="6.57806">
        <ele>418.27322</ele>
        <time>2020-09-13T06:09:16Z</time>
      </trkpt>
      <trkpt lat="47.83194" lon="6.57871">
        <ele>419.74387</ele>
        <time>2020-09-13T06:09:26Z</time>
      </trkpt>
      <trkpt lat="47.83182" lon="6.57897">
        <ele>420.60187</ele>
        <time>2020-09-13T06:09:31Z</time>
      </trkpt>
      <trkpt lat="47.83169" lon="6.5792">
        <ele>421.60828</ele>
        <time>2020-09-13T06:09:36Z</time>
      </trkpt>
      <trkpt lat="47.83162" lon="6.57944">
        <ele>422.91357</ele>
        <time>2020-09-13T06:09:41Z</time>
      </trkpt>
      <trkpt lat="47.83167" lon="6.57971">
        <ele>423.85852</ele>
        <time>2020-09-13T06:09:46Z</time>
      </trkpt>
      <trkpt lat="47.83173" lon="6.57994">
        <ele>424.50568</ele>
        <time>2020-09-13T06:09:51Z</time>
      </trkpt>
      <trkpt lat="47.8317" lon="6.58044">
        <ele>426.55023</ele>
        <time>2020-09-13T06:10:01Z</time>
      </trkpt>
      <trkpt lat="47.83144" lon="6.58058">
        <ele>427.89923</ele>
        <time>2020-09-13T06:10:11Z</time>
      </trkpt>
      <trkpt lat="47.83134" lon="6.58042">
        <ele>427.6054</ele>
        <time>2020-09-13T06:10:16Z</time>
      </trkpt>
      <trkpt lat="47.83118" lon="6.58029">
        <ele>429.15237</ele>
        <time>2020-09-13T06:10:21Z</time>
      </trkpt>
      <trkpt lat="47.83102" lon="6.58029">
        <ele>430.64294</ele>
        <time>2020-09-13T06:10:26Z</time>
      </trkpt>
      <trkpt lat="47.83085" lon="6.58029">
        <ele>431.4943</ele>
        <time>2020-09-13T06:10:31Z</time>
      </trkpt>
      <trkpt lat="47.83073" lon="6.58043">
        <ele>432.63654</ele>
        <time>2020-09-13T06:10:36Z</time>
      </trkpt>
      <trkpt lat="47.83087" lon="6.58085">
        <ele>433.58392</ele>
        <time>2020-09-13T06:10:46Z</time>
      </trkpt>
      <trkpt lat="47.83087" lon="6.58111">
        <ele>431.53366</ele>
        <time>2020-09-13T06:10:56Z</time>
      </trkpt>
      <trkpt lat="47.83061" lon="6.5809">
        <ele>436.08286</ele>
        <time>2020-09-13T06:11:06Z</time>
      </trkpt>
      <trkpt lat="47.83041" lon="6.58075">
        <ele>437.0213</ele>
        <time>2020-09-13T06:11:11Z</time>
      </trkpt>
      <trkpt lat="47.83024" lon="6.58068">
        <ele>438.21738</ele>
        <time>2020-09-13T06:11:16Z</time>
      </trkpt>
      <trkpt lat="47.83007" lon="6.58075">
        <ele>439.59943</ele>
        <time>2020-09-13T06:11:21Z</time>
      </trkpt>
      <trkpt lat="47.82996" lon="6.58097">
        <ele>440.94617</ele>
        <time>2020-09-13T06:11:26Z</time>
      </trkpt>
      <trkpt lat="47.82987" lon="6.5812">
        <ele>442.05054</ele>
        <time>2020-09-13T06:11:31Z</time>
      </trkpt>
      <trkpt lat="47.82961" lon="6.58124">
        <ele>443.96127</ele>
        <time>2020-09-13T06:11:41Z</time>
      </trkpt>
      <trkpt lat="47.82943" lon="6.58061">
        <ele>445.07385</ele>
        <time>2020-09-13T06:11:51Z</time>
      </trkpt>
      <trkpt lat="47.82924" lon="6.58047">
        <ele>445.92172</ele>
        <time>2020-09-13T06:11:56Z</time>
      </trkpt>
      <trkpt lat="47.82906" lon="6.58042">
        <ele>447.32446</ele>
        <time>2020-09-13T06:12:01Z</time>
      </trkpt>
      <trkpt lat="47.82888" lon="6.58046">
        <ele>448.4089</ele>
        <time>2020-09-13T06:12:06Z</time>
      </trkpt>
      <trkpt lat="47.82872" lon="6.58049">
        <ele>449.3206</ele>
        <time>2020-09-13T06:12:11Z</time>
      </trkpt>
      <trkpt lat="47.82856" lon="6.58047">
        <ele>450.15042</ele>
        <time>2020-09-13T06:12:16Z</time>
      </trkpt>
      <trkpt lat="47.8282" lon="6.58039">
        <ele>450.7205</ele>
        <time>2020-09-13T06:12:26Z</time>
      </trkpt>
      <trkpt lat="47.82785" lon="6.58045">
        <ele>452.70578</ele>
        <time>2020-09-13T06:12:36Z</time>
      </trkpt>
      <trkpt lat="47.82767" lon="6.58044">
        <ele>454.32025</ele>
        <time>2020-09-13T06:12:41Z</time>
      </trkpt>
      <trkpt lat="47.82748" lon="6.58045">
        <ele>455.27765</ele>
        <time>2020-09-13T06:12:46Z</time>
      </trkpt>
      <trkpt lat="47.82729" lon="6.58055">
        <ele>456.90543</ele>
        <time>2020-09-13T06:12:51Z</time>
      </trkpt>
      <trkpt lat="47.82715" lon="6.58072">
        <ele>457.4676</ele>
        <time>2020-09-13T06:12:56Z</time>
      </trkpt>
      <trkpt lat="47.82706" lon="6.58093">
        <ele>458.685</ele>
        <time>2020-09-13T06:13:01Z</time>
      </trkpt>
      <trkpt lat="47.82696" lon="6.58143">
        <ele>460.79135</ele>
        <time>2020-09-13T06:13:11Z</time>
      </trkpt>
      <trkpt lat="47.82684" lon="6.58197">
        <ele>462.6461</ele>
        <time>2020-09-13T06:13:21Z</time>
      </trkpt>
      <trkpt lat="47.82669" lon="6.58244">
        <ele>460.60126</ele>
        <time>2020-09-13T06:13:31Z</time>
      </trkpt>
      <trkpt lat="47.82661" lon="6.58264">
        <ele>462.71588</ele>
        <time>2020-09-13T06:13:36Z</time>
      </trkpt>
      <trkpt lat="47.82655" lon="6.58277">
        <ele>462.88983</ele>
        <time>2020-09-13T06:13:41Z</time>
      </trkpt>
      <trkpt lat="47.82647" lon="6.58294">
        <ele>467.73474</ele>
        <time>2020-09-13T06:13:46Z</time>
      </trkpt>
      <trkpt lat="47.8264" lon="6.58312">
        <ele>470.59058</ele>
        <time>2020-09-13T06:13:51Z</time>
      </trkpt>
      <trkpt lat="47.82631" lon="6.58329">
        <ele>471.02258</ele>
        <time>2020-09-13T06:13:56Z</time>
      </trkpt>
      <trkpt lat="47.82607" lon="6.58372">
        <ele>474.36557</ele>
        <time>2020-09-13T06:14:06Z</time>
      </trkpt>
      <trkpt lat="47.82585" lon="6.58399">
        <ele>475.9553</ele>
        <time>2020-09-13T06:14:16Z</time>
      </trkpt>
      <trkpt lat="47.82571" lon="6.58411">
        <ele>477.50665</ele>
        <time>2020-09-13T06:14:21Z</time>
      </trkpt>
      <trkpt lat="47.82552" lon="6.58424">
        <ele>478.545</ele>
        <time>2020-09-13T06:14:26Z</time>
      </trkpt>
      <trkpt lat="47.82535" lon="6.58444">
        <ele>478.66748</ele>
        <time>2020-09-13T06:14:31Z</time>
      </trkpt>
      <trkpt lat="47.82521" lon="6.58468">
        <ele>478.86484</ele>
        <time>2020-09-13T06:14:36Z</time>
      </trkpt>
      <trkpt lat="47.82511" lon="6.58493">
        <ele>479.72916</ele>
        <time>2020-09-13T06:14:41Z</time>
      </trkpt>
      <trkpt lat="47.82486" lon="6.5854">
        <ele>480.12085</ele>
        <time>2020-09-13T06:14:51Z</time>
      </trkpt>
      <trkpt lat="47.82451" lon="6.58584">
        <ele>479.966</ele>
        <time>2020-09-13T06:15:01Z</time>
      </trkpt>
      <trkpt lat="47.82427" lon="6.58603">
        <ele>479.02676</ele>
        <time>2020-09-13T06:15:06Z</time>
      </trkpt>
      <trkpt lat="47.82405" lon="6.58639">
        <ele>478.67456</ele>
        <time>2020-09-13T06:15:11Z</time>
      </trkpt>
      <trkpt lat="47.82393" lon="6.58672">
        <ele>479.24335</ele>
        <time>2020-09-13T06:15:16Z</time>
      </trkpt>
      <trkpt lat="47.82384" lon="6.58707">
        <ele>480.74637</ele>
        <time>2020-09-13T06:15:21Z</time>
      </trkpt>
      <trkpt lat="47.8237" lon="6.58739">
        <ele>480.34354</ele>
        <time>2020-09-13T06:15:26Z</time>
      </trkpt>
      <trkpt lat="47.82348" lon="6.58806">
        <ele>483.0998</ele>
        <time>2020-09-13T06:15:36Z</time>
      </trkpt>
      <trkpt lat="47.82311" lon="6.58854">
        <ele>478.95087</ele>
        <time>2020-09-13T06:15:46Z</time>
      </trkpt>
      <trkpt lat="47.82274" lon="6.58883">
        <ele>484.99283</ele>
        <time>2020-09-13T06:15:56Z</time>
      </trkpt>
      <trkpt lat="47.82261" lon="6.58914">
        <ele>486.75034</ele>
        <time>2020-09-13T06:16:01Z</time>
      </trkpt>
      <trkpt lat="47.82248" lon="6.58942">
        <ele>488.73178</ele>
        <time>2020-09-13T06:16:06Z</time>
      </trkpt>
      <trkpt lat="47.82235" lon="6.58973">
        <ele>479.8658</ele>
        <time>2020-09-13T06:16:11Z</time>
      </trkpt>
      <trkpt lat="47.82218" lon="6.59004">
        <ele>489.79495</ele>
        <time>2020-09-13T06:16:16Z</time>
      </trkpt>
      <trkpt lat="47.822" lon="6.59036">
        <ele>490.01166</ele>
        <time>2020-09-13T06:16:21Z</time>
      </trkpt>
      <trkpt lat="47.8217" lon="6.59102">
        <ele>492.5139</ele>
        <time>2020-09-13T06:16:31Z</time>
      </trkpt>
      <trkpt lat="47.82148" lon="6.5916">
        <ele>493.54587</ele>
        <time>2020-09-13T06:16:41Z</time>
      </trkpt>
      <trkpt lat="47.82137" lon="6.59189">
        <ele>494.83817</ele>
        <time>2020-09-13T06:16:46Z</time>
      </trkpt>
      <trkpt lat="47.82131" lon="6.59208">
        <ele>495.98773</ele>
        <time>2020-09-13T06:16:51Z</time>
      </trkpt>
      <trkpt lat="47.82127" lon="6.59224">
        <ele>496.20145</ele>
        <time>2020-09-13T06:16:56Z</time>
      </trkpt>
      <trkpt lat="47.82124" lon="6.5924">
        <ele>495.9624</ele>
        <time>2020-09-13T06:17:01Z</time>
      </trkpt>
      <trkpt lat="47.82121" lon="6.59257">
        <ele>496.0009</ele>
        <time>2020-09-13T06:17:06Z</time>
      </trkpt>
      <trkpt lat="47.82119" lon="6.59282">
        <ele>494.7936</ele>
        <time>2020-09-13T06:17:16Z</time>
      </trkpt>
      <trkpt lat="47.82118" lon="6.59288">
        <ele>493.159</ele>
        <time>2020-09-13T06:17:30Z</time>
      </trkpt>
      <trkpt lat="47.82118" lon="6.59296">
        <ele>492.74683</ele>
        <time>2020-09-13T06:17:41Z</time>
      </trkpt>
      <trkpt lat="47.82114" lon="6.59305">
        <ele>491.57614</ele>
        <time>2020-09-13T06:17:51Z</time>
      </trkpt>
      <trkpt lat="47.82107" lon="6.5933">
        <ele>491.9012</ele>
        <time>2020-09-13T06:17:56Z</time>
      </trkpt>
      <trkpt lat="47.821" lon="6.59369">
        <ele>492.16452</ele>
        <time>2020-09-13T06:18:01Z</time>
      </trkpt>
      <trkpt lat="47.82066" lon="6.59453">
        <ele>488.0048</ele>
        <time>2020-09-13T06:18:11Z</time>
      </trkpt>
      <trkpt lat="47.81998" lon="6.59558">
        <ele>482.74146</ele>
        <time>2020-09-13T06:18:21Z</time>
      </trkpt>
      <trkpt lat="47.81991" lon="6.59625">
        <ele>482.788</ele>
        <time>2020-09-13T06:18:26Z</time>
      </trkpt>
      <trkpt lat="47.8198" lon="6.59682">
        <ele>483.29718</ele>
        <time>2020-09-13T06:18:31Z</time>
      </trkpt>
      <trkpt lat="47.81965" lon="6.59739">
        <ele>482.84772</ele>
        <time>2020-09-13T06:18:36Z</time>
      </trkpt>
      <trkpt lat="47.81955" lon="6.59811">
        <ele>482.81534</ele>
        <time>2020-09-13T06:18:41Z</time>
      </trkpt>
      <trkpt lat="47.81938" lon="6.59882">
        <ele>482.1746</ele>
        <time>2020-09-13T06:18:46Z</time>
      </trkpt>
      <trkpt lat="47.81922" lon="6.60015">
        <ele>479.1128</ele>
        <time>2020-09-13T06:18:56Z</time>
      </trkpt>
      <trkpt lat="47.81886" lon="6.60158">
        <ele>471.36557</ele>
        <time>2020-09-13T06:19:06Z</time>
      </trkpt>
      <trkpt lat="47.81864" lon="6.60224">
        <ele>467.58502</ele>
        <time>2020-09-13T06:19:11Z</time>
      </trkpt>
      <trkpt lat="47.81837" lon="6.60277">
        <ele>464.07516</ele>
        <time>2020-09-13T06:19:16Z</time>
      </trkpt>
      <trkpt lat="47.81799" lon="6.60267">
        <ele>459.67194</ele>
        <time>2020-09-13T06:19:21Z</time>
      </trkpt>
      <trkpt lat="47.81745" lon="6.60296">
        <ele>457.5404</ele>
        <time>2020-09-13T06:19:26Z</time>
      </trkpt>
      <trkpt lat="47.81701" lon="6.60333">
        <ele>457.1036</ele>
        <time>2020-09-13T06:19:31Z</time>
      </trkpt>
      <trkpt lat="47.81647" lon="6.60443">
        <ele>455.586</ele>
        <time>2020-09-13T06:19:41Z</time>
      </trkpt>
      <trkpt lat="47.8161" lon="6.60535">
        <ele>458.27145</ele>
        <time>2020-09-13T06:19:51Z</time>
      </trkpt>
      <trkpt lat="47.81606" lon="6.60574">
        <ele>455.2908</ele>
        <time>2020-09-13T06:19:56Z</time>
      </trkpt>
      <trkpt lat="47.81611" lon="6.60606">
        <ele>456.07233</ele>
        <time>2020-09-13T06:20:01Z</time>
      </trkpt>
      <trkpt lat="47.81624" lon="6.60635">
        <ele>457.34424</ele>
        <time>2020-09-13T06:20:06Z</time>
      </trkpt>
      <trkpt lat="47.81636" lon="6.60662">
        <ele>461.30206</ele>
        <time>2020-09-13T06:20:11Z</time>
      </trkpt>
      <trkpt lat="47.8164" lon="6.60687">
        <ele>462.55505</ele>
        <time>2020-09-13T06:20:16Z</time>
      </trkpt>
      <trkpt lat="47.81634" lon="6.60713">
        <ele>463.31155</ele>
        <time>2020-09-13T06:20:21Z</time>
      </trkpt>
      <trkpt lat="47.81627" lon="6.60733">
        <ele>461.9432</ele>
        <time>2020-09-13T06:20:26Z</time>
      </trkpt>
      <trkpt lat="47.81611" lon="6.60768">
        <ele>464.70425</ele>
        <time>2020-09-13T06:20:36Z</time>
      </trkpt>
      <trkpt lat="47.81598" lon="6.60795">
        <ele>467.7499</ele>
        <time>2020-09-13T06:20:46Z</time>
      </trkpt>
      <trkpt lat="47.81588" lon="6.60813">
        <ele>468.33765</ele>
        <time>2020-09-13T06:20:51Z</time>
      </trkpt>
      <trkpt lat="47.81582" lon="6.60834">
        <ele>471.31094</ele>
        <time>2020-09-13T06:20:56Z</time>
      </trkpt>
      <trkpt lat="47.81578" lon="6.60849">
        <ele>472.68796</ele>
        <time>2020-09-13T06:21:01Z</time>
      </trkpt>
      <trkpt lat="47.81577" lon="6.60869">
        <ele>473.40936</ele>
        <time>2020-09-13T06:21:06Z</time>
      </trkpt>
      <trkpt lat="47.81583" lon="6.60885">
        <ele>474.6732</ele>
        <time>2020-09-13T06:21:11Z</time>
      </trkpt>
      <trkpt lat="47.81607" lon="6.60887">
        <ele>480.67957</ele>
        <time>2020-09-13T06:21:21Z</time>
      </trkpt>
      <trkpt lat="47.81625" lon="6.60914">
        <ele>483.83673</ele>
        <time>2020-09-13T06:21:31Z</time>
      </trkpt>
      <trkpt lat="47.81628" lon="6.60934">
        <ele>484.99384</ele>
        <time>2020-09-13T06:21:36Z</time>
      </trkpt>
      <trkpt lat="47.81624" lon="6.60951">
        <ele>486.3646</ele>
        <time>2020-09-13T06:21:41Z</time>
      </trkpt>
      <trkpt lat="47.81619" lon="6.60966">
        <ele>486.74628</ele>
        <time>2020-09-13T06:21:46Z</time>
      </trkpt>
      <trkpt lat="47.81611" lon="6.60984">
        <ele>489.21576</ele>
        <time>2020-09-13T06:21:51Z</time>
      </trkpt>
      <trkpt lat="47.81602" lon="6.61001">
        <ele>488.6761</ele>
        <time>2020-09-13T06:21:56Z</time>
      </trkpt>
      <trkpt lat="47.81588" lon="6.61044">
        <ele>491.25006</ele>
        <time>2020-09-13T06:22:06Z</time>
      </trkpt>
      <trkpt lat="47.81589" lon="6.61082">
        <ele>496.03836</ele>
        <time>2020-09-13T06:22:16Z</time>
      </trkpt>
      <trkpt lat="47.81587" lon="6.61106">
        <ele>489.55194</ele>
        <time>2020-09-13T06:22:21Z</time>
      </trkpt>
      <trkpt lat="47.81585" lon="6.61127">
        <ele>497.52023</ele>
        <time>2020-09-13T06:22:26Z</time>
      </trkpt>
      <trkpt lat="47.81583" lon="6.61149">
        <ele>498.7601</ele>
        <time>2020-09-13T06:22:31Z</time>
      </trkpt>
      <trkpt lat="47.81581" lon="6.61172">
        <ele>495.29495</ele>
        <time>2020-09-13T06:22:36Z</time>
      </trkpt>
      <trkpt lat="47.81579" lon="6.61198">
        <ele>498.41367</ele>
        <time>2020-09-13T06:22:41Z</time>
      </trkpt>
      <trkpt lat="47.81575" lon="6.61251">
        <ele>500.51465</ele>
        <time>2020-09-13T06:22:51Z</time>
      </trkpt>
      <trkpt lat="47.81572" lon="6.61305">
        <ele>502.21567</ele>
        <time>2020-09-13T06:23:01Z</time>
      </trkpt>
      <trkpt lat="47.81563" lon="6.61359">
        <ele>503.1407</ele>
        <time>2020-09-13T06:23:11Z</time>
      </trkpt>
      <trkpt lat="47.81561" lon="6.61388">
        <ele>504.5511</ele>
        <time>2020-09-13T06:23:16Z</time>
      </trkpt>
      <trkpt lat="47.81554" lon="6.61421">
        <ele>505.92914</ele>
        <time>2020-09-13T06:23:21Z</time>
      </trkpt>
      <trkpt lat="47.81553" lon="6.61451">
        <ele>506.7084</ele>
        <time>2020-09-13T06:23:26Z</time>
      </trkpt>
      <trkpt lat="47.81561" lon="6.61493">
        <ele>506.83</ele>
        <time>2020-09-13T06:23:31Z</time>
      </trkpt>
      <trkpt lat="47.81571" lon="6.61529">
        <ele>506.71548</ele>
        <time>2020-09-13T06:23:36Z</time>
      </trkpt>
      <trkpt lat="47.81591" lon="6.61621">
        <ele>506.36182</ele>
        <time>2020-09-13T06:23:46Z</time>
      </trkpt>
      <trkpt lat="47.81622" lon="6.61704">
        <ele>505.47314</ele>
        <time>2020-09-13T06:23:56Z</time>
      </trkpt>
      <trkpt lat="47.8164" lon="6.61743">
        <ele>506.54526</ele>
        <time>2020-09-13T06:24:01Z</time>
      </trkpt>
      <trkpt lat="47.81655" lon="6.61781">
        <ele>506.8827</ele>
        <time>2020-09-13T06:24:06Z</time>
      </trkpt>
      <trkpt lat="47.81654" lon="6.61827">
        <ele>505.98285</ele>
        <time>2020-09-13T06:24:11Z</time>
      </trkpt>
      <trkpt lat="47.81639" lon="6.61863">
        <ele>507.26575</ele>
        <time>2020-09-13T06:24:16Z</time>
      </trkpt>
      <trkpt lat="47.81625" lon="6.6189">
        <ele>505.98285</ele>
        <time>2020-09-13T06:24:21Z</time>
      </trkpt>
      <trkpt lat="47.81575" lon="6.61957">
        <ele>504.086</ele>
        <time>2020-09-13T06:24:31Z</time>
      </trkpt>
      <trkpt lat="47.81525" lon="6.62042">
        <ele>501.77597</ele>
        <time>2020-09-13T06:24:41Z</time>
      </trkpt>
      <trkpt lat="47.81508" lon="6.62095">
        <ele>501.7709</ele>
        <time>2020-09-13T06:24:46Z</time>
      </trkpt>
      <trkpt lat="47.8149" lon="6.62147">
        <ele>501.73544</ele>
        <time>2020-09-13T06:24:51Z</time>
      </trkpt>
      <trkpt lat="47.81466" lon="6.62191">
        <ele>499.65964</ele>
        <time>2020-09-13T06:24:56Z</time>
      </trkpt>
      <trkpt lat="47.81428" lon="6.62232">
        <ele>498.25766</ele>
        <time>2020-09-13T06:25:01Z</time>
      </trkpt>
      <trkpt lat="47.81392" lon="6.62268">
        <ele>498.4785</ele>
        <time>2020-09-13T06:25:06Z</time>
      </trkpt>
      <trkpt lat="47.81342" lon="6.62343">
        <ele>499.7883</ele>
        <time>2020-09-13T06:25:16Z</time>
      </trkpt>
      <trkpt lat="47.81292" lon="6.62453">
        <ele>494.31656</ele>
        <time>2020-09-13T06:25:26Z</time>
      </trkpt>
      <trkpt lat="47.81276" lon="6.62576">
        <ele>490.83792</ele>
        <time>2020-09-13T06:25:36Z</time>
      </trkpt>
      <trkpt lat="47.81272" lon="6.62639">
        <ele>489.41727</ele>
        <time>2020-09-13T06:25:41Z</time>
      </trkpt>
      <trkpt lat="47.81261" lon="6.62684">
        <ele>492.16046</ele>
        <time>2020-09-13T06:25:46Z</time>
      </trkpt>
      <trkpt lat="47.81257" lon="6.62726">
        <ele>491.6997</ele>
        <time>2020-09-13T06:25:51Z</time>
      </trkpt>
      <trkpt lat="47.81269" lon="6.62764">
        <ele>491.4536</ele>
        <time>2020-09-13T06:25:56Z</time>
      </trkpt>
      <trkpt lat="47.81288" lon="6.62803">
        <ele>492.4886</ele>
        <time>2020-09-13T06:26:01Z</time>
      </trkpt>
      <trkpt lat="47.81331" lon="6.62838">
        <ele>489.61877</ele>
        <time>2020-09-13T06:26:11Z</time>
      </trkpt>
      <trkpt lat="47.81335" lon="6.62929">
        <ele>492.26276</ele>
        <time>2020-09-13T06:26:21Z</time>
      </trkpt>
      <trkpt lat="47.81339" lon="6.62982">
        <ele>493.48206</ele>
        <time>2020-09-13T06:26:26Z</time>
      </trkpt>
      <trkpt lat="47.8134" lon="6.63033">
        <ele>493.12558</ele>
        <time>2020-09-13T06:26:31Z</time>
      </trkpt>
      <trkpt lat="47.81342" lon="6.63082">
        <ele>493.13974</ele>
        <time>2020-09-13T06:26:36Z</time>
      </trkpt>
      <trkpt lat="47.81345" lon="6.63129">
        <ele>493.79095</ele>
        <time>2020-09-13T06:26:41Z</time>
      </trkpt>
      <trkpt lat="47.81351" lon="6.63173">
        <ele>494.68118</ele>
        <time>2020-09-13T06:26:46Z</time>
      </trkpt>
      <trkpt lat="47.8138" lon="6.63247">
        <ele>496.56708</ele>
        <time>2020-09-13T06:26:56Z</time>
      </trkpt>
      <trkpt lat="47.81382" lon="6.63312">
        <ele>496.94086</ele>
        <time>2020-09-13T06:27:06Z</time>
      </trkpt>
      <trkpt lat="47.81384" lon="6.63334">
        <ele>490.98376</ele>
        <time>2020-09-13T06:27:11Z</time>
      </trkpt>
      <trkpt lat="47.81379" lon="6.63363">
        <ele>494.63458</ele>
        <time>2020-09-13T06:27:16Z</time>
      </trkpt>
      <trkpt lat="47.81377" lon="6.63384">
        <ele>496.37567</ele>
        <time>2020-09-13T06:27:21Z</time>
      </trkpt>
      <trkpt lat="47.81378" lon="6.63403">
        <ele>497.84033</ele>
        <time>2020-09-13T06:27:26Z</time>
      </trkpt>
      <trkpt lat="47.81376" lon="6.6342">
        <ele>499.88757</ele>
        <time>2020-09-13T06:27:31Z</time>
      </trkpt>
      <trkpt lat="47.81379" lon="6.63456">
        <ele>505.45898</ele>
        <time>2020-09-13T06:27:41Z</time>
      </trkpt>
      <trkpt lat="47.81392" lon="6.63493">
        <ele>504.3596</ele>
        <time>2020-09-13T06:27:51Z</time>
      </trkpt>
      <trkpt lat="47.81403" lon="6.6353">
        <ele>508.00247</ele>
        <time>2020-09-13T06:28:01Z</time>
      </trkpt>
      <trkpt lat="47.81425" lon="6.63585">
        <ele>511.10373</ele>
        <time>2020-09-13T06:28:30Z</time>
      </trkpt>
      <trkpt lat="47.81437" lon="6.63611">
        <ele>509.3017</ele>
        <time>2020-09-13T06:28:36Z</time>
      </trkpt>
      <trkpt lat="47.81462" lon="6.63707">
        <ele>510.2726</ele>
        <time>2020-09-13T06:28:46Z</time>
      </trkpt>
      <trkpt lat="47.81453" lon="6.63765">
        <ele>510.91418</ele>
        <time>2020-09-13T06:28:51Z</time>
      </trkpt>
      <trkpt lat="47.81452" lon="6.63829">
        <ele>511.4027</ele>
        <time>2020-09-13T06:28:56Z</time>
      </trkpt>
      <trkpt lat="47.81445" lon="6.63876">
        <ele>508.37845</ele>
        <time>2020-09-13T06:29:01Z</time>
      </trkpt>
      <trkpt lat="47.8144" lon="6.63909">
        <ele>508.93686</ele>
        <time>2020-09-13T06:29:06Z</time>
      </trkpt>
      <trkpt lat="47.81435" lon="6.63947">
        <ele>511.81827</ele>
        <time>2020-09-13T06:29:11Z</time>
      </trkpt>
      <trkpt lat="47.81448" lon="6.64063">
        <ele>513.9621</ele>
        <time>2020-09-13T06:29:21Z</time>
      </trkpt>
      <trkpt lat="47.81432" lon="6.64119">
        <ele>513.0549</ele>
        <time>2020-09-13T06:29:31Z</time>
      </trkpt>
      <trkpt lat="47.81425" lon="6.64139">
        <ele>514.177</ele>
        <time>2020-09-13T06:29:36Z</time>
      </trkpt>
      <trkpt lat="47.81418" lon="6.64162">
        <ele>514.7183</ele>
        <time>2020-09-13T06:29:41Z</time>
      </trkpt>
      <trkpt lat="47.81418" lon="6.64188">
        <ele>516.01184</ele>
        <time>2020-09-13T06:29:46Z</time>
      </trkpt>
      <trkpt lat="47.81418" lon="6.64211">
        <ele>513.7381</ele>
        <time>2020-09-13T06:29:51Z</time>
      </trkpt>
      <trkpt lat="47.8142" lon="6.6423">
        <ele>514.8542</ele>
        <time>2020-09-13T06:29:56Z</time>
      </trkpt>
      <trkpt lat="47.81426" lon="6.64276">
        <ele>519.51575</ele>
        <time>2020-09-13T06:30:06Z</time>
      </trkpt>
      <trkpt lat="47.81435" lon="6.64316">
        <ele>524.13666</ele>
        <time>2020-09-13T06:30:16Z</time>
      </trkpt>
      <trkpt lat="47.81432" lon="6.64362">
        <ele>526.7736</ele>
        <time>2020-09-13T06:30:26Z</time>
      </trkpt>
      <trkpt lat="47.81431" lon="6.64384">
        <ele>528.5263</ele>
        <time>2020-09-13T06:30:31Z</time>
      </trkpt>
      <trkpt lat="47.81435" lon="6.64412">
        <ele>530.9091</ele>
        <time>2020-09-13T06:30:36Z</time>
      </trkpt>
      <trkpt lat="47.81438" lon="6.64442">
        <ele>530.38464</ele>
        <time>2020-09-13T06:30:41Z</time>
      </trkpt>
      <trkpt lat="47.81441" lon="6.64475">
        <ele>531.44476</ele>
        <time>2020-09-13T06:30:46Z</time>
      </trkpt>
      <trkpt lat="47.81451" lon="6.64506">
        <ele>533.44543</ele>
        <time>2020-09-13T06:30:51Z</time>
      </trkpt>
      <trkpt lat="47.81464" lon="6.64568">
        <ele>531.54926</ele>
        <time>2020-09-13T06:31:01Z</time>
      </trkpt>
      <trkpt lat="47.81473" lon="6.64645">
        <ele>532.29694</ele>
        <time>2020-09-13T06:31:11Z</time>
      </trkpt>
      <trkpt lat="47.81482" lon="6.64685">
        <ele>533.4728</ele>
        <time>2020-09-13T06:31:16Z</time>
      </trkpt>
      <trkpt lat="47.81492" lon="6.64721">
        <ele>533.4099</ele>
        <time>2020-09-13T06:31:21Z</time>
      </trkpt>
      <trkpt lat="47.81495" lon="6.64759">
        <ele>530.3025</ele>
        <time>2020-09-13T06:31:26Z</time>
      </trkpt>
      <trkpt lat="47.81496" lon="6.6479">
        <ele>529.5792</ele>
        <time>2020-09-13T06:31:31Z</time>
      </trkpt>
      <trkpt lat="47.81493" lon="6.64823">
        <ele>532.46533</ele>
        <time>2020-09-13T06:31:36Z</time>
      </trkpt>
      <trkpt lat="47.81491" lon="6.64898">
        <ele>534.9957</ele>
        <time>2020-09-13T06:31:46Z</time>
      </trkpt>
      <trkpt lat="47.81498" lon="6.64986">
        <ele>537.3447</ele>
        <time>2020-09-13T06:31:56Z</time>
      </trkpt>
      <trkpt lat="47.81503" lon="6.65024">
        <ele>537.68976</ele>
        <time>2020-09-13T06:32:01Z</time>
      </trkpt>
      <trkpt lat="47.81511" lon="6.65073">
        <ele>534.60913</ele>
        <time>2020-09-13T06:32:06Z</time>
      </trkpt>
      <trkpt lat="47.81531" lon="6.65118">
        <ele>534.78876</ele>
        <time>2020-09-13T06:32:11Z</time>
      </trkpt>
      <trkpt lat="47.81551" lon="6.65157">
        <ele>534.77856</ele>
        <time>2020-09-13T06:32:16Z</time>
      </trkpt>
      <trkpt lat="47.81566" lon="6.65201">
        <ele>534.66394</ele>
        <time>2020-09-13T06:32:21Z</time>
      </trkpt>
      <trkpt lat="47.81566" lon="6.65292">
        <ele>534.02167</ele>
        <time>2020-09-13T06:32:31Z</time>
      </trkpt>
      <trkpt lat="47.81548" lon="6.65383">
        <ele>534.6223</ele>
        <time>2020-09-13T06:32:41Z</time>
      </trkpt>
      <trkpt lat="47.81548" lon="6.65478">
        <ele>534.05414</ele>
        <time>2020-09-13T06:32:51Z</time>
      </trkpt>
      <trkpt lat="47.81538" lon="6.65519">
        <ele>531.3697</ele>
        <time>2020-09-13T06:32:56Z</time>
      </trkpt>
      <trkpt lat="47.81527" lon="6.6557">
        <ele>528.04956</ele>
        <time>2020-09-13T06:33:01Z</time>
      </trkpt>
      <trkpt lat="47.81531" lon="6.65632">
        <ele>523.25745</ele>
        <time>2020-09-13T06:33:06Z</time>
      </trkpt>
      <trkpt lat="47.81534" lon="6.65693">
        <ele>520.5956</ele>
        <time>2020-09-13T06:33:11Z</time>
      </trkpt>
      <trkpt lat="47.81539" lon="6.6576">
        <ele>514.9271</ele>
        <time>2020-09-13T06:33:16Z</time>
      </trkpt>
      <trkpt lat="47.81582" lon="6.65896">
        <ele>505.8055</ele>
        <time>2020-09-13T06:33:26Z</time>
      </trkpt>
      <trkpt lat="47.81588" lon="6.6602">
        <ele>508.86084</ele>
        <time>2020-09-13T06:33:36Z</time>
      </trkpt>
      <trkpt lat="47.81575" lon="6.66071">
        <ele>503.84183</ele>
        <time>2020-09-13T06:33:41Z</time>
      </trkpt>
      <trkpt lat="47.81578" lon="6.66121">
        <ele>505.4468</ele>
        <time>2020-09-13T06:33:46Z</time>
      </trkpt>
      <trkpt lat="47.81577" lon="6.66168">
        <ele>508.07138</ele>
        <time>2020-09-13T06:33:51Z</time>
      </trkpt>
      <trkpt lat="47.81578" lon="6.66212">
        <ele>510.14188</ele>
        <time>2020-09-13T06:33:56Z</time>
      </trkpt>
      <trkpt lat="47.81581" lon="6.66253">
        <ele>513.1684</ele>
        <time>2020-09-13T06:34:01Z</time>
      </trkpt>
      <trkpt lat="47.816" lon="6.66327">
        <ele>512.99915</ele>
        <time>2020-09-13T06:34:11Z</time>
      </trkpt>
      <trkpt lat="47.81618" lon="6.6639">
        <ele>506.27975</ele>
        <time>2020-09-13T06:34:21Z</time>
      </trkpt>
      <trkpt lat="47.81622" lon="6.66417">
        <ele>511.25372</ele>
        <time>2020-09-13T06:34:26Z</time>
      </trkpt>
      <trkpt lat="47.81624" lon="6.66441">
        <ele>511.6267</ele>
        <time>2020-09-13T06:34:31Z</time>
      </trkpt>
      <trkpt lat="47.81623" lon="6.66461">
        <ele>511.127</ele>
        <time>2020-09-13T06:34:36Z</time>
      </trkpt>
      <trkpt lat="47.81606" lon="6.66483">
        <ele>509.68985</ele>
        <time>2020-09-13T06:34:41Z</time>
      </trkpt>
      <trkpt lat="47.81582" lon="6.66517">
        <ele>505.01517</ele>
        <time>2020-09-13T06:34:46Z</time>
      </trkpt>
      <trkpt lat="47.81575" lon="6.66628">
        <ele>495.929</ele>
        <time>2020-09-13T06:34:56Z</time>
      </trkpt>
      <trkpt lat="47.81589" lon="6.66742">
        <ele>484.39554</ele>
        <time>2020-09-13T06:35:06Z</time>
      </trkpt>
      <trkpt lat="47.8157" lon="6.66805">
        <ele>477.41153</ele>
        <time>2020-09-13T06:35:11Z</time>
      </trkpt>
      <trkpt lat="47.81553" lon="6.66871">
        <ele>470.84454</ele>
        <time>2020-09-13T06:35:16Z</time>
      </trkpt>
      <trkpt lat="47.81519" lon="6.6693">
        <ele>466.72318</ele>
        <time>2020-09-13T06:35:21Z</time>
      </trkpt>
      <trkpt lat="47.81496" lon="6.6699">
        <ele>461.0219</ele>
        <time>2020-09-13T06:35:26Z</time>
      </trkpt>
      <trkpt lat="47.81474" lon="6.67045">
        <ele>457.41907</ele>
        <time>2020-09-13T06:35:31Z</time>
      </trkpt>
      <trkpt lat="47.81439" lon="6.67116">
        <ele>451.28757</ele>
        <time>2020-09-13T06:35:36Z</time>
      </trkpt>
      <trkpt lat="47.81412" lon="6.67186">
        <ele>450.53552</ele>
        <time>2020-09-13T06:35:41Z</time>
      </trkpt>
      <trkpt lat="47.81349" lon="6.67285">
        <ele>444.24118</ele>
        <time>2020-09-13T06:35:51Z</time>
      </trkpt>
      <trkpt lat="47.81278" lon="6.67362">
        <ele>436.5354</ele>
        <time>2020-09-13T06:36:01Z</time>
      </trkpt>
      <trkpt lat="47.81242" lon="6.67423">
        <ele>431.69223</ele>
        <time>2020-09-13T06:36:06Z</time>
      </trkpt>
      <trkpt lat="47.81216" lon="6.67493">
        <ele>429.6785</ele>
        <time>2020-09-13T06:36:11Z</time>
      </trkpt>
      <trkpt lat="47.81197" lon="6.67567">
        <ele>427.3994</ele>
        <time>2020-09-13T06:36:16Z</time>
      </trkpt>
      <trkpt lat="47.81187" lon="6.6764">
        <ele>427.46808</ele>
        <time>2020-09-13T06:36:21Z</time>
      </trkpt>
      <trkpt lat="47.81176" lon="6.67697">
        <ele>425.24472</ele>
        <time>2020-09-13T06:36:26Z</time>
      </trkpt>
      <trkpt lat="47.81209" lon="6.67772">
        <ele>414.84784</ele>
        <time>2020-09-13T06:36:36Z</time>
      </trkpt>
      <trkpt lat="47.8125" lon="6.67841">
        <ele>420.01538</ele>
        <time>2020-09-13T06:36:46Z</time>
      </trkpt>
      <trkpt lat="47.81271" lon="6.67876">
        <ele>417.4557</ele>
        <time>2020-09-13T06:36:51Z</time>
      </trkpt>
      <trkpt lat="47.81286" lon="6.6792">
        <ele>423.21747</ele>
        <time>2020-09-13T06:36:56Z</time>
      </trkpt>
      <trkpt lat="47.81295" lon="6.67962">
        <ele>425.28207</ele>
        <time>2020-09-13T06:37:01Z</time>
      </trkpt>
      <trkpt lat="47.81263" lon="6.67999">
        <ele>425.2205</ele>
        <time>2020-09-13T06:37:06Z</time>
      </trkpt>
      <trkpt lat="47.81234" lon="6.68021">
        <ele>424.0039</ele>
        <time>2020-09-13T06:37:11Z</time>
      </trkpt>
      <trkpt lat="47.81221" lon="6.68077">
        <ele>418.61942</ele>
        <time>2020-09-13T06:37:21Z</time>
      </trkpt>
      <trkpt lat="47.81167" lon="6.68083">
        <ele>409.03577</ele>
        <time>2020-09-13T06:37:31Z</time>
      </trkpt>
      <trkpt lat="47.81138" lon="6.68084">
        <ele>409.8732</ele>
        <time>2020-09-13T06:37:36Z</time>
      </trkpt>
      <trkpt lat="47.81109" lon="6.68088">
        <ele>413.42798</ele>
        <time>2020-09-13T06:37:41Z</time>
      </trkpt>
      <trkpt lat="47.81078" lon="6.68099">
        <ele>406.4168</ele>
        <time>2020-09-13T06:37:46Z</time>
      </trkpt>
      <trkpt lat="47.81054" lon="6.68113">
        <ele>406.46524</ele>
        <time>2020-09-13T06:37:51Z</time>
      </trkpt>
      <trkpt lat="47.81028" lon="6.68126">
        <ele>407.22485</ele>
        <time>2020-09-13T06:37:56Z</time>
      </trkpt>
      <trkpt lat="47.81001" lon="6.68128">
        <ele>410.8408</ele>
        <time>2020-09-13T06:38:01Z</time>
      </trkpt>
      <trkpt lat="47.80975" lon="6.68121">
        <ele>412.0405</ele>
        <time>2020-09-13T06:38:06Z</time>
      </trkpt>
      <trkpt lat="47.80937" lon="6.6808">
        <ele>407.19763</ele>
        <time>2020-09-13T06:38:16Z</time>
      </trkpt>
      <trkpt lat="47.80896" lon="6.68024">
        <ele>417.34567</ele>
        <time>2020-09-13T06:38:26Z</time>
      </trkpt>
      <trkpt lat="47.80875" lon="6.68009">
        <ele>416.06696</ele>
        <time>2020-09-13T06:38:31Z</time>
      </trkpt>
      <trkpt lat="47.80844" lon="6.68009">
        <ele>414.69547</ele>
        <time>2020-09-13T06:38:36Z</time>
      </trkpt>
      <trkpt lat="47.80822" lon="6.68043">
        <ele>416.29807</ele>
        <time>2020-09-13T06:38:41Z</time>
      </trkpt>
      <trkpt lat="47.80824" lon="6.68075">
        <ele>417.57275</ele>
        <time>2020-09-13T06:38:46Z</time>
      </trkpt>
      <trkpt lat="47.80829" lon="6.68099">
        <ele>410.29895</ele>
        <time>2020-09-13T06:38:51Z</time>
      </trkpt>
      <trkpt lat="47.80837" lon="6.68147">
        <ele>410.4947</ele>
        <time>2020-09-13T06:39:01Z</time>
      </trkpt>
      <trkpt lat="47.80855" lon="6.68181">
        <ele>415.20914</ele>
        <time>2020-09-13T06:39:11Z</time>
      </trkpt>
      <trkpt lat="47.80862" lon="6.68196">
        <ele>415.24847</ele>
        <time>2020-09-13T06:39:16Z</time>
      </trkpt>
      <trkpt lat="47.80864" lon="6.68213">
        <ele>412.93958</ele>
        <time>2020-09-13T06:39:21Z</time>
      </trkpt>
      <trkpt lat="47.80858" lon="6.68233">
        <ele>421.11465</ele>
        <time>2020-09-13T06:39:26Z</time>
      </trkpt>
      <trkpt lat="47.80846" lon="6.68255">
        <ele>421.81018</ele>
        <time>2020-09-13T06:39:31Z</time>
      </trkpt>
      <trkpt lat="47.80828" lon="6.68261">
        <ele>421.49826</ele>
        <time>2020-09-13T06:39:36Z</time>
      </trkpt>
      <trkpt lat="47.80813" lon="6.68259">
        <ele>424.1816</ele>
        <time>2020-09-13T06:39:41Z</time>
      </trkpt>
      <trkpt lat="47.80792" lon="6.68263">
        <ele>422.8853</ele>
        <time>2020-09-13T06:39:46Z</time>
      </trkpt>
      <trkpt lat="47.80756" lon="6.68267">
        <ele>424.68237</ele>
        <time>2020-09-13T06:39:56Z</time>
      </trkpt>
      <trkpt lat="47.80738" lon="6.6826">
        <ele>424.78232</ele>
        <time>2020-09-13T06:40:01Z</time>
      </trkpt>
      <trkpt lat="47.80715" lon="6.68251">
        <ele>425.24472</ele>
        <time>2020-09-13T06:40:06Z</time>
      </trkpt>
      <trkpt lat="47.80689" lon="6.68242">
        <ele>425.77783</ele>
        <time>2020-09-13T06:40:11Z</time>
      </trkpt>
      <trkpt lat="47.80668" lon="6.68224">
        <ele>427.046</ele>
        <time>2020-09-13T06:40:16Z</time>
      </trkpt>
      <trkpt lat="47.80648" lon="6.68206">
        <ele>428.31424</ele>
        <time>2020-09-13T06:40:21Z</time>
      </trkpt>
      <trkpt lat="47.80624" lon="6.68195">
        <ele>428.0073</ele>
        <time>2020-09-13T06:40:26Z</time>
      </trkpt>
      <trkpt lat="47.80603" lon="6.68189">
        <ele>428.5172</ele>
        <time>2020-09-13T06:40:31Z</time>
      </trkpt>
      <trkpt lat="47.80568" lon="6.68174">
        <ele>421.8546</ele>
        <time>2020-09-13T06:40:41Z</time>
      </trkpt>
      <trkpt lat="47.8055" lon="6.68204">
        <ele>427.90933</ele>
        <time>2020-09-13T06:40:51Z</time>
      </trkpt>
      <trkpt lat="47.80555" lon="6.68237">
        <ele>430.56415</ele>
        <time>2020-09-13T06:40:56Z</time>
      </trkpt>
      <trkpt lat="47.80553" lon="6.68265">
        <ele>431.70032</ele>
        <time>2020-09-13T06:41:01Z</time>
      </trkpt>
      <trkpt lat="47.80544" lon="6.68286">
        <ele>428.72928</ele>
        <time>2020-09-13T06:41:06Z</time>
      </trkpt>
      <trkpt lat="47.80533" lon="6.68308">
        <ele>429.64923</ele>
        <time>2020-09-13T06:41:11Z</time>
      </trkpt>
      <trkpt lat="47.80527" lon="6.68327">
        <ele>430.7419</ele>
        <time>2020-09-13T06:41:16Z</time>
      </trkpt>
      <trkpt lat="47.80513" lon="6.68381">
        <ele>435.82224</ele>
        <time>2020-09-13T06:41:26Z</time>
      </trkpt>
      <trkpt lat="47.80505" lon="6.68435">
        <ele>439.4307</ele>
        <time>2020-09-13T06:41:36Z</time>
      </trkpt>
      <trkpt lat="47.80509" lon="6.68464">
        <ele>439.4499</ele>
        <time>2020-09-13T06:41:41Z</time>
      </trkpt>
      <trkpt lat="47.8051" lon="6.68498">
        <ele>440.245</ele>
        <time>2020-09-13T06:41:46Z</time>
      </trkpt>
      <trkpt lat="47.80502" lon="6.68515">
        <ele>436.31216</ele>
        <time>2020-09-13T06:41:51Z</time>
      </trkpt>
      <trkpt lat="47.8049" lon="6.68524">
        <ele>439.9217</ele>
        <time>2020-09-13T06:41:56Z</time>
      </trkpt>
      <trkpt lat="47.80478" lon="6.68535">
        <ele>439.8924</ele>
        <time>2020-09-13T06:42:01Z</time>
      </trkpt>
      <trkpt lat="47.80455" lon="6.68564">
        <ele>440.39755</ele>
        <time>2020-09-13T06:42:11Z</time>
      </trkpt>
      <trkpt lat="47.80434" lon="6.68597">
        <ele>444.76263</ele>
        <time>2020-09-13T06:42:21Z</time>
      </trkpt>
      <trkpt lat="47.80424" lon="6.68621">
        <ele>446.83633</ele>
        <time>2020-09-13T06:42:26Z</time>
      </trkpt>
      <trkpt lat="47.80422" lon="6.68651">
        <ele>448.1542</ele>
        <time>2020-09-13T06:42:31Z</time>
      </trkpt>
      <trkpt lat="47.80417" lon="6.68676">
        <ele>448.64642</ele>
        <time>2020-09-13T06:42:36Z</time>
      </trkpt>
      <trkpt lat="47.80405" lon="6.68688">
        <ele>441.71304</ele>
        <time>2020-09-13T06:42:41Z</time>
      </trkpt>
      <trkpt lat="47.80392" lon="6.68696">
        <ele>443.89966</ele>
        <time>2020-09-13T06:42:46Z</time>
      </trkpt>
      <trkpt lat="47.80378" lon="6.68707">
        <ele>447.73782</ele>
        <time>2020-09-13T06:42:51Z</time>
      </trkpt>
      <trkpt lat="47.80365" lon="6.68721">
        <ele>450.36066</ele>
        <time>2020-09-13T06:42:56Z</time>
      </trkpt>
      <trkpt lat="47.80337" lon="6.68758">
        <ele>451.1228</ele>
        <time>2020-09-13T06:43:06Z</time>
      </trkpt>
      <trkpt lat="47.80306" lon="6.68784">
        <ele>452.50464</ele>
        <time>2020-09-13T06:43:16Z</time>
      </trkpt>
      <trkpt lat="47.80287" lon="6.68798">
        <ele>451.95978</ele>
        <time>2020-09-13T06:43:21Z</time>
      </trkpt>
      <trkpt lat="47.80268" lon="6.68812">
        <ele>451.65448</ele>
        <time>2020-09-13T06:43:26Z</time>
      </trkpt>
      <trkpt lat="47.80251" lon="6.68823">
        <ele>451.91327</ele>
        <time>2020-09-13T06:43:31Z</time>
      </trkpt>
      <trkpt lat="47.80233" lon="6.68833">
        <ele>452.84732</ele>
        <time>2020-09-13T06:43:36Z</time>
      </trkpt>
      <trkpt lat="47.80215" lon="6.68849">
        <ele>453.33963</ele>
        <time>2020-09-13T06:43:41Z</time>
      </trkpt>
      <trkpt lat="47.80175" lon="6.68882">
        <ele>455.43942</ele>
        <time>2020-09-13T06:43:51Z</time>
      </trkpt>
      <trkpt lat="47.8013" lon="6.68927">
        <ele>457.46356</ele>
        <time>2020-09-13T06:44:01Z</time>
      </trkpt>
      <trkpt lat="47.80111" lon="6.68948">
        <ele>459.19162</ele>
        <time>2020-09-13T06:44:06Z</time>
      </trkpt>
      <trkpt lat="47.80093" lon="6.68966">
        <ele>459.6952</ele>
        <time>2020-09-13T06:44:11Z</time>
      </trkpt>
      <trkpt lat="47.80076" lon="6.68994">
        <ele>458.6486</ele>
        <time>2020-09-13T06:44:16Z</time>
      </trkpt>
      <trkpt lat="47.80054" lon="6.69048">
        <ele>458.29874</ele>
        <time>2020-09-13T06:44:21Z</time>
      </trkpt>
      <trkpt lat="47.80033" lon="6.69104">
        <ele>456.68198</ele>
        <time>2020-09-13T06:44:26Z</time>
      </trkpt>
      <trkpt lat="47.79986" lon="6.69214">
        <ele>457.506</ele>
        <time>2020-09-13T06:44:36Z</time>
      </trkpt>
      <trkpt lat="47.79934" lon="6.69279">
        <ele>458.65567</ele>
        <time>2020-09-13T06:44:46Z</time>
      </trkpt>
      <trkpt lat="47.79918" lon="6.69322">
        <ele>457.2573</ele>
        <time>2020-09-13T06:44:51Z</time>
      </trkpt>
      <trkpt lat="47.79908" lon="6.69374">
        <ele>458.2937</ele>
        <time>2020-09-13T06:44:56Z</time>
      </trkpt>
      <trkpt lat="47.799" lon="6.69421">
        <ele>458.2037</ele>
        <time>2020-09-13T06:45:01Z</time>
      </trkpt>
      <trkpt lat="47.79887" lon="6.69459">
        <ele>457.77396</ele>
        <time>2020-09-13T06:45:06Z</time>
      </trkpt>
      <trkpt lat="47.79877" lon="6.69492">
        <ele>458.67792</ele>
        <time>2020-09-13T06:45:11Z</time>
      </trkpt>
      <trkpt lat="47.79869" lon="6.69524">
        <ele>459.92575</ele>
        <time>2020-09-13T06:45:16Z</time>
      </trkpt>
      <trkpt lat="47.79854" lon="6.69559">
        <ele>460.78226</ele>
        <time>2020-09-13T06:45:21Z</time>
      </trkpt>
      <trkpt lat="47.79831" lon="6.69596">
        <ele>451.39673</ele>
        <time>2020-09-13T06:45:31Z</time>
      </trkpt>
      <trkpt lat="47.79812" lon="6.69625">
        <ele>456.2553</ele>
        <time>2020-09-13T06:45:41Z</time>
      </trkpt>
      <trkpt lat="47.798" lon="6.69644">
        <ele>457.74667</ele>
        <time>2020-09-13T06:45:46Z</time>
      </trkpt>
      <trkpt lat="47.79786" lon="6.69664">
        <ele>461.20395</ele>
        <time>2020-09-13T06:45:51Z</time>
      </trkpt>
      <trkpt lat="47.7977" lon="6.69681">
        <ele>461.39914</ele>
        <time>2020-09-13T06:45:56Z</time>
      </trkpt>
      <trkpt lat="47.79748" lon="6.69701">
        <ele>463.13458</ele>
        <time>2020-09-13T06:46:01Z</time>
      </trkpt>
      <trkpt lat="47.7973" lon="6.69721">
        <ele>463.4744</ele>
        <time>2020-09-13T06:46:06Z</time>
      </trkpt>
      <trkpt lat="47.79705" lon="6.69775">
        <ele>463.11737</ele>
        <time>2020-09-13T06:46:16Z</time>
      </trkpt>
      <trkpt lat="47.79693" lon="6.69849">
        <ele>464.05896</ele>
        <time>2020-09-13T06:46:26Z</time>
      </trkpt>
      <trkpt lat="47.79686" lon="6.69885">
        <ele>463.172</ele>
        <time>2020-09-13T06:46:31Z</time>
      </trkpt>
      <trkpt lat="47.79683" lon="6.6993">
        <ele>461.9513</ele>
        <time>2020-09-13T06:46:36Z</time>
      </trkpt>
      <trkpt lat="47.79687" lon="6.69984">
        <ele>459.6982</ele>
        <time>2020-09-13T06:46:41Z</time>
      </trkpt>
      <trkpt lat="47.79691" lon="6.7004">
        <ele>460.16742</ele>
        <time>2020-09-13T06:46:46Z</time>
      </trkpt>
      <trkpt lat="47.79696" lon="6.70083">
        <ele>455.86404</ele>
        <time>2020-09-13T06:46:51Z</time>
      </trkpt>
      <trkpt lat="47.79719" lon="6.70156">
        <ele>460.8581</ele>
        <time>2020-09-13T06:47:01Z</time>
      </trkpt>
      <trkpt lat="47.79741" lon="6.70227">
        <ele>461.82083</ele>
        <time>2020-09-13T06:47:11Z</time>
      </trkpt>
      <trkpt lat="47.79749" lon="6.70259">
        <ele>462.55405</ele>
        <time>2020-09-13T06:47:16Z</time>
      </trkpt>
      <trkpt lat="47.79754" lon="6.7029">
        <ele>461.96243</ele>
        <time>2020-09-13T06:47:21Z</time>
      </trkpt>
      <trkpt lat="47.79759" lon="6.70317">
        <ele>462.5945</ele>
        <time>2020-09-13T06:47:26Z</time>
      </trkpt>
      <trkpt lat="47.79764" lon="6.70349">
        <ele>463.44</ele>
        <time>2020-09-13T06:47:31Z</time>
      </trkpt>
      <trkpt lat="47.79765" lon="6.70377">
        <ele>464.67798</ele>
        <time>2020-09-13T06:47:36Z</time>
      </trkpt>
      <trkpt lat="47.79768" lon="6.704">
        <ele>464.5141</ele>
        <time>2020-09-13T06:47:41Z</time>
      </trkpt>
      <trkpt lat="47.79767" lon="6.70428">
        <ele>466.10513</ele>
        <time>2020-09-13T06:47:46Z</time>
      </trkpt>
      <trkpt lat="47.79768" lon="6.70479">
        <ele>467.34326</ele>
        <time>2020-09-13T06:47:56Z</time>
      </trkpt>
      <trkpt lat="47.79778" lon="6.70526">
        <ele>469.74887</ele>
        <time>2020-09-13T06:48:06Z</time>
      </trkpt>
      <trkpt lat="47.79789" lon="6.70545">
        <ele>471.00742</ele>
        <time>2020-09-13T06:48:11Z</time>
      </trkpt>
      <trkpt lat="47.79802" lon="6.70561">
        <ele>470.14746</ele>
        <time>2020-09-13T06:48:16Z</time>
      </trkpt>
      <trkpt lat="47.79815" lon="6.70577">
        <ele>472.3996</ele>
        <time>2020-09-13T06:48:21Z</time>
      </trkpt>
      <trkpt lat="47.79826" lon="6.70594">
        <ele>473.96893</ele>
        <time>2020-09-13T06:48:26Z</time>
      </trkpt>
      <trkpt lat="47.79835" lon="6.70615">
        <ele>474.061</ele>
        <time>2020-09-13T06:48:31Z</time>
      </trkpt>
      <trkpt lat="47.79854" lon="6.70682">
        <ele>475.845</ele>
        <time>2020-09-13T06:48:41Z</time>
      </trkpt>
      <trkpt lat="47.79863" lon="6.70749">
        <ele>475.4989</ele>
        <time>2020-09-13T06:48:51Z</time>
      </trkpt>
      <trkpt lat="47.79874" lon="6.70796">
        <ele>475.86725</ele>
        <time>2020-09-13T06:48:56Z</time>
      </trkpt>
      <trkpt lat="47.7989" lon="6.70848">
        <ele>473.90417</ele>
        <time>2020-09-13T06:49:01Z</time>
      </trkpt>
      <trkpt lat="47.79908" lon="6.70894">
        <ele>465.02692</ele>
        <time>2020-09-13T06:49:06Z</time>
      </trkpt>
      <trkpt lat="47.79924" lon="6.70936">
        <ele>466.98315</ele>
        <time>2020-09-13T06:49:11Z</time>
      </trkpt>
      <trkpt lat="47.79933" lon="6.70967">
        <ele>470.66446</ele>
        <time>2020-09-13T06:49:16Z</time>
      </trkpt>
      <trkpt lat="47.79958" lon="6.71022">
        <ele>466.20428</ele>
        <time>2020-09-13T06:49:26Z</time>
      </trkpt>
      <trkpt lat="47.79984" lon="6.71084">
        <ele>470.713</ele>
        <time>2020-09-13T06:49:36Z</time>
      </trkpt>
      <trkpt lat="47.79997" lon="6.71107">
        <ele>472.02524</ele>
        <time>2020-09-13T06:49:41Z</time>
      </trkpt>
      <trkpt lat="47.80012" lon="6.71128">
        <ele>471.6772</ele>
        <time>2020-09-13T06:49:46Z</time>
      </trkpt>
      <trkpt lat="47.80027" lon="6.71156">
        <ele>471.6195</ele>
        <time>2020-09-13T06:49:51Z</time>
      </trkpt>
      <trkpt lat="47.80042" lon="6.71188">
        <ele>470.88803</ele>
        <time>2020-09-13T06:49:56Z</time>
      </trkpt>
      <trkpt lat="47.80052" lon="6.71214">
        <ele>465.04614</ele>
        <time>2020-09-13T06:50:01Z</time>
      </trkpt>
      <trkpt lat="47.80066" lon="6.71238">
        <ele>473.98715</ele>
        <time>2020-09-13T06:50:06Z</time>
      </trkpt>
      <trkpt lat="47.8008" lon="6.71267">
        <ele>474.87152</ele>
        <time>2020-09-13T06:50:11Z</time>
      </trkpt>
      <trkpt lat="47.80098" lon="6.71318">
        <ele>475.81158</ele>
        <time>2020-09-13T06:50:21Z</time>
      </trkpt>
      <trkpt lat="47.80111" lon="6.7139">
        <ele>478.28088</ele>
        <time>2020-09-13T06:50:31Z</time>
      </trkpt>
      <trkpt lat="47.80115" lon="6.71427">
        <ele>480.61276</ele>
        <time>2020-09-13T06:50:36Z</time>
      </trkpt>
      <trkpt lat="47.80122" lon="6.71455">
        <ele>477.85278</ele>
        <time>2020-09-13T06:50:41Z</time>
      </trkpt>
      <trkpt lat="47.80128" lon="6.71482">
        <ele>476.9298</ele>
        <time>2020-09-13T06:50:46Z</time>
      </trkpt>
      <trkpt lat="47.80135" lon="6.7151">
        <ele>482.34058</ele>
        <time>2020-09-13T06:50:51Z</time>
      </trkpt>
      <trkpt lat="47.80143" lon="6.71535">
        <ele>484.70734</ele>
        <time>2020-09-13T06:50:56Z</time>
      </trkpt>
      <trkpt lat="47.80164" lon="6.71584">
        <ele>486.234</ele>
        <time>2020-09-13T06:51:06Z</time>
      </trkpt>
      <trkpt lat="47.80189" lon="6.71623">
        <ele>488.0068</ele>
        <time>2020-09-13T06:51:16Z</time>
      </trkpt>
      <trkpt lat="47.80203" lon="6.71642">
        <ele>486.58127</ele>
        <time>2020-09-13T06:51:21Z</time>
      </trkpt>
      <trkpt lat="47.80214" lon="6.71659">
        <ele>487.51575</ele>
        <time>2020-09-13T06:51:26Z</time>
      </trkpt>
      <trkpt lat="47.80226" lon="6.71679">
        <ele>485.1872</ele>
        <time>2020-09-13T06:51:31Z</time>
      </trkpt>
      <trkpt lat="47.80238" lon="6.71697">
        <ele>478.963</ele>
        <time>2020-09-13T06:51:36Z</time>
      </trkpt>
      <trkpt lat="47.80251" lon="6.71711">
        <ele>482.23834</ele>
        <time>2020-09-13T06:51:41Z</time>
      </trkpt>
      <trkpt lat="47.80283" lon="6.71732">
        <ele>494.51</ele>
        <time>2020-09-13T06:51:51Z</time>
      </trkpt>
      <trkpt lat="47.80308" lon="6.71766">
        <ele>494.79257</ele>
        <time>2020-09-13T06:52:01Z</time>
      </trkpt>
      <trkpt lat="47.80319" lon="6.71787">
        <ele>498.2698</ele>
        <time>2020-09-13T06:52:06Z</time>
      </trkpt>
      <trkpt lat="47.8033" lon="6.71807">
        <ele>496.02823</ele>
        <time>2020-09-13T06:52:11Z</time>
      </trkpt>
      <trkpt lat="47.80342" lon="6.71825">
        <ele>493.73422</ele>
        <time>2020-09-13T06:52:16Z</time>
      </trkpt>
      <trkpt lat="47.80354" lon="6.71842">
        <ele>497.1475</ele>
        <time>2020-09-13T06:52:21Z</time>
      </trkpt>
      <trkpt lat="47.80364" lon="6.71862">
        <ele>497.3774</ele>
        <time>2020-09-13T06:52:26Z</time>
      </trkpt>
      <trkpt lat="47.80373" lon="6.71882">
        <ele>499.9595</ele>
        <time>2020-09-13T06:52:31Z</time>
      </trkpt>
      <trkpt lat="47.80379" lon="6.71898">
        <ele>498.8077</ele>
        <time>2020-09-13T06:52:36Z</time>
      </trkpt>
      <trkpt lat="47.80404" lon="6.71939">
        <ele>503.53278</ele>
        <time>2020-09-13T06:52:46Z</time>
      </trkpt>
      <trkpt lat="47.80427" lon="6.7198">
        <ele>505.7224</ele>
        <time>2020-09-13T06:52:56Z</time>
      </trkpt>
      <trkpt lat="47.80436" lon="6.71997">
        <ele>506.6547</ele>
        <time>2020-09-13T06:53:01Z</time>
      </trkpt>
      <trkpt lat="47.80447" lon="6.72015">
        <ele>507.86972</ele>
        <time>2020-09-13T06:53:06Z</time>
      </trkpt>
      <trkpt lat="47.80461" lon="6.72029">
        <ele>509.21658</ele>
        <time>2020-09-13T06:53:11Z</time>
      </trkpt>
      <trkpt lat="47.80478" lon="6.72044">
        <ele>510.2351</ele>
        <time>2020-09-13T06:53:16Z</time>
      </trkpt>
      <trkpt lat="47.80496" lon="6.72056">
        <ele>510.75912</ele>
        <time>2020-09-13T06:53:21Z</time>
      </trkpt>
      <trkpt lat="47.80527" lon="6.72074">
        <ele>512.5501</ele>
        <time>2020-09-13T06:53:31Z</time>
      </trkpt>
      <trkpt lat="47.80558" lon="6.72098">
        <ele>513.42487</ele>
        <time>2020-09-13T06:53:41Z</time>
      </trkpt>
      <trkpt lat="47.80571" lon="6.7212">
        <ele>514.6413</ele>
        <time>2020-09-13T06:53:46Z</time>
      </trkpt>
      <trkpt lat="47.80582" lon="6.72142">
        <ele>515.59924</ele>
        <time>2020-09-13T06:53:51Z</time>
      </trkpt>
      <trkpt lat="47.8059" lon="6.72166">
        <ele>516.7205</ele>
        <time>2020-09-13T06:53:56Z</time>
      </trkpt>
      <trkpt lat="47.80598" lon="6.72189">
        <ele>517.9604</ele>
        <time>2020-09-13T06:54:01Z</time>
      </trkpt>
      <trkpt lat="47.806" lon="6.72213">
        <ele>518.81915</ele>
        <time>2020-09-13T06:54:06Z</time>
      </trkpt>
      <trkpt lat="47.80596" lon="6.72264">
        <ele>517.8631</ele>
        <time>2020-09-13T06:54:16Z</time>
      </trkpt>
      <trkpt lat="47.80584" lon="6.72317">
        <ele>519.1507</ele>
        <time>2020-09-13T06:54:26Z</time>
      </trkpt>
      <trkpt lat="47.80586" lon="6.72349">
        <ele>524.24927</ele>
        <time>2020-09-13T06:54:31Z</time>
      </trkpt>
      <trkpt lat="47.80592" lon="6.72378">
        <ele>525.17114</ele>
        <time>2020-09-13T06:54:36Z</time>
      </trkpt>
      <trkpt lat="47.80604" lon="6.72401">
        <ele>526.1042</ele>
        <time>2020-09-13T06:54:41Z</time>
      </trkpt>
      <trkpt lat="47.80618" lon="6.72415">
        <ele>526.76953</ele>
        <time>2020-09-13T06:54:46Z</time>
      </trkpt>
      <trkpt lat="47.80629" lon="6.72435">
        <ele>527.53937</ele>
        <time>2020-09-13T06:54:51Z</time>
      </trkpt>
      <trkpt lat="47.80638" lon="6.72462">
        <ele>528.2717</ele>
        <time>2020-09-13T06:54:56Z</time>
      </trkpt>
      <trkpt lat="47.80652" lon="6.72485">
        <ele>528.75555</ele>
        <time>2020-09-13T06:55:01Z</time>
      </trkpt>
      <trkpt lat="47.80678" lon="6.7254">
        <ele>524.7188</ele>
        <time>2020-09-13T06:55:11Z</time>
      </trkpt>
      <trkpt lat="47.80672" lon="6.72608">
        <ele>532.00073</ele>
        <time>2020-09-13T06:55:21Z</time>
      </trkpt>
      <trkpt lat="47.80671" lon="6.72633">
        <ele>532.83563</ele>
        <time>2020-09-13T06:55:26Z</time>
      </trkpt>
      <trkpt lat="47.80671" lon="6.72663">
        <ele>533.9253</ele>
        <time>2020-09-13T06:55:31Z</time>
      </trkpt>
      <trkpt lat="47.8067" lon="6.72693">
        <ele>534.9653</ele>
        <time>2020-09-13T06:55:36Z</time>
      </trkpt>
      <trkpt lat="47.80666" lon="6.72724">
        <ele>535.428</ele>
        <time>2020-09-13T06:55:41Z</time>
      </trkpt>
      <trkpt lat="47.80662" lon="6.7275">
        <ele>536.3665</ele>
        <time>2020-09-13T06:55:46Z</time>
      </trkpt>
      <trkpt lat="47.80651" lon="6.72801">
        <ele>533.27295</ele>
        <time>2020-09-13T06:55:56Z</time>
      </trkpt>
      <trkpt lat="47.8065" lon="6.72853">
        <ele>538.21643</ele>
        <time>2020-09-13T06:56:06Z</time>
      </trkpt>
      <trkpt lat="47.8065" lon="6.72879">
        <ele>538.9531</ele>
        <time>2020-09-13T06:56:11Z</time>
      </trkpt>
      <trkpt lat="47.80655" lon="6.72909">
        <ele>539.6503</ele>
        <time>2020-09-13T06:56:16Z</time>
      </trkpt>
      <trkpt lat="47.80663" lon="6.72938">
        <ele>540.4399</ele>
        <time>2020-09-13T06:56:21Z</time>
      </trkpt>
      <trkpt lat="47.80671" lon="6.72966">
        <ele>541.1574</ele>
        <time>2020-09-13T06:56:26Z</time>
      </trkpt>
      <trkpt lat="47.80676" lon="6.72991">
        <ele>542.09015</ele>
        <time>2020-09-13T06:56:31Z</time>
      </trkpt>
      <trkpt lat="47.80681" lon="6.73046">
        <ele>542.88995</ele>
        <time>2020-09-13T06:56:41Z</time>
      </trkpt>
      <trkpt lat="47.80692" lon="6.73097">
        <ele>545.31494</ele>
        <time>2020-09-13T06:56:51Z</time>
      </trkpt>
      <trkpt lat="47.807" lon="6.73122">
        <ele>544.82666</ele>
        <time>2020-09-13T06:56:56Z</time>
      </trkpt>
      <trkpt lat="47.80713" lon="6.73144">
        <ele>546.51074</ele>
        <time>2020-09-13T06:57:01Z</time>
      </trkpt>
      <trkpt lat="47.80724" lon="6.73163">
        <ele>548.3899</ele>
        <time>2020-09-13T06:57:06Z</time>
      </trkpt>
      <trkpt lat="47.80735" lon="6.7318">
        <ele>549.13715</ele>
        <time>2020-09-13T06:57:11Z</time>
      </trkpt>
      <trkpt lat="47.80745" lon="6.732">
        <ele>549.5118</ele>
        <time>2020-09-13T06:57:16Z</time>
      </trkpt>
      <trkpt lat="47.80754" lon="6.7322">
        <ele>550.8114</ele>
        <time>2020-09-13T06:57:21Z</time>
      </trkpt>
      <trkpt lat="47.80766" lon="6.7324">
        <ele>551.26526</ele>
        <time>2020-09-13T06:57:26Z</time>
      </trkpt>
      <trkpt lat="47.8079" lon="6.73277">
        <ele>553.4809</ele>
        <time>2020-09-13T06:57:36Z</time>
      </trkpt>
      <trkpt lat="47.80813" lon="6.73316">
        <ele>554.4162</ele>
        <time>2020-09-13T06:57:46Z</time>
      </trkpt>
      <trkpt lat="47.80826" lon="6.73335">
        <ele>555.1545</ele>
        <time>2020-09-13T06:57:51Z</time>
      </trkpt>
      <trkpt lat="47.80839" lon="6.73356">
        <ele>550.5839</ele>
        <time>2020-09-13T06:57:56Z</time>
      </trkpt>
      <trkpt lat="47.80854" lon="6.73381">
        <ele>551.778</ele>
        <time>2020-09-13T06:58:01Z</time>
      </trkpt>
      <trkpt lat="47.80867" lon="6.73404">
        <ele>549.48535</ele>
        <time>2020-09-13T06:58:06Z</time>
      </trkpt>
      <trkpt lat="47.80879" lon="6.73425">
        <ele>555.6897</ele>
        <time>2020-09-13T06:58:11Z</time>
      </trkpt>
      <trkpt lat="47.80901" lon="6.73476">
        <ele>560.16986</ele>
        <time>2020-09-13T06:58:21Z</time>
      </trkpt>
      <trkpt lat="47.80923" lon="6.73526">
        <ele>558.12823</ele>
        <time>2020-09-13T06:58:31Z</time>
      </trkpt>
      <trkpt lat="47.80932" lon="6.73557">
        <ele>556.7571</ele>
        <time>2020-09-13T06:58:36Z</time>
      </trkpt>
      <trkpt lat="47.80944" lon="6.73592">
        <ele>557.44165</ele>
        <time>2020-09-13T06:58:41Z</time>
      </trkpt>
      <trkpt lat="47.8096" lon="6.73627">
        <ele>558.6473</ele>
        <time>2020-09-13T06:58:46Z</time>
      </trkpt>
      <trkpt lat="47.80977" lon="6.73665">
        <ele>555.059</ele>
        <time>2020-09-13T06:58:51Z</time>
      </trkpt>
      <trkpt lat="47.80996" lon="6.7371">
        <ele>554.1237</ele>
        <time>2020-09-13T06:58:56Z</time>
      </trkpt>
      <trkpt lat="47.81031" lon="6.73794">
        <ele>558.0805</ele>
        <time>2020-09-13T06:59:06Z</time>
      </trkpt>
      <trkpt lat="47.81073" lon="6.73822">
        <ele>559.1856</ele>
        <time>2020-09-13T06:59:16Z</time>
      </trkpt>
      <trkpt lat="47.81079" lon="6.73833">
        <ele>559.6833</ele>
        <time>2020-09-13T06:59:21Z</time>
      </trkpt>
      <trkpt lat="47.81079" lon="6.73849">
        <ele>544.7668</ele>
        <time>2020-09-13T06:59:31Z</time>
      </trkpt>
      <trkpt lat="47.8108" lon="6.73832">
        <ele>558.6655</ele>
        <time>2020-09-13T06:59:41Z</time>
      </trkpt>
      <trkpt lat="47.8106" lon="6.73818">
        <ele>557.8306</ele>
        <time>2020-09-13T07:00:01Z</time>
      </trkpt>
      <trkpt lat="47.81027" lon="6.73845">
        <ele>556.14465</ele>
        <time>2020-09-13T07:00:11Z</time>
      </trkpt>
      <trkpt lat="47.81015" lon="6.73884">
        <ele>556.5154</ele>
        <time>2020-09-13T07:00:16Z</time>
      </trkpt>
      <trkpt lat="47.81015" lon="6.7392">
        <ele>557.53406</ele>
        <time>2020-09-13T07:00:21Z</time>
      </trkpt>
      <trkpt lat="47.81013" lon="6.7394">
        <ele>558.2501</ele>
        <time>2020-09-13T07:00:26Z</time>
      </trkpt>
      <trkpt lat="47.81" lon="6.73959">
        <ele>558.759</ele>
        <time>2020-09-13T07:00:31Z</time>
      </trkpt>
      <trkpt lat="47.80986" lon="6.73981">
        <ele>559.94434</ele>
        <time>2020-09-13T07:00:36Z</time>
      </trkpt>
      <trkpt lat="47.80969" lon="6.74024">
        <ele>560.2552</ele>
        <time>2020-09-13T07:00:46Z</time>
      </trkpt>
      <trkpt lat="47.80943" lon="6.74049">
        <ele>563.2865</ele>
        <time>2020-09-13T07:00:56Z</time>
      </trkpt>
      <trkpt lat="47.80929" lon="6.74046">
        <ele>564.44165</ele>
        <time>2020-09-13T07:01:01Z</time>
      </trkpt>
      <trkpt lat="47.80913" lon="6.74037">
        <ele>564.28516</ele>
        <time>2020-09-13T07:01:06Z</time>
      </trkpt>
      <trkpt lat="47.80904" lon="6.74021">
        <ele>565.93317</ele>
        <time>2020-09-13T07:01:11Z</time>
      </trkpt>
      <trkpt lat="47.80897" lon="6.73999">
        <ele>566.1648</ele>
        <time>2020-09-13T07:01:16Z</time>
      </trkpt>
      <trkpt lat="47.80887" lon="6.73972">
        <ele>566.48895</ele>
        <time>2020-09-13T07:01:21Z</time>
      </trkpt>
      <trkpt lat="47.80854" lon="6.73943">
        <ele>567.92365</ele>
        <time>2020-09-13T07:01:31Z</time>
      </trkpt>
      <trkpt lat="47.8083" lon="6.73922">
        <ele>569.34937</ele>
        <time>2020-09-13T07:01:41Z</time>
      </trkpt>
      <trkpt lat="47.80822" lon="6.73912">
        <ele>570.5373</ele>
        <time>2020-09-13T07:01:46Z</time>
      </trkpt>
      <trkpt lat="47.80814" lon="6.73902">
        <ele>571.15015</ele>
        <time>2020-09-13T07:01:51Z</time>
      </trkpt>
      <trkpt lat="47.80808" lon="6.73892">
        <ele>572.2091</ele>
        <time>2020-09-13T07:01:56Z</time>
      </trkpt>
      <trkpt lat="47.80798" lon="6.73873">
        <ele>573.4562</ele>
        <time>2020-09-13T07:02:01Z</time>
      </trkpt>
      <trkpt lat="47.80788" lon="6.73854">
        <ele>574.93</ele>
        <time>2020-09-13T07:02:06Z</time>
      </trkpt>
      <trkpt lat="47.80778" lon="6.73846">
        <ele>573.6493</ele>
        <time>2020-09-13T07:02:11Z</time>
      </trkpt>
      <trkpt lat="47.80768" lon="6.73839">
        <ele>575.0235</ele>
        <time>2020-09-13T07:02:16Z</time>
      </trkpt>
      <trkpt lat="47.80755" lon="6.73828">
        <ele>577.9928</ele>
        <time>2020-09-13T07:02:26Z</time>
      </trkpt>
      <trkpt lat="47.80738" lon="6.7381">
        <ele>581.79315</ele>
        <time>2020-09-13T07:02:36Z</time>
      </trkpt>
      <trkpt lat="47.80726" lon="6.73795">
        <ele>582.77637</ele>
        <time>2020-09-13T07:02:41Z</time>
      </trkpt>
      <trkpt lat="47.80712" lon="6.7378">
        <ele>577.3696</ele>
        <time>2020-09-13T07:02:46Z</time>
      </trkpt>
      <trkpt lat="47.80702" lon="6.73777">
        <ele>585.4284</ele>
        <time>2020-09-13T07:02:51Z</time>
      </trkpt>
      <trkpt lat="47.8069" lon="6.73775">
        <ele>588.14276</ele>
        <time>2020-09-13T07:02:56Z</time>
      </trkpt>
      <trkpt lat="47.80679" lon="6.73776">
        <ele>589.2229</ele>
        <time>2020-09-13T07:03:01Z</time>
      </trkpt>
      <trkpt lat="47.80655" lon="6.73775">
        <ele>591.6478</ele>
        <time>2020-09-13T07:03:11Z</time>
      </trkpt>
      <trkpt lat="47.80635" lon="6.73777">
        <ele>594.2368</ele>
        <time>2020-09-13T07:03:21Z</time>
      </trkpt>
      <trkpt lat="47.80625" lon="6.73779">
        <ele>594.6163</ele>
        <time>2020-09-13T07:03:26Z</time>
      </trkpt>
      <trkpt lat="47.80614" lon="6.73781">
        <ele>596.91864</ele>
        <time>2020-09-13T07:03:31Z</time>
      </trkpt>
      <trkpt lat="47.80605" lon="6.73786">
        <ele>597.8842</ele>
        <time>2020-09-13T07:03:36Z</time>
      </trkpt>
      <trkpt lat="47.80594" lon="6.73789">
        <ele>598.0908</ele>
        <time>2020-09-13T07:03:41Z</time>
      </trkpt>
      <trkpt lat="47.80587" lon="6.73791">
        <ele>597.2809</ele>
        <time>2020-09-13T07:03:46Z</time>
      </trkpt>
      <trkpt lat="47.80567" lon="6.73788">
        <ele>603.30817</ele>
        <time>2020-09-13T07:03:56Z</time>
      </trkpt>
      <trkpt lat="47.80542" lon="6.73787">
        <ele>605.3591</ele>
        <time>2020-09-13T07:04:06Z</time>
      </trkpt>
      <trkpt lat="47.80532" lon="6.73793">
        <ele>607.02936</ele>
        <time>2020-09-13T07:04:11Z</time>
      </trkpt>
      <trkpt lat="47.80521" lon="6.73803">
        <ele>607.18005</ele>
        <time>2020-09-13T07:04:16Z</time>
      </trkpt>
      <trkpt lat="47.80512" lon="6.73817">
        <ele>608.2916</ele>
        <time>2020-09-13T07:04:21Z</time>
      </trkpt>
      <trkpt lat="47.80501" lon="6.73838">
        <ele>608.60516</ele>
        <time>2020-09-13T07:04:26Z</time>
      </trkpt>
      <trkpt lat="47.80496" lon="6.73858">
        <ele>611.51074</ele>
        <time>2020-09-13T07:04:31Z</time>
      </trkpt>
      <trkpt lat="47.80488" lon="6.73895">
        <ele>611.9943</ele>
        <time>2020-09-13T07:04:41Z</time>
      </trkpt>
      <trkpt lat="47.80471" lon="6.7394">
        <ele>613.5929</ele>
        <time>2020-09-13T07:04:51Z</time>
      </trkpt>
      <trkpt lat="47.8045" lon="6.73985">
        <ele>614.2659</ele>
        <time>2020-09-13T07:05:01Z</time>
      </trkpt>
      <trkpt lat="47.80442" lon="6.74014">
        <ele>616.6406</ele>
        <time>2020-09-13T07:05:06Z</time>
      </trkpt>
      <trkpt lat="47.80434" lon="6.74044">
        <ele>617.1936</ele>
        <time>2020-09-13T07:05:11Z</time>
      </trkpt>
      <trkpt lat="47.80426" lon="6.74068">
        <ele>617.73535</ele>
        <time>2020-09-13T07:05:16Z</time>
      </trkpt>
      <trkpt lat="47.80417" lon="6.74091">
        <ele>618.5623</ele>
        <time>2020-09-13T07:05:21Z</time>
      </trkpt>
      <trkpt lat="47.80407" lon="6.74112">
        <ele>619.47186</ele>
        <time>2020-09-13T07:05:26Z</time>
      </trkpt>
      <trkpt lat="47.80389" lon="6.7415">
        <ele>621.15137</ele>
        <time>2020-09-13T07:05:36Z</time>
      </trkpt>
      <trkpt lat="47.80366" lon="6.74192">
        <ele>621.88983</ele>
        <time>2020-09-13T07:05:46Z</time>
      </trkpt>
      <trkpt lat="47.80351" lon="6.74214">
        <ele>622.5346</ele>
        <time>2020-09-13T07:05:51Z</time>
      </trkpt>
      <trkpt lat="47.80338" lon="6.74233">
        <ele>623.9292</ele>
        <time>2020-09-13T07:05:56Z</time>
      </trkpt>
      <trkpt lat="47.80323" lon="6.74245">
        <ele>624.4813</ele>
        <time>2020-09-13T07:06:01Z</time>
      </trkpt>
      <trkpt lat="47.80307" lon="6.74258">
        <ele>625.823</ele>
        <time>2020-09-13T07:06:06Z</time>
      </trkpt>
      <trkpt lat="47.80293" lon="6.74269">
        <ele>627.50916</ele>
        <time>2020-09-13T07:06:11Z</time>
      </trkpt>
      <trkpt lat="47.80269" lon="6.74293">
        <ele>630.249</ele>
        <time>2020-09-13T07:06:21Z</time>
      </trkpt>
      <trkpt lat="47.80236" lon="6.74298">
        <ele>631.40356</ele>
        <time>2020-09-13T07:06:31Z</time>
      </trkpt>
      <trkpt lat="47.80219" lon="6.74297">
        <ele>632.37164</ele>
        <time>2020-09-13T07:06:36Z</time>
      </trkpt>
      <trkpt lat="47.80206" lon="6.74302">
        <ele>631.9304</ele>
        <time>2020-09-13T07:06:41Z</time>
      </trkpt>
      <trkpt lat="47.80193" lon="6.74307">
        <ele>633.80145</ele>
        <time>2020-09-13T07:06:46Z</time>
      </trkpt>
      <trkpt lat="47.8018" lon="6.74314">
        <ele>635.41785</ele>
        <time>2020-09-13T07:06:51Z</time>
      </trkpt>
      <trkpt lat="47.80164" lon="6.74319">
        <ele>638.1159</ele>
        <time>2020-09-13T07:06:56Z</time>
      </trkpt>
      <trkpt lat="47.8015" lon="6.74325">
        <ele>639.9814</ele>
        <time>2020-09-13T07:07:01Z</time>
      </trkpt>
      <trkpt lat="47.80134" lon="6.7433">
        <ele>640.5635</ele>
        <time>2020-09-13T07:07:06Z</time>
      </trkpt>
      <trkpt lat="47.80101" lon="6.74342">
        <ele>642.6443</ele>
        <time>2020-09-13T07:07:16Z</time>
      </trkpt>
      <trkpt lat="47.80072" lon="6.74345">
        <ele>645.5002</ele>
        <time>2020-09-13T07:07:26Z</time>
      </trkpt>
      <trkpt lat="47.80056" lon="6.74341">
        <ele>646.52905</ele>
        <time>2020-09-13T07:07:31Z</time>
      </trkpt>
      <trkpt lat="47.80044" lon="6.74334">
        <ele>648.1199</ele>
        <time>2020-09-13T07:07:36Z</time>
      </trkpt>
      <trkpt lat="47.80031" lon="6.74326">
        <ele>649.3508</ele>
        <time>2020-09-13T07:07:41Z</time>
      </trkpt>
      <trkpt lat="47.80016" lon="6.74322">
        <ele>650.5288</ele>
        <time>2020-09-13T07:07:46Z</time>
      </trkpt>
      <trkpt lat="47.80002" lon="6.74331">
        <ele>651.19275</ele>
        <time>2020-09-13T07:07:51Z</time>
      </trkpt>
      <trkpt lat="47.80013" lon="6.74362">
        <ele>653.6397</ele>
        <time>2020-09-13T07:08:01Z</time>
      </trkpt>
      <trkpt lat="47.80028" lon="6.74386">
        <ele>656.0176</ele>
        <time>2020-09-13T07:08:11Z</time>
      </trkpt>
      <trkpt lat="47.80035" lon="6.74398">
        <ele>654.89233</ele>
        <time>2020-09-13T07:08:16Z</time>
      </trkpt>
      <trkpt lat="47.8004" lon="6.74408">
        <ele>657.7376</ele>
        <time>2020-09-13T07:08:21Z</time>
      </trkpt>
      <trkpt lat="47.80046" lon="6.74418">
        <ele>660.16895</ele>
        <time>2020-09-13T07:08:26Z</time>
      </trkpt>
      <trkpt lat="47.80048" lon="6.7443">
        <ele>661.6842</ele>
        <time>2020-09-13T07:08:31Z</time>
      </trkpt>
      <trkpt lat="47.80051" lon="6.74444">
        <ele>662.3628</ele>
        <time>2020-09-13T07:08:36Z</time>
      </trkpt>
      <trkpt lat="47.80039" lon="6.74472">
        <ele>664.9335</ele>
        <time>2020-09-13T07:08:46Z</time>
      </trkpt>
      <trkpt lat="47.80021" lon="6.74475">
        <ele>667.46765</ele>
        <time>2020-09-13T07:08:56Z</time>
      </trkpt>
      <trkpt lat="47.80012" lon="6.74475">
        <ele>668.3128</ele>
        <time>2020-09-13T07:09:01Z</time>
      </trkpt>
      <trkpt lat="47.80001" lon="6.74478">
        <ele>670.39417</ele>
        <time>2020-09-13T07:09:06Z</time>
      </trkpt>
      <trkpt lat="47.7999" lon="6.74481">
        <ele>671.57117</ele>
        <time>2020-09-13T07:09:11Z</time>
      </trkpt>
      <trkpt lat="47.7998" lon="6.74482">
        <ele>672.687</ele>
        <time>2020-09-13T07:09:16Z</time>
      </trkpt>
      <trkpt lat="47.79972" lon="6.74481">
        <ele>673.75287</ele>
        <time>2020-09-13T07:09:21Z</time>
      </trkpt>
      <trkpt lat="47.79947" lon="6.74481">
        <ele>675.46</ele>
        <time>2020-09-13T07:09:31Z</time>
      </trkpt>
      <trkpt lat="47.79924" lon="6.74488">
        <ele>679.8591</ele>
        <time>2020-09-13T07:09:41Z</time>
      </trkpt>
      <trkpt lat="47.79906" lon="6.74507">
        <ele>679.2882</ele>
        <time>2020-09-13T07:09:51Z</time>
      </trkpt>
      <trkpt lat="47.79896" lon="6.74515">
        <ele>682.254</ele>
        <time>2020-09-13T07:09:56Z</time>
      </trkpt>
      <trkpt lat="47.79889" lon="6.74525">
        <ele>684.59717</ele>
        <time>2020-09-13T07:10:01Z</time>
      </trkpt>
      <trkpt lat="47.79878" lon="6.74532">
        <ele>684.9996</ele>
        <time>2020-09-13T07:10:06Z</time>
      </trkpt>
      <trkpt lat="47.79863" lon="6.74532">
        <ele>685.38165</ele>
        <time>2020-09-13T07:10:11Z</time>
      </trkpt>
      <trkpt lat="47.79847" lon="6.74521">
        <ele>685.777</ele>
        <time>2020-09-13T07:10:16Z</time>
      </trkpt>
      <trkpt lat="47.79824" lon="6.74501">
        <ele>689.91754</ele>
        <time>2020-09-13T07:10:26Z</time>
      </trkpt>
      <trkpt lat="47.79804" lon="6.74496">
        <ele>691.7812</ele>
        <time>2020-09-13T07:10:36Z</time>
      </trkpt>
      <trkpt lat="47.79795" lon="6.74497">
        <ele>692.2104</ele>
        <time>2020-09-13T07:10:41Z</time>
      </trkpt>
      <trkpt lat="47.79781" lon="6.74505">
        <ele>692.88477</ele>
        <time>2020-09-13T07:10:46Z</time>
      </trkpt>
      <trkpt lat="47.79771" lon="6.74513">
        <ele>693.51526</ele>
        <time>2020-09-13T07:10:51Z</time>
      </trkpt>
      <trkpt lat="47.79762" lon="6.74523">
        <ele>693.6348</ele>
        <time>2020-09-13T07:10:56Z</time>
      </trkpt>
      <trkpt lat="47.79754" lon="6.74533">
        <ele>695.3884</ele>
        <time>2020-09-13T07:11:01Z</time>
      </trkpt>
      <trkpt lat="47.79737" lon="6.74551">
        <ele>697.9138</ele>
        <time>2020-09-13T07:11:11Z</time>
      </trkpt>
      <trkpt lat="47.79717" lon="6.74569">
        <ele>697.7268</ele>
        <time>2020-09-13T07:11:21Z</time>
      </trkpt>
      <trkpt lat="47.79709" lon="6.74576">
        <ele>700.1696</ele>
        <time>2020-09-13T07:11:26Z</time>
      </trkpt>
      <trkpt lat="47.79702" lon="6.74586">
        <ele>704.1738</ele>
        <time>2020-09-13T07:11:31Z</time>
      </trkpt>
      <trkpt lat="47.79694" lon="6.74593">
        <ele>705.6236</ele>
        <time>2020-09-13T07:11:36Z</time>
      </trkpt>
      <trkpt lat="47.79689" lon="6.74604">
        <ele>706.6726</ele>
        <time>2020-09-13T07:11:41Z</time>
      </trkpt>
      <trkpt lat="47.79684" lon="6.74618">
        <ele>707.7964</ele>
        <time>2020-09-13T07:11:46Z</time>
      </trkpt>
      <trkpt lat="47.79681" lon="6.74632">
        <ele>709.3026</ele>
        <time>2020-09-13T07:11:51Z</time>
      </trkpt>
      <trkpt lat="47.79684" lon="6.74649">
        <ele>710.47656</ele>
        <time>2020-09-13T07:11:56Z</time>
      </trkpt>
      <trkpt lat="47.7969" lon="6.74661">
        <ele>708.85675</ele>
        <time>2020-09-13T07:12:01Z</time>
      </trkpt>
      <trkpt lat="47.79713" lon="6.74652">
        <ele>714.5133</ele>
        <time>2020-09-13T07:12:16Z</time>
      </trkpt>
      <trkpt lat="47.79744" lon="6.74664">
        <ele>720.8077</ele>
        <time>2020-09-13T07:12:36Z</time>
      </trkpt>
      <trkpt lat="47.79739" lon="6.74677">
        <ele>722.2677</ele>
        <time>2020-09-13T07:12:41Z</time>
      </trkpt>
      <trkpt lat="47.7972" lon="6.74698">
        <ele>727.52234</ele>
        <time>2020-09-13T07:12:55Z</time>
      </trkpt>
      <trkpt lat="47.79711" lon="6.74708">
        <ele>728.9357</ele>
        <time>2020-09-13T07:13:01Z</time>
      </trkpt>
      <trkpt lat="47.79707" lon="6.74716">
        <ele>731.252</ele>
        <time>2020-09-13T07:13:06Z</time>
      </trkpt>
      <trkpt lat="47.79701" lon="6.74723">
        <ele>732.161</ele>
        <time>2020-09-13T07:13:11Z</time>
      </trkpt>
      <trkpt lat="47.79697" lon="6.74731">
        <ele>733.2092</ele>
        <time>2020-09-13T07:13:16Z</time>
      </trkpt>
      <trkpt lat="47.79692" lon="6.74744">
        <ele>736.95215</ele>
        <time>2020-09-13T07:13:26Z</time>
      </trkpt>
      <trkpt lat="47.7968" lon="6.74762">
        <ele>739.9901</ele>
        <time>2020-09-13T07:13:36Z</time>
      </trkpt>
      <trkpt lat="47.79667" lon="6.74786">
        <ele>743.2128</ele>
        <time>2020-09-13T07:13:46Z</time>
      </trkpt>
      <trkpt lat="47.79661" lon="6.748">
        <ele>744.4019</ele>
        <time>2020-09-13T07:13:51Z</time>
      </trkpt>
      <trkpt lat="47.79656" lon="6.74807">
        <ele>744.36096</ele>
        <time>2020-09-13T07:13:56Z</time>
      </trkpt>
      <trkpt lat="47.79654" lon="6.74815">
        <ele>746.3541</ele>
        <time>2020-09-13T07:14:01Z</time>
      </trkpt>
      <trkpt lat="47.79648" lon="6.74823">
        <ele>747.1428</ele>
        <time>2020-09-13T07:14:06Z</time>
      </trkpt>
      <trkpt lat="47.79644" lon="6.74837">
        <ele>750.4004</ele>
        <time>2020-09-13T07:14:11Z</time>
      </trkpt>
      <trkpt lat="47.79634" lon="6.74855">
        <ele>753.12976</ele>
        <time>2020-09-13T07:14:21Z</time>
      </trkpt>
      <trkpt lat="47.79625" lon="6.74873">
        <ele>756.07263</ele>
        <time>2020-09-13T07:14:31Z</time>
      </trkpt>
      <trkpt lat="47.7962" lon="6.74893">
        <ele>758.64276</ele>
        <time>2020-09-13T07:14:41Z</time>
      </trkpt>
      <trkpt lat="47.79614" lon="6.74905">
        <ele>759.6523</ele>
        <time>2020-09-13T07:14:46Z</time>
      </trkpt>
      <trkpt lat="47.79609" lon="6.74916">
        <ele>757.36176</ele>
        <time>2020-09-13T07:14:51Z</time>
      </trkpt>
      <trkpt lat="47.79603" lon="6.74924">
        <ele>761.09644</ele>
        <time>2020-09-13T07:14:56Z</time>
      </trkpt>
      <trkpt lat="47.79602" lon="6.74936">
        <ele>764.54877</ele>
        <time>2020-09-13T07:15:01Z</time>
      </trkpt>
      <trkpt lat="47.79601" lon="6.74948">
        <ele>765.8497</ele>
        <time>2020-09-13T07:15:06Z</time>
      </trkpt>
      <trkpt lat="47.79601" lon="6.7497">
        <ele>767.2296</ele>
        <time>2020-09-13T07:15:16Z</time>
      </trkpt>
      <trkpt lat="47.79598" lon="6.74997">
        <ele>770.8439</ele>
        <time>2020-09-13T07:15:26Z</time>
      </trkpt>
      <trkpt lat="47.79588" lon="6.75006">
        <ele>768.8864</ele>
        <time>2020-09-13T07:15:31Z</time>
      </trkpt>
      <trkpt lat="47.79587" lon="6.75013">
        <ele>771.6488</ele>
        <time>2020-09-13T07:15:36Z</time>
      </trkpt>
      <trkpt lat="47.79582" lon="6.75024">
        <ele>774.80743</ele>
        <time>2020-09-13T07:15:41Z</time>
      </trkpt>
      <trkpt lat="47.79579" lon="6.75035">
        <ele>772.77686</ele>
        <time>2020-09-13T07:15:46Z</time>
      </trkpt>
      <trkpt lat="47.79573" lon="6.75047">
        <ele>781.3198</ele>
        <time>2020-09-13T07:15:51Z</time>
      </trkpt>
      <trkpt lat="47.79556" lon="6.75065">
        <ele>782.2421</ele>
        <time>2020-09-13T07:16:01Z</time>
      </trkpt>
      <trkpt lat="47.79535" lon="6.75077">
        <ele>783.08234</ele>
        <time>2020-09-13T07:16:11Z</time>
      </trkpt>
      <trkpt lat="47.79525" lon="6.75079">
        <ele>783.39526</ele>
        <time>2020-09-13T07:16:16Z</time>
      </trkpt>
      <trkpt lat="47.79516" lon="6.75082">
        <ele>780.66327</ele>
        <time>2020-09-13T07:16:21Z</time>
      </trkpt>
      <trkpt lat="47.79508" lon="6.75089">
        <ele>785.237</ele>
        <time>2020-09-13T07:16:26Z</time>
      </trkpt>
      <trkpt lat="47.79502" lon="6.75092">
        <ele>786.6438</ele>
        <time>2020-09-13T07:16:31Z</time>
      </trkpt>
      <trkpt lat="47.79493" lon="6.75096">
        <ele>788.06604</ele>
        <time>2020-09-13T07:16:36Z</time>
      </trkpt>
      <trkpt lat="47.7948" lon="6.75106">
        <ele>789.5048</ele>
        <time>2020-09-13T07:16:46Z</time>
      </trkpt>
      <trkpt lat="47.79457" lon="6.75128">
        <ele>787.5642</ele>
        <time>2020-09-13T07:17:00Z</time>
      </trkpt>
      <trkpt lat="47.79439" lon="6.75156">
        <ele>773.09064</ele>
        <time>2020-09-13T07:17:16Z</time>
      </trkpt>
      <trkpt lat="47.79417" lon="6.75152">
        <ele>764.5303</ele>
        <time>2020-09-13T07:17:26Z</time>
      </trkpt>
      <trkpt lat="47.79411" lon="6.75142">
        <ele>766.36536</ele>
        <time>2020-09-13T07:17:31Z</time>
      </trkpt>
      <trkpt lat="47.79401" lon="6.75115">
        <ele>766.36536</ele>
        <time>2020-09-13T07:17:41Z</time>
      </trkpt>
      <trkpt lat="47.79397" lon="6.75088">
        <ele>766.36536</ele>
        <time>2020-09-13T07:17:51Z</time>
      </trkpt>
      <trkpt lat="47.79396" lon="6.75077">
        <ele>766.36536</ele>
        <time>2020-09-13T07:17:56Z</time>
      </trkpt>
      <trkpt lat="47.79393" lon="6.75061">
        <ele>766.36536</ele>
        <time>2020-09-13T07:18:01Z</time>
      </trkpt>
      <trkpt lat="47.7939" lon="6.75042">
        <ele>773.71313</ele>
        <time>2020-09-13T07:18:06Z</time>
      </trkpt>
      <trkpt lat="47.79388" lon="6.7503">
        <ele>770.65314</ele>
        <time>2020-09-13T07:18:11Z</time>
      </trkpt>
      <trkpt lat="47.79382" lon="6.75016">
        <ele>777.99414</ele>
        <time>2020-09-13T07:18:16Z</time>
      </trkpt>
      <trkpt lat="47.79372" lon="6.74994">
        <ele>788.6869</ele>
        <time>2020-09-13T07:18:26Z</time>
      </trkpt>
      <trkpt lat="47.79356" lon="6.74971">
        <ele>793.8535</ele>
        <time>2020-09-13T07:18:36Z</time>
      </trkpt>
      <trkpt lat="47.79349" lon="6.74963">
        <ele>788.8337</ele>
        <time>2020-09-13T07:18:41Z</time>
      </trkpt>
      <trkpt lat="47.79344" lon="6.74957">
        <ele>796.1509</ele>
        <time>2020-09-13T07:18:46Z</time>
      </trkpt>
      <trkpt lat="47.79334" lon="6.7495">
        <ele>792.26355</ele>
        <time>2020-09-13T07:18:51Z</time>
      </trkpt>
      <trkpt lat="47.79324" lon="6.74943">
        <ele>789.1959</ele>
        <time>2020-09-13T07:18:56Z</time>
      </trkpt>
      <trkpt lat="47.79317" lon="6.74936">
        <ele>790.292</ele>
        <time>2020-09-13T07:19:01Z</time>
      </trkpt>
      <trkpt lat="47.79305" lon="6.74914">
        <ele>790.9745</ele>
        <time>2020-09-13T07:19:11Z</time>
      </trkpt>
      <trkpt lat="47.79303" lon="6.74881">
        <ele>807.4531</ele>
        <time>2020-09-13T07:19:21Z</time>
      </trkpt>
      <trkpt lat="47.79297" lon="6.74846">
        <ele>805.0673</ele>
        <time>2020-09-13T07:19:31Z</time>
      </trkpt>
      <trkpt lat="47.79295" lon="6.74828">
        <ele>813.11615</ele>
        <time>2020-09-13T07:19:36Z</time>
      </trkpt>
      <trkpt lat="47.79292" lon="6.74814">
        <ele>813.93085</ele>
        <time>2020-09-13T07:19:41Z</time>
      </trkpt>
      <trkpt lat="47.7929" lon="6.74803">
        <ele>811.1663</ele>
        <time>2020-09-13T07:19:46Z</time>
      </trkpt>
      <trkpt lat="47.79284" lon="6.74798">
        <ele>810.4534</ele>
        <time>2020-09-13T07:19:51Z</time>
      </trkpt>
      <trkpt lat="47.79276" lon="6.74804">
        <ele>809.4077</ele>
        <time>2020-09-13T07:19:56Z</time>
      </trkpt>
      <trkpt lat="47.79259" lon="6.7482">
        <ele>799.6733</ele>
        <time>2020-09-13T07:20:06Z</time>
      </trkpt>
      <trkpt lat="47.79249" lon="6.74852">
        <ele>798.3324</ele>
        <time>2020-09-13T07:20:16Z</time>
      </trkpt>
      <trkpt lat="47.79245" lon="6.74864">
        <ele>805.79755</ele>
        <time>2020-09-13T07:20:21Z</time>
      </trkpt>
      <trkpt lat="47.79242" lon="6.7488">
        <ele>809.74567</ele>
        <time>2020-09-13T07:20:26Z</time>
      </trkpt>
      <trkpt lat="47.79236" lon="6.74894">
        <ele>809.8669</ele>
        <time>2020-09-13T07:20:31Z</time>
      </trkpt>
      <trkpt lat="47.79231" lon="6.74908">
        <ele>805.4052</ele>
        <time>2020-09-13T07:20:36Z</time>
      </trkpt>
      <trkpt lat="47.79227" lon="6.74919">
        <ele>805.397</ele>
        <time>2020-09-13T07:20:41Z</time>
      </trkpt>
      <trkpt lat="47.79219" lon="6.74926">
        <ele>803.67584</ele>
        <time>2020-09-13T07:20:51Z</time>
      </trkpt>
      <trkpt lat="47.79189" lon="6.7483">
        <ele>812.84595</ele>
        <time>2020-09-13T07:21:30Z</time>
      </trkpt>
      <trkpt lat="47.79192" lon="6.74808">
        <ele>812.5922</ele>
        <time>2020-09-13T07:21:36Z</time>
      </trkpt>
      <trkpt lat="47.79197" lon="6.74776">
        <ele>813.4942</ele>
        <time>2020-09-13T07:21:46Z</time>
      </trkpt>
      <trkpt lat="47.792" lon="6.74762">
        <ele>817.23517</ele>
        <time>2020-09-13T07:21:51Z</time>
      </trkpt>
      <trkpt lat="47.79204" lon="6.74747">
        <ele>818.71484</ele>
        <time>2020-09-13T07:21:56Z</time>
      </trkpt>
      <trkpt lat="47.79206" lon="6.74735">
        <ele>819.41364</ele>
        <time>2020-09-13T07:22:01Z</time>
      </trkpt>
      <trkpt lat="47.7921" lon="6.74719">
        <ele>818.3254</ele>
        <time>2020-09-13T07:22:06Z</time>
      </trkpt>
      <trkpt lat="47.79212" lon="6.74707">
        <ele>817.53827</ele>
        <time>2020-09-13T07:22:11Z</time>
      </trkpt>
      <trkpt lat="47.79213" lon="6.74698">
        <ele>816.17065</ele>
        <time>2020-09-13T07:22:16Z</time>
      </trkpt>
      <trkpt lat="47.79213" lon="6.74683">
        <ele>811.83405</ele>
        <time>2020-09-13T07:22:21Z</time>
      </trkpt>
      <trkpt lat="47.79215" lon="6.74648">
        <ele>835.8659</ele>
        <time>2020-09-13T07:22:31Z</time>
      </trkpt>
      <trkpt lat="47.79207" lon="6.74619">
        <ele>831.5461</ele>
        <time>2020-09-13T07:22:41Z</time>
      </trkpt>
      <trkpt lat="47.79204" lon="6.74611">
        <ele>832.14343</ele>
        <time>2020-09-13T07:22:46Z</time>
      </trkpt>
      <trkpt lat="47.79203" lon="6.74597">
        <ele>831.70746</ele>
        <time>2020-09-13T07:22:51Z</time>
      </trkpt>
      <trkpt lat="47.79201" lon="6.74588">
        <ele>830.7564</ele>
        <time>2020-09-13T07:22:56Z</time>
      </trkpt>
      <trkpt lat="47.79201" lon="6.74553">
        <ele>833.25085</ele>
        <time>2020-09-13T07:23:10Z</time>
      </trkpt>
      <trkpt lat="47.79197" lon="6.74533">
        <ele>830.47473</ele>
        <time>2020-09-13T07:23:16Z</time>
      </trkpt>
      <trkpt lat="47.79189" lon="6.74502">
        <ele>830.2701</ele>
        <time>2020-09-13T07:23:26Z</time>
      </trkpt>
      <trkpt lat="47.79187" lon="6.74489">
        <ele>827.9878</ele>
        <time>2020-09-13T07:23:31Z</time>
      </trkpt>
      <trkpt lat="47.79182" lon="6.74463">
        <ele>827.446</ele>
        <time>2020-09-13T07:23:41Z</time>
      </trkpt>
      <trkpt lat="47.79178" lon="6.74448">
        <ele>832.0273</ele>
        <time>2020-09-13T07:23:46Z</time>
      </trkpt>
      <trkpt lat="47.79173" lon="6.74441">
        <ele>833.9316</ele>
        <time>2020-09-13T07:23:51Z</time>
      </trkpt>
      <trkpt lat="47.79162" lon="6.74402">
        <ele>834.87866</ele>
        <time>2020-09-13T07:24:01Z</time>
      </trkpt>
      <trkpt lat="47.79152" lon="6.74363">
        <ele>841.2635</ele>
        <time>2020-09-13T07:24:11Z</time>
      </trkpt>
      <trkpt lat="47.79145" lon="6.7433">
        <ele>842.071</ele>
        <time>2020-09-13T07:24:16Z</time>
      </trkpt>
      <trkpt lat="47.79141" lon="6.743">
        <ele>842.48865</ele>
        <time>2020-09-13T07:24:21Z</time>
      </trkpt>
      <trkpt lat="47.79137" lon="6.74274">
        <ele>842.24896</ele>
        <time>2020-09-13T07:24:26Z</time>
      </trkpt>
      <trkpt lat="47.79135" lon="6.74253">
        <ele>840.7091</ele>
        <time>2020-09-13T07:24:31Z</time>
      </trkpt>
      <trkpt lat="47.79127" lon="6.74236">
        <ele>843.0915</ele>
        <time>2020-09-13T07:24:36Z</time>
      </trkpt>
      <trkpt lat="47.79126" lon="6.74227">
        <ele>828.8976</ele>
        <time>2020-09-13T07:24:46Z</time>
      </trkpt>
      <trkpt lat="47.79124" lon="6.74222">
        <ele>846.50397</ele>
        <time>2020-09-13T07:25:26Z</time>
      </trkpt>
      <trkpt lat="47.7912" lon="6.74231">
        <ele>824.10114</ele>
        <time>2020-09-13T07:25:35Z</time>
      </trkpt>
      <trkpt lat="47.79119" lon="6.74238">
        <ele>845.3599</ele>
        <time>2020-09-13T07:25:45Z</time>
      </trkpt>
      <trkpt lat="47.79118" lon="6.74236">
        <ele>841.84674</ele>
        <time>2020-09-13T07:26:26Z</time>
      </trkpt>
      <trkpt lat="47.79115" lon="6.74233">
        <ele>830.1128</ele>
        <time>2020-09-13T07:26:36Z</time>
      </trkpt>
      <trkpt lat="47.79115" lon="6.74226">
        <ele>835.68286</ele>
        <time>2020-09-13T07:26:46Z</time>
      </trkpt>
      <trkpt lat="47.79123" lon="6.74233">
        <ele>832.02106</ele>
        <time>2020-09-13T07:26:56Z</time>
      </trkpt>
      <trkpt lat="47.79124" lon="6.74238">
        <ele>836.8943</ele>
        <time>2020-09-13T07:27:01Z</time>
      </trkpt>
      <trkpt lat="47.79133" lon="6.7423">
        <ele>838.58716</ele>
        <time>2020-09-13T07:28:45Z</time>
      </trkpt>
      <trkpt lat="47.79133" lon="6.74232">
        <ele>843.5719</ele>
        <time>2020-09-13T07:29:21Z</time>
      </trkpt>
      <trkpt lat="47.79131" lon="6.74232">
        <ele>833.0493</ele>
        <time>2020-09-13T07:29:46Z</time>
      </trkpt>
      <trkpt lat="47.79133" lon="6.74235">
        <ele>848.2223</ele>
        <time>2020-09-13T07:30:21Z</time>
      </trkpt>
      <trkpt lat="47.79093" lon="6.74209">
        <ele>859.2152</ele>
        <time>2020-09-13T07:35:21Z</time>
      </trkpt>
      <trkpt lat="47.79014" lon="6.742">
        <ele>866.20636</ele>
        <time>2020-09-13T07:35:31Z</time>
      </trkpt>
      <trkpt lat="47.79006" lon="6.74189">
        <ele>863.0771</ele>
        <time>2020-09-13T07:35:36Z</time>
      </trkpt>
      <trkpt lat="47.78986" lon="6.74167">
        <ele>866.7542</ele>
        <time>2020-09-13T07:35:41Z</time>
      </trkpt>
      <trkpt lat="47.78955" lon="6.74141">
        <ele>867.542</ele>
        <time>2020-09-13T07:35:46Z</time>
      </trkpt>
      <trkpt lat="47.78921" lon="6.74114">
        <ele>873.3469</ele>
        <time>2020-09-13T07:35:51Z</time>
      </trkpt>
      <trkpt lat="47.7889" lon="6.74091">
        <ele>877.37396</ele>
        <time>2020-09-13T07:35:56Z</time>
      </trkpt>
      <trkpt lat="47.78822" lon="6.7403">
        <ele>880.27856</ele>
        <time>2020-09-13T07:36:06Z</time>
      </trkpt>
      <trkpt lat="47.78761" lon="6.73946">
        <ele>883.5762</ele>
        <time>2020-09-13T07:36:16Z</time>
      </trkpt>
      <trkpt lat="47.78735" lon="6.7391">
        <ele>885.73944</ele>
        <time>2020-09-13T07:36:21Z</time>
      </trkpt>
      <trkpt lat="47.7872" lon="6.73872">
        <ele>883.3855</ele>
        <time>2020-09-13T07:36:26Z</time>
      </trkpt>
      <trkpt lat="47.78706" lon="6.73832">
        <ele>881.11115</ele>
        <time>2020-09-13T07:36:31Z</time>
      </trkpt>
      <trkpt lat="47.78694" lon="6.73803">
        <ele>881.52026</ele>
        <time>2020-09-13T07:36:36Z</time>
      </trkpt>
      <trkpt lat="47.78677" lon="6.73775">
        <ele>885.5859</ele>
        <time>2020-09-13T07:36:41Z</time>
      </trkpt>
      <trkpt lat="47.78663" lon="6.73749">
        <ele>893.05225</ele>
        <time>2020-09-13T07:36:46Z</time>
      </trkpt>
      <trkpt lat="47.78649" lon="6.73729">
        <ele>894.71014</ele>
        <time>2020-09-13T07:36:51Z</time>
      </trkpt>
      <trkpt lat="47.78621" lon="6.73685">
        <ele>899.861</ele>
        <time>2020-09-13T07:37:01Z</time>
      </trkpt>
      <trkpt lat="47.78587" lon="6.73617">
        <ele>900.9398</ele>
        <time>2020-09-13T07:37:11Z</time>
      </trkpt>
      <trkpt lat="47.78573" lon="6.73572">
        <ele>900.9223</ele>
        <time>2020-09-13T07:37:16Z</time>
      </trkpt>
      <trkpt lat="47.78562" lon="6.73527">
        <ele>900.3241</ele>
        <time>2020-09-13T07:37:21Z</time>
      </trkpt>
      <trkpt lat="47.78556" lon="6.73473">
        <ele>895.80524</ele>
        <time>2020-09-13T07:37:26Z</time>
      </trkpt>
      <trkpt lat="47.7857" lon="6.73413">
        <ele>891.57794</ele>
        <time>2020-09-13T07:37:31Z</time>
      </trkpt>
      <trkpt lat="47.78562" lon="6.73349">
        <ele>889.3316</ele>
        <time>2020-09-13T07:37:36Z</time>
      </trkpt>
      <trkpt lat="47.78549" lon="6.73229">
        <ele>883.0485</ele>
        <time>2020-09-13T07:37:46Z</time>
      </trkpt>
      <trkpt lat="47.78528" lon="6.73097">
        <ele>884.21515</ele>
        <time>2020-09-13T07:37:56Z</time>
      </trkpt>
      <trkpt lat="47.78502" lon="6.73081">
        <ele>879.5686</ele>
        <time>2020-09-13T07:38:01Z</time>
      </trkpt>
      <trkpt lat="47.78474" lon="6.73111">
        <ele>883.69775</ele>
        <time>2020-09-13T07:38:06Z</time>
      </trkpt>
      <trkpt lat="47.78445" lon="6.73143">
        <ele>861.5914</ele>
        <time>2020-09-13T07:38:11Z</time>
      </trkpt>
      <trkpt lat="47.78419" lon="6.73167">
        <ele>857.09875</ele>
        <time>2020-09-13T07:38:16Z</time>
      </trkpt>
      <trkpt lat="47.78395" lon="6.73193">
        <ele>856.7848</ele>
        <time>2020-09-13T07:38:21Z</time>
      </trkpt>
      <trkpt lat="47.78342" lon="6.73238">
        <ele>853.29456</ele>
        <time>2020-09-13T07:38:31Z</time>
      </trkpt>
      <trkpt lat="47.78294" lon="6.73289">
        <ele>853.3419</ele>
        <time>2020-09-13T07:38:41Z</time>
      </trkpt>
      <trkpt lat="47.78279" lon="6.73309">
        <ele>851.0294</ele>
        <time>2020-09-13T07:38:46Z</time>
      </trkpt>
      <trkpt lat="47.78263" lon="6.73329">
        <ele>833.90173</ele>
        <time>2020-09-13T07:42:46Z</time>
      </trkpt>
      <trkpt lat="47.7824" lon="6.73367">
        <ele>832.27814</ele>
        <time>2020-09-13T07:42:51Z</time>
      </trkpt>
      <trkpt lat="47.78228" lon="6.73426">
        <ele>831.74243</ele>
        <time>2020-09-13T07:42:56Z</time>
      </trkpt>
      <trkpt lat="47.78197" lon="6.73467">
        <ele>831.19543</ele>
        <time>2020-09-13T07:43:01Z</time>
      </trkpt>
      <trkpt lat="47.78161" lon="6.73482">
        <ele>830.7235</ele>
        <time>2020-09-13T07:43:06Z</time>
      </trkpt>
      <trkpt lat="47.78119" lon="6.73478">
        <ele>828.89655</ele>
        <time>2020-09-13T07:43:11Z</time>
      </trkpt>
      <trkpt lat="47.78031" lon="6.73444">
        <ele>825.1804</ele>
        <time>2020-09-13T07:43:21Z</time>
      </trkpt>
      <trkpt lat="47.77963" lon="6.7336">
        <ele>822.24084</ele>
        <time>2020-09-13T07:43:31Z</time>
      </trkpt>
      <trkpt lat="47.7793" lon="6.73315">
        <ele>821.02704</ele>
        <time>2020-09-13T07:43:36Z</time>
      </trkpt>
      <trkpt lat="47.77909" lon="6.73258">
        <ele>820.73004</ele>
        <time>2020-09-13T07:43:41Z</time>
      </trkpt>
      <trkpt lat="47.77906" lon="6.73198">
        <ele>820.57385</ele>
        <time>2020-09-13T07:43:46Z</time>
      </trkpt>
      <trkpt lat="47.77891" lon="6.73146">
        <ele>820.7527</ele>
        <time>2020-09-13T07:43:51Z</time>
      </trkpt>
      <trkpt lat="47.77869" lon="6.731">
        <ele>820.467</ele>
        <time>2020-09-13T07:43:56Z</time>
      </trkpt>
      <trkpt lat="47.77839" lon="6.7308">
        <ele>821.0805</ele>
        <time>2020-09-13T07:44:01Z</time>
      </trkpt>
      <trkpt lat="47.778" lon="6.73106">
        <ele>819.52155</ele>
        <time>2020-09-13T07:44:06Z</time>
      </trkpt>
      <trkpt lat="47.77725" lon="6.7316">
        <ele>816.4029</ele>
        <time>2020-09-13T07:44:16Z</time>
      </trkpt>
      <trkpt lat="47.77645" lon="6.73215">
        <ele>815.2459</ele>
        <time>2020-09-13T07:44:26Z</time>
      </trkpt>
      <trkpt lat="47.77614" lon="6.73256">
        <ele>814.048</ele>
        <time>2020-09-13T07:44:31Z</time>
      </trkpt>
      <trkpt lat="47.77584" lon="6.73299">
        <ele>811.492</ele>
        <time>2020-09-13T07:44:36Z</time>
      </trkpt>
      <trkpt lat="47.77545" lon="6.73344">
        <ele>809.2855</ele>
        <time>2020-09-13T07:44:41Z</time>
      </trkpt>
      <trkpt lat="47.77503" lon="6.7338">
        <ele>805.6804</ele>
        <time>2020-09-13T07:44:46Z</time>
      </trkpt>
      <trkpt lat="47.77458" lon="6.73379">
        <ele>803.3298</ele>
        <time>2020-09-13T07:44:51Z</time>
      </trkpt>
      <trkpt lat="47.77381" lon="6.73341">
        <ele>800.5388</ele>
        <time>2020-09-13T07:45:01Z</time>
      </trkpt>
      <trkpt lat="47.77285" lon="6.73338">
        <ele>797.8098</ele>
        <time>2020-09-13T07:45:11Z</time>
      </trkpt>
      <trkpt lat="47.77234" lon="6.73357">
        <ele>796.6046</ele>
        <time>2020-09-13T07:45:16Z</time>
      </trkpt>
      <trkpt lat="47.77188" lon="6.73355">
        <ele>794.1584</ele>
        <time>2020-09-13T07:45:21Z</time>
      </trkpt>
      <trkpt lat="47.77147" lon="6.73306">
        <ele>791.2177</ele>
        <time>2020-09-13T07:45:26Z</time>
      </trkpt>
      <trkpt lat="47.77126" lon="6.73234">
        <ele>788.47754</ele>
        <time>2020-09-13T07:45:31Z</time>
      </trkpt>
      <trkpt lat="47.77098" lon="6.73169">
        <ele>785.13336</ele>
        <time>2020-09-13T07:45:36Z</time>
      </trkpt>
      <trkpt lat="47.77022" lon="6.73059">
        <ele>779.9698</ele>
        <time>2020-09-13T07:45:46Z</time>
      </trkpt>
      <trkpt lat="47.76929" lon="6.72975">
        <ele>772.76245</ele>
        <time>2020-09-13T07:45:56Z</time>
      </trkpt>
      <trkpt lat="47.76874" lon="6.72967">
        <ele>769.58777</ele>
        <time>2020-09-13T07:46:01Z</time>
      </trkpt>
      <trkpt lat="47.76836" lon="6.73024">
        <ele>766.8636</ele>
        <time>2020-09-13T07:46:06Z</time>
      </trkpt>
      <trkpt lat="47.76804" lon="6.73097">
        <ele>762.7446</ele>
        <time>2020-09-13T07:46:11Z</time>
      </trkpt>
      <trkpt lat="47.76772" lon="6.73176">
        <ele>758.27075</ele>
        <time>2020-09-13T07:46:16Z</time>
      </trkpt>
      <trkpt lat="47.76741" lon="6.73254">
        <ele>754.4157</ele>
        <time>2020-09-13T07:46:21Z</time>
      </trkpt>
      <trkpt lat="47.76664" lon="6.73342">
        <ele>747.4737</ele>
        <time>2020-09-13T07:46:31Z</time>
      </trkpt>
      <trkpt lat="47.76553" lon="6.7338">
        <ele>739.5457</ele>
        <time>2020-09-13T07:46:41Z</time>
      </trkpt>
      <trkpt lat="47.76438" lon="6.7338">
        <ele>731.19574</ele>
        <time>2020-09-13T07:46:51Z</time>
      </trkpt>
      <trkpt lat="47.764" lon="6.7331">
        <ele>727.1744</ele>
        <time>2020-09-13T07:46:56Z</time>
      </trkpt>
      <trkpt lat="47.76375" lon="6.73225">
        <ele>722.92456</ele>
        <time>2020-09-13T07:47:01Z</time>
      </trkpt>
      <trkpt lat="47.7635" lon="6.73152">
        <ele>719.5851</ele>
        <time>2020-09-13T07:47:06Z</time>
      </trkpt>
      <trkpt lat="47.76306" lon="6.73095">
        <ele>715.82153</ele>
        <time>2020-09-13T07:47:11Z</time>
      </trkpt>
      <trkpt lat="47.76259" lon="6.7305">
        <ele>711.3714</ele>
        <time>2020-09-13T07:47:16Z</time>
      </trkpt>
      <trkpt lat="47.762" lon="6.72917">
        <ele>703.0176</ele>
        <time>2020-09-13T07:47:26Z</time>
      </trkpt>
      <trkpt lat="47.76154" lon="6.7277">
        <ele>695.25146</ele>
        <time>2020-09-13T07:47:36Z</time>
      </trkpt>
      <trkpt lat="47.76128" lon="6.72691">
        <ele>691.84766</ele>
        <time>2020-09-13T07:47:41Z</time>
      </trkpt>
      <trkpt lat="47.76101" lon="6.72619">
        <ele>688.573</ele>
        <time>2020-09-13T07:47:46Z</time>
      </trkpt>
      <trkpt lat="47.76065" lon="6.72552">
        <ele>684.5961</ele>
        <time>2020-09-13T07:47:51Z</time>
      </trkpt>
      <trkpt lat="47.76017" lon="6.72511">
        <ele>681.3093</ele>
        <time>2020-09-13T07:47:56Z</time>
      </trkpt>
      <trkpt lat="47.75962" lon="6.72482">
        <ele>678.6214</ele>
        <time>2020-09-13T07:48:01Z</time>
      </trkpt>
      <trkpt lat="47.75896" lon="6.72355">
        <ele>672.9157</ele>
        <time>2020-09-13T07:48:11Z</time>
      </trkpt>
      <trkpt lat="47.75835" lon="6.72217">
        <ele>665.0559</ele>
        <time>2020-09-13T07:48:21Z</time>
      </trkpt>
      <trkpt lat="47.75794" lon="6.72159">
        <ele>661.0383</ele>
        <time>2020-09-13T07:48:26Z</time>
      </trkpt>
      <trkpt lat="47.75758" lon="6.72097">
        <ele>657.80597</ele>
        <time>2020-09-13T07:48:31Z</time>
      </trkpt>
      <trkpt lat="47.75729" lon="6.72031">
        <ele>654.39355</ele>
        <time>2020-09-13T07:48:36Z</time>
      </trkpt>
      <trkpt lat="47.75683" lon="6.71969">
        <ele>649.1193</ele>
        <time>2020-09-13T07:48:41Z</time>
      </trkpt>
      <trkpt lat="47.75643" lon="6.71919">
        <ele>645.86017</ele>
        <time>2020-09-13T07:48:46Z</time>
      </trkpt>
      <trkpt lat="47.75665" lon="6.71886">
        <ele>639.41455</ele>
        <time>2020-09-13T07:48:56Z</time>
      </trkpt>
      <trkpt lat="47.75763" lon="6.71904">
        <ele>634.5964</ele>
        <time>2020-09-13T07:49:06Z</time>
      </trkpt>
      <trkpt lat="47.75731" lon="6.71874">
        <ele>628.3283</ele>
        <time>2020-09-13T07:49:16Z</time>
      </trkpt>
      <trkpt lat="47.75691" lon="6.71823">
        <ele>624.60864</ele>
        <time>2020-09-13T07:49:21Z</time>
      </trkpt>
      <trkpt lat="47.75662" lon="6.71751">
        <ele>621.0679</ele>
        <time>2020-09-13T07:49:26Z</time>
      </trkpt>
      <trkpt lat="47.75657" lon="6.71663">
        <ele>618.61835</ele>
        <time>2020-09-13T07:49:31Z</time>
      </trkpt>
      <trkpt lat="47.75628" lon="6.71619">
        <ele>615.6152</ele>
        <time>2020-09-13T07:49:36Z</time>
      </trkpt>
      <trkpt lat="47.75621" lon="6.7161">
        <ele>610.3643</ele>
        <time>2020-09-13T07:49:41Z</time>
      </trkpt>
      <trkpt lat="47.75615" lon="6.71601">
        <ele>612.4362</ele>
        <time>2020-09-13T07:49:51Z</time>
      </trkpt>
      <trkpt lat="47.75608" lon="6.71601">
        <ele>609.28625</ele>
        <time>2020-09-13T07:50:06Z</time>
      </trkpt>
      <trkpt lat="47.75589" lon="6.7161">
        <ele>607.6483</ele>
        <time>2020-09-13T07:50:11Z</time>
      </trkpt>
      <trkpt lat="47.75559" lon="6.71629">
        <ele>607.1322</ele>
        <time>2020-09-13T07:50:16Z</time>
      </trkpt>
      <trkpt lat="47.75526" lon="6.7167">
        <ele>604.9316</ele>
        <time>2020-09-13T07:50:21Z</time>
      </trkpt>
      <trkpt lat="47.75499" lon="6.71722">
        <ele>600.1381</ele>
        <time>2020-09-13T07:50:26Z</time>
      </trkpt>
      <trkpt lat="47.75457" lon="6.71856">
        <ele>596.34784</ele>
        <time>2020-09-13T07:50:36Z</time>
      </trkpt>
      <trkpt lat="47.75475" lon="6.72024">
        <ele>589.60126</ele>
        <time>2020-09-13T07:50:46Z</time>
      </trkpt>
      <trkpt lat="47.75517" lon="6.72088">
        <ele>588.24854</ele>
        <time>2020-09-13T07:50:51Z</time>
      </trkpt>
      <trkpt lat="47.75565" lon="6.72145">
        <ele>583.9112</ele>
        <time>2020-09-13T07:50:56Z</time>
      </trkpt>
      <trkpt lat="47.75596" lon="6.72222">
        <ele>580.73474</ele>
        <time>2020-09-13T07:51:01Z</time>
      </trkpt>
      <trkpt lat="47.75615" lon="6.7231">
        <ele>579.63367</ele>
        <time>2020-09-13T07:51:06Z</time>
      </trkpt>
      <trkpt lat="47.75626" lon="6.72386">
        <ele>576.97925</ele>
        <time>2020-09-13T07:51:11Z</time>
      </trkpt>
      <trkpt lat="47.75545" lon="6.72396">
        <ele>574.5763</ele>
        <time>2020-09-13T07:51:21Z</time>
      </trkpt>
      <trkpt lat="47.75459" lon="6.72265">
        <ele>569.69385</ele>
        <time>2020-09-13T07:51:31Z</time>
      </trkpt>
      <trkpt lat="47.7538" lon="6.72146">
        <ele>563.28546</ele>
        <time>2020-09-13T07:51:41Z</time>
      </trkpt>
      <trkpt lat="47.75332" lon="6.7212">
        <ele>560.34863</ele>
        <time>2020-09-13T07:51:46Z</time>
      </trkpt>
      <trkpt lat="47.75297" lon="6.7218">
        <ele>555.1423</ele>
        <time>2020-09-13T07:51:51Z</time>
      </trkpt>
      <trkpt lat="47.75269" lon="6.72241">
        <ele>550.7332</ele>
        <time>2020-09-13T07:51:56Z</time>
      </trkpt>
      <trkpt lat="47.75222" lon="6.7222">
        <ele>551.09973</ele>
        <time>2020-09-13T07:52:01Z</time>
      </trkpt>
      <trkpt lat="47.75206" lon="6.72151">
        <ele>547.76855</ele>
        <time>2020-09-13T07:52:06Z</time>
      </trkpt>
      <trkpt lat="47.75151" lon="6.72058">
        <ele>537.51416</ele>
        <time>2020-09-13T07:52:16Z</time>
      </trkpt>
      <trkpt lat="47.75087" lon="6.7218">
        <ele>537.46344</ele>
        <time>2020-09-13T07:52:26Z</time>
      </trkpt>
      <trkpt lat="47.75081" lon="6.72261">
        <ele>537.59235</ele>
        <time>2020-09-13T07:52:31Z</time>
      </trkpt>
      <trkpt lat="47.75103" lon="6.72328">
        <ele>535.36505</ele>
        <time>2020-09-13T07:52:36Z</time>
      </trkpt>
      <trkpt lat="47.75154" lon="6.72359">
        <ele>533.8492</ele>
        <time>2020-09-13T07:52:41Z</time>
      </trkpt>
      <trkpt lat="47.75202" lon="6.72403">
        <ele>531.50055</ele>
        <time>2020-09-13T07:52:46Z</time>
      </trkpt>
      <trkpt lat="47.75216" lon="6.72478">
        <ele>530.52466</ele>
        <time>2020-09-13T07:52:51Z</time>
      </trkpt>
      <trkpt lat="47.75153" lon="6.72608">
        <ele>526.2087</ele>
        <time>2020-09-13T07:53:01Z</time>
      </trkpt>
      <trkpt lat="47.7515" lon="6.72751">
        <ele>520.7426</ele>
        <time>2020-09-13T07:53:11Z</time>
      </trkpt>
      <trkpt lat="47.75113" lon="6.72805">
        <ele>518.17737</ele>
        <time>2020-09-13T07:53:16Z</time>
      </trkpt>
      <trkpt lat="47.75094" lon="6.72883">
        <ele>510.99222</ele>
        <time>2020-09-13T07:53:21Z</time>
      </trkpt>
      <trkpt lat="47.75077" lon="6.72956">
        <ele>511.9551</ele>
        <time>2020-09-13T07:53:26Z</time>
      </trkpt>
      <trkpt lat="47.75064" lon="6.73021">
        <ele>508.20517</ele>
        <time>2020-09-13T07:53:31Z</time>
      </trkpt>
      <trkpt lat="47.75057" lon="6.73067">
        <ele>504.4214</ele>
        <time>2020-09-13T07:53:36Z</time>
      </trkpt>
      <trkpt lat="47.75106" lon="6.73107">
        <ele>492.1736</ele>
        <time>2020-09-13T07:53:46Z</time>
      </trkpt>
      <trkpt lat="47.75166" lon="6.7314">
        <ele>503.67566</ele>
        <time>2020-09-13T07:53:56Z</time>
      </trkpt>
      <trkpt lat="47.75213" lon="6.73185">
        <ele>497.12924</ele>
        <time>2020-09-13T07:54:06Z</time>
      </trkpt>
      <trkpt lat="47.75235" lon="6.73206">
        <ele>503.12143</ele>
        <time>2020-09-13T07:54:11Z</time>
      </trkpt>
      <trkpt lat="47.75262" lon="6.73226">
        <ele>507.27182</ele>
        <time>2020-09-13T07:54:16Z</time>
      </trkpt>
      <trkpt lat="47.7529" lon="6.7324">
        <ele>508.62674</ele>
        <time>2020-09-13T07:54:21Z</time>
      </trkpt>
      <trkpt lat="47.75317" lon="6.73251">
        <ele>507.18164</ele>
        <time>2020-09-13T07:54:26Z</time>
      </trkpt>
      <trkpt lat="47.75347" lon="6.73263">
        <ele>511.63583</ele>
        <time>2020-09-13T07:54:31Z</time>
      </trkpt>
      <trkpt lat="47.75407" lon="6.73318">
        <ele>507.72076</ele>
        <time>2020-09-13T07:54:41Z</time>
      </trkpt>
      <trkpt lat="47.75454" lon="6.7339">
        <ele>507.20798</ele>
        <time>2020-09-13T07:54:51Z</time>
      </trkpt>
      <trkpt lat="47.75475" lon="6.73426">
        <ele>506.25342</ele>
        <time>2020-09-13T07:54:56Z</time>
      </trkpt>
      <trkpt lat="47.75497" lon="6.73462">
        <ele>504.30994</ele>
        <time>2020-09-13T07:55:01Z</time>
      </trkpt>
      <trkpt lat="47.75517" lon="6.73496">
        <ele>504.10425</ele>
        <time>2020-09-13T07:55:06Z</time>
      </trkpt>
      <trkpt lat="47.75533" lon="6.73534">
        <ele>502.7182</ele>
        <time>2020-09-13T07:55:11Z</time>
      </trkpt>
      <trkpt lat="47.75544" lon="6.73577">
        <ele>501.06577</ele>
        <time>2020-09-13T07:55:16Z</time>
      </trkpt>
      <trkpt lat="47.75553" lon="6.73671">
        <ele>497.80588</ele>
        <time>2020-09-13T07:55:26Z</time>
      </trkpt>
      <trkpt lat="47.7557" lon="6.73757">
        <ele>497.1191</ele>
        <time>2020-09-13T07:55:36Z</time>
      </trkpt>
      <trkpt lat="47.75592" lon="6.73786">
        <ele>495.91177</ele>
        <time>2020-09-13T07:55:41Z</time>
      </trkpt>
      <trkpt lat="47.7562" lon="6.73805">
        <ele>494.2244</ele>
        <time>2020-09-13T07:55:46Z</time>
      </trkpt>
      <trkpt lat="47.75646" lon="6.73816">
        <ele>491.46475</ele>
        <time>2020-09-13T07:55:51Z</time>
      </trkpt>
      <trkpt lat="47.75677" lon="6.73819">
        <ele>487.97443</ele>
        <time>2020-09-13T07:55:56Z</time>
      </trkpt>
      <trkpt lat="47.75707" lon="6.73825">
        <ele>492.9848</ele>
        <time>2020-09-13T07:56:01Z</time>
      </trkpt>
      <trkpt lat="47.7576" lon="6.73876">
        <ele>495.0843</ele>
        <time>2020-09-13T07:56:11Z</time>
      </trkpt>
      <trkpt lat="47.75806" lon="6.73931">
        <ele>495.27875</ele>
        <time>2020-09-13T07:56:21Z</time>
      </trkpt>
      <trkpt lat="47.75847" lon="6.73972">
        <ele>493.82538</ele>
        <time>2020-09-13T07:56:31Z</time>
      </trkpt>
      <trkpt lat="47.75867" lon="6.73984">
        <ele>496.5438</ele>
        <time>2020-09-13T07:56:36Z</time>
      </trkpt>
      <trkpt lat="47.75889" lon="6.74001">
        <ele>500.45184</ele>
        <time>2020-09-13T07:56:41Z</time>
      </trkpt>
      <trkpt lat="47.75911" lon="6.74022">
        <ele>499.57556</ele>
        <time>2020-09-13T07:56:46Z</time>
      </trkpt>
      <trkpt lat="47.7593" lon="6.74044">
        <ele>496.9702</ele>
        <time>2020-09-13T07:56:51Z</time>
      </trkpt>
      <trkpt lat="47.7595" lon="6.74063">
        <ele>495.9766</ele>
        <time>2020-09-13T07:56:56Z</time>
      </trkpt>
      <trkpt lat="47.75988" lon="6.74108">
        <ele>494.44925</ele>
        <time>2020-09-13T07:57:06Z</time>
      </trkpt>
      <trkpt lat="47.76032" lon="6.74125">
        <ele>494.4614</ele>
        <time>2020-09-13T07:57:16Z</time>
      </trkpt>
      <trkpt lat="47.76059" lon="6.7414">
        <ele>494.45126</ele>
        <time>2020-09-13T07:57:21Z</time>
      </trkpt>
      <trkpt lat="47.76082" lon="6.74157">
        <ele>495.59372</ele>
        <time>2020-09-13T07:57:26Z</time>
      </trkpt>
      <trkpt lat="47.76101" lon="6.74187">
        <ele>495.95328</ele>
        <time>2020-09-13T07:57:31Z</time>
      </trkpt>
      <trkpt lat="47.76115" lon="6.74215">
        <ele>496.00494</ele>
        <time>2020-09-13T07:57:36Z</time>
      </trkpt>
      <trkpt lat="47.76134" lon="6.74237">
        <ele>496.63293</ele>
        <time>2020-09-13T07:57:41Z</time>
      </trkpt>
      <trkpt lat="47.76179" lon="6.74253">
        <ele>494.72574</ele>
        <time>2020-09-13T07:57:51Z</time>
      </trkpt>
      <trkpt lat="47.76225" lon="6.74232">
        <ele>495.04578</ele>
        <time>2020-09-13T07:58:01Z</time>
      </trkpt>
      <trkpt lat="47.76251" lon="6.74222">
        <ele>494.667</ele>
        <time>2020-09-13T07:58:06Z</time>
      </trkpt>
      <trkpt lat="47.76277" lon="6.74222">
        <ele>496.67648</ele>
        <time>2020-09-13T07:58:11Z</time>
      </trkpt>
      <trkpt lat="47.76302" lon="6.7422">
        <ele>497.10696</ele>
        <time>2020-09-13T07:58:16Z</time>
      </trkpt>
      <trkpt lat="47.76331" lon="6.74216">
        <ele>496.58432</ele>
        <time>2020-09-13T07:58:21Z</time>
      </trkpt>
      <trkpt lat="47.76358" lon="6.74209">
        <ele>495.65652</ele>
        <time>2020-09-13T07:58:26Z</time>
      </trkpt>
      <trkpt lat="47.76406" lon="6.74187">
        <ele>495.97455</ele>
        <time>2020-09-13T07:58:36Z</time>
      </trkpt>
      <trkpt lat="47.76448" lon="6.74167">
        <ele>495.3081</ele>
        <time>2020-09-13T07:58:46Z</time>
      </trkpt>
      <trkpt lat="47.76505" lon="6.74156">
        <ele>495.25342</ele>
        <time>2020-09-13T07:58:56Z</time>
      </trkpt>
      <trkpt lat="47.76529" lon="6.74149">
        <ele>499.27975</ele>
        <time>2020-09-13T07:59:01Z</time>
      </trkpt>
      <trkpt lat="47.76555" lon="6.74139">
        <ele>501.72937</ele>
        <time>2020-09-13T07:59:06Z</time>
      </trkpt>
      <trkpt lat="47.76577" lon="6.74137">
        <ele>503.72327</ele>
        <time>2020-09-13T07:59:11Z</time>
      </trkpt>
      <trkpt lat="47.76604" lon="6.74146">
        <ele>505.06683</ele>
        <time>2020-09-13T07:59:16Z</time>
      </trkpt>
      <trkpt lat="47.7663" lon="6.74154">
        <ele>498.58282</ele>
        <time>2020-09-13T07:59:21Z</time>
      </trkpt>
      <trkpt lat="47.76674" lon="6.74195">
        <ele>504.90268</ele>
        <time>2020-09-13T07:59:31Z</time>
      </trkpt>
      <trkpt lat="47.76716" lon="6.74248">
        <ele>504.14377</ele>
        <time>2020-09-13T07:59:41Z</time>
      </trkpt>
      <trkpt lat="47.7674" lon="6.74267">
        <ele>499.9453</ele>
        <time>2020-09-13T07:59:46Z</time>
      </trkpt>
      <trkpt lat="47.76764" lon="6.74279">
        <ele>497.0158</ele>
        <time>2020-09-13T07:59:51Z</time>
      </trkpt>
      <trkpt lat="47.76788" lon="6.74283">
        <ele>495.33344</ele>
        <time>2020-09-13T07:59:56Z</time>
      </trkpt>
      <trkpt lat="47.76814" lon="6.74275">
        <ele>500.16922</ele>
        <time>2020-09-13T08:00:01Z</time>
      </trkpt>
      <trkpt lat="47.76834" lon="6.74255">
        <ele>500.96344</ele>
        <time>2020-09-13T08:00:06Z</time>
      </trkpt>
      <trkpt lat="47.76867" lon="6.74221">
        <ele>501.623</ele>
        <time>2020-09-13T08:00:16Z</time>
      </trkpt>
      <trkpt lat="47.76909" lon="6.74212">
        <ele>503.82358</ele>
        <time>2020-09-13T08:00:26Z</time>
      </trkpt>
      <trkpt lat="47.76929" lon="6.74215">
        <ele>504.3606</ele>
        <time>2020-09-13T08:00:31Z</time>
      </trkpt>
      <trkpt lat="47.7695" lon="6.74223">
        <ele>505.70215</ele>
        <time>2020-09-13T08:00:36Z</time>
      </trkpt>
      <trkpt lat="47.77068" lon="6.74389">
        <ele>511.35812</ele>
        <time>2020-09-13T08:01:11Z</time>
      </trkpt>
      <trkpt lat="47.771" lon="6.7445">
        <ele>510.11047</ele>
        <time>2020-09-13T08:01:21Z</time>
      </trkpt>
      <trkpt lat="47.7711" lon="6.74468">
        <ele>502.73035</ele>
        <time>2020-09-13T08:01:26Z</time>
      </trkpt>
      <trkpt lat="47.77119" lon="6.74485">
        <ele>506.39426</ele>
        <time>2020-09-13T08:01:31Z</time>
      </trkpt>
      <trkpt lat="47.77125" lon="6.74497">
        <ele>508.69263</ele>
        <time>2020-09-13T08:01:36Z</time>
      </trkpt>
      <trkpt lat="47.77124" lon="6.74508">
        <ele>503.57535</ele>
        <time>2020-09-13T08:01:41Z</time>
      </trkpt>
      <trkpt lat="47.7712" lon="6.74524">
        <ele>506.56854</ele>
        <time>2020-09-13T08:01:46Z</time>
      </trkpt>
      <trkpt lat="47.77111" lon="6.74559">
        <ele>513.61035</ele>
        <time>2020-09-13T08:01:56Z</time>
      </trkpt>
      <trkpt lat="47.77104" lon="6.74602">
        <ele>513.1015</ele>
        <time>2020-09-13T08:02:06Z</time>
      </trkpt>
      <trkpt lat="47.77105" lon="6.74632">
        <ele>512.17914</ele>
        <time>2020-09-13T08:02:11Z</time>
      </trkpt>
      <trkpt lat="47.77125" lon="6.74664">
        <ele>511.56082</ele>
        <time>2020-09-13T08:02:16Z</time>
      </trkpt>
      <trkpt lat="47.77147" lon="6.74692">
        <ele>511.03378</ele>
        <time>2020-09-13T08:02:21Z</time>
      </trkpt>
      <trkpt lat="47.77169" lon="6.74717">
        <ele>510.9152</ele>
        <time>2020-09-13T08:02:26Z</time>
      </trkpt>
      <trkpt lat="47.77182" lon="6.7474">
        <ele>511.1412</ele>
        <time>2020-09-13T08:02:31Z</time>
      </trkpt>
      <trkpt lat="47.77198" lon="6.74792">
        <ele>511.50305</ele>
        <time>2020-09-13T08:02:41Z</time>
      </trkpt>
      <trkpt lat="47.77197" lon="6.74849">
        <ele>513.75024</ele>
        <time>2020-09-13T08:02:51Z</time>
      </trkpt>
      <trkpt lat="47.77205" lon="6.7488">
        <ele>515.18463</ele>
        <time>2020-09-13T08:02:56Z</time>
      </trkpt>
      <trkpt lat="47.77217" lon="6.7491">
        <ele>515.3965</ele>
        <time>2020-09-13T08:03:01Z</time>
      </trkpt>
      <trkpt lat="47.77231" lon="6.74947">
        <ele>515.17554</ele>
        <time>2020-09-13T08:03:06Z</time>
      </trkpt>
      <trkpt lat="47.77242" lon="6.74984">
        <ele>515.5759</ele>
        <time>2020-09-13T08:03:11Z</time>
      </trkpt>
      <trkpt lat="47.7725" lon="6.75017">
        <ele>515.99664</ele>
        <time>2020-09-13T08:03:16Z</time>
      </trkpt>
      <trkpt lat="47.77259" lon="6.75049">
        <ele>516.84216</ele>
        <time>2020-09-13T08:03:21Z</time>
      </trkpt>
      <trkpt lat="47.77268" lon="6.75081">
        <ele>517.44135</ele>
        <time>2020-09-13T08:03:26Z</time>
      </trkpt>
      <trkpt lat="47.77276" lon="6.75129">
        <ele>518.4795</ele>
        <time>2020-09-13T08:03:36Z</time>
      </trkpt>
      <trkpt lat="47.77292" lon="6.7517">
        <ele>518.9591</ele>
        <time>2020-09-13T08:03:46Z</time>
      </trkpt>
      <trkpt lat="47.77297" lon="6.752">
        <ele>519.1335</ele>
        <time>2020-09-13T08:03:51Z</time>
      </trkpt>
      <trkpt lat="47.77303" lon="6.75232">
        <ele>521.0671</ele>
        <time>2020-09-13T08:03:56Z</time>
      </trkpt>
      <trkpt lat="47.77309" lon="6.75257">
        <ele>521.5264</ele>
        <time>2020-09-13T08:04:01Z</time>
      </trkpt>
      <trkpt lat="47.77317" lon="6.75278">
        <ele>521.31854</ele>
        <time>2020-09-13T08:04:06Z</time>
      </trkpt>
      <trkpt lat="47.77323" lon="6.75302">
        <ele>521.98376</ele>
        <time>2020-09-13T08:04:11Z</time>
      </trkpt>
      <trkpt lat="47.7734" lon="6.75358">
        <ele>523.3781</ele>
        <time>2020-09-13T08:04:21Z</time>
      </trkpt>
      <trkpt lat="47.77351" lon="6.75423">
        <ele>525.9399</ele>
        <time>2020-09-13T08:04:31Z</time>
      </trkpt>
      <trkpt lat="47.77356" lon="6.75454">
        <ele>525.43585</ele>
        <time>2020-09-13T08:04:36Z</time>
      </trkpt>
      <trkpt lat="47.77362" lon="6.75483">
        <ele>525.0413</ele>
        <time>2020-09-13T08:04:41Z</time>
      </trkpt>
      <trkpt lat="47.77372" lon="6.75504">
        <ele>528.4705</ele>
        <time>2020-09-13T08:04:46Z</time>
      </trkpt>
      <trkpt lat="47.77383" lon="6.75534">
        <ele>529.65936</ele>
        <time>2020-09-13T08:04:51Z</time>
      </trkpt>
      <trkpt lat="47.7739" lon="6.75556">
        <ele>527.57184</ele>
        <time>2020-09-13T08:04:56Z</time>
      </trkpt>
      <trkpt lat="47.77401" lon="6.75592">
        <ele>530.5084</ele>
        <time>2020-09-13T08:05:06Z</time>
      </trkpt>
      <trkpt lat="47.77413" lon="6.75637">
        <ele>532.9402</ele>
        <time>2020-09-13T08:05:16Z</time>
      </trkpt>
      <trkpt lat="47.77421" lon="6.75654">
        <ele>529.67456</ele>
        <time>2020-09-13T08:05:21Z</time>
      </trkpt>
      <trkpt lat="47.77428" lon="6.75674">
        <ele>535.31433</ele>
        <time>2020-09-13T08:05:26Z</time>
      </trkpt>
      <trkpt lat="47.77434" lon="6.75693">
        <ele>537.3853</ele>
        <time>2020-09-13T08:05:31Z</time>
      </trkpt>
      <trkpt lat="47.7744" lon="6.75713">
        <ele>538.9105</ele>
        <time>2020-09-13T08:05:36Z</time>
      </trkpt>
      <trkpt lat="47.77446" lon="6.75748">
        <ele>538.9765</ele>
        <time>2020-09-13T08:05:41Z</time>
      </trkpt>
      <trkpt lat="47.77451" lon="6.75782">
        <ele>538.9826</ele>
        <time>2020-09-13T08:05:46Z</time>
      </trkpt>
      <trkpt lat="47.77461" lon="6.75817">
        <ele>537.29193</ele>
        <time>2020-09-13T08:05:51Z</time>
      </trkpt>
      <trkpt lat="47.77499" lon="6.75862">
        <ele>536.5289</ele>
        <time>2020-09-13T08:06:01Z</time>
      </trkpt>
      <trkpt lat="47.77529" lon="6.75891">
        <ele>535.9637</ele>
        <time>2020-09-13T08:06:11Z</time>
      </trkpt>
      <trkpt lat="47.77541" lon="6.75909">
        <ele>539.75995</ele>
        <time>2020-09-13T08:06:16Z</time>
      </trkpt>
      <trkpt lat="47.77557" lon="6.75931">
        <ele>542.8088</ele>
        <time>2020-09-13T08:06:21Z</time>
      </trkpt>
      <trkpt lat="47.7757" lon="6.75956">
        <ele>545.523</ele>
        <time>2020-09-13T08:06:26Z</time>
      </trkpt>
      <trkpt lat="47.77584" lon="6.75979">
        <ele>543.41473</ele>
        <time>2020-09-13T08:06:31Z</time>
      </trkpt>
      <trkpt lat="47.77597" lon="6.76001">
        <ele>543.8451</ele>
        <time>2020-09-13T08:06:36Z</time>
      </trkpt>
      <trkpt lat="47.77623" lon="6.76048">
        <ele>543.1021</ele>
        <time>2020-09-13T08:06:46Z</time>
      </trkpt>
      <trkpt lat="47.77642" lon="6.76082">
        <ele>544.3638</ele>
        <time>2020-09-13T08:06:56Z</time>
      </trkpt>
      <trkpt lat="47.77652" lon="6.76099">
        <ele>546.21735</ele>
        <time>2020-09-13T08:07:01Z</time>
      </trkpt>
      <trkpt lat="47.77661" lon="6.76115">
        <ele>546.6813</ele>
        <time>2020-09-13T08:07:06Z</time>
      </trkpt>
      <trkpt lat="47.77672" lon="6.76135">
        <ele>548.9838</ele>
        <time>2020-09-13T08:07:11Z</time>
      </trkpt>
      <trkpt lat="47.77683" lon="6.7615">
        <ele>549.7037</ele>
        <time>2020-09-13T08:07:16Z</time>
      </trkpt>
      <trkpt lat="47.77692" lon="6.7617">
        <ele>549.2437</ele>
        <time>2020-09-13T08:07:21Z</time>
      </trkpt>
      <trkpt lat="47.77706" lon="6.76215">
        <ele>549.09753</ele>
        <time>2020-09-13T08:07:31Z</time>
      </trkpt>
      <trkpt lat="47.77725" lon="6.7627">
        <ele>550.5545</ele>
        <time>2020-09-13T08:07:41Z</time>
      </trkpt>
      <trkpt lat="47.77733" lon="6.76294">
        <ele>550.76166</ele>
        <time>2020-09-13T08:07:46Z</time>
      </trkpt>
      <trkpt lat="47.7774" lon="6.76318">
        <ele>550.19</ele>
        <time>2020-09-13T08:07:51Z</time>
      </trkpt>
      <trkpt lat="47.77747" lon="6.7634">
        <ele>551.5272</ele>
        <time>2020-09-13T08:07:56Z</time>
      </trkpt>
      <trkpt lat="47.7776" lon="6.76364">
        <ele>553.45245</ele>
        <time>2020-09-13T08:08:01Z</time>
      </trkpt>
      <trkpt lat="47.77781" lon="6.76386">
        <ele>552.2898</ele>
        <time>2020-09-13T08:08:06Z</time>
      </trkpt>
      <trkpt lat="47.77819" lon="6.7642">
        <ele>551.3739</ele>
        <time>2020-09-13T08:08:11Z</time>
      </trkpt>
      <trkpt lat="47.77853" lon="6.76451">
        <ele>551.67444</ele>
        <time>2020-09-13T08:08:16Z</time>
      </trkpt>
      <trkpt lat="47.77918" lon="6.76499">
        <ele>552.0938</ele>
        <time>2020-09-13T08:08:26Z</time>
      </trkpt>
      <trkpt lat="47.77948" lon="6.76517">
        <ele>552.6594</ele>
        <time>2020-09-13T08:08:31Z</time>
      </trkpt>
      <trkpt lat="47.77976" lon="6.76542">
        <ele>551.9364</ele>
        <time>2020-09-13T08:08:36Z</time>
      </trkpt>
      <trkpt lat="47.77999" lon="6.76568">
        <ele>550.51184</ele>
        <time>2020-09-13T08:08:41Z</time>
      </trkpt>
      <trkpt lat="47.78022" lon="6.76594">
        <ele>552.959</ele>
        <time>2020-09-13T08:08:46Z</time>
      </trkpt>
      <trkpt lat="47.78039" lon="6.76614">
        <ele>548.19293</ele>
        <time>2020-09-13T08:08:51Z</time>
      </trkpt>
      <trkpt lat="47.78053" lon="6.76635">
        <ele>552.4228</ele>
        <time>2020-09-13T08:08:56Z</time>
      </trkpt>
      <trkpt lat="47.78072" lon="6.76655">
        <ele>554.99506</ele>
        <time>2020-09-13T08:09:01Z</time>
      </trkpt>
      <trkpt lat="47.78108" lon="6.76703">
        <ele>555.9568</ele>
        <time>2020-09-13T08:09:11Z</time>
      </trkpt>
      <trkpt lat="47.78138" lon="6.76783">
        <ele>556.2503</ele>
        <time>2020-09-13T08:09:21Z</time>
      </trkpt>
      <trkpt lat="47.78157" lon="6.76818">
        <ele>556.69714</ele>
        <time>2020-09-13T08:09:26Z</time>
      </trkpt>
      <trkpt lat="47.78182" lon="6.76839">
        <ele>557.077</ele>
        <time>2020-09-13T08:09:31Z</time>
      </trkpt>
      <trkpt lat="47.78204" lon="6.76863">
        <ele>557.94135</ele>
        <time>2020-09-13T08:09:36Z</time>
      </trkpt>
      <trkpt lat="47.78217" lon="6.76877">
        <ele>556.4798</ele>
        <time>2020-09-13T08:09:41Z</time>
      </trkpt>
      <trkpt lat="47.7823" lon="6.76889">
        <ele>555.11993</ele>
        <time>2020-09-13T08:09:46Z</time>
      </trkpt>
      <trkpt lat="47.78253" lon="6.76911">
        <ele>558.0703</ele>
        <time>2020-09-13T08:09:56Z</time>
      </trkpt>
      <trkpt lat="47.78277" lon="6.76926">
        <ele>566.83136</ele>
        <time>2020-09-13T08:10:06Z</time>
      </trkpt>
      <trkpt lat="47.78324" lon="6.76917">
        <ele>567.08026</ele>
        <time>2020-09-13T08:10:26Z</time>
      </trkpt>
      <trkpt lat="47.78336" lon="6.76913">
        <ele>568.82196</ele>
        <time>2020-09-13T08:10:31Z</time>
      </trkpt>
      <trkpt lat="47.78353" lon="6.76907">
        <ele>570.0871</ele>
        <time>2020-09-13T08:10:36Z</time>
      </trkpt>
      <trkpt lat="47.78365" lon="6.76902">
        <ele>568.6045</ele>
        <time>2020-09-13T08:10:41Z</time>
      </trkpt>
      <trkpt lat="47.78394" lon="6.76888">
        <ele>573.35046</ele>
        <time>2020-09-13T08:10:51Z</time>
      </trkpt>
      <trkpt lat="47.78404" lon="6.76881">
        <ele>573.80176</ele>
        <time>2020-09-13T08:10:56Z</time>
      </trkpt>
      <trkpt lat="47.78409" lon="6.76874">
        <ele>576.5442</ele>
        <time>2020-09-13T08:11:01Z</time>
      </trkpt>
      <trkpt lat="47.78415" lon="6.76869">
        <ele>574.4096</ele>
        <time>2020-09-13T08:11:06Z</time>
      </trkpt>
      <trkpt lat="47.78433" lon="6.7687">
        <ele>577.42145</ele>
        <time>2020-09-13T08:11:16Z</time>
      </trkpt>
      <trkpt lat="47.78441" lon="6.76872">
        <ele>579.8746</ele>
        <time>2020-09-13T08:11:21Z</time>
      </trkpt>
      <trkpt lat="47.7845" lon="6.76873">
        <ele>580.9777</ele>
        <time>2020-09-13T08:11:26Z</time>
      </trkpt>
      <trkpt lat="47.78474" lon="6.76896">
        <ele>583.51154</ele>
        <time>2020-09-13T08:11:36Z</time>
      </trkpt>
      <trkpt lat="47.78497" lon="6.76918">
        <ele>587.20605</ele>
        <time>2020-09-13T08:11:46Z</time>
      </trkpt>
      <trkpt lat="47.78508" lon="6.7693">
        <ele>581.85516</ele>
        <time>2020-09-13T08:11:51Z</time>
      </trkpt>
      <trkpt lat="47.78514" lon="6.7694">
        <ele>587.2325</ele>
        <time>2020-09-13T08:11:56Z</time>
      </trkpt>
      <trkpt lat="47.78526" lon="6.76947">
        <ele>588.60046</ele>
        <time>2020-09-13T08:12:01Z</time>
      </trkpt>
      <trkpt lat="47.78533" lon="6.76963">
        <ele>589.75183</ele>
        <time>2020-09-13T08:12:06Z</time>
      </trkpt>
      <trkpt lat="47.78542" lon="6.76998">
        <ele>591.9123</ele>
        <time>2020-09-13T08:12:15Z</time>
      </trkpt>
      <trkpt lat="47.78557" lon="6.77038">
        <ele>592.24695</ele>
        <time>2020-09-13T08:12:21Z</time>
      </trkpt>
      <trkpt lat="47.78589" lon="6.77102">
        <ele>594.76276</ele>
        <time>2020-09-13T08:12:31Z</time>
      </trkpt>
      <trkpt lat="47.78605" lon="6.7713">
        <ele>593.7393</ele>
        <time>2020-09-13T08:12:36Z</time>
      </trkpt>
      <trkpt lat="47.78622" lon="6.77164">
        <ele>595.8473</ele>
        <time>2020-09-13T08:12:41Z</time>
      </trkpt>
      <trkpt lat="47.78636" lon="6.77202">
        <ele>596.96545</ele>
        <time>2020-09-13T08:12:46Z</time>
      </trkpt>
      <trkpt lat="47.78652" lon="6.77228">
        <ele>597.5627</ele>
        <time>2020-09-13T08:12:51Z</time>
      </trkpt>
      <trkpt lat="47.78664" lon="6.77248">
        <ele>598.0155</ele>
        <time>2020-09-13T08:12:56Z</time>
      </trkpt>
      <trkpt lat="47.78673" lon="6.77275">
        <ele>597.8293</ele>
        <time>2020-09-13T08:13:01Z</time>
      </trkpt>
      <trkpt lat="47.78674" lon="6.77313">
        <ele>598.78375</ele>
        <time>2020-09-13T08:13:06Z</time>
      </trkpt>
      <trkpt lat="47.78671" lon="6.77395">
        <ele>596.8688</ele>
        <time>2020-09-13T08:13:16Z</time>
      </trkpt>
      <trkpt lat="47.78682" lon="6.7744">
        <ele>597.59326</ele>
        <time>2020-09-13T08:13:21Z</time>
      </trkpt>
      <trkpt lat="47.78685" lon="6.77466">
        <ele>597.5159</ele>
        <time>2020-09-13T08:13:26Z</time>
      </trkpt>
      <trkpt lat="47.7869" lon="6.77481">
        <ele>597.7184</ele>
        <time>2020-09-13T08:13:31Z</time>
      </trkpt>
      <trkpt lat="47.78692" lon="6.77502">
        <ele>596.7772</ele>
        <time>2020-09-13T08:13:36Z</time>
      </trkpt>
      <trkpt lat="47.78692" lon="6.77515">
        <ele>598.0572</ele>
        <time>2020-09-13T08:13:41Z</time>
      </trkpt>
      <trkpt lat="47.78716" lon="6.77549">
        <ele>598.69824</ele>
        <time>2020-09-13T08:13:55Z</time>
      </trkpt>
      <trkpt lat="47.78719" lon="6.77576">
        <ele>599.47974</ele>
        <time>2020-09-13T08:14:04Z</time>
      </trkpt>
      <trkpt lat="47.78738" lon="6.77578">
        <ele>600.67847</ele>
        <time>2020-09-13T08:14:09Z</time>
      </trkpt>
      <trkpt lat="47.7873" lon="6.77592">
        <ele>600.827</ele>
        <time>2020-09-13T08:14:15Z</time>
      </trkpt>
      <trkpt lat="47.78748" lon="6.77603">
        <ele>601.9292</ele>
        <time>2020-09-13T08:14:21Z</time>
      </trkpt>
      <trkpt lat="47.78763" lon="6.77632">
        <ele>601.6259</ele>
        <time>2020-09-13T08:14:26Z</time>
      </trkpt>
      <trkpt lat="47.7877" lon="6.77679">
        <ele>603.4609</ele>
        <time>2020-09-13T08:14:31Z</time>
      </trkpt>
      <trkpt lat="47.78783" lon="6.77714">
        <ele>602.97845</ele>
        <time>2020-09-13T08:14:36Z</time>
      </trkpt>
      <trkpt lat="47.78818" lon="6.77783">
        <ele>607.7878</ele>
        <time>2020-09-13T08:14:46Z</time>
      </trkpt>
      <trkpt lat="47.78862" lon="6.77842">
        <ele>610.5975</ele>
        <time>2020-09-13T08:14:56Z</time>
      </trkpt>
      <trkpt lat="47.78883" lon="6.77862">
        <ele>612.74066</ele>
        <time>2020-09-13T08:15:01Z</time>
      </trkpt>
      <trkpt lat="47.78914" lon="6.77884">
        <ele>611.1859</ele>
        <time>2020-09-13T08:15:06Z</time>
      </trkpt>
      <trkpt lat="47.78943" lon="6.77897">
        <ele>610.72577</ele>
        <time>2020-09-13T08:15:11Z</time>
      </trkpt>
      <trkpt lat="47.78978" lon="6.77914">
        <ele>609.951</ele>
        <time>2020-09-13T08:15:16Z</time>
      </trkpt>
      <trkpt lat="47.79004" lon="6.77929">
        <ele>609.4705</ele>
        <time>2020-09-13T08:15:21Z</time>
      </trkpt>
      <trkpt lat="47.79054" lon="6.77968">
        <ele>609.71075</ele>
        <time>2020-09-13T08:15:31Z</time>
      </trkpt>
      <trkpt lat="47.79106" lon="6.78033">
        <ele>611.1289</ele>
        <time>2020-09-13T08:15:41Z</time>
      </trkpt>
      <trkpt lat="47.79132" lon="6.78077">
        <ele>611.97705</ele>
        <time>2020-09-13T08:15:46Z</time>
      </trkpt>
      <trkpt lat="47.7915" lon="6.78103">
        <ele>613.5175</ele>
        <time>2020-09-13T08:15:51Z</time>
      </trkpt>
      <trkpt lat="47.79166" lon="6.78125">
        <ele>614.06024</ele>
        <time>2020-09-13T08:15:56Z</time>
      </trkpt>
      <trkpt lat="47.79182" lon="6.7814">
        <ele>614.2761</ele>
        <time>2020-09-13T08:16:01Z</time>
      </trkpt>
      <trkpt lat="47.79193" lon="6.78143">
        <ele>614.9889</ele>
        <time>2020-09-13T08:16:06Z</time>
      </trkpt>
      <trkpt lat="47.79216" lon="6.78152">
        <ele>615.8443</ele>
        <time>2020-09-13T08:16:11Z</time>
      </trkpt>
      <trkpt lat="47.79229" lon="6.78155">
        <ele>616.17725</ele>
        <time>2020-09-13T08:16:16Z</time>
      </trkpt>
      <trkpt lat="47.79283" lon="6.78175">
        <ele>615.17426</ele>
        <time>2020-09-13T08:16:26Z</time>
      </trkpt>
      <trkpt lat="47.79398" lon="6.78267">
        <ele>614.8973</ele>
        <time>2020-09-13T08:16:36Z</time>
      </trkpt>
      <trkpt lat="47.79418" lon="6.78275">
        <ele>615.0174</ele>
        <time>2020-09-13T08:16:41Z</time>
      </trkpt>
      <trkpt lat="47.79432" lon="6.78284">
        <ele>618.6499</ele>
        <time>2020-09-13T08:16:46Z</time>
      </trkpt>
      <trkpt lat="47.79448" lon="6.78299">
        <ele>619.5574</ele>
        <time>2020-09-13T08:16:51Z</time>
      </trkpt>
      <trkpt lat="47.79457" lon="6.78317">
        <ele>622.3442</ele>
        <time>2020-09-13T08:16:56Z</time>
      </trkpt>
      <trkpt lat="47.79469" lon="6.7834">
        <ele>623.7122</ele>
        <time>2020-09-13T08:17:01Z</time>
      </trkpt>
      <trkpt lat="47.79492" lon="6.7839">
        <ele>622.86365</ele>
        <time>2020-09-13T08:17:11Z</time>
      </trkpt>
      <trkpt lat="47.79529" lon="6.7843">
        <ele>622.8851</ele>
        <time>2020-09-13T08:17:21Z</time>
      </trkpt>
      <trkpt lat="47.79556" lon="6.78439">
        <ele>623.2854</ele>
        <time>2020-09-13T08:17:26Z</time>
      </trkpt>
      <trkpt lat="47.79576" lon="6.7845">
        <ele>623.4555</ele>
        <time>2020-09-13T08:17:31Z</time>
      </trkpt>
      <trkpt lat="47.79589" lon="6.78463">
        <ele>623.81</ele>
        <time>2020-09-13T08:17:36Z</time>
      </trkpt>
      <trkpt lat="47.79603" lon="6.78476">
        <ele>624.8379</ele>
        <time>2020-09-13T08:17:41Z</time>
      </trkpt>
      <trkpt lat="47.79617" lon="6.78484">
        <ele>624.4864</ele>
        <time>2020-09-13T08:17:46Z</time>
      </trkpt>
      <trkpt lat="47.79647" lon="6.78494">
        <ele>627.4959</ele>
        <time>2020-09-13T08:17:56Z</time>
      </trkpt>
      <trkpt lat="47.79679" lon="6.78526">
        <ele>628.1714</ele>
        <time>2020-09-13T08:18:06Z</time>
      </trkpt>
      <trkpt lat="47.79689" lon="6.7854">
        <ele>625.8312</ele>
        <time>2020-09-13T08:18:11Z</time>
      </trkpt>
      <trkpt lat="47.79698" lon="6.78558">
        <ele>628.85205</ele>
        <time>2020-09-13T08:18:16Z</time>
      </trkpt>
      <trkpt lat="47.7971" lon="6.78576">
        <ele>631.213</ele>
        <time>2020-09-13T08:18:21Z</time>
      </trkpt>
      <trkpt lat="47.79723" lon="6.78604">
        <ele>632.54083</ele>
        <time>2020-09-13T08:18:26Z</time>
      </trkpt>
      <trkpt lat="47.79734" lon="6.78633">
        <ele>632.6723</ele>
        <time>2020-09-13T08:18:31Z</time>
      </trkpt>
      <trkpt lat="47.79744" lon="6.7866">
        <ele>632.3564</ele>
        <time>2020-09-13T08:18:36Z</time>
      </trkpt>
      <trkpt lat="47.79759" lon="6.78686">
        <ele>630.69025</ele>
        <time>2020-09-13T08:18:41Z</time>
      </trkpt>
      <trkpt lat="47.7978" lon="6.78734">
        <ele>631.4127</ele>
        <time>2020-09-13T08:18:51Z</time>
      </trkpt>
      <trkpt lat="47.79802" lon="6.78767">
        <ele>634.3263</ele>
        <time>2020-09-13T08:19:01Z</time>
      </trkpt>
      <trkpt lat="47.79813" lon="6.78784">
        <ele>635.80316</ele>
        <time>2020-09-13T08:19:06Z</time>
      </trkpt>
      <trkpt lat="47.79822" lon="6.78801">
        <ele>633.79535</ele>
        <time>2020-09-13T08:19:11Z</time>
      </trkpt>
      <trkpt lat="47.7983" lon="6.78818">
        <ele>631.4973</ele>
        <time>2020-09-13T08:19:16Z</time>
      </trkpt>
      <trkpt lat="47.79836" lon="6.78838">
        <ele>634.03687</ele>
        <time>2020-09-13T08:19:21Z</time>
      </trkpt>
      <trkpt lat="47.79843" lon="6.78857">
        <ele>636.007</ele>
        <time>2020-09-13T08:19:26Z</time>
      </trkpt>
      <trkpt lat="47.79857" lon="6.78903">
        <ele>636.45447</ele>
        <time>2020-09-13T08:19:36Z</time>
      </trkpt>
      <trkpt lat="47.79866" lon="6.78944">
        <ele>641.90204</ele>
        <time>2020-09-13T08:19:46Z</time>
      </trkpt>
      <trkpt lat="47.79873" lon="6.78963">
        <ele>641.3036</ele>
        <time>2020-09-13T08:19:51Z</time>
      </trkpt>
      <trkpt lat="47.79882" lon="6.78979">
        <ele>643.97784</ele>
        <time>2020-09-13T08:19:56Z</time>
      </trkpt>
      <trkpt lat="47.79891" lon="6.78996">
        <ele>645.59094</ele>
        <time>2020-09-13T08:20:01Z</time>
      </trkpt>
      <trkpt lat="47.79901" lon="6.79015">
        <ele>647.69666</ele>
        <time>2020-09-13T08:20:06Z</time>
      </trkpt>
      <trkpt lat="47.79911" lon="6.79034">
        <ele>648.76337</ele>
        <time>2020-09-13T08:20:11Z</time>
      </trkpt>
      <trkpt lat="47.79933" lon="6.79075">
        <ele>648.796</ele>
        <time>2020-09-13T08:20:21Z</time>
      </trkpt>
      <trkpt lat="47.79952" lon="6.79128">
        <ele>647.2001</ele>
        <time>2020-09-13T08:20:31Z</time>
      </trkpt>
      <trkpt lat="47.7996" lon="6.79151">
        <ele>648.2698</ele>
        <time>2020-09-13T08:20:36Z</time>
      </trkpt>
      <trkpt lat="47.79971" lon="6.79167">
        <ele>649.81995</ele>
        <time>2020-09-13T08:20:41Z</time>
      </trkpt>
      <trkpt lat="47.79984" lon="6.79182">
        <ele>650.5298</ele>
        <time>2020-09-13T08:20:46Z</time>
      </trkpt>
      <trkpt lat="47.79997" lon="6.79198">
        <ele>651.06934</ele>
        <time>2020-09-13T08:20:51Z</time>
      </trkpt>
      <trkpt lat="47.80008" lon="6.79213">
        <ele>652.1709</ele>
        <time>2020-09-13T08:20:56Z</time>
      </trkpt>
      <trkpt lat="47.80019" lon="6.79227">
        <ele>650.78174</ele>
        <time>2020-09-13T08:21:01Z</time>
      </trkpt>
      <trkpt lat="47.80026" lon="6.79247">
        <ele>651.27844</ele>
        <time>2020-09-13T08:21:06Z</time>
      </trkpt>
      <trkpt lat="47.80037" lon="6.79289">
        <ele>650.3574</ele>
        <time>2020-09-13T08:21:16Z</time>
      </trkpt>
      <trkpt lat="47.80041" lon="6.79334">
        <ele>656.14813</ele>
        <time>2020-09-13T08:21:26Z</time>
      </trkpt>
      <trkpt lat="47.8005" lon="6.79347">
        <ele>657.1051</ele>
        <time>2020-09-13T08:21:31Z</time>
      </trkpt>
      <trkpt lat="47.80053" lon="6.79346">
        <ele>658.211</ele>
        <time>2020-09-13T08:21:36Z</time>
      </trkpt>
      <trkpt lat="47.80054" lon="6.79332">
        <ele>658.54974</ele>
        <time>2020-09-13T08:21:41Z</time>
      </trkpt>
      <trkpt lat="47.80052" lon="6.79315">
        <ele>657.909</ele>
        <time>2020-09-13T08:21:46Z</time>
      </trkpt>
      <trkpt lat="47.80051" lon="6.79297">
        <ele>656.746</ele>
        <time>2020-09-13T08:21:51Z</time>
      </trkpt>
      <trkpt lat="47.80045" lon="6.7927">
        <ele>657.2908</ele>
        <time>2020-09-13T08:22:01Z</time>
      </trkpt>
      <trkpt lat="47.80033" lon="6.7923">
        <ele>662.18427</ele>
        <time>2020-09-13T08:22:15Z</time>
      </trkpt>
      <trkpt lat="47.80028" lon="6.79214">
        <ele>662.473</ele>
        <time>2020-09-13T08:22:21Z</time>
      </trkpt>
      <trkpt lat="47.80026" lon="6.79205">
        <ele>663.9782</ele>
        <time>2020-09-13T08:22:26Z</time>
      </trkpt>
      <trkpt lat="47.80022" lon="6.79169">
        <ele>667.0686</ele>
        <time>2020-09-13T08:22:31Z</time>
      </trkpt>
      <trkpt lat="47.80019" lon="6.79142">
        <ele>668.5435</ele>
        <time>2020-09-13T08:22:36Z</time>
      </trkpt>
      <trkpt lat="47.80015" lon="6.79124">
        <ele>670.1155</ele>
        <time>2020-09-13T08:22:41Z</time>
      </trkpt>
      <trkpt lat="47.80012" lon="6.79109">
        <ele>671.2108</ele>
        <time>2020-09-13T08:22:46Z</time>
      </trkpt>
      <trkpt lat="47.80006" lon="6.79067">
        <ele>672.48895</ele>
        <time>2020-09-13T08:22:56Z</time>
      </trkpt>
      <trkpt lat="47.80002" lon="6.79051">
        <ele>674.0561</ele>
        <time>2020-09-13T08:23:01Z</time>
      </trkpt>
      <trkpt lat="47.79999" lon="6.79042">
        <ele>676.4116</ele>
        <time>2020-09-13T08:23:06Z</time>
      </trkpt>
      <trkpt lat="47.79989" lon="6.79012">
        <ele>678.8777</ele>
        <time>2020-09-13T08:23:11Z</time>
      </trkpt>
      <trkpt lat="47.79991" lon="6.78974">
        <ele>678.51514</ele>
        <time>2020-09-13T08:23:16Z</time>
      </trkpt>
      <trkpt lat="47.80004" lon="6.78968">
        <ele>678.86035</ele>
        <time>2020-09-13T08:23:21Z</time>
      </trkpt>
      <trkpt lat="47.80013" lon="6.78984">
        <ele>677.1999</ele>
        <time>2020-09-13T08:23:26Z</time>
      </trkpt>
      <trkpt lat="47.80017" lon="6.79002">
        <ele>679.2923</ele>
        <time>2020-09-13T08:23:31Z</time>
      </trkpt>
      <trkpt lat="47.80023" lon="6.79043">
        <ele>680.334</ele>
        <time>2020-09-13T08:23:41Z</time>
      </trkpt>
      <trkpt lat="47.80039" lon="6.79071">
        <ele>683.0517</ele>
        <time>2020-09-13T08:23:51Z</time>
      </trkpt>
      <trkpt lat="47.80047" lon="6.79087">
        <ele>684.16</ele>
        <time>2020-09-13T08:23:56Z</time>
      </trkpt>
      <trkpt lat="47.80056" lon="6.79103">
        <ele>683.98224</ele>
        <time>2020-09-13T08:24:01Z</time>
      </trkpt>
      <trkpt lat="47.80064" lon="6.79113">
        <ele>686.17535</ele>
        <time>2020-09-13T08:24:06Z</time>
      </trkpt>
      <trkpt lat="47.80072" lon="6.79125">
        <ele>685.9608</ele>
        <time>2020-09-13T08:24:11Z</time>
      </trkpt>
      <trkpt lat="47.80081" lon="6.79139">
        <ele>685.60126</ele>
        <time>2020-09-13T08:24:16Z</time>
      </trkpt>
      <trkpt lat="47.80095" lon="6.79162">
        <ele>690.95355</ele>
        <time>2020-09-13T08:24:26Z</time>
      </trkpt>
      <trkpt lat="47.80111" lon="6.79187">
        <ele>688.5138</ele>
        <time>2020-09-13T08:24:36Z</time>
      </trkpt>
      <trkpt lat="47.80118" lon="6.792">
        <ele>693.91174</ele>
        <time>2020-09-13T08:24:41Z</time>
      </trkpt>
      <trkpt lat="47.80125" lon="6.79212">
        <ele>694.7569</ele>
        <time>2020-09-13T08:24:46Z</time>
      </trkpt>
      <trkpt lat="47.80137" lon="6.79228">
        <ele>693.783</ele>
        <time>2020-09-13T08:24:51Z</time>
      </trkpt>
      <trkpt lat="47.80147" lon="6.79245">
        <ele>695.59076</ele>
        <time>2020-09-13T08:24:56Z</time>
      </trkpt>
      <trkpt lat="47.80155" lon="6.79266">
        <ele>698.707</ele>
        <time>2020-09-13T08:25:01Z</time>
      </trkpt>
      <trkpt lat="47.80158" lon="6.79281">
        <ele>698.32263</ele>
        <time>2020-09-13T08:25:06Z</time>
      </trkpt>
      <trkpt lat="47.80162" lon="6.79301">
        <ele>694.7773</ele>
        <time>2020-09-13T08:25:11Z</time>
      </trkpt>
      <trkpt lat="47.80175" lon="6.79332">
        <ele>699.7025</ele>
        <time>2020-09-13T08:25:21Z</time>
      </trkpt>
      <trkpt lat="47.80183" lon="6.79349">
        <ele>694.6383</ele>
        <time>2020-09-13T08:25:26Z</time>
      </trkpt>
      <trkpt lat="47.80191" lon="6.79366">
        <ele>704.8374</ele>
        <time>2020-09-13T08:25:31Z</time>
      </trkpt>
      <trkpt lat="47.80198" lon="6.79379">
        <ele>704.83124</ele>
        <time>2020-09-13T08:25:36Z</time>
      </trkpt>
      <trkpt lat="47.80207" lon="6.79394">
        <ele>705.03876</ele>
        <time>2020-09-13T08:25:41Z</time>
      </trkpt>
      <trkpt lat="47.80217" lon="6.79407">
        <ele>704.5511</ele>
        <time>2020-09-13T08:25:46Z</time>
      </trkpt>
      <trkpt lat="47.80228" lon="6.79415">
        <ele>704.2638</ele>
        <time>2020-09-13T08:25:51Z</time>
      </trkpt>
      <trkpt lat="47.80238" lon="6.79421">
        <ele>703.8007</ele>
        <time>2020-09-13T08:25:56Z</time>
      </trkpt>
      <trkpt lat="47.80264" lon="6.79438">
        <ele>705.3864</ele>
        <time>2020-09-13T08:26:06Z</time>
      </trkpt>
      <trkpt lat="47.80288" lon="6.79454">
        <ele>708.5326</ele>
        <time>2020-09-13T08:26:16Z</time>
      </trkpt>
      <trkpt lat="47.80301" lon="6.79463">
        <ele>709.9223</ele>
        <time>2020-09-13T08:26:21Z</time>
      </trkpt>
      <trkpt lat="47.80312" lon="6.79474">
        <ele>709.9264</ele>
        <time>2020-09-13T08:26:26Z</time>
      </trkpt>
      <trkpt lat="47.80322" lon="6.79482">
        <ele>710.75775</ele>
        <time>2020-09-13T08:26:31Z</time>
      </trkpt>
      <trkpt lat="47.80337" lon="6.79486">
        <ele>711.70374</ele>
        <time>2020-09-13T08:26:36Z</time>
      </trkpt>
      <trkpt lat="47.80347" lon="6.79489">
        <ele>711.8439</ele>
        <time>2020-09-13T08:26:41Z</time>
      </trkpt>
      <trkpt lat="47.80372" lon="6.79497">
        <ele>710.9194</ele>
        <time>2020-09-13T08:26:51Z</time>
      </trkpt>
      <trkpt lat="47.80397" lon="6.79506">
        <ele>711.50635</ele>
        <time>2020-09-13T08:27:01Z</time>
      </trkpt>
      <trkpt lat="47.80407" lon="6.79506">
        <ele>712.74286</ele>
        <time>2020-09-13T08:27:06Z</time>
      </trkpt>
      <trkpt lat="47.80418" lon="6.79507">
        <ele>714.3752</ele>
        <time>2020-09-13T08:27:11Z</time>
      </trkpt>
      <trkpt lat="47.80425" lon="6.79508">
        <ele>713.4864</ele>
        <time>2020-09-13T08:27:16Z</time>
      </trkpt>
      <trkpt lat="47.8043" lon="6.79509">
        <ele>711.8336</ele>
        <time>2020-09-13T08:27:21Z</time>
      </trkpt>
      <trkpt lat="47.80444" lon="6.79506">
        <ele>716.1652</ele>
        <time>2020-09-13T08:27:26Z</time>
      </trkpt>
      <trkpt lat="47.80463" lon="6.79501">
        <ele>716.2061</ele>
        <time>2020-09-13T08:27:36Z</time>
      </trkpt>
      <trkpt lat="47.80482" lon="6.79492">
        <ele>718.11597</ele>
        <time>2020-09-13T08:27:46Z</time>
      </trkpt>
      <trkpt lat="47.80489" lon="6.79488">
        <ele>721</ele>
        <time>2020-09-13T08:27:51Z</time>
      </trkpt>
      <trkpt lat="47.80503" lon="6.79483">
        <ele>721.61285</ele>
        <time>2020-09-13T08:27:56Z</time>
      </trkpt>
      <trkpt lat="47.80511" lon="6.79481">
        <ele>722.7987</ele>
        <time>2020-09-13T08:28:01Z</time>
      </trkpt>
      <trkpt lat="47.80524" lon="6.79475">
        <ele>722.6043</ele>
        <time>2020-09-13T08:28:06Z</time>
      </trkpt>
      <trkpt lat="47.80536" lon="6.7947">
        <ele>722.61145</ele>
        <time>2020-09-13T08:28:11Z</time>
      </trkpt>
      <trkpt lat="47.80553" lon="6.79466">
        <ele>723.8516</ele>
        <time>2020-09-13T08:28:16Z</time>
      </trkpt>
      <trkpt lat="47.80576" lon="6.79464">
        <ele>732.8008</ele>
        <time>2020-09-13T08:28:21Z</time>
      </trkpt>
      <trkpt lat="47.80598" lon="6.79456">
        <ele>740.1202</ele>
        <time>2020-09-13T08:28:31Z</time>
      </trkpt>
      <trkpt lat="47.80616" lon="6.79451">
        <ele>738.234</ele>
        <time>2020-09-13T08:28:41Z</time>
      </trkpt>
      <trkpt lat="47.80631" lon="6.79456">
        <ele>738.34357</ele>
        <time>2020-09-13T08:28:46Z</time>
      </trkpt>
      <trkpt lat="47.80644" lon="6.79457">
        <ele>738.13983</ele>
        <time>2020-09-13T08:28:51Z</time>
      </trkpt>
      <trkpt lat="47.80663" lon="6.79458">
        <ele>739.23956</ele>
        <time>2020-09-13T08:28:56Z</time>
      </trkpt>
      <trkpt lat="47.80677" lon="6.79461">
        <ele>741.221</ele>
        <time>2020-09-13T08:29:01Z</time>
      </trkpt>
      <trkpt lat="47.80689" lon="6.79461">
        <ele>739.68494</ele>
        <time>2020-09-13T08:29:06Z</time>
      </trkpt>
      <trkpt lat="47.80711" lon="6.79463">
        <ele>735.2577</ele>
        <time>2020-09-13T08:29:16Z</time>
      </trkpt>
      <trkpt lat="47.80738" lon="6.79451">
        <ele>734.69055</ele>
        <time>2020-09-13T08:29:26Z</time>
      </trkpt>
      <trkpt lat="47.80747" lon="6.79448">
        <ele>734.77856</ele>
        <time>2020-09-13T08:29:31Z</time>
      </trkpt>
      <trkpt lat="47.80763" lon="6.79444">
        <ele>736.24976</ele>
        <time>2020-09-13T08:29:36Z</time>
      </trkpt>
      <trkpt lat="47.8078" lon="6.79447">
        <ele>736.5907</ele>
        <time>2020-09-13T08:29:41Z</time>
      </trkpt>
      <trkpt lat="47.80792" lon="6.79453">
        <ele>739.2037</ele>
        <time>2020-09-13T08:29:46Z</time>
      </trkpt>
      <trkpt lat="47.80803" lon="6.79461">
        <ele>738.53094</ele>
        <time>2020-09-13T08:29:51Z</time>
      </trkpt>
      <trkpt lat="47.80821" lon="6.7948">
        <ele>739.5477</ele>
        <time>2020-09-13T08:30:01Z</time>
      </trkpt>
      <trkpt lat="47.80846" lon="6.79499">
        <ele>736.26306</ele>
        <time>2020-09-13T08:30:11Z</time>
      </trkpt>
      <trkpt lat="47.80853" lon="6.79506">
        <ele>735.42664</ele>
        <time>2020-09-13T08:30:16Z</time>
      </trkpt>
      <trkpt lat="47.80863" lon="6.79515">
        <ele>734.91785</ele>
        <time>2020-09-13T08:30:21Z</time>
      </trkpt>
      <trkpt lat="47.80873" lon="6.79525">
        <ele>735.46045</ele>
        <time>2020-09-13T08:30:26Z</time>
      </trkpt>
      <trkpt lat="47.80881" lon="6.79528">
        <ele>734.4889</ele>
        <time>2020-09-13T08:30:31Z</time>
      </trkpt>
      <trkpt lat="47.80889" lon="6.79525">
        <ele>738.79614</ele>
        <time>2020-09-13T08:30:36Z</time>
      </trkpt>
      <trkpt lat="47.80898" lon="6.79523">
        <ele>743.62354</ele>
        <time>2020-09-13T08:30:41Z</time>
      </trkpt>
      <trkpt lat="47.80909" lon="6.79521">
        <ele>745.631</ele>
        <time>2020-09-13T08:30:46Z</time>
      </trkpt>
      <trkpt lat="47.80934" lon="6.79518">
        <ele>747.5997</ele>
        <time>2020-09-13T08:30:56Z</time>
      </trkpt>
      <trkpt lat="47.80968" lon="6.7952">
        <ele>751.48944</ele>
        <time>2020-09-13T08:31:06Z</time>
      </trkpt>
      <trkpt lat="47.80985" lon="6.79521">
        <ele>749.9845</ele>
        <time>2020-09-13T08:31:11Z</time>
      </trkpt>
      <trkpt lat="47.81" lon="6.79531">
        <ele>747.3006</ele>
        <time>2020-09-13T08:31:16Z</time>
      </trkpt>
      <trkpt lat="47.81013" lon="6.79538">
        <ele>747.863</ele>
        <time>2020-09-13T08:31:21Z</time>
      </trkpt>
      <trkpt lat="47.8103" lon="6.79544">
        <ele>748.5216</ele>
        <time>2020-09-13T08:31:26Z</time>
      </trkpt>
      <trkpt lat="47.8104" lon="6.79548">
        <ele>750.4537</ele>
        <time>2020-09-13T08:31:31Z</time>
      </trkpt>
      <trkpt lat="47.81068" lon="6.79559">
        <ele>752.2251</ele>
        <time>2020-09-13T08:31:41Z</time>
      </trkpt>
      <trkpt lat="47.81096" lon="6.79571">
        <ele>756.36774</ele>
        <time>2020-09-13T08:31:51Z</time>
      </trkpt>
      <trkpt lat="47.81107" lon="6.79577">
        <ele>755.342</ele>
        <time>2020-09-13T08:31:56Z</time>
      </trkpt>
      <trkpt lat="47.81116" lon="6.79584">
        <ele>755.5408</ele>
        <time>2020-09-13T08:32:01Z</time>
      </trkpt>
      <trkpt lat="47.81125" lon="6.79589">
        <ele>753.7609</ele>
        <time>2020-09-13T08:32:06Z</time>
      </trkpt>
      <trkpt lat="47.81135" lon="6.79594">
        <ele>754.34906</ele>
        <time>2020-09-13T08:32:11Z</time>
      </trkpt>
      <trkpt lat="47.81146" lon="6.79601">
        <ele>756.5389</ele>
        <time>2020-09-13T08:32:16Z</time>
      </trkpt>
      <trkpt lat="47.81163" lon="6.79606">
        <ele>762.81226</ele>
        <time>2020-09-13T08:32:26Z</time>
      </trkpt>
      <trkpt lat="47.81179" lon="6.79617">
        <ele>762.87683</ele>
        <time>2020-09-13T08:32:36Z</time>
      </trkpt>
      <trkpt lat="47.81189" lon="6.79626">
        <ele>763.81476</ele>
        <time>2020-09-13T08:32:41Z</time>
      </trkpt>
      <trkpt lat="47.81199" lon="6.79638">
        <ele>766.30585</ele>
        <time>2020-09-13T08:32:46Z</time>
      </trkpt>
      <trkpt lat="47.81207" lon="6.79651">
        <ele>767.6274</ele>
        <time>2020-09-13T08:32:51Z</time>
      </trkpt>
      <trkpt lat="47.81214" lon="6.79665">
        <ele>769.3868</ele>
        <time>2020-09-13T08:32:56Z</time>
      </trkpt>
      <trkpt lat="47.81217" lon="6.79677">
        <ele>771.5586</ele>
        <time>2020-09-13T08:33:01Z</time>
      </trkpt>
      <trkpt lat="47.81223" lon="6.7969">
        <ele>772.5287</ele>
        <time>2020-09-13T08:33:06Z</time>
      </trkpt>
      <trkpt lat="47.81225" lon="6.79704">
        <ele>771.0274</ele>
        <time>2020-09-13T08:33:11Z</time>
      </trkpt>
      <trkpt lat="47.81234" lon="6.79734">
        <ele>772.9635</ele>
        <time>2020-09-13T08:33:21Z</time>
      </trkpt>
      <trkpt lat="47.81245" lon="6.79761">
        <ele>777.6177</ele>
        <time>2020-09-13T08:33:31Z</time>
      </trkpt>
      <trkpt lat="47.81249" lon="6.7977">
        <ele>776.9305</ele>
        <time>2020-09-13T08:33:36Z</time>
      </trkpt>
      <trkpt lat="47.81248" lon="6.79783">
        <ele>774.5428</ele>
        <time>2020-09-13T08:33:41Z</time>
      </trkpt>
      <trkpt lat="47.81243" lon="6.79801">
        <ele>769.6821</ele>
        <time>2020-09-13T08:33:46Z</time>
      </trkpt>
      <trkpt lat="47.81239" lon="6.79819">
        <ele>774.61664</ele>
        <time>2020-09-13T08:33:51Z</time>
      </trkpt>
      <trkpt lat="47.81238" lon="6.79835">
        <ele>778.04236</ele>
        <time>2020-09-13T08:33:56Z</time>
      </trkpt>
      <trkpt lat="47.81241" lon="6.79867">
        <ele>781.7784</ele>
        <time>2020-09-13T08:34:06Z</time>
      </trkpt>
      <trkpt lat="47.81244" lon="6.79897">
        <ele>782.10364</ele>
        <time>2020-09-13T08:34:16Z</time>
      </trkpt>
      <trkpt lat="47.81248" lon="6.7991">
        <ele>780.74225</ele>
        <time>2020-09-13T08:34:21Z</time>
      </trkpt>
      <trkpt lat="47.81253" lon="6.79923">
        <ele>786.9065</ele>
        <time>2020-09-13T08:34:26Z</time>
      </trkpt>
      <trkpt lat="47.81259" lon="6.79939">
        <ele>788.96295</ele>
        <time>2020-09-13T08:34:31Z</time>
      </trkpt>
      <trkpt lat="47.81265" lon="6.79949">
        <ele>786.3513</ele>
        <time>2020-09-13T08:34:36Z</time>
      </trkpt>
      <trkpt lat="47.81273" lon="6.7996">
        <ele>787.92035</ele>
        <time>2020-09-13T08:34:41Z</time>
      </trkpt>
      <trkpt lat="47.81282" lon="6.79961">
        <ele>791.33167</ele>
        <time>2020-09-13T08:34:46Z</time>
      </trkpt>
      <trkpt lat="47.8129" lon="6.79968">
        <ele>792.1989</ele>
        <time>2020-09-13T08:34:51Z</time>
      </trkpt>
      <trkpt lat="47.81305" lon="6.79985">
        <ele>788.0743</ele>
        <time>2020-09-13T08:35:01Z</time>
      </trkpt>
      <trkpt lat="47.81309" lon="6.79995">
        <ele>794.4622</ele>
        <time>2020-09-13T08:35:06Z</time>
      </trkpt>
      <trkpt lat="47.81313" lon="6.8">
        <ele>799.04083</ele>
        <time>2020-09-13T08:35:11Z</time>
      </trkpt>
      <trkpt lat="47.8132" lon="6.80009">
        <ele>797.78827</ele>
        <time>2020-09-13T08:35:16Z</time>
      </trkpt>
      <trkpt lat="47.8133" lon="6.80017">
        <ele>798.0747</ele>
        <time>2020-09-13T08:35:21Z</time>
      </trkpt>
      <trkpt lat="47.81337" lon="6.80017">
        <ele>803.949</ele>
        <time>2020-09-13T08:35:26Z</time>
      </trkpt>
      <trkpt lat="47.81343" lon="6.80018">
        <ele>802.4364</ele>
        <time>2020-09-13T08:35:31Z</time>
      </trkpt>
      <trkpt lat="47.81353" lon="6.8002">
        <ele>802.3501</ele>
        <time>2020-09-13T08:35:36Z</time>
      </trkpt>
      <trkpt lat="47.81374" lon="6.80034">
        <ele>802.75574</ele>
        <time>2020-09-13T08:35:46Z</time>
      </trkpt>
      <trkpt lat="47.81392" lon="6.80048">
        <ele>801.4968</ele>
        <time>2020-09-13T08:35:56Z</time>
      </trkpt>
      <trkpt lat="47.814" lon="6.8005">
        <ele>805.31793</ele>
        <time>2020-09-13T08:36:01Z</time>
      </trkpt>
      <trkpt lat="47.81407" lon="6.80049">
        <ele>804.6504</ele>
        <time>2020-09-13T08:36:06Z</time>
      </trkpt>
      <trkpt lat="47.81418" lon="6.80047">
        <ele>807.0906</ele>
        <time>2020-09-13T08:36:11Z</time>
      </trkpt>
      <trkpt lat="47.81424" lon="6.80039">
        <ele>809.25775</ele>
        <time>2020-09-13T08:36:16Z</time>
      </trkpt>
      <trkpt lat="47.81428" lon="6.80036">
        <ele>808.75757</ele>
        <time>2020-09-13T08:36:21Z</time>
      </trkpt>
      <trkpt lat="47.8144" lon="6.80027">
        <ele>811.78375</ele>
        <time>2020-09-13T08:36:31Z</time>
      </trkpt>
      <trkpt lat="47.81452" lon="6.80022">
        <ele>814.9675</ele>
        <time>2020-09-13T08:36:41Z</time>
      </trkpt>
      <trkpt lat="47.81462" lon="6.80024">
        <ele>816.407</ele>
        <time>2020-09-13T08:36:46Z</time>
      </trkpt>
      <trkpt lat="47.81471" lon="6.80027">
        <ele>821.30457</ele>
        <time>2020-09-13T08:36:51Z</time>
      </trkpt>
      <trkpt lat="47.81481" lon="6.80032">
        <ele>823.3837</ele>
        <time>2020-09-13T08:36:56Z</time>
      </trkpt>
      <trkpt lat="47.81488" lon="6.80041">
        <ele>822.3518</ele>
        <time>2020-09-13T08:37:01Z</time>
      </trkpt>
      <trkpt lat="47.81497" lon="6.8005">
        <ele>824.17004</ele>
        <time>2020-09-13T08:37:06Z</time>
      </trkpt>
      <trkpt lat="47.81513" lon="6.80065">
        <ele>828.9994</ele>
        <time>2020-09-13T08:37:16Z</time>
      </trkpt>
      <trkpt lat="47.81529" lon="6.80076">
        <ele>829.4024</ele>
        <time>2020-09-13T08:37:26Z</time>
      </trkpt>
      <trkpt lat="47.81538" lon="6.80078">
        <ele>832.7686</ele>
        <time>2020-09-13T08:37:31Z</time>
      </trkpt>
      <trkpt lat="47.81546" lon="6.80078">
        <ele>831.81647</ele>
        <time>2020-09-13T08:37:36Z</time>
      </trkpt>
      <trkpt lat="47.81551" lon="6.80073">
        <ele>837.15344</ele>
        <time>2020-09-13T08:37:41Z</time>
      </trkpt>
      <trkpt lat="47.81558" lon="6.80069">
        <ele>833.95935</ele>
        <time>2020-09-13T08:37:46Z</time>
      </trkpt>
      <trkpt lat="47.81561" lon="6.80062">
        <ele>835.9821</ele>
        <time>2020-09-13T08:37:51Z</time>
      </trkpt>
      <trkpt lat="47.81565" lon="6.80053">
        <ele>840.6752</ele>
        <time>2020-09-13T08:37:56Z</time>
      </trkpt>
      <trkpt lat="47.81564" lon="6.80042">
        <ele>840.3892</ele>
        <time>2020-09-13T08:38:01Z</time>
      </trkpt>
      <trkpt lat="47.81558" lon="6.80013">
        <ele>845.01117</ele>
        <time>2020-09-13T08:38:11Z</time>
      </trkpt>
      <trkpt lat="47.81555" lon="6.79985">
        <ele>837.8888</ele>
        <time>2020-09-13T08:38:21Z</time>
      </trkpt>
      <trkpt lat="47.81556" lon="6.79974">
        <ele>851.77246</ele>
        <time>2020-09-13T08:38:26Z</time>
      </trkpt>
      <trkpt lat="47.81558" lon="6.79964">
        <ele>859.09686</ele>
        <time>2020-09-13T08:38:31Z</time>
      </trkpt>
      <trkpt lat="47.81566" lon="6.79957">
        <ele>859.47156</ele>
        <time>2020-09-13T08:38:36Z</time>
      </trkpt>
      <trkpt lat="47.81572" lon="6.79954">
        <ele>858.2609</ele>
        <time>2020-09-13T08:38:41Z</time>
      </trkpt>
      <trkpt lat="47.8158" lon="6.79951">
        <ele>859.975</ele>
        <time>2020-09-13T08:38:46Z</time>
      </trkpt>
      <trkpt lat="47.81584" lon="6.79924">
        <ele>860.84283</ele>
        <time>2020-09-13T08:38:56Z</time>
      </trkpt>
      <trkpt lat="47.81601" lon="6.79904">
        <ele>856.4801</ele>
        <time>2020-09-13T08:39:06Z</time>
      </trkpt>
      <trkpt lat="47.81596" lon="6.7991">
        <ele>855.52594</ele>
        <time>2020-09-13T08:39:11Z</time>
      </trkpt>
      <trkpt lat="47.81588" lon="6.79919">
        <ele>853.7073</ele>
        <time>2020-09-13T08:39:16Z</time>
      </trkpt>
      <trkpt lat="47.81582" lon="6.79927">
        <ele>857.7236</ele>
        <time>2020-09-13T08:39:21Z</time>
      </trkpt>
      <trkpt lat="47.81575" lon="6.79929">
        <ele>859.5951</ele>
        <time>2020-09-13T08:39:26Z</time>
      </trkpt>
      <trkpt lat="47.8157" lon="6.79935">
        <ele>859.5395</ele>
        <time>2020-09-13T08:39:31Z</time>
      </trkpt>
      <trkpt lat="47.81553" lon="6.79941">
        <ele>861.07654</ele>
        <time>2020-09-13T08:39:41Z</time>
      </trkpt>
      <trkpt lat="47.81538" lon="6.79941">
        <ele>861.29895</ele>
        <time>2020-09-13T08:39:51Z</time>
      </trkpt>
      <trkpt lat="47.8153" lon="6.79935">
        <ele>862.9545</ele>
        <time>2020-09-13T08:40:01Z</time>
      </trkpt>
      <trkpt lat="47.81523" lon="6.79928">
        <ele>863.86884</ele>
        <time>2020-09-13T08:40:06Z</time>
      </trkpt>
      <trkpt lat="47.81513" lon="6.79915">
        <ele>866.4298</ele>
        <time>2020-09-13T08:40:11Z</time>
      </trkpt>
      <trkpt lat="47.81506" lon="6.79894">
        <ele>864.5371</ele>
        <time>2020-09-13T08:40:16Z</time>
      </trkpt>
      <trkpt lat="47.81498" lon="6.79872">
        <ele>862.8454</ele>
        <time>2020-09-13T08:40:21Z</time>
      </trkpt>
      <trkpt lat="47.81495" lon="6.79859">
        <ele>863.25726</ele>
        <time>2020-09-13T08:40:26Z</time>
      </trkpt>
      <trkpt lat="47.81487" lon="6.7983">
        <ele>872.2993</ele>
        <time>2020-09-13T08:40:36Z</time>
      </trkpt>
      <trkpt lat="47.81481" lon="6.79806">
        <ele>875.6988</ele>
        <time>2020-09-13T08:40:46Z</time>
      </trkpt>
      <trkpt lat="47.81474" lon="6.79796">
        <ele>875.4711</ele>
        <time>2020-09-13T08:40:51Z</time>
      </trkpt>
      <trkpt lat="47.81469" lon="6.79782">
        <ele>876.9948</ele>
        <time>2020-09-13T08:40:56Z</time>
      </trkpt>
      <trkpt lat="47.81464" lon="6.79768">
        <ele>877.8541</ele>
        <time>2020-09-13T08:41:01Z</time>
      </trkpt>
      <trkpt lat="47.8146" lon="6.79745">
        <ele>879.90454</ele>
        <time>2020-09-13T08:41:06Z</time>
      </trkpt>
      <trkpt lat="47.81458" lon="6.79729">
        <ele>877.3513</ele>
        <time>2020-09-13T08:41:11Z</time>
      </trkpt>
      <trkpt lat="47.81453" lon="6.797">
        <ele>873.5241</ele>
        <time>2020-09-13T08:41:21Z</time>
      </trkpt>
      <trkpt lat="47.8145" lon="6.79678">
        <ele>880.7412</ele>
        <time>2020-09-13T08:41:31Z</time>
      </trkpt>
      <trkpt lat="47.81448" lon="6.79667">
        <ele>882.9279</ele>
        <time>2020-09-13T08:41:36Z</time>
      </trkpt>
      <trkpt lat="47.81445" lon="6.79652">
        <ele>883.3082</ele>
        <time>2020-09-13T08:41:41Z</time>
      </trkpt>
      <trkpt lat="47.81441" lon="6.79636">
        <ele>878.77936</ele>
        <time>2020-09-13T08:41:46Z</time>
      </trkpt>
      <trkpt lat="47.81446" lon="6.79617">
        <ele>883.873</ele>
        <time>2020-09-13T08:41:51Z</time>
      </trkpt>
      <trkpt lat="47.81447" lon="6.7961">
        <ele>887.29065</ele>
        <time>2020-09-13T08:41:56Z</time>
      </trkpt>
      <trkpt lat="47.8144" lon="6.79585">
        <ele>892.7883</ele>
        <time>2020-09-13T08:42:06Z</time>
      </trkpt>
      <trkpt lat="47.81431" lon="6.79564">
        <ele>893.82965</ele>
        <time>2020-09-13T08:42:16Z</time>
      </trkpt>
      <trkpt lat="47.81427" lon="6.79553">
        <ele>895.70416</ele>
        <time>2020-09-13T08:42:21Z</time>
      </trkpt>
      <trkpt lat="47.81422" lon="6.79541">
        <ele>897.2262</ele>
        <time>2020-09-13T08:42:26Z</time>
      </trkpt>
      <trkpt lat="47.81414" lon="6.79523">
        <ele>896.4146</ele>
        <time>2020-09-13T08:42:31Z</time>
      </trkpt>
      <trkpt lat="47.81405" lon="6.79502">
        <ele>893.0502</ele>
        <time>2020-09-13T08:42:36Z</time>
      </trkpt>
      <trkpt lat="47.814" lon="6.79483">
        <ele>891.0491</ele>
        <time>2020-09-13T08:42:41Z</time>
      </trkpt>
      <trkpt lat="47.81398" lon="6.79465">
        <ele>895.3371</ele>
        <time>2020-09-13T08:42:46Z</time>
      </trkpt>
      <trkpt lat="47.81395" lon="6.79448">
        <ele>899.7734</ele>
        <time>2020-09-13T08:42:51Z</time>
      </trkpt>
      <trkpt lat="47.81377" lon="6.79413">
        <ele>903.7567</ele>
        <time>2020-09-13T08:43:01Z</time>
      </trkpt>
      <trkpt lat="47.81353" lon="6.79361">
        <ele>900.3138</ele>
        <time>2020-09-13T08:43:11Z</time>
      </trkpt>
      <trkpt lat="47.81342" lon="6.79343">
        <ele>900.0797</ele>
        <time>2020-09-13T08:43:16Z</time>
      </trkpt>
      <trkpt lat="47.81332" lon="6.79321">
        <ele>899.4764</ele>
        <time>2020-09-13T08:43:21Z</time>
      </trkpt>
      <trkpt lat="47.81326" lon="6.79302">
        <ele>901.4009</ele>
        <time>2020-09-13T08:43:26Z</time>
      </trkpt>
      <trkpt lat="47.8132" lon="6.79289">
        <ele>903.3162</ele>
        <time>2020-09-13T08:43:31Z</time>
      </trkpt>
      <trkpt lat="47.81321" lon="6.7928">
        <ele>907.74585</ele>
        <time>2020-09-13T08:43:36Z</time>
      </trkpt>
      <trkpt lat="47.81322" lon="6.79244">
        <ele>905.6114</ele>
        <time>2020-09-13T08:43:46Z</time>
      </trkpt>
      <trkpt lat="47.81335" lon="6.79197">
        <ele>910.5378</ele>
        <time>2020-09-13T08:43:56Z</time>
      </trkpt>
      <trkpt lat="47.81336" lon="6.79186">
        <ele>914.6778</ele>
        <time>2020-09-13T08:44:01Z</time>
      </trkpt>
      <trkpt lat="47.81337" lon="6.79174">
        <ele>914.03076</ele>
        <time>2020-09-13T08:44:06Z</time>
      </trkpt>
      <trkpt lat="47.81337" lon="6.79166">
        <ele>915.95544</ele>
        <time>2020-09-13T08:44:11Z</time>
      </trkpt>
      <trkpt lat="47.81337" lon="6.79154">
        <ele>916.6119</ele>
        <time>2020-09-13T08:44:16Z</time>
      </trkpt>
      <trkpt lat="47.81337" lon="6.79145">
        <ele>919.44824</ele>
        <time>2020-09-13T08:44:21Z</time>
      </trkpt>
      <trkpt lat="47.81331" lon="6.7913">
        <ele>913.9812</ele>
        <time>2020-09-13T08:44:31Z</time>
      </trkpt>
      <trkpt lat="47.81323" lon="6.79113">
        <ele>916.20624</ele>
        <time>2020-09-13T08:44:41Z</time>
      </trkpt>
      <trkpt lat="47.81317" lon="6.79099">
        <ele>920.753</ele>
        <time>2020-09-13T08:44:46Z</time>
      </trkpt>
      <trkpt lat="47.81314" lon="6.79087">
        <ele>918.1993</ele>
        <time>2020-09-13T08:44:51Z</time>
      </trkpt>
      <trkpt lat="47.8131" lon="6.79072">
        <ele>923.69006</ele>
        <time>2020-09-13T08:44:56Z</time>
      </trkpt>
      <trkpt lat="47.81307" lon="6.79067">
        <ele>925.9945</ele>
        <time>2020-09-13T08:45:01Z</time>
      </trkpt>
      <trkpt lat="47.81303" lon="6.7906">
        <ele>927.9058</ele>
        <time>2020-09-13T08:45:06Z</time>
      </trkpt>
      <trkpt lat="47.81293" lon="6.7905">
        <ele>929.49194</ele>
        <time>2020-09-13T08:45:11Z</time>
      </trkpt>
      <trkpt lat="47.81285" lon="6.79044">
        <ele>932.2277</ele>
        <time>2020-09-13T08:45:16Z</time>
      </trkpt>
      <trkpt lat="47.81272" lon="6.79033">
        <ele>934.908</ele>
        <time>2020-09-13T08:45:26Z</time>
      </trkpt>
      <trkpt lat="47.81257" lon="6.79018">
        <ele>936.46265</ele>
        <time>2020-09-13T08:45:36Z</time>
      </trkpt>
      <trkpt lat="47.81249" lon="6.79005">
        <ele>937.1816</ele>
        <time>2020-09-13T08:45:41Z</time>
      </trkpt>
      <trkpt lat="47.81241" lon="6.78995">
        <ele>935.0712</ele>
        <time>2020-09-13T08:45:46Z</time>
      </trkpt>
      <trkpt lat="47.81231" lon="6.78983">
        <ele>937.4833</ele>
        <time>2020-09-13T08:45:51Z</time>
      </trkpt>
      <trkpt lat="47.81223" lon="6.78975">
        <ele>939.38104</ele>
        <time>2020-09-13T08:45:56Z</time>
      </trkpt>
      <trkpt lat="47.81215" lon="6.7897">
        <ele>938.7054</ele>
        <time>2020-09-13T08:46:01Z</time>
      </trkpt>
      <trkpt lat="47.81201" lon="6.78958">
        <ele>945.46295</ele>
        <time>2020-09-13T08:46:11Z</time>
      </trkpt>
      <trkpt lat="47.81189" lon="6.7895">
        <ele>946.4788</ele>
        <time>2020-09-13T08:46:21Z</time>
      </trkpt>
      <trkpt lat="47.81184" lon="6.78946">
        <ele>946.31036</ele>
        <time>2020-09-13T08:46:26Z</time>
      </trkpt>
      <trkpt lat="47.81174" lon="6.7894">
        <ele>946.2897</ele>
        <time>2020-09-13T08:46:31Z</time>
      </trkpt>
      <trkpt lat="47.8117" lon="6.78938">
        <ele>946.28864</ele>
        <time>2020-09-13T08:46:36Z</time>
      </trkpt>
      <trkpt lat="47.81162" lon="6.78935">
        <ele>946.4602</ele>
        <time>2020-09-13T08:46:41Z</time>
      </trkpt>
      <trkpt lat="47.81157" lon="6.78939">
        <ele>945.89386</ele>
        <time>2020-09-13T08:46:46Z</time>
      </trkpt>
      <trkpt lat="47.81143" lon="6.78945">
        <ele>947.52576</ele>
        <time>2020-09-13T08:46:56Z</time>
      </trkpt>
      <trkpt lat="47.81129" lon="6.78959">
        <ele>945.5177</ele>
        <time>2020-09-13T08:47:06Z</time>
      </trkpt>
      <trkpt lat="47.81121" lon="6.78969">
        <ele>944.7437</ele>
        <time>2020-09-13T08:47:11Z</time>
      </trkpt>
      <trkpt lat="47.81112" lon="6.78978">
        <ele>942.93945</ele>
        <time>2020-09-13T08:47:16Z</time>
      </trkpt>
      <trkpt lat="47.81099" lon="6.78982">
        <ele>947.3779</ele>
        <time>2020-09-13T08:47:21Z</time>
      </trkpt>
      <trkpt lat="47.81079" lon="6.78978">
        <ele>949.9753</ele>
        <time>2020-09-13T08:47:26Z</time>
      </trkpt>
      <trkpt lat="47.81056" lon="6.78978">
        <ele>953.5085</ele>
        <time>2020-09-13T08:47:31Z</time>
      </trkpt>
      <trkpt lat="47.81046" lon="6.78981">
        <ele>957.7392</ele>
        <time>2020-09-13T08:47:36Z</time>
      </trkpt>
      <trkpt lat="47.81036" lon="6.78989">
        <ele>958.9603</ele>
        <time>2020-09-13T08:47:41Z</time>
      </trkpt>
      <trkpt lat="47.81018" lon="6.79002">
        <ele>962.3967</ele>
        <time>2020-09-13T08:47:51Z</time>
      </trkpt>
      <trkpt lat="47.81003" lon="6.79013">
        <ele>964.7041</ele>
        <time>2020-09-13T08:48:01Z</time>
      </trkpt>
      <trkpt lat="47.80992" lon="6.79011">
        <ele>966.2639</ele>
        <time>2020-09-13T08:48:06Z</time>
      </trkpt>
      <trkpt lat="47.8098" lon="6.78998">
        <ele>967.12555</ele>
        <time>2020-09-13T08:48:11Z</time>
      </trkpt>
      <trkpt lat="47.80968" lon="6.78966">
        <ele>969.1645</ele>
        <time>2020-09-13T08:48:16Z</time>
      </trkpt>
      <trkpt lat="47.80975" lon="6.78955">
        <ele>968.3183</ele>
        <time>2020-09-13T08:48:21Z</time>
      </trkpt>
      <trkpt lat="47.80985" lon="6.78956">
        <ele>967.35004</ele>
        <time>2020-09-13T08:48:26Z</time>
      </trkpt>
      <trkpt lat="47.8101" lon="6.78959">
        <ele>966.58765</ele>
        <time>2020-09-13T08:48:36Z</time>
      </trkpt>
      <trkpt lat="47.81033" lon="6.78936">
        <ele>968.46515</ele>
        <time>2020-09-13T08:48:46Z</time>
      </trkpt>
      <trkpt lat="47.81046" lon="6.7892">
        <ele>969.3373</ele>
        <time>2020-09-13T08:48:51Z</time>
      </trkpt>
      <trkpt lat="47.81054" lon="6.78906">
        <ele>970.31384</ele>
        <time>2020-09-13T08:48:56Z</time>
      </trkpt>
      <trkpt lat="47.81072" lon="6.78882">
        <ele>971.5461</ele>
        <time>2020-09-13T08:49:01Z</time>
      </trkpt>
      <trkpt lat="47.81089" lon="6.7887">
        <ele>971.4312</ele>
        <time>2020-09-13T08:49:06Z</time>
      </trkpt>
      <trkpt lat="47.81104" lon="6.78865">
        <ele>979.0152</ele>
        <time>2020-09-13T08:49:11Z</time>
      </trkpt>
      <trkpt lat="47.81138" lon="6.7886">
        <ele>977.75775</ele>
        <time>2020-09-13T08:49:21Z</time>
      </trkpt>
      <trkpt lat="47.81174" lon="6.78863">
        <ele>982.33765</ele>
        <time>2020-09-13T08:49:31Z</time>
      </trkpt>
      <trkpt lat="47.81184" lon="6.78865">
        <ele>981.7031</ele>
        <time>2020-09-13T08:49:36Z</time>
      </trkpt>
      <trkpt lat="47.81195" lon="6.78864">
        <ele>983.67505</ele>
        <time>2020-09-13T08:49:41Z</time>
      </trkpt>
      <trkpt lat="47.81204" lon="6.78864">
        <ele>983.8065</ele>
        <time>2020-09-13T08:49:46Z</time>
      </trkpt>
      <trkpt lat="47.81215" lon="6.78865">
        <ele>983.3914</ele>
        <time>2020-09-13T08:49:51Z</time>
      </trkpt>
      <trkpt lat="47.81234" lon="6.78872">
        <ele>984.55804</ele>
        <time>2020-09-13T08:49:56Z</time>
      </trkpt>
      <trkpt lat="47.81245" lon="6.78877">
        <ele>983.7589</ele>
        <time>2020-09-13T08:50:01Z</time>
      </trkpt>
      <trkpt lat="47.81256" lon="6.78879">
        <ele>985.6451</ele>
        <time>2020-09-13T08:50:06Z</time>
      </trkpt>
      <trkpt lat="47.81279" lon="6.78888">
        <ele>987.841</ele>
        <time>2020-09-13T08:50:16Z</time>
      </trkpt>
      <trkpt lat="47.81288" lon="6.78893">
        <ele>989.275</ele>
        <time>2020-09-13T08:50:21Z</time>
      </trkpt>
      <trkpt lat="47.81296" lon="6.78898">
        <ele>989.1539</ele>
        <time>2020-09-13T08:50:26Z</time>
      </trkpt>
      <trkpt lat="47.81305" lon="6.78901">
        <ele>989.946</ele>
        <time>2020-09-13T08:50:31Z</time>
      </trkpt>
      <trkpt lat="47.81315" lon="6.78907">
        <ele>992.5907</ele>
        <time>2020-09-13T08:50:36Z</time>
      </trkpt>
      <trkpt lat="47.81327" lon="6.78911">
        <ele>992.6922</ele>
        <time>2020-09-13T08:50:41Z</time>
      </trkpt>
      <trkpt lat="47.81339" lon="6.78913">
        <ele>992.12054</ele>
        <time>2020-09-13T08:50:46Z</time>
      </trkpt>
      <trkpt lat="47.81351" lon="6.78917">
        <ele>995.0245</ele>
        <time>2020-09-13T08:50:51Z</time>
      </trkpt>
      <trkpt lat="47.81373" lon="6.78932">
        <ele>993.31256</ele>
        <time>2020-09-13T08:51:01Z</time>
      </trkpt>
      <trkpt lat="47.81397" lon="6.78942">
        <ele>992.0957</ele>
        <time>2020-09-13T08:51:11Z</time>
      </trkpt>
      <trkpt lat="47.81408" lon="6.7895">
        <ele>991.78815</ele>
        <time>2020-09-13T08:51:16Z</time>
      </trkpt>
      <trkpt lat="47.81419" lon="6.78963">
        <ele>994.2001</ele>
        <time>2020-09-13T08:51:21Z</time>
      </trkpt>
      <trkpt lat="47.81431" lon="6.78971">
        <ele>997.5175</ele>
        <time>2020-09-13T08:51:26Z</time>
      </trkpt>
      <trkpt lat="47.81444" lon="6.78981">
        <ele>998.3038</ele>
        <time>2020-09-13T08:51:31Z</time>
      </trkpt>
      <trkpt lat="47.81454" lon="6.78997">
        <ele>999.48566</ele>
        <time>2020-09-13T08:51:36Z</time>
      </trkpt>
      <trkpt lat="47.81469" lon="6.79035">
        <ele>1000.6583</ele>
        <time>2020-09-13T08:51:46Z</time>
      </trkpt>
      <trkpt lat="47.81487" lon="6.7906">
        <ele>999.68353</ele>
        <time>2020-09-13T08:51:56Z</time>
      </trkpt>
      <trkpt lat="47.81493" lon="6.79071">
        <ele>998.2416</ele>
        <time>2020-09-13T08:52:01Z</time>
      </trkpt>
      <trkpt lat="47.81499" lon="6.79079">
        <ele>1001.3048</ele>
        <time>2020-09-13T08:52:06Z</time>
      </trkpt>
      <trkpt lat="47.81503" lon="6.7909">
        <ele>1003.5054</ele>
        <time>2020-09-13T08:52:11Z</time>
      </trkpt>
      <trkpt lat="47.81506" lon="6.79099">
        <ele>1003.667</ele>
        <time>2020-09-13T08:52:16Z</time>
      </trkpt>
      <trkpt lat="47.81506" lon="6.79113">
        <ele>1006.33923</ele>
        <time>2020-09-13T08:52:21Z</time>
      </trkpt>
      <trkpt lat="47.81506" lon="6.79129">
        <ele>1008.2947</ele>
        <time>2020-09-13T08:52:26Z</time>
      </trkpt>
      <trkpt lat="47.81507" lon="6.79141">
        <ele>1008.1392</ele>
        <time>2020-09-13T08:52:31Z</time>
      </trkpt>
      <trkpt lat="47.81516" lon="6.79172">
        <ele>1008.24286</ele>
        <time>2020-09-13T08:52:41Z</time>
      </trkpt>
      <trkpt lat="47.81523" lon="6.79186">
        <ele>1008.40344</ele>
        <time>2020-09-13T08:52:46Z</time>
      </trkpt>
      <trkpt lat="47.81527" lon="6.79199">
        <ele>1012.2693</ele>
        <time>2020-09-13T08:52:51Z</time>
      </trkpt>
      <trkpt lat="47.81534" lon="6.79211">
        <ele>1011.03174</ele>
        <time>2020-09-13T08:52:56Z</time>
      </trkpt>
      <trkpt lat="47.81541" lon="6.79221">
        <ele>1011.1468</ele>
        <time>2020-09-13T08:53:01Z</time>
      </trkpt>
      <trkpt lat="47.8155" lon="6.79234">
        <ele>1009.5258</ele>
        <time>2020-09-13T08:53:06Z</time>
      </trkpt>
      <trkpt lat="47.81556" lon="6.79243">
        <ele>1011.2504</ele>
        <time>2020-09-13T08:53:11Z</time>
      </trkpt>
      <trkpt lat="47.81561" lon="6.79252">
        <ele>1011.05347</ele>
        <time>2020-09-13T08:53:16Z</time>
      </trkpt>
      <trkpt lat="47.81576" lon="6.79274">
        <ele>1016.7484</ele>
        <time>2020-09-13T08:53:26Z</time>
      </trkpt>
      <trkpt lat="47.8159" lon="6.79293">
        <ele>1027.1033</ele>
        <time>2020-09-13T08:53:36Z</time>
      </trkpt>
      <trkpt lat="47.81596" lon="6.79301">
        <ele>1030.7493</ele>
        <time>2020-09-13T08:53:41Z</time>
      </trkpt>
      <trkpt lat="47.81605" lon="6.7931">
        <ele>1032.3385</ele>
        <time>2020-09-13T08:53:46Z</time>
      </trkpt>
      <trkpt lat="47.81613" lon="6.79313">
        <ele>1033.3251</ele>
        <time>2020-09-13T08:53:51Z</time>
      </trkpt>
      <trkpt lat="47.81622" lon="6.79318">
        <ele>1033.7941</ele>
        <time>2020-09-13T08:53:56Z</time>
      </trkpt>
      <trkpt lat="47.81631" lon="6.79321">
        <ele>1034.3242</ele>
        <time>2020-09-13T08:54:01Z</time>
      </trkpt>
      <trkpt lat="47.81651" lon="6.79331">
        <ele>1032.5459</ele>
        <time>2020-09-13T08:54:11Z</time>
      </trkpt>
      <trkpt lat="47.81673" lon="6.79337">
        <ele>1026.7797</ele>
        <time>2020-09-13T08:54:21Z</time>
      </trkpt>
      <trkpt lat="47.81686" lon="6.79337">
        <ele>1029.2181</ele>
        <time>2020-09-13T08:54:26Z</time>
      </trkpt>
      <trkpt lat="47.817" lon="6.7934">
        <ele>1029.074</ele>
        <time>2020-09-13T08:54:31Z</time>
      </trkpt>
      <trkpt lat="47.81712" lon="6.79344">
        <ele>1029.8291</ele>
        <time>2020-09-13T08:54:36Z</time>
      </trkpt>
      <trkpt lat="47.81723" lon="6.7935">
        <ele>1029.8923</ele>
        <time>2020-09-13T08:54:41Z</time>
      </trkpt>
      <trkpt lat="47.81735" lon="6.79354">
        <ele>1031.6672</ele>
        <time>2020-09-13T08:54:46Z</time>
      </trkpt>
      <trkpt lat="47.81759" lon="6.79362">
        <ele>1032.8904</ele>
        <time>2020-09-13T08:54:56Z</time>
      </trkpt>
      <trkpt lat="47.8178" lon="6.79368">
        <ele>1028.1996</ele>
        <time>2020-09-13T08:55:06Z</time>
      </trkpt>
      <trkpt lat="47.81789" lon="6.79376">
        <ele>1043.0222</ele>
        <time>2020-09-13T08:55:11Z</time>
      </trkpt>
      <trkpt lat="47.81797" lon="6.79384">
        <ele>1044.8293</ele>
        <time>2020-09-13T08:55:16Z</time>
      </trkpt>
      <trkpt lat="47.81807" lon="6.79393">
        <ele>1044.2273</ele>
        <time>2020-09-13T08:55:21Z</time>
      </trkpt>
      <trkpt lat="47.81818" lon="6.79405">
        <ele>1047.5491</ele>
        <time>2020-09-13T08:55:26Z</time>
      </trkpt>
      <trkpt lat="47.81828" lon="6.79411">
        <ele>1049.2723</ele>
        <time>2020-09-13T08:55:31Z</time>
      </trkpt>
      <trkpt lat="47.81837" lon="6.79422">
        <ele>1050.1434</ele>
        <time>2020-09-13T08:55:36Z</time>
      </trkpt>
      <trkpt lat="47.81847" lon="6.79432">
        <ele>1051.2823</ele>
        <time>2020-09-13T08:55:41Z</time>
      </trkpt>
      <trkpt lat="47.81873" lon="6.79441">
        <ele>1051.6095</ele>
        <time>2020-09-13T08:55:51Z</time>
      </trkpt>
      <trkpt lat="47.81898" lon="6.79449">
        <ele>1054.6436</ele>
        <time>2020-09-13T08:56:01Z</time>
      </trkpt>
      <trkpt lat="47.81914" lon="6.79458">
        <ele>1054.8451</ele>
        <time>2020-09-13T08:56:06Z</time>
      </trkpt>
      <trkpt lat="47.81932" lon="6.79457">
        <ele>1060.2363</ele>
        <time>2020-09-13T08:56:11Z</time>
      </trkpt>
      <trkpt lat="47.81944" lon="6.79457">
        <ele>1061.9513</ele>
        <time>2020-09-13T08:56:16Z</time>
      </trkpt>
      <trkpt lat="47.81957" lon="6.79455">
        <ele>1062.6753</ele>
        <time>2020-09-13T08:56:21Z</time>
      </trkpt>
      <trkpt lat="47.81972" lon="6.79446">
        <ele>1063.8191</ele>
        <time>2020-09-13T08:56:26Z</time>
      </trkpt>
      <trkpt lat="47.81994" lon="6.79411">
        <ele>1062.4935</ele>
        <time>2020-09-13T08:56:36Z</time>
      </trkpt>
      <trkpt lat="47.82019" lon="6.79368">
        <ele>1058.051</ele>
        <time>2020-09-13T08:56:46Z</time>
      </trkpt>
      <trkpt lat="47.82043" lon="6.79367">
        <ele>1062.344</ele>
        <time>2020-09-13T08:56:51Z</time>
      </trkpt>
      <trkpt lat="47.8207" lon="6.79367">
        <ele>1065.3494</ele>
        <time>2020-09-13T08:56:56Z</time>
      </trkpt>
      <trkpt lat="47.82094" lon="6.79356">
        <ele>1067.0564</ele>
        <time>2020-09-13T08:57:01Z</time>
      </trkpt>
      <trkpt lat="47.82106" lon="6.79344">
        <ele>1070.0261</ele>
        <time>2020-09-13T08:57:06Z</time>
      </trkpt>
      <trkpt lat="47.82113" lon="6.79328">
        <ele>1067.9843</ele>
        <time>2020-09-13T08:57:11Z</time>
      </trkpt>
      <trkpt lat="47.82132" lon="6.79305">
        <ele>1070.3784</ele>
        <time>2020-09-13T08:57:21Z</time>
      </trkpt>
      <trkpt lat="47.82143" lon="6.79294">
        <ele>1072.9879</ele>
        <time>2020-09-13T08:57:31Z</time>
      </trkpt>
      <trkpt lat="47.82151" lon="6.79287">
        <ele>1074.6426</ele>
        <time>2020-09-13T08:57:36Z</time>
      </trkpt>
      <trkpt lat="47.82165" lon="6.79281">
        <ele>1075.8306</ele>
        <time>2020-09-13T08:57:41Z</time>
      </trkpt>
      <trkpt lat="47.82175" lon="6.79276">
        <ele>1075.5239</ele>
        <time>2020-09-13T08:57:46Z</time>
      </trkpt>
      <trkpt lat="47.82188" lon="6.79265">
        <ele>1075.9667</ele>
        <time>2020-09-13T08:57:51Z</time>
      </trkpt>
      <trkpt lat="47.8219" lon="6.7925">
        <ele>1076.0332</ele>
        <time>2020-09-13T08:57:56Z</time>
      </trkpt>
      <trkpt lat="47.82196" lon="6.79232">
        <ele>1076.2192</ele>
        <time>2020-09-13T08:58:01Z</time>
      </trkpt>
      <trkpt lat="47.82195" lon="6.79217">
        <ele>1078.1237</ele>
        <time>2020-09-13T08:58:06Z</time>
      </trkpt>
      <trkpt lat="47.82192" lon="6.79189">
        <ele>1077.0903</ele>
        <time>2020-09-13T08:58:16Z</time>
      </trkpt>
      <trkpt lat="47.82202" lon="6.79162">
        <ele>1079.5104</ele>
        <time>2020-09-13T08:58:26Z</time>
      </trkpt>
      <trkpt lat="47.8221" lon="6.79147">
        <ele>1080.2122</ele>
        <time>2020-09-13T08:58:31Z</time>
      </trkpt>
      <trkpt lat="47.82216" lon="6.79135">
        <ele>1076.4095</ele>
        <time>2020-09-13T08:58:36Z</time>
      </trkpt>
      <trkpt lat="47.82231" lon="6.79112">
        <ele>1077.0675</ele>
        <time>2020-09-13T08:58:41Z</time>
      </trkpt>
      <trkpt lat="47.82237" lon="6.79101">
        <ele>1082.7385</ele>
        <time>2020-09-13T08:58:46Z</time>
      </trkpt>
      <trkpt lat="47.82242" lon="6.7909">
        <ele>1083.5079</ele>
        <time>2020-09-13T08:58:51Z</time>
      </trkpt>
      <trkpt lat="47.8224" lon="6.79039">
        <ele>1089.4167</ele>
        <time>2020-09-13T08:59:11Z</time>
      </trkpt>
      <trkpt lat="47.82238" lon="6.79026">
        <ele>1089.9628</ele>
        <time>2020-09-13T08:59:16Z</time>
      </trkpt>
      <trkpt lat="47.82236" lon="6.79012">
        <ele>1089.5831</ele>
        <time>2020-09-13T08:59:21Z</time>
      </trkpt>
      <trkpt lat="47.82235" lon="6.79">
        <ele>1088.8374</ele>
        <time>2020-09-13T08:59:26Z</time>
      </trkpt>
      <trkpt lat="47.82231" lon="6.78985">
        <ele>1088.1157</ele>
        <time>2020-09-13T08:59:31Z</time>
      </trkpt>
      <trkpt lat="47.82228" lon="6.78969">
        <ele>1090.2478</ele>
        <time>2020-09-13T08:59:36Z</time>
      </trkpt>
      <trkpt lat="47.82227" lon="6.78934">
        <ele>1086.6088</ele>
        <time>2020-09-13T08:59:46Z</time>
      </trkpt>
      <trkpt lat="47.82224" lon="6.789">
        <ele>1091.4158</ele>
        <time>2020-09-13T08:59:56Z</time>
      </trkpt>
      <trkpt lat="47.82222" lon="6.78885">
        <ele>1093.077</ele>
        <time>2020-09-13T09:00:01Z</time>
      </trkpt>
      <trkpt lat="47.8222" lon="6.78866">
        <ele>1095.635</ele>
        <time>2020-09-13T09:00:06Z</time>
      </trkpt>
      <trkpt lat="47.82217" lon="6.78844">
        <ele>1097.0311</ele>
        <time>2020-09-13T09:00:11Z</time>
      </trkpt>
      <trkpt lat="47.82219" lon="6.7883">
        <ele>1097.9093</ele>
        <time>2020-09-13T09:00:16Z</time>
      </trkpt>
      <trkpt lat="47.82222" lon="6.78813">
        <ele>1096.3861</ele>
        <time>2020-09-13T09:00:21Z</time>
      </trkpt>
      <trkpt lat="47.82229" lon="6.78801">
        <ele>1098.6407</ele>
        <time>2020-09-13T09:00:26Z</time>
      </trkpt>
      <trkpt lat="47.82234" lon="6.78785">
        <ele>1101.2504</ele>
        <time>2020-09-13T09:00:31Z</time>
      </trkpt>
      <trkpt lat="47.82243" lon="6.78778">
        <ele>1093.8842</ele>
        <time>2020-09-13T09:00:55Z</time>
      </trkpt>
      <trkpt lat="47.82248" lon="6.78773">
        <ele>1100.0776</ele>
        <time>2020-09-13T09:01:46Z</time>
      </trkpt>
      <trkpt lat="47.82249" lon="6.78772">
        <ele>1089.942</ele>
        <time>2020-09-13T09:02:15Z</time>
      </trkpt>
      <trkpt lat="47.82266" lon="6.78776">
        <ele>1104.1007</ele>
        <time>2020-09-13T09:08:06Z</time>
      </trkpt>
      <trkpt lat="47.82265" lon="6.78771">
        <ele>1103.0164</ele>
        <time>2020-09-13T09:08:10Z</time>
      </trkpt>
      <trkpt lat="47.82259" lon="6.78726">
        <ele>1101.857</ele>
        <time>2020-09-13T09:08:16Z</time>
      </trkpt>
      <trkpt lat="47.82281" lon="6.78702">
        <ele>1102.4846</ele>
        <time>2020-09-13T09:08:21Z</time>
      </trkpt>
      <trkpt lat="47.82317" lon="6.78726">
        <ele>1101.6542</ele>
        <time>2020-09-13T09:08:26Z</time>
      </trkpt>
      <trkpt lat="47.82353" lon="6.7876">
        <ele>1099.0101</ele>
        <time>2020-09-13T09:08:31Z</time>
      </trkpt>
      <trkpt lat="47.82439" lon="6.78781">
        <ele>1095.2646</ele>
        <time>2020-09-13T09:08:41Z</time>
      </trkpt>
      <trkpt lat="47.82529" lon="6.78751">
        <ele>1091.3835</ele>
        <time>2020-09-13T09:08:51Z</time>
      </trkpt>
      <trkpt lat="47.8257" lon="6.78743">
        <ele>1089.7974</ele>
        <time>2020-09-13T09:08:56Z</time>
      </trkpt>
      <trkpt lat="47.82602" lon="6.7872">
        <ele>1084.3003</ele>
        <time>2020-09-13T09:09:01Z</time>
      </trkpt>
      <trkpt lat="47.82611" lon="6.78648">
        <ele>1080.8983</ele>
        <time>2020-09-13T09:09:06Z</time>
      </trkpt>
      <trkpt lat="47.82619" lon="6.78569">
        <ele>1080.446</ele>
        <time>2020-09-13T09:09:11Z</time>
      </trkpt>
      <trkpt lat="47.82628" lon="6.78503">
        <ele>1076.684</ele>
        <time>2020-09-13T09:09:16Z</time>
      </trkpt>
      <trkpt lat="47.82671" lon="6.78447">
        <ele>1070.8304</ele>
        <time>2020-09-13T09:09:26Z</time>
      </trkpt>
      <trkpt lat="47.82768" lon="6.78445">
        <ele>1064.4767</ele>
        <time>2020-09-13T09:09:36Z</time>
      </trkpt>
      <trkpt lat="47.82821" lon="6.78451">
        <ele>1059.7222</ele>
        <time>2020-09-13T09:09:41Z</time>
      </trkpt>
      <trkpt lat="47.82875" lon="6.78477">
        <ele>1055.5221</ele>
        <time>2020-09-13T09:09:46Z</time>
      </trkpt>
      <trkpt lat="47.82923" lon="6.78501">
        <ele>1049.9918</ele>
        <time>2020-09-13T09:09:51Z</time>
      </trkpt>
      <trkpt lat="47.82963" lon="6.78498">
        <ele>1046.8971</ele>
        <time>2020-09-13T09:09:56Z</time>
      </trkpt>
      <trkpt lat="47.83006" lon="6.78463">
        <ele>1043.1572</ele>
        <time>2020-09-13T09:10:01Z</time>
      </trkpt>
      <trkpt lat="47.83043" lon="6.78432">
        <ele>1039.697</ele>
        <time>2020-09-13T09:10:06Z</time>
      </trkpt>
      <trkpt lat="47.83085" lon="6.78411">
        <ele>1036.2073</ele>
        <time>2020-09-13T09:10:11Z</time>
      </trkpt>
      <trkpt lat="47.83182" lon="6.78382">
        <ele>1030.6652</ele>
        <time>2020-09-13T09:10:21Z</time>
      </trkpt>
      <trkpt lat="47.83266" lon="6.78436">
        <ele>1028.1664</ele>
        <time>2020-09-13T09:10:31Z</time>
      </trkpt>
      <trkpt lat="47.83302" lon="6.78458">
        <ele>1023.5864</ele>
        <time>2020-09-13T09:10:36Z</time>
      </trkpt>
      <trkpt lat="47.83344" lon="6.78438">
        <ele>1020.74524</ele>
        <time>2020-09-13T09:10:41Z</time>
      </trkpt>
      <trkpt lat="47.83382" lon="6.78385">
        <ele>1018.0433</ele>
        <time>2020-09-13T09:10:46Z</time>
      </trkpt>
      <trkpt lat="47.83402" lon="6.78319">
        <ele>1015.3769</ele>
        <time>2020-09-13T09:10:51Z</time>
      </trkpt>
      <trkpt lat="47.83409" lon="6.78244">
        <ele>1011.3551</ele>
        <time>2020-09-13T09:10:56Z</time>
      </trkpt>
      <trkpt lat="47.83387" lon="6.78112">
        <ele>1003.67426</ele>
        <time>2020-09-13T09:11:06Z</time>
      </trkpt>
      <trkpt lat="47.83337" lon="6.77974">
        <ele>994.52423</ele>
        <time>2020-09-13T09:11:16Z</time>
      </trkpt>
      <trkpt lat="47.83314" lon="6.77913">
        <ele>991.22485</ele>
        <time>2020-09-13T09:11:21Z</time>
      </trkpt>
      <trkpt lat="47.83302" lon="6.77865">
        <ele>989.8963</ele>
        <time>2020-09-13T09:11:26Z</time>
      </trkpt>
      <trkpt lat="47.83321" lon="6.77847">
        <ele>989.43964</ele>
        <time>2020-09-13T09:11:31Z</time>
      </trkpt>
      <trkpt lat="47.83349" lon="6.77874">
        <ele>991.5665</ele>
        <time>2020-09-13T09:11:36Z</time>
      </trkpt>
      <trkpt lat="47.83376" lon="6.7791">
        <ele>992.2158</ele>
        <time>2020-09-13T09:11:41Z</time>
      </trkpt>
      <trkpt lat="47.83432" lon="6.77975">
        <ele>987.92694</ele>
        <time>2020-09-13T09:11:51Z</time>
      </trkpt>
      <trkpt lat="47.83499" lon="6.78104">
        <ele>982.0954</ele>
        <time>2020-09-13T09:12:01Z</time>
      </trkpt>
      <trkpt lat="47.8354" lon="6.7815">
        <ele>979.0576</ele>
        <time>2020-09-13T09:12:06Z</time>
      </trkpt>
      <trkpt lat="47.83579" lon="6.78206">
        <ele>977.16266</ele>
        <time>2020-09-13T09:12:11Z</time>
      </trkpt>
      <trkpt lat="47.83626" lon="6.78246">
        <ele>973.9796</ele>
        <time>2020-09-13T09:12:16Z</time>
      </trkpt>
      <trkpt lat="47.83669" lon="6.78287">
        <ele>971.2977</ele>
        <time>2020-09-13T09:12:21Z</time>
      </trkpt>
      <trkpt lat="47.83713" lon="6.78305">
        <ele>967.6179</ele>
        <time>2020-09-13T09:12:26Z</time>
      </trkpt>
      <trkpt lat="47.83756" lon="6.78294">
        <ele>963.4061</ele>
        <time>2020-09-13T09:12:31Z</time>
      </trkpt>
      <trkpt lat="47.83796" lon="6.78268">
        <ele>958.2986</ele>
        <time>2020-09-13T09:12:36Z</time>
      </trkpt>
      <trkpt lat="47.83863" lon="6.78159">
        <ele>953.50543</ele>
        <time>2020-09-13T09:12:46Z</time>
      </trkpt>
      <trkpt lat="47.83936" lon="6.78209">
        <ele>942.85266</ele>
        <time>2020-09-13T09:12:56Z</time>
      </trkpt>
      <trkpt lat="47.83969" lon="6.78269">
        <ele>943.79193</ele>
        <time>2020-09-13T09:13:01Z</time>
      </trkpt>
      <trkpt lat="47.83994" lon="6.78337">
        <ele>941.5208</ele>
        <time>2020-09-13T09:13:06Z</time>
      </trkpt>
      <trkpt lat="47.8401" lon="6.78402">
        <ele>939.4802</ele>
        <time>2020-09-13T09:13:11Z</time>
      </trkpt>
      <trkpt lat="47.84039" lon="6.78448">
        <ele>938.51636</ele>
        <time>2020-09-13T09:13:16Z</time>
      </trkpt>
      <trkpt lat="47.84074" lon="6.78444">
        <ele>933.0736</ele>
        <time>2020-09-13T09:13:21Z</time>
      </trkpt>
      <trkpt lat="47.84124" lon="6.7853">
        <ele>931.7206</ele>
        <time>2020-09-13T09:13:31Z</time>
      </trkpt>
      <trkpt lat="47.84172" lon="6.78616">
        <ele>933.81</ele>
        <time>2020-09-13T09:13:41Z</time>
      </trkpt>
      <trkpt lat="47.842" lon="6.78649">
        <ele>931.78564</ele>
        <time>2020-09-13T09:13:46Z</time>
      </trkpt>
      <trkpt lat="47.84229" lon="6.78688">
        <ele>933.8162</ele>
        <time>2020-09-13T09:13:51Z</time>
      </trkpt>
      <trkpt lat="47.84265" lon="6.7871">
        <ele>932.8009</ele>
        <time>2020-09-13T09:13:56Z</time>
      </trkpt>
      <trkpt lat="47.84293" lon="6.78751">
        <ele>933.13763</ele>
        <time>2020-09-13T09:14:01Z</time>
      </trkpt>
      <trkpt lat="47.84318" lon="6.78801">
        <ele>936.1651</ele>
        <time>2020-09-13T09:14:06Z</time>
      </trkpt>
      <trkpt lat="47.84399" lon="6.7891">
        <ele>924.6812</ele>
        <time>2020-09-13T09:14:16Z</time>
      </trkpt>
      <trkpt lat="47.84463" lon="6.7892">
        <ele>926.3115</ele>
        <time>2020-09-13T09:14:26Z</time>
      </trkpt>
      <trkpt lat="47.84486" lon="6.78867">
        <ele>927.1985</ele>
        <time>2020-09-13T09:14:31Z</time>
      </trkpt>
      <trkpt lat="47.84522" lon="6.78834">
        <ele>922.96735</ele>
        <time>2020-09-13T09:14:36Z</time>
      </trkpt>
      <trkpt lat="47.84558" lon="6.78821">
        <ele>921.38477</ele>
        <time>2020-09-13T09:14:41Z</time>
      </trkpt>
      <trkpt lat="47.84591" lon="6.78833">
        <ele>920.1367</ele>
        <time>2020-09-13T09:14:46Z</time>
      </trkpt>
      <trkpt lat="47.84634" lon="6.78836">
        <ele>919.3089</ele>
        <time>2020-09-13T09:14:51Z</time>
      </trkpt>
      <trkpt lat="47.84684" lon="6.78826">
        <ele>915.4477</ele>
        <time>2020-09-13T09:14:56Z</time>
      </trkpt>
      <trkpt lat="47.84723" lon="6.78802">
        <ele>917.75336</ele>
        <time>2020-09-13T09:15:01Z</time>
      </trkpt>
      <trkpt lat="47.84778" lon="6.78721">
        <ele>916.2155</ele>
        <time>2020-09-13T09:15:11Z</time>
      </trkpt>
      <trkpt lat="47.84827" lon="6.78621">
        <ele>912.6841</ele>
        <time>2020-09-13T09:15:21Z</time>
      </trkpt>
      <trkpt lat="47.84868" lon="6.78604">
        <ele>909.6865</ele>
        <time>2020-09-13T09:15:26Z</time>
      </trkpt>
      <trkpt lat="47.84906" lon="6.78606">
        <ele>907.0588</ele>
        <time>2020-09-13T09:15:31Z</time>
      </trkpt>
      <trkpt lat="47.84938" lon="6.78574">
        <ele>908.3061</ele>
        <time>2020-09-13T09:15:36Z</time>
      </trkpt>
      <trkpt lat="47.84953" lon="6.78502">
        <ele>904.519</ele>
        <time>2020-09-13T09:15:41Z</time>
      </trkpt>
      <trkpt lat="47.84964" lon="6.78436">
        <ele>899.18243</ele>
        <time>2020-09-13T09:15:46Z</time>
      </trkpt>
      <trkpt lat="47.84924" lon="6.78323">
        <ele>897.2076</ele>
        <time>2020-09-13T09:15:56Z</time>
      </trkpt>
      <trkpt lat="47.84873" lon="6.78192">
        <ele>895.3814</ele>
        <time>2020-09-13T09:16:06Z</time>
      </trkpt>
      <trkpt lat="47.84855" lon="6.78118">
        <ele>891.78827</ele>
        <time>2020-09-13T09:16:11Z</time>
      </trkpt>
      <trkpt lat="47.84842" lon="6.78052">
        <ele>887.65247</ele>
        <time>2020-09-13T09:16:16Z</time>
      </trkpt>
      <trkpt lat="47.84827" lon="6.77989">
        <ele>884.7572</ele>
        <time>2020-09-13T09:16:21Z</time>
      </trkpt>
      <trkpt lat="47.84801" lon="6.77938">
        <ele>885.1025</ele>
        <time>2020-09-13T09:16:26Z</time>
      </trkpt>
      <trkpt lat="47.84778" lon="6.77898">
        <ele>881.8366</ele>
        <time>2020-09-13T09:16:31Z</time>
      </trkpt>
      <trkpt lat="47.84752" lon="6.77803">
        <ele>884.4491</ele>
        <time>2020-09-13T09:16:41Z</time>
      </trkpt>
      <trkpt lat="47.84732" lon="6.77701">
        <ele>883.5452</ele>
        <time>2020-09-13T09:16:51Z</time>
      </trkpt>
      <trkpt lat="47.8471" lon="6.77654">
        <ele>882.828</ele>
        <time>2020-09-13T09:16:56Z</time>
      </trkpt>
      <trkpt lat="47.84688" lon="6.77607">
        <ele>879.1678</ele>
        <time>2020-09-13T09:17:01Z</time>
      </trkpt>
      <trkpt lat="47.84665" lon="6.77554">
        <ele>879.76337</ele>
        <time>2020-09-13T09:17:06Z</time>
      </trkpt>
      <trkpt lat="47.84652" lon="6.77508">
        <ele>880.4403</ele>
        <time>2020-09-13T09:17:11Z</time>
      </trkpt>
      <trkpt lat="47.84639" lon="6.77451">
        <ele>881.54395</ele>
        <time>2020-09-13T09:17:16Z</time>
      </trkpt>
      <trkpt lat="47.84621" lon="6.77394">
        <ele>882.0932</ele>
        <time>2020-09-13T09:17:21Z</time>
      </trkpt>
      <trkpt lat="47.84602" lon="6.77341">
        <ele>879.5686</ele>
        <time>2020-09-13T09:17:26Z</time>
      </trkpt>
      <trkpt lat="47.84558" lon="6.7723">
        <ele>876.29425</ele>
        <time>2020-09-13T09:17:36Z</time>
      </trkpt>
      <trkpt lat="47.845" lon="6.77165">
        <ele>877.09784</ele>
        <time>2020-09-13T09:17:46Z</time>
      </trkpt>
      <trkpt lat="47.84468" lon="6.77137">
        <ele>868.6872</ele>
        <time>2020-09-13T09:17:51Z</time>
      </trkpt>
      <trkpt lat="47.84436" lon="6.77096">
        <ele>872.4518</ele>
        <time>2020-09-13T09:17:56Z</time>
      </trkpt>
      <trkpt lat="47.84407" lon="6.77055">
        <ele>873.247</ele>
        <time>2020-09-13T09:18:01Z</time>
      </trkpt>
      <trkpt lat="47.8438" lon="6.77008">
        <ele>872.4404</ele>
        <time>2020-09-13T09:18:06Z</time>
      </trkpt>
      <trkpt lat="47.84353" lon="6.76964">
        <ele>871.53094</ele>
        <time>2020-09-13T09:18:11Z</time>
      </trkpt>
      <trkpt lat="47.84303" lon="6.76865">
        <ele>864.5618</ele>
        <time>2020-09-13T09:18:21Z</time>
      </trkpt>
      <trkpt lat="47.84325" lon="6.76771">
        <ele>860.54224</ele>
        <time>2020-09-13T09:18:31Z</time>
      </trkpt>
      <trkpt lat="47.84359" lon="6.76742">
        <ele>857.83685</ele>
        <time>2020-09-13T09:18:36Z</time>
      </trkpt>
      <trkpt lat="47.84385" lon="6.76702">
        <ele>856.8188</ele>
        <time>2020-09-13T09:18:41Z</time>
      </trkpt>
      <trkpt lat="47.84428" lon="6.76664">
        <ele>855.5836</ele>
        <time>2020-09-13T09:18:46Z</time>
      </trkpt>
      <trkpt lat="47.84467" lon="6.7663">
        <ele>852.0925</ele>
        <time>2020-09-13T09:18:51Z</time>
      </trkpt>
      <trkpt lat="47.84506" lon="6.76607">
        <ele>848.26135</ele>
        <time>2020-09-13T09:18:56Z</time>
      </trkpt>
      <trkpt lat="47.84543" lon="6.76462">
        <ele>848.5639</ele>
        <time>2020-09-13T09:19:06Z</time>
      </trkpt>
      <trkpt lat="47.84593" lon="6.76356">
        <ele>847.4619</ele>
        <time>2020-09-13T09:19:16Z</time>
      </trkpt>
      <trkpt lat="47.84604" lon="6.76288">
        <ele>846.5287</ele>
        <time>2020-09-13T09:19:21Z</time>
      </trkpt>
      <trkpt lat="47.84613" lon="6.76223">
        <ele>849.0033</ele>
        <time>2020-09-13T09:19:26Z</time>
      </trkpt>
      <trkpt lat="47.84605" lon="6.76166">
        <ele>846.8291</ele>
        <time>2020-09-13T09:19:31Z</time>
      </trkpt>
      <trkpt lat="47.84581" lon="6.76116">
        <ele>848.27783</ele>
        <time>2020-09-13T09:19:36Z</time>
      </trkpt>
      <trkpt lat="47.8456" lon="6.7607">
        <ele>846.37744</ele>
        <time>2020-09-13T09:19:41Z</time>
      </trkpt>
      <trkpt lat="47.84534" lon="6.75969">
        <ele>844.1449</ele>
        <time>2020-09-13T09:19:51Z</time>
      </trkpt>
      <trkpt lat="47.84555" lon="6.75851">
        <ele>840.44476</ele>
        <time>2020-09-13T09:20:01Z</time>
      </trkpt>
      <trkpt lat="47.84605" lon="6.75757">
        <ele>836.8048</ele>
        <time>2020-09-13T09:20:11Z</time>
      </trkpt>
      <trkpt lat="47.84625" lon="6.75702">
        <ele>837.63477</ele>
        <time>2020-09-13T09:20:16Z</time>
      </trkpt>
      <trkpt lat="47.84619" lon="6.75644">
        <ele>838.57587</ele>
        <time>2020-09-13T09:20:21Z</time>
      </trkpt>
      <trkpt lat="47.84614" lon="6.75584">
        <ele>837.5361</ele>
        <time>2020-09-13T09:20:26Z</time>
      </trkpt>
      <trkpt lat="47.84606" lon="6.75526">
        <ele>836.15485</ele>
        <time>2020-09-13T09:20:31Z</time>
      </trkpt>
      <trkpt lat="47.84599" lon="6.75474">
        <ele>835.93994</ele>
        <time>2020-09-13T09:20:36Z</time>
      </trkpt>
      <trkpt lat="47.84613" lon="6.75358">
        <ele>829.6543</ele>
        <time>2020-09-13T09:20:46Z</time>
      </trkpt>
      <trkpt lat="47.84693" lon="6.75311">
        <ele>830.0799</ele>
        <time>2020-09-13T09:20:56Z</time>
      </trkpt>
      <trkpt lat="47.84731" lon="6.75308">
        <ele>827.8685</ele>
        <time>2020-09-13T09:21:01Z</time>
      </trkpt>
      <trkpt lat="47.84769" lon="6.75324">
        <ele>826.66473</ele>
        <time>2020-09-13T09:21:06Z</time>
      </trkpt>
      <trkpt lat="47.84808" lon="6.75318">
        <ele>826.74286</ele>
        <time>2020-09-13T09:21:11Z</time>
      </trkpt>
      <trkpt lat="47.84849" lon="6.75295">
        <ele>827.28564</ele>
        <time>2020-09-13T09:21:16Z</time>
      </trkpt>
      <trkpt lat="47.8489" lon="6.75278">
        <ele>822.8441</ele>
        <time>2020-09-13T09:21:21Z</time>
      </trkpt>
      <trkpt lat="47.84993" lon="6.75271">
        <ele>818.5926</ele>
        <time>2020-09-13T09:21:31Z</time>
      </trkpt>
      <trkpt lat="47.85066" lon="6.75327">
        <ele>813.76953</ele>
        <time>2020-09-13T09:21:41Z</time>
      </trkpt>
      <trkpt lat="47.85083" lon="6.75383">
        <ele>809.7354</ele>
        <time>2020-09-13T09:21:46Z</time>
      </trkpt>
      <trkpt lat="47.85092" lon="6.7545">
        <ele>807.81775</ele>
        <time>2020-09-13T09:21:51Z</time>
      </trkpt>
      <trkpt lat="47.8509" lon="6.75515">
        <ele>807.08026</ele>
        <time>2020-09-13T09:21:56Z</time>
      </trkpt>
      <trkpt lat="47.85086" lon="6.75589">
        <ele>803.04425</ele>
        <time>2020-09-13T09:22:01Z</time>
      </trkpt>
      <trkpt lat="47.851" lon="6.75652">
        <ele>804.80133</ele>
        <time>2020-09-13T09:22:06Z</time>
      </trkpt>
      <trkpt lat="47.85138" lon="6.75783">
        <ele>799.74927</ele>
        <time>2020-09-13T09:22:16Z</time>
      </trkpt>
      <trkpt lat="47.85189" lon="6.75931">
        <ele>795.6109</ele>
        <time>2020-09-13T09:22:26Z</time>
      </trkpt>
      <trkpt lat="47.85262" lon="6.75988">
        <ele>790.6584</ele>
        <time>2020-09-13T09:22:36Z</time>
      </trkpt>
      <trkpt lat="47.8531" lon="6.76003">
        <ele>795.19824</ele>
        <time>2020-09-13T09:22:41Z</time>
      </trkpt>
      <trkpt lat="47.85366" lon="6.76015">
        <ele>787.62274</ele>
        <time>2020-09-13T09:22:46Z</time>
      </trkpt>
      <trkpt lat="47.85412" lon="6.76022">
        <ele>785.3765</ele>
        <time>2020-09-13T09:22:51Z</time>
      </trkpt>
      <trkpt lat="47.85453" lon="6.76036">
        <ele>784.9107</ele>
        <time>2020-09-13T09:22:56Z</time>
      </trkpt>
      <trkpt lat="47.85502" lon="6.76031">
        <ele>779.1225</ele>
        <time>2020-09-13T09:23:01Z</time>
      </trkpt>
      <trkpt lat="47.85572" lon="6.7599">
        <ele>774.18695</ele>
        <time>2020-09-13T09:23:11Z</time>
      </trkpt>
      <trkpt lat="47.85654" lon="6.75948">
        <ele>772.7256</ele>
        <time>2020-09-13T09:23:21Z</time>
      </trkpt>
      <trkpt lat="47.857" lon="6.75938">
        <ele>769.8841</ele>
        <time>2020-09-13T09:23:26Z</time>
      </trkpt>
      <trkpt lat="47.85737" lon="6.75899">
        <ele>767.5177</ele>
        <time>2020-09-13T09:23:31Z</time>
      </trkpt>
      <trkpt lat="47.85742" lon="6.75825">
        <ele>765.15356</ele>
        <time>2020-09-13T09:23:36Z</time>
      </trkpt>
      <trkpt lat="47.85752" lon="6.7575">
        <ele>761.9482</ele>
        <time>2020-09-13T09:23:41Z</time>
      </trkpt>
      <trkpt lat="47.85764" lon="6.75684">
        <ele>756.5778</ele>
        <time>2020-09-13T09:23:46Z</time>
      </trkpt>
      <trkpt lat="47.85757" lon="6.75546">
        <ele>752.8982</ele>
        <time>2020-09-13T09:23:56Z</time>
      </trkpt>
      <trkpt lat="47.85762" lon="6.75399">
        <ele>746.11237</ele>
        <time>2020-09-13T09:24:06Z</time>
      </trkpt>
      <trkpt lat="47.85755" lon="6.7533">
        <ele>742.11194</ele>
        <time>2020-09-13T09:24:11Z</time>
      </trkpt>
      <trkpt lat="47.85778" lon="6.75277">
        <ele>739.1914</ele>
        <time>2020-09-13T09:24:16Z</time>
      </trkpt>
      <trkpt lat="47.85806" lon="6.75232">
        <ele>738.7378</ele>
        <time>2020-09-13T09:24:21Z</time>
      </trkpt>
      <trkpt lat="47.85825" lon="6.75192">
        <ele>737.9473</ele>
        <time>2020-09-13T09:24:26Z</time>
      </trkpt>
      <trkpt lat="47.85833" lon="6.75154">
        <ele>735.141</ele>
        <time>2020-09-13T09:24:31Z</time>
      </trkpt>
      <trkpt lat="47.85819" lon="6.75127">
        <ele>731.7485</ele>
        <time>2020-09-13T09:24:36Z</time>
      </trkpt>
      <trkpt lat="47.858" lon="6.7511">
        <ele>728.4854</ele>
        <time>2020-09-13T09:24:41Z</time>
      </trkpt>
      <trkpt lat="47.85782" lon="6.7506">
        <ele>724.23126</ele>
        <time>2020-09-13T09:24:51Z</time>
      </trkpt>
      <trkpt lat="47.85756" lon="6.75015">
        <ele>734.26056</ele>
        <time>2020-09-13T09:25:01Z</time>
      </trkpt>
      <trkpt lat="47.85745" lon="6.74979">
        <ele>729.1005</ele>
        <time>2020-09-13T09:25:06Z</time>
      </trkpt>
      <trkpt lat="47.85763" lon="6.7492">
        <ele>725.53595</ele>
        <time>2020-09-13T09:25:11Z</time>
      </trkpt>
      <trkpt lat="47.85792" lon="6.74889">
        <ele>721.8942</ele>
        <time>2020-09-13T09:25:16Z</time>
      </trkpt>
      <trkpt lat="47.85825" lon="6.74852">
        <ele>716.5222</ele>
        <time>2020-09-13T09:25:21Z</time>
      </trkpt>
      <trkpt lat="47.85825" lon="6.74782">
        <ele>714.4151</ele>
        <time>2020-09-13T09:25:26Z</time>
      </trkpt>
      <trkpt lat="47.85881" lon="6.74739">
        <ele>707.052</ele>
        <time>2020-09-13T09:25:36Z</time>
      </trkpt>
      <trkpt lat="47.85973" lon="6.74723">
        <ele>704.5174</ele>
        <time>2020-09-13T09:25:46Z</time>
      </trkpt>
      <trkpt lat="47.85997" lon="6.74724">
        <ele>703.16174</ele>
        <time>2020-09-13T09:25:51Z</time>
      </trkpt>
      <trkpt lat="47.86006" lon="6.74716">
        <ele>682.66766</ele>
        <time>2020-09-13T09:26:11Z</time>
      </trkpt>
      <trkpt lat="47.86018" lon="6.74696">
        <ele>679.43835</ele>
        <time>2020-09-13T09:27:10Z</time>
      </trkpt>
      <trkpt lat="47.86036" lon="6.74686">
        <ele>679.91833</ele>
        <time>2020-09-13T09:27:16Z</time>
      </trkpt>
      <trkpt lat="47.86048" lon="6.74681">
        <ele>680.5934</ele>
        <time>2020-09-13T09:27:21Z</time>
      </trkpt>
      <trkpt lat="47.86059" lon="6.74675">
        <ele>681.4819</ele>
        <time>2020-09-13T09:27:26Z</time>
      </trkpt>
      <trkpt lat="47.86071" lon="6.74666">
        <ele>679.66095</ele>
        <time>2020-09-13T09:27:31Z</time>
      </trkpt>
      <trkpt lat="47.86081" lon="6.74651">
        <ele>680.64545</ele>
        <time>2020-09-13T09:27:36Z</time>
      </trkpt>
      <trkpt lat="47.86089" lon="6.74635">
        <ele>680.8507</ele>
        <time>2020-09-13T09:27:41Z</time>
      </trkpt>
      <trkpt lat="47.86095" lon="6.74616">
        <ele>681.81177</ele>
        <time>2020-09-13T09:27:46Z</time>
      </trkpt>
      <trkpt lat="47.86101" lon="6.74596">
        <ele>679.12177</ele>
        <time>2020-09-13T09:27:51Z</time>
      </trkpt>
      <trkpt lat="47.86113" lon="6.74549">
        <ele>677.08655</ele>
        <time>2020-09-13T09:28:01Z</time>
      </trkpt>
      <trkpt lat="47.86117" lon="6.74502">
        <ele>681.2889</ele>
        <time>2020-09-13T09:28:11Z</time>
      </trkpt>
      <trkpt lat="47.86119" lon="6.74471">
        <ele>680.13586</ele>
        <time>2020-09-13T09:28:16Z</time>
      </trkpt>
      <trkpt lat="47.8612" lon="6.74442">
        <ele>679.7733</ele>
        <time>2020-09-13T09:28:21Z</time>
      </trkpt>
      <trkpt lat="47.86122" lon="6.74407">
        <ele>679.5241</ele>
        <time>2020-09-13T09:28:26Z</time>
      </trkpt>
      <trkpt lat="47.86123" lon="6.74369">
        <ele>678.1649</ele>
        <time>2020-09-13T09:28:31Z</time>
      </trkpt>
      <trkpt lat="47.86121" lon="6.74337">
        <ele>677.1693</ele>
        <time>2020-09-13T09:28:36Z</time>
      </trkpt>
      <trkpt lat="47.86142" lon="6.74239">
        <ele>674.8637</ele>
        <time>2020-09-13T09:28:46Z</time>
      </trkpt>
      <trkpt lat="47.86172" lon="6.74138">
        <ele>675.67035</ele>
        <time>2020-09-13T09:28:56Z</time>
      </trkpt>
      <trkpt lat="47.86184" lon="6.74102">
        <ele>677.0345</ele>
        <time>2020-09-13T09:29:01Z</time>
      </trkpt>
      <trkpt lat="47.86187" lon="6.74077">
        <ele>677.203</ele>
        <time>2020-09-13T09:29:06Z</time>
      </trkpt>
      <trkpt lat="47.8618" lon="6.74053">
        <ele>677.85754</ele>
        <time>2020-09-13T09:29:11Z</time>
      </trkpt>
      <trkpt lat="47.86169" lon="6.74035">
        <ele>677.86163</ele>
        <time>2020-09-13T09:29:16Z</time>
      </trkpt>
      <trkpt lat="47.86156" lon="6.74019">
        <ele>680.12256</ele>
        <time>2020-09-13T09:29:21Z</time>
      </trkpt>
      <trkpt lat="47.86141" lon="6.7401">
        <ele>679.20447</ele>
        <time>2020-09-13T09:29:26Z</time>
      </trkpt>
      <trkpt lat="47.86129" lon="6.73994">
        <ele>678.52844</ele>
        <time>2020-09-13T09:29:31Z</time>
      </trkpt>
      <trkpt lat="47.86127" lon="6.73958">
        <ele>677.5042</ele>
        <time>2020-09-13T09:29:41Z</time>
      </trkpt>
      <trkpt lat="47.86129" lon="6.73941">
        <ele>679.65686</ele>
        <time>2020-09-13T09:29:46Z</time>
      </trkpt>
      <trkpt lat="47.86133" lon="6.73923">
        <ele>679.8642</ele>
        <time>2020-09-13T09:29:51Z</time>
      </trkpt>
      <trkpt lat="47.86132" lon="6.73902">
        <ele>681.51355</ele>
        <time>2020-09-13T09:29:56Z</time>
      </trkpt>
      <trkpt lat="47.86134" lon="6.73888">
        <ele>682.25916</ele>
        <time>2020-09-13T09:30:01Z</time>
      </trkpt>
      <trkpt lat="47.86136" lon="6.73871">
        <ele>684.0711</ele>
        <time>2020-09-13T09:30:06Z</time>
      </trkpt>
      <trkpt lat="47.86137" lon="6.73846">
        <ele>684.9557</ele>
        <time>2020-09-13T09:30:11Z</time>
      </trkpt>
      <trkpt lat="47.86138" lon="6.73829">
        <ele>686.8833</ele>
        <time>2020-09-13T09:30:16Z</time>
      </trkpt>
      <trkpt lat="47.86119" lon="6.73798">
        <ele>688.5996</ele>
        <time>2020-09-13T09:30:26Z</time>
      </trkpt>
      <trkpt lat="47.86103" lon="6.73766">
        <ele>690.1434</ele>
        <time>2020-09-13T09:30:36Z</time>
      </trkpt>
      <trkpt lat="47.86099" lon="6.73749">
        <ele>691.1416</ele>
        <time>2020-09-13T09:30:41Z</time>
      </trkpt>
      <trkpt lat="47.86103" lon="6.7373">
        <ele>691.4839</ele>
        <time>2020-09-13T09:30:46Z</time>
      </trkpt>
      <trkpt lat="47.86112" lon="6.73724">
        <ele>691.0261</ele>
        <time>2020-09-13T09:30:51Z</time>
      </trkpt>
      <trkpt lat="47.86124" lon="6.7373">
        <ele>693.0145</ele>
        <time>2020-09-13T09:30:56Z</time>
      </trkpt>
      <trkpt lat="47.86132" lon="6.73739">
        <ele>693.3099</ele>
        <time>2020-09-13T09:31:01Z</time>
      </trkpt>
      <trkpt lat="47.86146" lon="6.73757">
        <ele>694.3246</ele>
        <time>2020-09-13T09:31:11Z</time>
      </trkpt>
      <trkpt lat="47.86164" lon="6.73781">
        <ele>695.1258</ele>
        <time>2020-09-13T09:31:21Z</time>
      </trkpt>
      <trkpt lat="47.86177" lon="6.7378">
        <ele>697.6716</ele>
        <time>2020-09-13T09:31:26Z</time>
      </trkpt>
      <trkpt lat="47.86194" lon="6.73776">
        <ele>697.00726</ele>
        <time>2020-09-13T09:31:31Z</time>
      </trkpt>
      <trkpt lat="47.86208" lon="6.73769">
        <ele>697.40894</ele>
        <time>2020-09-13T09:31:36Z</time>
      </trkpt>
      <trkpt lat="47.86217" lon="6.73766">
        <ele>697.9976</ele>
        <time>2020-09-13T09:31:41Z</time>
      </trkpt>
      <trkpt lat="47.86228" lon="6.73763">
        <ele>697.2617</ele>
        <time>2020-09-13T09:31:46Z</time>
      </trkpt>
      <trkpt lat="47.86248" lon="6.73765">
        <ele>699.2477</ele>
        <time>2020-09-13T09:31:56Z</time>
      </trkpt>
      <trkpt lat="47.86269" lon="6.73745">
        <ele>699.8262</ele>
        <time>2020-09-13T09:32:06Z</time>
      </trkpt>
      <trkpt lat="47.86277" lon="6.73734">
        <ele>701.09064</ele>
        <time>2020-09-13T09:32:11Z</time>
      </trkpt>
      <trkpt lat="47.86286" lon="6.73722">
        <ele>701.521</ele>
        <time>2020-09-13T09:32:16Z</time>
      </trkpt>
      <trkpt lat="47.86297" lon="6.73714">
        <ele>702.61993</ele>
        <time>2020-09-13T09:32:21Z</time>
      </trkpt>
      <trkpt lat="47.86309" lon="6.73708">
        <ele>703.3488</ele>
        <time>2020-09-13T09:32:26Z</time>
      </trkpt>
      <trkpt lat="47.86322" lon="6.73705">
        <ele>704.5215</ele>
        <time>2020-09-13T09:32:31Z</time>
      </trkpt>
      <trkpt lat="47.86338" lon="6.73702">
        <ele>705.6931</ele>
        <time>2020-09-13T09:32:36Z</time>
      </trkpt>
      <trkpt lat="47.86353" lon="6.73699">
        <ele>706.48145</ele>
        <time>2020-09-13T09:32:41Z</time>
      </trkpt>
      <trkpt lat="47.86381" lon="6.73698">
        <ele>707.99066</ele>
        <time>2020-09-13T09:32:51Z</time>
      </trkpt>
      <trkpt lat="47.86399" lon="6.73694">
        <ele>709.84045</ele>
        <time>2020-09-13T09:33:01Z</time>
      </trkpt>
      <trkpt lat="47.8641" lon="6.73693">
        <ele>711.1454</ele>
        <time>2020-09-13T09:33:06Z</time>
      </trkpt>
      <trkpt lat="47.86425" lon="6.73697">
        <ele>712.53625</ele>
        <time>2020-09-13T09:33:11Z</time>
      </trkpt>
      <trkpt lat="47.86443" lon="6.73701">
        <ele>713.16425</ele>
        <time>2020-09-13T09:33:16Z</time>
      </trkpt>
      <trkpt lat="47.86458" lon="6.73713">
        <ele>714.5716</ele>
        <time>2020-09-13T09:33:21Z</time>
      </trkpt>
      <trkpt lat="47.86472" lon="6.73721">
        <ele>714.13586</ele>
        <time>2020-09-13T09:33:26Z</time>
      </trkpt>
      <trkpt lat="47.86492" lon="6.73729">
        <ele>717.1401</ele>
        <time>2020-09-13T09:33:36Z</time>
      </trkpt>
      <trkpt lat="47.86515" lon="6.73739">
        <ele>718.40857</ele>
        <time>2020-09-13T09:33:46Z</time>
      </trkpt>
      <trkpt lat="47.86526" lon="6.73742">
        <ele>719.762</ele>
        <time>2020-09-13T09:33:51Z</time>
      </trkpt>
      <trkpt lat="47.86542" lon="6.73739">
        <ele>721.32227</ele>
        <time>2020-09-13T09:33:56Z</time>
      </trkpt>
      <trkpt lat="47.8655" lon="6.73728">
        <ele>721.48804</ele>
        <time>2020-09-13T09:34:01Z</time>
      </trkpt>
      <trkpt lat="47.86556" lon="6.73709">
        <ele>721.90137</ele>
        <time>2020-09-13T09:34:06Z</time>
      </trkpt>
      <trkpt lat="47.86557" lon="6.73689">
        <ele>722.46313</ele>
        <time>2020-09-13T09:34:11Z</time>
      </trkpt>
      <trkpt lat="47.86556" lon="6.73657">
        <ele>722.3311</ele>
        <time>2020-09-13T09:34:21Z</time>
      </trkpt>
      <trkpt lat="47.86536" lon="6.73618">
        <ele>723.9345</ele>
        <time>2020-09-13T09:34:31Z</time>
      </trkpt>
      <trkpt lat="47.86524" lon="6.73601">
        <ele>724.2773</ele>
        <time>2020-09-13T09:34:36Z</time>
      </trkpt>
      <trkpt lat="47.86517" lon="6.73587">
        <ele>724.39703</ele>
        <time>2020-09-13T09:34:41Z</time>
      </trkpt>
      <trkpt lat="47.86509" lon="6.73567">
        <ele>724.48505</ele>
        <time>2020-09-13T09:34:46Z</time>
      </trkpt>
      <trkpt lat="47.86505" lon="6.7354">
        <ele>725.3027</ele>
        <time>2020-09-13T09:34:51Z</time>
      </trkpt>
      <trkpt lat="47.86508" lon="6.73523">
        <ele>726.46826</ele>
        <time>2020-09-13T09:34:56Z</time>
      </trkpt>
      <trkpt lat="47.86515" lon="6.73503">
        <ele>727.199</ele>
        <time>2020-09-13T09:35:01Z</time>
      </trkpt>
      <trkpt lat="47.86517" lon="6.73476">
        <ele>727.3883</ele>
        <time>2020-09-13T09:35:06Z</time>
      </trkpt>
      <trkpt lat="47.86521" lon="6.73412">
        <ele>725.5636</ele>
        <time>2020-09-13T09:35:16Z</time>
      </trkpt>
      <trkpt lat="47.86529" lon="6.7333">
        <ele>724.9312</ele>
        <time>2020-09-13T09:35:26Z</time>
      </trkpt>
      <trkpt lat="47.86534" lon="6.73295">
        <ele>725.8839</ele>
        <time>2020-09-13T09:35:31Z</time>
      </trkpt>
      <trkpt lat="47.86551" lon="6.73251">
        <ele>726.41296</ele>
        <time>2020-09-13T09:35:36Z</time>
      </trkpt>
      <trkpt lat="47.86569" lon="6.73212">
        <ele>726.40686</ele>
        <time>2020-09-13T09:35:41Z</time>
      </trkpt>
      <trkpt lat="47.86588" lon="6.73172">
        <ele>726.6688</ele>
        <time>2020-09-13T09:35:46Z</time>
      </trkpt>
      <trkpt lat="47.86603" lon="6.73135">
        <ele>726.631</ele>
        <time>2020-09-13T09:35:51Z</time>
      </trkpt>
      <trkpt lat="47.86628" lon="6.7306">
        <ele>727.4251</ele>
        <time>2020-09-13T09:36:01Z</time>
      </trkpt>
      <trkpt lat="47.86677" lon="6.73049">
        <ele>728.4128</ele>
        <time>2020-09-13T09:36:11Z</time>
      </trkpt>
      <trkpt lat="47.86704" lon="6.73047">
        <ele>728.3094</ele>
        <time>2020-09-13T09:36:16Z</time>
      </trkpt>
      <trkpt lat="47.86732" lon="6.73043">
        <ele>728.423</ele>
        <time>2020-09-13T09:36:21Z</time>
      </trkpt>
      <trkpt lat="47.8676" lon="6.73037">
        <ele>729.40656</ele>
        <time>2020-09-13T09:36:26Z</time>
      </trkpt>
      <trkpt lat="47.86787" lon="6.73029">
        <ele>729.339</ele>
        <time>2020-09-13T09:36:31Z</time>
      </trkpt>
      <trkpt lat="47.86813" lon="6.73009">
        <ele>729.2274</ele>
        <time>2020-09-13T09:36:36Z</time>
      </trkpt>
      <trkpt lat="47.86861" lon="6.72954">
        <ele>730.65936</ele>
        <time>2020-09-13T09:36:46Z</time>
      </trkpt>
      <trkpt lat="47.86887" lon="6.72877">
        <ele>730.34717</ele>
        <time>2020-09-13T09:36:56Z</time>
      </trkpt>
      <trkpt lat="47.86888" lon="6.72831">
        <ele>729.47614</ele>
        <time>2020-09-13T09:37:01Z</time>
      </trkpt>
      <trkpt lat="47.86891" lon="6.72782">
        <ele>728.5243</ele>
        <time>2020-09-13T09:37:06Z</time>
      </trkpt>
      <trkpt lat="47.86911" lon="6.72749">
        <ele>727.8181</ele>
        <time>2020-09-13T09:37:11Z</time>
      </trkpt>
      <trkpt lat="47.86938" lon="6.72727">
        <ele>727.6165</ele>
        <time>2020-09-13T09:37:16Z</time>
      </trkpt>
      <trkpt lat="47.86942" lon="6.72679">
        <ele>726.60333</ele>
        <time>2020-09-13T09:37:21Z</time>
      </trkpt>
      <trkpt lat="47.86945" lon="6.72624">
        <ele>725.7765</ele>
        <time>2020-09-13T09:37:26Z</time>
      </trkpt>
      <trkpt lat="47.86947" lon="6.72557">
        <ele>724.3438</ele>
        <time>2020-09-13T09:37:31Z</time>
      </trkpt>
      <trkpt lat="47.86983" lon="6.72439">
        <ele>722.6125</ele>
        <time>2020-09-13T09:37:41Z</time>
      </trkpt>
      <trkpt lat="47.87034" lon="6.72357">
        <ele>720.1938</ele>
        <time>2020-09-13T09:37:51Z</time>
      </trkpt>
      <trkpt lat="47.87062" lon="6.72332">
        <ele>722.8816</ele>
        <time>2020-09-13T09:37:56Z</time>
      </trkpt>
      <trkpt lat="47.87091" lon="6.72319">
        <ele>725.3835</ele>
        <time>2020-09-13T09:38:01Z</time>
      </trkpt>
      <trkpt lat="47.87119" lon="6.72307">
        <ele>727.9491</ele>
        <time>2020-09-13T09:38:06Z</time>
      </trkpt>
      <trkpt lat="47.87146" lon="6.72294">
        <ele>729.1814</ele>
        <time>2020-09-13T09:38:11Z</time>
      </trkpt>
      <trkpt lat="47.87164" lon="6.72267">
        <ele>727.99725</ele>
        <time>2020-09-13T09:38:16Z</time>
      </trkpt>
      <trkpt lat="47.87178" lon="6.72199">
        <ele>729.05444</ele>
        <time>2020-09-13T09:38:26Z</time>
      </trkpt>
      <trkpt lat="47.87193" lon="6.72138">
        <ele>732.592</ele>
        <time>2020-09-13T09:38:36Z</time>
      </trkpt>
      <trkpt lat="47.87206" lon="6.72106">
        <ele>733.63916</ele>
        <time>2020-09-13T09:38:41Z</time>
      </trkpt>
      <trkpt lat="47.8722" lon="6.7208">
        <ele>734.3251</ele>
        <time>2020-09-13T09:38:46Z</time>
      </trkpt>
      <trkpt lat="47.87233" lon="6.72057">
        <ele>735.0284</ele>
        <time>2020-09-13T09:38:51Z</time>
      </trkpt>
      <trkpt lat="47.87247" lon="6.72033">
        <ele>736.91833</ele>
        <time>2020-09-13T09:38:56Z</time>
      </trkpt>
      <trkpt lat="47.8726" lon="6.72002">
        <ele>737.59717</ele>
        <time>2020-09-13T09:39:01Z</time>
      </trkpt>
      <trkpt lat="47.87273" lon="6.71924">
        <ele>738.7593</ele>
        <time>2020-09-13T09:39:11Z</time>
      </trkpt>
      <trkpt lat="47.87283" lon="6.71854">
        <ele>739.06134</ele>
        <time>2020-09-13T09:39:21Z</time>
      </trkpt>
      <trkpt lat="47.87294" lon="6.71812">
        <ele>738.9385</ele>
        <time>2020-09-13T09:39:26Z</time>
      </trkpt>
      <trkpt lat="47.87306" lon="6.71767">
        <ele>738.8238</ele>
        <time>2020-09-13T09:39:31Z</time>
      </trkpt>
      <trkpt lat="47.87317" lon="6.7172">
        <ele>737.83673</ele>
        <time>2020-09-13T09:39:36Z</time>
      </trkpt>
      <trkpt lat="47.87317" lon="6.71674">
        <ele>736.6419</ele>
        <time>2020-09-13T09:39:41Z</time>
      </trkpt>
      <trkpt lat="47.87312" lon="6.71624">
        <ele>733.72107</ele>
        <time>2020-09-13T09:39:46Z</time>
      </trkpt>
      <trkpt lat="47.87304" lon="6.71567">
        <ele>733.7948</ele>
        <time>2020-09-13T09:39:51Z</time>
      </trkpt>
      <trkpt lat="47.87294" lon="6.71501">
        <ele>732.09546</ele>
        <time>2020-09-13T09:39:56Z</time>
      </trkpt>
      <trkpt lat="47.87337" lon="6.7142">
        <ele>729.5795</ele>
        <time>2020-09-13T09:40:06Z</time>
      </trkpt>
      <trkpt lat="47.87418" lon="6.71404">
        <ele>727.6247</ele>
        <time>2020-09-13T09:40:16Z</time>
      </trkpt>
      <trkpt lat="47.87455" lon="6.71369">
        <ele>725.7693</ele>
        <time>2020-09-13T09:40:21Z</time>
      </trkpt>
      <trkpt lat="47.87474" lon="6.71306">
        <ele>726.2912</ele>
        <time>2020-09-13T09:40:26Z</time>
      </trkpt>
      <trkpt lat="47.87486" lon="6.71249">
        <ele>726.38025</ele>
        <time>2020-09-13T09:40:31Z</time>
      </trkpt>
      <trkpt lat="47.875" lon="6.71188">
        <ele>726.29224</ele>
        <time>2020-09-13T09:40:36Z</time>
      </trkpt>
      <trkpt lat="47.8752" lon="6.7113">
        <ele>727.6882</ele>
        <time>2020-09-13T09:40:41Z</time>
      </trkpt>
      <trkpt lat="47.8757" lon="6.71056">
        <ele>726.84076</ele>
        <time>2020-09-13T09:40:51Z</time>
      </trkpt>
      <trkpt lat="47.87626" lon="6.71016">
        <ele>729.09235</ele>
        <time>2020-09-13T09:41:01Z</time>
      </trkpt>
      <trkpt lat="47.87653" lon="6.70997">
        <ele>729.52527</ele>
        <time>2020-09-13T09:41:06Z</time>
      </trkpt>
      <trkpt lat="47.87677" lon="6.70977">
        <ele>728.7382</ele>
        <time>2020-09-13T09:41:11Z</time>
      </trkpt>
      <trkpt lat="47.87686" lon="6.70941">
        <ele>729.00635</ele>
        <time>2020-09-13T09:41:16Z</time>
      </trkpt>
      <trkpt lat="47.87674" lon="6.70907">
        <ele>729.7392</ele>
        <time>2020-09-13T09:41:21Z</time>
      </trkpt>
      <trkpt lat="47.87661" lon="6.70866">
        <ele>729.99097</ele>
        <time>2020-09-13T09:41:26Z</time>
      </trkpt>
      <trkpt lat="47.87664" lon="6.70763">
        <ele>729.16296</ele>
        <time>2020-09-13T09:41:36Z</time>
      </trkpt>
      <trkpt lat="47.87714" lon="6.70674">
        <ele>727.63904</ele>
        <time>2020-09-13T09:41:46Z</time>
      </trkpt>
      <trkpt lat="47.87745" lon="6.70642">
        <ele>725.7836</ele>
        <time>2020-09-13T09:41:51Z</time>
      </trkpt>
      <trkpt lat="47.87779" lon="6.70609">
        <ele>721.6599</ele>
        <time>2020-09-13T09:41:56Z</time>
      </trkpt>
      <trkpt lat="47.87813" lon="6.70624">
        <ele>721.2619</ele>
        <time>2020-09-13T09:42:01Z</time>
      </trkpt>
      <trkpt lat="47.87828" lon="6.70616">
        <ele>719.9329</ele>
        <time>2020-09-13T09:42:06Z</time>
      </trkpt>
      <trkpt lat="47.87819" lon="6.70584">
        <ele>719.57275</ele>
        <time>2020-09-13T09:42:11Z</time>
      </trkpt>
      <trkpt lat="47.87804" lon="6.70545">
        <ele>716.76874</ele>
        <time>2020-09-13T09:42:16Z</time>
      </trkpt>
      <trkpt lat="47.878" lon="6.7048">
        <ele>715.95245</ele>
        <time>2020-09-13T09:42:21Z</time>
      </trkpt>
      <trkpt lat="47.87788" lon="6.70335">
        <ele>713.1305</ele>
        <time>2020-09-13T09:42:31Z</time>
      </trkpt>
      <trkpt lat="47.87741" lon="6.70229">
        <ele>714.4949</ele>
        <time>2020-09-13T09:42:41Z</time>
      </trkpt>
      <trkpt lat="47.87707" lon="6.70194">
        <ele>716.62146</ele>
        <time>2020-09-13T09:42:46Z</time>
      </trkpt>
      <trkpt lat="47.87674" lon="6.70166">
        <ele>716.9314</ele>
        <time>2020-09-13T09:42:51Z</time>
      </trkpt>
      <trkpt lat="47.87643" lon="6.70134">
        <ele>715.932</ele>
        <time>2020-09-13T09:42:56Z</time>
      </trkpt>
      <trkpt lat="47.87618" lon="6.70093">
        <ele>714.87335</ele>
        <time>2020-09-13T09:43:01Z</time>
      </trkpt>
      <trkpt lat="47.87586" lon="6.70055">
        <ele>712.5117</ele>
        <time>2020-09-13T09:43:06Z</time>
      </trkpt>
      <trkpt lat="47.87521" lon="6.69996">
        <ele>713.3453</ele>
        <time>2020-09-13T09:43:16Z</time>
      </trkpt>
      <trkpt lat="47.87471" lon="6.69916">
        <ele>715.08813</ele>
        <time>2020-09-13T09:43:26Z</time>
      </trkpt>
      <trkpt lat="47.8745" lon="6.69873">
        <ele>715.126</ele>
        <time>2020-09-13T09:43:31Z</time>
      </trkpt>
      <trkpt lat="47.87431" lon="6.69831">
        <ele>715.0237</ele>
        <time>2020-09-13T09:43:36Z</time>
      </trkpt>
      <trkpt lat="47.87411" lon="6.69785">
        <ele>714.3916</ele>
        <time>2020-09-13T09:43:41Z</time>
      </trkpt>
      <trkpt lat="47.87388" lon="6.69737">
        <ele>705.4743</ele>
        <time>2020-09-13T09:43:46Z</time>
      </trkpt>
      <trkpt lat="47.8737" lon="6.69685">
        <ele>712.7306</ele>
        <time>2020-09-13T09:43:51Z</time>
      </trkpt>
      <trkpt lat="47.8736" lon="6.69565">
        <ele>711.10956</ele>
        <time>2020-09-13T09:44:01Z</time>
      </trkpt>
      <trkpt lat="47.87351" lon="6.6944">
        <ele>708.8987</ele>
        <time>2020-09-13T09:44:11Z</time>
      </trkpt>
      <trkpt lat="47.87345" lon="6.69374">
        <ele>707.57245</ele>
        <time>2020-09-13T09:44:16Z</time>
      </trkpt>
      <trkpt lat="47.87341" lon="6.69315">
        <ele>707.03564</ele>
        <time>2020-09-13T09:44:21Z</time>
      </trkpt>
      <trkpt lat="47.87338" lon="6.69258">
        <ele>706.5213</ele>
        <time>2020-09-13T09:44:26Z</time>
      </trkpt>
      <trkpt lat="47.87336" lon="6.69201">
        <ele>705.87103</ele>
        <time>2020-09-13T09:44:31Z</time>
      </trkpt>
      <trkpt lat="47.87331" lon="6.69152">
        <ele>706.7524</ele>
        <time>2020-09-13T09:44:36Z</time>
      </trkpt>
      <trkpt lat="47.87319" lon="6.69104">
        <ele>706.6358</ele>
        <time>2020-09-13T09:44:41Z</time>
      </trkpt>
      <trkpt lat="47.87304" lon="6.69054">
        <ele>706.4794</ele>
        <time>2020-09-13T09:44:46Z</time>
      </trkpt>
      <trkpt lat="47.8727" lon="6.6895">
        <ele>706.4978</ele>
        <time>2020-09-13T09:44:56Z</time>
      </trkpt>
      <trkpt lat="47.87239" lon="6.68856">
        <ele>703.70154</ele>
        <time>2020-09-13T09:45:06Z</time>
      </trkpt>
      <trkpt lat="47.87224" lon="6.68811">
        <ele>701.61096</ele>
        <time>2020-09-13T09:45:11Z</time>
      </trkpt>
      <trkpt lat="47.87211" lon="6.68761">
        <ele>707.60205</ele>
        <time>2020-09-13T09:45:16Z</time>
      </trkpt>
      <trkpt lat="47.87214" lon="6.68708">
        <ele>707.6358</ele>
        <time>2020-09-13T09:45:21Z</time>
      </trkpt>
      <trkpt lat="47.87228" lon="6.68651">
        <ele>705.6236</ele>
        <time>2020-09-13T09:45:26Z</time>
      </trkpt>
      <trkpt lat="47.87243" lon="6.68595">
        <ele>703.63403</ele>
        <time>2020-09-13T09:45:31Z</time>
      </trkpt>
      <trkpt lat="47.87278" lon="6.68479">
        <ele>702.531</ele>
        <time>2020-09-13T09:45:41Z</time>
      </trkpt>
      <trkpt lat="47.87306" lon="6.6836">
        <ele>699.8763</ele>
        <time>2020-09-13T09:45:51Z</time>
      </trkpt>
      <trkpt lat="47.87313" lon="6.68302">
        <ele>699.9039</ele>
        <time>2020-09-13T09:45:56Z</time>
      </trkpt>
      <trkpt lat="47.8732" lon="6.68244">
        <ele>699.52466</ele>
        <time>2020-09-13T09:46:01Z</time>
      </trkpt>
      <trkpt lat="47.87326" lon="6.68183">
        <ele>697.69104</ele>
        <time>2020-09-13T09:46:06Z</time>
      </trkpt>
      <trkpt lat="47.87306" lon="6.68125">
        <ele>697.05225</ele>
        <time>2020-09-13T09:46:11Z</time>
      </trkpt>
      <trkpt lat="47.87276" lon="6.68077">
        <ele>695.85547</ele>
        <time>2020-09-13T09:46:16Z</time>
      </trkpt>
      <trkpt lat="47.87227" lon="6.67983">
        <ele>696.64136</ele>
        <time>2020-09-13T09:46:26Z</time>
      </trkpt>
      <trkpt lat="47.87186" lon="6.67878">
        <ele>696.393</ele>
        <time>2020-09-13T09:46:36Z</time>
      </trkpt>
      <trkpt lat="47.87167" lon="6.67814">
        <ele>695.2576</ele>
        <time>2020-09-13T09:46:41Z</time>
      </trkpt>
      <trkpt lat="47.87149" lon="6.67747">
        <ele>690.5786</ele>
        <time>2020-09-13T09:46:46Z</time>
      </trkpt>
      <trkpt lat="47.87138" lon="6.67678">
        <ele>687.96106</ele>
        <time>2020-09-13T09:46:51Z</time>
      </trkpt>
      <trkpt lat="47.87101" lon="6.67621">
        <ele>686.8322</ele>
        <time>2020-09-13T09:46:56Z</time>
      </trkpt>
      <trkpt lat="47.87062" lon="6.67564">
        <ele>683.61554</ele>
        <time>2020-09-13T09:47:01Z</time>
      </trkpt>
      <trkpt lat="47.87034" lon="6.67498">
        <ele>683.21515</ele>
        <time>2020-09-13T09:47:06Z</time>
      </trkpt>
      <trkpt lat="47.87017" lon="6.67421">
        <ele>682.4093</ele>
        <time>2020-09-13T09:47:11Z</time>
      </trkpt>
      <trkpt lat="47.87034" lon="6.67282">
        <ele>679.08093</ele>
        <time>2020-09-13T09:47:21Z</time>
      </trkpt>
      <trkpt lat="47.87083" lon="6.67164">
        <ele>675.073</ele>
        <time>2020-09-13T09:47:31Z</time>
      </trkpt>
      <trkpt lat="47.87098" lon="6.67093">
        <ele>677.7156</ele>
        <time>2020-09-13T09:47:36Z</time>
      </trkpt>
      <trkpt lat="47.87103" lon="6.6702">
        <ele>678.62036</ele>
        <time>2020-09-13T09:47:41Z</time>
      </trkpt>
      <trkpt lat="47.87104" lon="6.66945">
        <ele>677.3296</ele>
        <time>2020-09-13T09:47:46Z</time>
      </trkpt>
      <trkpt lat="47.87103" lon="6.66873">
        <ele>675.65094</ele>
        <time>2020-09-13T09:47:51Z</time>
      </trkpt>
      <trkpt lat="47.87112" lon="6.66802">
        <ele>673.30365</ele>
        <time>2020-09-13T09:47:56Z</time>
      </trkpt>
      <trkpt lat="47.871" lon="6.66675">
        <ele>671.6355</ele>
        <time>2020-09-13T09:48:06Z</time>
      </trkpt>
      <trkpt lat="47.87049" lon="6.66592">
        <ele>668.4751</ele>
        <time>2020-09-13T09:48:16Z</time>
      </trkpt>
      <trkpt lat="47.87044" lon="6.66525">
        <ele>667.3503</ele>
        <time>2020-09-13T09:48:21Z</time>
      </trkpt>
      <trkpt lat="47.87047" lon="6.66457">
        <ele>667.10736</ele>
        <time>2020-09-13T09:48:26Z</time>
      </trkpt>
      <trkpt lat="47.87047" lon="6.66387">
        <ele>663.33734</ele>
        <time>2020-09-13T09:48:31Z</time>
      </trkpt>
      <trkpt lat="47.87037" lon="6.66309">
        <ele>662.5781</ele>
        <time>2020-09-13T09:48:36Z</time>
      </trkpt>
      <trkpt lat="47.87025" lon="6.6623">
        <ele>661.89545</ele>
        <time>2020-09-13T09:48:41Z</time>
      </trkpt>
      <trkpt lat="47.87029" lon="6.66087">
        <ele>661.48425</ele>
        <time>2020-09-13T09:48:51Z</time>
      </trkpt>
      <trkpt lat="47.87025" lon="6.65961">
        <ele>656.7694</ele>
        <time>2020-09-13T09:49:01Z</time>
      </trkpt>
      <trkpt lat="47.87011" lon="6.6591">
        <ele>658.58954</ele>
        <time>2020-09-13T09:49:06Z</time>
      </trkpt>
      <trkpt lat="47.87001" lon="6.65858">
        <ele>658.5548</ele>
        <time>2020-09-13T09:49:11Z</time>
      </trkpt>
      <trkpt lat="47.87003" lon="6.65808">
        <ele>658.6783</ele>
        <time>2020-09-13T09:49:16Z</time>
      </trkpt>
      <trkpt lat="47.87005" lon="6.65761">
        <ele>656.81537</ele>
        <time>2020-09-13T09:49:21Z</time>
      </trkpt>
      <trkpt lat="47.87013" lon="6.65717">
        <ele>656.493</ele>
        <time>2020-09-13T09:49:26Z</time>
      </trkpt>
      <trkpt lat="47.87022" lon="6.65678">
        <ele>656.5582</ele>
        <time>2020-09-13T09:49:31Z</time>
      </trkpt>
      <trkpt lat="47.8703" lon="6.6563">
        <ele>656.4889</ele>
        <time>2020-09-13T09:49:36Z</time>
      </trkpt>
      <trkpt lat="47.8705" lon="6.65524">
        <ele>655.3963</ele>
        <time>2020-09-13T09:49:46Z</time>
      </trkpt>
      <trkpt lat="47.87063" lon="6.65418">
        <ele>654.69446</ele>
        <time>2020-09-13T09:49:56Z</time>
      </trkpt>
      <trkpt lat="47.87066" lon="6.65373">
        <ele>653.68256</ele>
        <time>2020-09-13T09:50:01Z</time>
      </trkpt>
      <trkpt lat="47.8707" lon="6.65318">
        <ele>652.51056</ele>
        <time>2020-09-13T09:50:06Z</time>
      </trkpt>
      <trkpt lat="47.87088" lon="6.65263">
        <ele>652.52893</ele>
        <time>2020-09-13T09:50:11Z</time>
      </trkpt>
      <trkpt lat="47.87113" lon="6.65208">
        <ele>650.95715</ele>
        <time>2020-09-13T09:50:16Z</time>
      </trkpt>
      <trkpt lat="47.87139" lon="6.65156">
        <ele>649.4834</ele>
        <time>2020-09-13T09:50:21Z</time>
      </trkpt>
      <trkpt lat="47.87186" lon="6.65065">
        <ele>650.0586</ele>
        <time>2020-09-13T09:50:31Z</time>
      </trkpt>
      <trkpt lat="47.87221" lon="6.64984">
        <ele>650.7511</ele>
        <time>2020-09-13T09:50:41Z</time>
      </trkpt>
      <trkpt lat="47.87222" lon="6.64939">
        <ele>652.52893</ele>
        <time>2020-09-13T09:50:46Z</time>
      </trkpt>
      <trkpt lat="47.87217" lon="6.64896">
        <ele>652.3688</ele>
        <time>2020-09-13T09:50:51Z</time>
      </trkpt>
      <trkpt lat="47.87214" lon="6.64852">
        <ele>653.22864</ele>
        <time>2020-09-13T09:50:56Z</time>
      </trkpt>
      <trkpt lat="47.87213" lon="6.6481">
        <ele>652.1852</ele>
        <time>2020-09-13T09:51:01Z</time>
      </trkpt>
      <trkpt lat="47.87229" lon="6.64778">
        <ele>651.4447</ele>
        <time>2020-09-13T09:51:06Z</time>
      </trkpt>
      <trkpt lat="47.87278" lon="6.64737">
        <ele>650.0576</ele>
        <time>2020-09-13T09:51:16Z</time>
      </trkpt>
      <trkpt lat="47.87286" lon="6.64625">
        <ele>649.1662</ele>
        <time>2020-09-13T09:51:26Z</time>
      </trkpt>
      <trkpt lat="47.87262" lon="6.64596">
        <ele>649.62213</ele>
        <time>2020-09-13T09:51:31Z</time>
      </trkpt>
      <trkpt lat="47.87233" lon="6.64566">
        <ele>647.298</ele>
        <time>2020-09-13T09:51:36Z</time>
      </trkpt>
      <trkpt lat="47.87205" lon="6.64514">
        <ele>644.59576</ele>
        <time>2020-09-13T09:51:41Z</time>
      </trkpt>
      <trkpt lat="47.87188" lon="6.64448">
        <ele>642.632</ele>
        <time>2020-09-13T09:51:46Z</time>
      </trkpt>
      <trkpt lat="47.87178" lon="6.64382">
        <ele>644.61206</ele>
        <time>2020-09-13T09:51:51Z</time>
      </trkpt>
      <trkpt lat="47.87161" lon="6.64322">
        <ele>642.9787</ele>
        <time>2020-09-13T09:51:56Z</time>
      </trkpt>
      <trkpt lat="47.87142" lon="6.64269">
        <ele>642.0009</ele>
        <time>2020-09-13T09:52:01Z</time>
      </trkpt>
      <trkpt lat="47.87139" lon="6.64158">
        <ele>638.4176</ele>
        <time>2020-09-13T09:52:11Z</time>
      </trkpt>
      <trkpt lat="47.87161" lon="6.64041">
        <ele>633.12885</ele>
        <time>2020-09-13T09:52:21Z</time>
      </trkpt>
      <trkpt lat="47.87136" lon="6.63983">
        <ele>630.6464</ele>
        <time>2020-09-13T09:52:26Z</time>
      </trkpt>
      <trkpt lat="47.87146" lon="6.63922">
        <ele>629.9586</ele>
        <time>2020-09-13T09:52:31Z</time>
      </trkpt>
      <trkpt lat="47.87185" lon="6.63898">
        <ele>628.4149</ele>
        <time>2020-09-13T09:52:36Z</time>
      </trkpt>
      <trkpt lat="47.87177" lon="6.6384">
        <ele>628.10114</ele>
        <time>2020-09-13T09:52:41Z</time>
      </trkpt>
      <trkpt lat="47.87138" lon="6.63799">
        <ele>626.83264</ele>
        <time>2020-09-13T09:52:46Z</time>
      </trkpt>
      <trkpt lat="47.87042" lon="6.63731">
        <ele>623.24567</ele>
        <time>2020-09-13T09:52:56Z</time>
      </trkpt>
      <trkpt lat="47.8698" lon="6.63613">
        <ele>620.60034</ele>
        <time>2020-09-13T09:53:06Z</time>
      </trkpt>
      <trkpt lat="47.86964" lon="6.63544">
        <ele>616.6549</ele>
        <time>2020-09-13T09:53:11Z</time>
      </trkpt>
      <trkpt lat="47.86924" lon="6.63498">
        <ele>615.72614</ele>
        <time>2020-09-13T09:53:16Z</time>
      </trkpt>
      <trkpt lat="47.86886" lon="6.63451">
        <ele>616.552</ele>
        <time>2020-09-13T09:53:21Z</time>
      </trkpt>
      <trkpt lat="47.86857" lon="6.63391">
        <ele>614.43494</ele>
        <time>2020-09-13T09:53:26Z</time>
      </trkpt>
      <trkpt lat="47.86836" lon="6.6332">
        <ele>611.2674</ele>
        <time>2020-09-13T09:53:31Z</time>
      </trkpt>
      <trkpt lat="47.86752" lon="6.63243">
        <ele>611.5219</ele>
        <time>2020-09-13T09:53:41Z</time>
      </trkpt>
      <trkpt lat="47.86683" lon="6.63146">
        <ele>606.9459</ele>
        <time>2020-09-13T09:53:51Z</time>
      </trkpt>
      <trkpt lat="47.86653" lon="6.63092">
        <ele>603.6206</ele>
        <time>2020-09-13T09:53:56Z</time>
      </trkpt>
      <trkpt lat="47.86607" lon="6.63053">
        <ele>601.976</ele>
        <time>2020-09-13T09:54:01Z</time>
      </trkpt>
      <trkpt lat="47.86573" lon="6.63002">
        <ele>604.02875</ele>
        <time>2020-09-13T09:54:06Z</time>
      </trkpt>
      <trkpt lat="47.86545" lon="6.62955">
        <ele>605.0832</ele>
        <time>2020-09-13T09:54:11Z</time>
      </trkpt>
      <trkpt lat="47.86518" lon="6.62913">
        <ele>604.5285</ele>
        <time>2020-09-13T09:54:16Z</time>
      </trkpt>
      <trkpt lat="47.86494" lon="6.62876">
        <ele>603.8425</ele>
        <time>2020-09-13T09:54:21Z</time>
      </trkpt>
      <trkpt lat="47.86478" lon="6.62836">
        <ele>605.2176</ele>
        <time>2020-09-13T09:54:26Z</time>
      </trkpt>
      <trkpt lat="47.86467" lon="6.62745">
        <ele>602.94385</ele>
        <time>2020-09-13T09:54:36Z</time>
      </trkpt>
      <trkpt lat="47.86456" lon="6.62651">
        <ele>604.85016</ele>
        <time>2020-09-13T09:54:46Z</time>
      </trkpt>
      <trkpt lat="47.8645" lon="6.62608">
        <ele>605.6837</ele>
        <time>2020-09-13T09:54:51Z</time>
      </trkpt>
      <trkpt lat="47.86443" lon="6.62563">
        <ele>605.2308</ele>
        <time>2020-09-13T09:54:56Z</time>
      </trkpt>
      <trkpt lat="47.86425" lon="6.62518">
        <ele>603.6929</ele>
        <time>2020-09-13T09:55:01Z</time>
      </trkpt>
      <trkpt lat="47.86392" lon="6.62485">
        <ele>602.6049</ele>
        <time>2020-09-13T09:55:06Z</time>
      </trkpt>
      <trkpt lat="47.86361" lon="6.62438">
        <ele>600.78534</ele>
        <time>2020-09-13T09:55:11Z</time>
      </trkpt>
      <trkpt lat="47.86305" lon="6.62331">
        <ele>599.7189</ele>
        <time>2020-09-13T09:55:21Z</time>
      </trkpt>
      <trkpt lat="47.86224" lon="6.62276">
        <ele>597.5169</ele>
        <time>2020-09-13T09:55:31Z</time>
      </trkpt>
      <trkpt lat="47.86181" lon="6.62249">
        <ele>597.6482</ele>
        <time>2020-09-13T09:55:36Z</time>
      </trkpt>
      <trkpt lat="47.86145" lon="6.62202">
        <ele>595.6621</ele>
        <time>2020-09-13T09:55:41Z</time>
      </trkpt>
      <trkpt lat="47.86105" lon="6.62157">
        <ele>593.5776</ele>
        <time>2020-09-13T09:55:46Z</time>
      </trkpt>
      <trkpt lat="47.86049" lon="6.6214">
        <ele>588.49164</ele>
        <time>2020-09-13T09:55:51Z</time>
      </trkpt>
      <trkpt lat="47.85993" lon="6.62143">
        <ele>587.30066</ele>
        <time>2020-09-13T09:55:56Z</time>
      </trkpt>
      <trkpt lat="47.859" lon="6.62143">
        <ele>588.28107</ele>
        <time>2020-09-13T09:56:06Z</time>
      </trkpt>
      <trkpt lat="47.85823" lon="6.62121">
        <ele>584.8569</ele>
        <time>2020-09-13T09:56:16Z</time>
      </trkpt>
      <trkpt lat="47.85793" lon="6.62131">
        <ele>584.2834</ele>
        <time>2020-09-13T09:56:21Z</time>
      </trkpt>
      <trkpt lat="47.85767" lon="6.62129">
        <ele>583.661</ele>
        <time>2020-09-13T09:56:26Z</time>
      </trkpt>
      <trkpt lat="47.85739" lon="6.62118">
        <ele>590.21967</ele>
        <time>2020-09-13T09:56:31Z</time>
      </trkpt>
      <trkpt lat="47.85709" lon="6.62081">
        <ele>588.6218</ele>
        <time>2020-09-13T09:56:36Z</time>
      </trkpt>
      <trkpt lat="47.85671" lon="6.62048">
        <ele>585.8555</ele>
        <time>2020-09-13T09:56:41Z</time>
      </trkpt>
      <trkpt lat="47.85635" lon="6.62024">
        <ele>584.56506</ele>
        <time>2020-09-13T09:56:46Z</time>
      </trkpt>
      <trkpt lat="47.85613" lon="6.61978">
        <ele>583.5848</ele>
        <time>2020-09-13T09:56:51Z</time>
      </trkpt>
      <trkpt lat="47.85579" lon="6.61875">
        <ele>584.8833</ele>
        <time>2020-09-13T09:57:01Z</time>
      </trkpt>
      <trkpt lat="47.8551" lon="6.61819">
        <ele>584.17456</ele>
        <time>2020-09-13T09:57:11Z</time>
      </trkpt>
      <trkpt lat="47.85479" lon="6.61793">
        <ele>583.70984</ele>
        <time>2020-09-13T09:57:16Z</time>
      </trkpt>
      <trkpt lat="47.85449" lon="6.61773">
        <ele>582.77637</ele>
        <time>2020-09-13T09:57:21Z</time>
      </trkpt>
      <trkpt lat="47.85418" lon="6.61762">
        <ele>582.57605</ele>
        <time>2020-09-13T09:57:26Z</time>
      </trkpt>
      <trkpt lat="47.85386" lon="6.61737">
        <ele>580.38495</ele>
        <time>2020-09-13T09:57:31Z</time>
      </trkpt>
      <trkpt lat="47.85352" lon="6.61713">
        <ele>578.55396</ele>
        <time>2020-09-13T09:57:36Z</time>
      </trkpt>
      <trkpt lat="47.85303" lon="6.61664">
        <ele>573.8719</ele>
        <time>2020-09-13T09:57:46Z</time>
      </trkpt>
      <trkpt lat="47.8528" lon="6.61555">
        <ele>573.59033</ele>
        <time>2020-09-13T09:57:56Z</time>
      </trkpt>
      <trkpt lat="47.85246" lon="6.61512">
        <ele>572.14813</ele>
        <time>2020-09-13T09:58:01Z</time>
      </trkpt>
      <trkpt lat="47.85232" lon="6.61457">
        <ele>572.4561</ele>
        <time>2020-09-13T09:58:06Z</time>
      </trkpt>
      <trkpt lat="47.85232" lon="6.614">
        <ele>570.7487</ele>
        <time>2020-09-13T09:58:11Z</time>
      </trkpt>
      <trkpt lat="47.85236" lon="6.61348">
        <ele>569.26196</ele>
        <time>2020-09-13T09:58:16Z</time>
      </trkpt>
      <trkpt lat="47.85255" lon="6.6131">
        <ele>569.205</ele>
        <time>2020-09-13T09:58:21Z</time>
      </trkpt>
      <trkpt lat="47.85294" lon="6.61231">
        <ele>570.59424</ele>
        <time>2020-09-13T09:58:31Z</time>
      </trkpt>
      <trkpt lat="47.8529" lon="6.61126">
        <ele>568.24274</ele>
        <time>2020-09-13T09:58:41Z</time>
      </trkpt>
      <trkpt lat="47.85267" lon="6.61083">
        <ele>565.23004</ele>
        <time>2020-09-13T09:58:46Z</time>
      </trkpt>
      <trkpt lat="47.85247" lon="6.61032">
        <ele>563.2296</ele>
        <time>2020-09-13T09:58:51Z</time>
      </trkpt>
      <trkpt lat="47.85249" lon="6.60964">
        <ele>560.43396</ele>
        <time>2020-09-13T09:58:56Z</time>
      </trkpt>
      <trkpt lat="47.85252" lon="6.60894">
        <ele>559.0393</ele>
        <time>2020-09-13T09:59:01Z</time>
      </trkpt>
      <trkpt lat="47.85239" lon="6.60822">
        <ele>557.3563</ele>
        <time>2020-09-13T09:59:06Z</time>
      </trkpt>
      <trkpt lat="47.85223" lon="6.60747">
        <ele>555.53735</ele>
        <time>2020-09-13T09:59:11Z</time>
      </trkpt>
      <trkpt lat="47.852" lon="6.60678">
        <ele>553.23926</ele>
        <time>2020-09-13T09:59:16Z</time>
      </trkpt>
      <trkpt lat="47.85151" lon="6.60556">
        <ele>546.8072</ele>
        <time>2020-09-13T09:59:26Z</time>
      </trkpt>
      <trkpt lat="47.85117" lon="6.60415">
        <ele>539.51636</ele>
        <time>2020-09-13T09:59:36Z</time>
      </trkpt>
      <trkpt lat="47.85104" lon="6.60333">
        <ele>535.3914</ele>
        <time>2020-09-13T09:59:41Z</time>
      </trkpt>
      <trkpt lat="47.85078" lon="6.60258">
        <ele>531.5594</ele>
        <time>2020-09-13T09:59:46Z</time>
      </trkpt>
      <trkpt lat="47.85071" lon="6.60191">
        <ele>528.64905</ele>
        <time>2020-09-13T09:59:51Z</time>
      </trkpt>
      <trkpt lat="47.85096" lon="6.60142">
        <ele>524.95</ele>
        <time>2020-09-13T09:59:56Z</time>
      </trkpt>
      <trkpt lat="47.85119" lon="6.60084">
        <ele>522.433</ele>
        <time>2020-09-13T10:00:01Z</time>
      </trkpt>
      <trkpt lat="47.8507" lon="6.5994">
        <ele>514.94745</ele>
        <time>2020-09-13T10:00:11Z</time>
      </trkpt>
      <trkpt lat="47.85049" lon="6.59794">
        <ele>504.9108</ele>
        <time>2020-09-13T10:00:21Z</time>
      </trkpt>
      <trkpt lat="47.85074" lon="6.5974">
        <ele>502.23895</ele>
        <time>2020-09-13T10:00:26Z</time>
      </trkpt>
      <trkpt lat="47.85111" lon="6.59739">
        <ele>499.62015</ele>
        <time>2020-09-13T10:00:31Z</time>
      </trkpt>
      <trkpt lat="47.85097" lon="6.5971">
        <ele>496.28046</ele>
        <time>2020-09-13T10:00:36Z</time>
      </trkpt>
      <trkpt lat="47.85061" lon="6.5966">
        <ele>492.20703</ele>
        <time>2020-09-13T10:00:41Z</time>
      </trkpt>
      <trkpt lat="47.85025" lon="6.59601">
        <ele>489.0588</ele>
        <time>2020-09-13T10:00:46Z</time>
      </trkpt>
      <trkpt lat="47.84985" lon="6.59462">
        <ele>482.23532</ele>
        <time>2020-09-13T10:00:56Z</time>
      </trkpt>
      <trkpt lat="47.84958" lon="6.5931">
        <ele>477.76575</ele>
        <time>2020-09-13T10:01:06Z</time>
      </trkpt>
      <trkpt lat="47.84958" lon="6.59236">
        <ele>470.11713</ele>
        <time>2020-09-13T10:01:11Z</time>
      </trkpt>
      <trkpt lat="47.84925" lon="6.59187">
        <ele>463.63824</ele>
        <time>2020-09-13T10:01:16Z</time>
      </trkpt>
      <trkpt lat="47.84881" lon="6.59147">
        <ele>458.42715</ele>
        <time>2020-09-13T10:01:21Z</time>
      </trkpt>
      <trkpt lat="47.84835" lon="6.59108">
        <ele>457.81442</ele>
        <time>2020-09-13T10:01:26Z</time>
      </trkpt>
      <trkpt lat="47.848" lon="6.59055">
        <ele>454.69836</ele>
        <time>2020-09-13T10:01:31Z</time>
      </trkpt>
      <trkpt lat="47.84764" lon="6.59017">
        <ele>452.79373</ele>
        <time>2020-09-13T10:01:36Z</time>
      </trkpt>
      <trkpt lat="47.84736" lon="6.59026">
        <ele>449.21445</ele>
        <time>2020-09-13T10:01:41Z</time>
      </trkpt>
      <trkpt lat="47.8477" lon="6.58995">
        <ele>435.51617</ele>
        <time>2020-09-13T10:01:51Z</time>
      </trkpt>
      <trkpt lat="47.84769" lon="6.58966">
        <ele>431.91138</ele>
        <time>2020-09-13T10:02:01Z</time>
      </trkpt>
      <trkpt lat="47.84731" lon="6.58942">
        <ele>425.60214</ele>
        <time>2020-09-13T10:02:06Z</time>
      </trkpt>
      <trkpt lat="47.847" lon="6.58921">
        <ele>423.14578</ele>
        <time>2020-09-13T10:02:11Z</time>
      </trkpt>
      <trkpt lat="47.84686" lon="6.58928">
        <ele>417.04187</ele>
        <time>2020-09-13T10:02:16Z</time>
      </trkpt>
      <trkpt lat="47.84684" lon="6.58954">
        <ele>419.3159</ele>
        <time>2020-09-13T10:02:21Z</time>
      </trkpt>
      <trkpt lat="47.84681" lon="6.58974">
        <ele>412.45523</ele>
        <time>2020-09-13T10:02:36Z</time>
      </trkpt>
      <trkpt lat="47.84652" lon="6.59044">
        <ele>411.27063</ele>
        <time>2020-09-13T10:02:46Z</time>
      </trkpt>
      <trkpt lat="47.84632" lon="6.59058">
        <ele>409.98822</ele>
        <time>2020-09-13T10:02:51Z</time>
      </trkpt>
      <trkpt lat="47.84611" lon="6.59068">
        <ele>409.30515</ele>
        <time>2020-09-13T10:02:56Z</time>
      </trkpt>
      <trkpt lat="47.84585" lon="6.59086">
        <ele>409.4091</ele>
        <time>2020-09-13T10:03:01Z</time>
      </trkpt>
      <trkpt lat="47.84554" lon="6.59106">
        <ele>408.88342</ele>
        <time>2020-09-13T10:03:06Z</time>
      </trkpt>
      <trkpt lat="47.84522" lon="6.59123">
        <ele>398.80984</ele>
        <time>2020-09-13T10:03:11Z</time>
      </trkpt>
      <trkpt lat="47.84467" lon="6.59153">
        <ele>393.3629</ele>
        <time>2020-09-13T10:03:21Z</time>
      </trkpt>
      <trkpt lat="47.84419" lon="6.59185">
        <ele>389.31235</ele>
        <time>2020-09-13T10:03:31Z</time>
      </trkpt>
      <trkpt lat="47.84398" lon="6.59205">
        <ele>394.7018</ele>
        <time>2020-09-13T10:03:36Z</time>
      </trkpt>
      <trkpt lat="47.84379" lon="6.59233">
        <ele>393.66437</ele>
        <time>2020-09-13T10:03:41Z</time>
      </trkpt>
      <trkpt lat="47.84368" lon="6.59268">
        <ele>389.19946</ele>
        <time>2020-09-13T10:03:46Z</time>
      </trkpt>
      <trkpt lat="47.84365" lon="6.59302">
        <ele>399.47543</ele>
        <time>2020-09-13T10:03:51Z</time>
      </trkpt>
      <trkpt lat="47.84367" lon="6.59339">
        <ele>401.4995</ele>
        <time>2020-09-13T10:03:56Z</time>
      </trkpt>
      <trkpt lat="47.84375" lon="6.59368">
        <ele>401.46927</ele>
        <time>2020-09-13T10:04:01Z</time>
      </trkpt>
      <trkpt lat="47.84389" lon="6.59397">
        <ele>401.556</ele>
        <time>2020-09-13T10:04:06Z</time>
      </trkpt>
      <trkpt lat="47.84391" lon="6.59462">
        <ele>402.729</ele>
        <time>2020-09-13T10:04:16Z</time>
      </trkpt>
      <trkpt lat="47.84358" lon="6.59514">
        <ele>403.39166</ele>
        <time>2020-09-13T10:04:26Z</time>
      </trkpt>
      <trkpt lat="47.84341" lon="6.59538">
        <ele>402.70984</ele>
        <time>2020-09-13T10:04:31Z</time>
      </trkpt>
      <trkpt lat="47.84328" lon="6.59559">
        <ele>400.67554</ele>
        <time>2020-09-13T10:04:36Z</time>
      </trkpt>
      <trkpt lat="47.84308" lon="6.59591">
        <ele>403.39267</ele>
        <time>2020-09-13T10:04:41Z</time>
      </trkpt>
      <trkpt lat="47.84301" lon="6.59622">
        <ele>401.5066</ele>
        <time>2020-09-13T10:04:46Z</time>
      </trkpt>
      <trkpt lat="47.84292" lon="6.59664">
        <ele>400.46173</ele>
        <time>2020-09-13T10:04:51Z</time>
      </trkpt>
      <trkpt lat="47.84263" lon="6.59736">
        <ele>399.03473</ele>
        <time>2020-09-13T10:05:01Z</time>
      </trkpt>
      <trkpt lat="47.84227" lon="6.5979">
        <ele>400.9085</ele>
        <time>2020-09-13T10:05:11Z</time>
      </trkpt>
      <trkpt lat="47.84212" lon="6.59814">
        <ele>401.29984</ele>
        <time>2020-09-13T10:05:16Z</time>
      </trkpt>
      <trkpt lat="47.84196" lon="6.59839">
        <ele>398.57892</ele>
        <time>2020-09-13T10:05:21Z</time>
      </trkpt>
      <trkpt lat="47.84181" lon="6.59863">
        <ele>398.06964</ele>
        <time>2020-09-13T10:05:26Z</time>
      </trkpt>
      <trkpt lat="47.84166" lon="6.59884">
        <ele>397.5241</ele>
        <time>2020-09-13T10:05:31Z</time>
      </trkpt>
      <trkpt lat="47.84151" lon="6.59903">
        <ele>398.86328</ele>
        <time>2020-09-13T10:05:36Z</time>
      </trkpt>
      <trkpt lat="47.84118" lon="6.59939">
        <ele>399.1285</ele>
        <time>2020-09-13T10:05:46Z</time>
      </trkpt>
      <trkpt lat="47.84076" lon="6.59964">
        <ele>399.6993</ele>
        <time>2020-09-13T10:05:56Z</time>
      </trkpt>
      <trkpt lat="47.84052" lon="6.59959">
        <ele>399.74973</ele>
        <time>2020-09-13T10:06:01Z</time>
      </trkpt>
      <trkpt lat="47.84034" lon="6.59957">
        <ele>396.4492</ele>
        <time>2020-09-13T10:06:06Z</time>
      </trkpt>
      <trkpt lat="47.84018" lon="6.59958">
        <ele>397.65723</ele>
        <time>2020-09-13T10:06:11Z</time>
      </trkpt>
      <trkpt lat="47.84001" lon="6.59962">
        <ele>400.10977</ele>
        <time>2020-09-13T10:06:16Z</time>
      </trkpt>
      <trkpt lat="47.83984" lon="6.59976">
        <ele>400.375</ele>
        <time>2020-09-13T10:06:21Z</time>
      </trkpt>
      <trkpt lat="47.83963" lon="6.59998">
        <ele>400.1622</ele>
        <time>2020-09-13T10:06:26Z</time>
      </trkpt>
      <trkpt lat="47.83945" lon="6.60018">
        <ele>399.3181</ele>
        <time>2020-09-13T10:06:31Z</time>
      </trkpt>
      <trkpt lat="47.83917" lon="6.60051">
        <ele>399.65997</ele>
        <time>2020-09-13T10:06:41Z</time>
      </trkpt>
      <trkpt lat="47.83905" lon="6.60068">
        <ele>400.67856</ele>
        <time>2020-09-13T10:06:46Z</time>
      </trkpt>
      <trkpt lat="47.83894" lon="6.60093">
        <ele>400.91254</ele>
        <time>2020-09-13T10:06:51Z</time>
      </trkpt>
      <trkpt lat="47.83886" lon="6.60129">
        <ele>399.0539</ele>
        <time>2020-09-13T10:06:56Z</time>
      </trkpt>
      <trkpt lat="47.83878" lon="6.60166">
        <ele>399.66803</ele>
        <time>2020-09-13T10:07:01Z</time>
      </trkpt>
      <trkpt lat="47.83875" lon="6.60206">
        <ele>400.27615</ele>
        <time>2020-09-13T10:07:06Z</time>
      </trkpt>
      <trkpt lat="47.83876" lon="6.60246">
        <ele>400.4476</ele>
        <time>2020-09-13T10:07:11Z</time>
      </trkpt>
      <trkpt lat="47.83879" lon="6.60292">
        <ele>400.00388</ele>
        <time>2020-09-13T10:07:16Z</time>
      </trkpt>
      <trkpt lat="47.83902" lon="6.60351">
        <ele>400.93774</ele>
        <time>2020-09-13T10:07:26Z</time>
      </trkpt>
      <trkpt lat="47.83918" lon="6.60417">
        <ele>400.9065</ele>
        <time>2020-09-13T10:07:36Z</time>
      </trkpt>
      <trkpt lat="47.83926" lon="6.60445">
        <ele>402.28925</ele>
        <time>2020-09-13T10:07:41Z</time>
      </trkpt>
      <trkpt lat="47.8392" lon="6.60474">
        <ele>401.6296</ele>
        <time>2020-09-13T10:07:46Z</time>
      </trkpt>
      <trkpt lat="47.83903" lon="6.60524">
        <ele>401.9584</ele>
        <time>2020-09-13T10:07:51Z</time>
      </trkpt>
      <trkpt lat="47.83888" lon="6.60561">
        <ele>398.3651</ele>
        <time>2020-09-13T10:07:56Z</time>
      </trkpt>
      <trkpt lat="47.8387" lon="6.60616">
        <ele>399.93732</ele>
        <time>2020-09-13T10:08:01Z</time>
      </trkpt>
      <trkpt lat="47.83851" lon="6.60648">
        <ele>398.0757</ele>
        <time>2020-09-13T10:08:06Z</time>
      </trkpt>
      <trkpt lat="47.83825" lon="6.60674">
        <ele>399.36954</ele>
        <time>2020-09-13T10:08:11Z</time>
      </trkpt>
      <trkpt lat="47.83775" lon="6.60703">
        <ele>401.00735</ele>
        <time>2020-09-13T10:08:21Z</time>
      </trkpt>
      <trkpt lat="47.83749" lon="6.60719">
        <ele>401.32605</ele>
        <time>2020-09-13T10:08:26Z</time>
      </trkpt>
      <trkpt lat="47.83729" lon="6.6073">
        <ele>400.97305</ele>
        <time>2020-09-13T10:08:31Z</time>
      </trkpt>
      <trkpt lat="47.83714" lon="6.6074">
        <ele>400.3639</ele>
        <time>2020-09-13T10:08:36Z</time>
      </trkpt>
      <trkpt lat="47.83686" lon="6.60767">
        <ele>397.93454</ele>
        <time>2020-09-13T10:11:56Z</time>
      </trkpt>
      <trkpt lat="47.83674" lon="6.6078">
        <ele>397.8478</ele>
        <time>2020-09-13T10:12:01Z</time>
      </trkpt>
      <trkpt lat="47.83659" lon="6.60788">
        <ele>398.8653</ele>
        <time>2020-09-13T10:12:06Z</time>
      </trkpt>
      <trkpt lat="47.83625" lon="6.60797">
        <ele>400.11682</ele>
        <time>2020-09-13T10:12:16Z</time>
      </trkpt>
      <trkpt lat="47.83587" lon="6.60812">
        <ele>400.74814</ele>
        <time>2020-09-13T10:12:26Z</time>
      </trkpt>
      <trkpt lat="47.83576" lon="6.60827">
        <ele>402.04416</ele>
        <time>2020-09-13T10:12:31Z</time>
      </trkpt>
      <trkpt lat="47.8357" lon="6.60852">
        <ele>401.00836</ele>
        <time>2020-09-13T10:12:36Z</time>
      </trkpt>
      <trkpt lat="47.83551" lon="6.60873">
        <ele>400.6463</ele>
        <time>2020-09-13T10:12:41Z</time>
      </trkpt>
      <trkpt lat="47.83529" lon="6.60887">
        <ele>401.43698</ele>
        <time>2020-09-13T10:12:46Z</time>
      </trkpt>
      <trkpt lat="47.83517" lon="6.60898">
        <ele>404.81592</ele>
        <time>2020-09-13T10:12:51Z</time>
      </trkpt>
      <trkpt lat="47.83483" lon="6.6093">
        <ele>405.54825</ele>
        <time>2020-09-13T10:13:01Z</time>
      </trkpt>
      <trkpt lat="47.83455" lon="6.60962">
        <ele>407.97845</ele>
        <time>2020-09-13T10:13:11Z</time>
      </trkpt>
      <trkpt lat="47.83437" lon="6.60978">
        <ele>408.5969</ele>
        <time>2020-09-13T10:13:16Z</time>
      </trkpt>
      <trkpt lat="47.83423" lon="6.60993">
        <ele>408.67258</ele>
        <time>2020-09-13T10:13:21Z</time>
      </trkpt>
      <trkpt lat="47.83405" lon="6.61008">
        <ele>408.39816</ele>
        <time>2020-09-13T10:13:26Z</time>
      </trkpt>
      <trkpt lat="47.8339" lon="6.61043">
        <ele>406.8032</ele>
        <time>2020-09-13T10:13:31Z</time>
      </trkpt>
      <trkpt lat="47.83362" lon="6.61081">
        <ele>404.92587</ele>
        <time>2020-09-13T10:13:36Z</time>
      </trkpt>
      <trkpt lat="47.83319" lon="6.61082">
        <ele>403.15967</ele>
        <time>2020-09-13T10:13:41Z</time>
      </trkpt>
      <trkpt lat="47.83296" lon="6.61098">
        <ele>403.36646</ele>
        <time>2020-09-13T10:13:46Z</time>
      </trkpt>
      <trkpt lat="47.83265" lon="6.61131">
        <ele>404.69186</ele>
        <time>2020-09-13T10:13:56Z</time>
      </trkpt>
      <trkpt lat="47.83239" lon="6.61139">
        <ele>405.10138</ele>
        <time>2020-09-13T10:14:01Z</time>
      </trkpt>
      <trkpt lat="47.83215" lon="6.61138">
        <ele>405.80652</ele>
        <time>2020-09-13T10:14:06Z</time>
      </trkpt>
      <trkpt lat="47.83192" lon="6.61133">
        <ele>405.97296</ele>
        <time>2020-09-13T10:14:11Z</time>
      </trkpt>
      <trkpt lat="47.83178" lon="6.61113">
        <ele>408.0723</ele>
        <time>2020-09-13T10:14:16Z</time>
      </trkpt>
      <trkpt lat="47.83172" lon="6.61074">
        <ele>408.34268</ele>
        <time>2020-09-13T10:14:21Z</time>
      </trkpt>
      <trkpt lat="47.83167" lon="6.61044">
        <ele>408.6837</ele>
        <time>2020-09-13T10:14:26Z</time>
      </trkpt>
      <trkpt lat="47.83168" lon="6.61003">
        <ele>407.87253</ele>
        <time>2020-09-13T10:14:31Z</time>
      </trkpt>
      <trkpt lat="47.83178" lon="6.60943">
        <ele>408.63626</ele>
        <time>2020-09-13T10:14:41Z</time>
      </trkpt>
      <trkpt lat="47.83187" lon="6.60897">
        <ele>410.63092</ele>
        <time>2020-09-13T10:14:51Z</time>
      </trkpt>
      <trkpt lat="47.83184" lon="6.60876">
        <ele>411.76605</ele>
        <time>2020-09-13T10:14:56Z</time>
      </trkpt>
      <trkpt lat="47.8318" lon="6.60852">
        <ele>412.5884</ele>
        <time>2020-09-13T10:15:01Z</time>
      </trkpt>
      <trkpt lat="47.83176" lon="6.6083">
        <ele>412.61768</ele>
        <time>2020-09-13T10:15:06Z</time>
      </trkpt>
      <trkpt lat="47.83172" lon="6.60808">
        <ele>413.01224</ele>
        <time>2020-09-13T10:15:11Z</time>
      </trkpt>
      <trkpt lat="47.83168" lon="6.60787">
        <ele>414.03345</ele>
        <time>2020-09-13T10:15:16Z</time>
      </trkpt>
      <trkpt lat="47.8316" lon="6.60751">
        <ele>414.68738</ele>
        <time>2020-09-13T10:15:26Z</time>
      </trkpt>
      <trkpt lat="47.83157" lon="6.6071">
        <ele>417.14786</ele>
        <time>2020-09-13T10:15:36Z</time>
      </trkpt>
      <trkpt lat="47.83157" lon="6.60691">
        <ele>417.33762</ele>
        <time>2020-09-13T10:15:41Z</time>
      </trkpt>
      <trkpt lat="47.83161" lon="6.60674">
        <ele>416.4464</ele>
        <time>2020-09-13T10:15:46Z</time>
      </trkpt>
      <trkpt lat="47.83169" lon="6.60661">
        <ele>419.10794</ele>
        <time>2020-09-13T10:15:51Z</time>
      </trkpt>
      <trkpt lat="47.8318" lon="6.60643">
        <ele>419.865</ele>
        <time>2020-09-13T10:15:56Z</time>
      </trkpt>
      <trkpt lat="47.83189" lon="6.60629">
        <ele>420.6281</ele>
        <time>2020-09-13T10:16:01Z</time>
      </trkpt>
      <trkpt lat="47.83199" lon="6.60613">
        <ele>420.61398</ele>
        <time>2020-09-13T10:16:06Z</time>
      </trkpt>
      <trkpt lat="47.83208" lon="6.606">
        <ele>422.00198</ele>
        <time>2020-09-13T10:16:11Z</time>
      </trkpt>
      <trkpt lat="47.83229" lon="6.60573">
        <ele>422.66827</ele>
        <time>2020-09-13T10:16:21Z</time>
      </trkpt>
      <trkpt lat="47.83238" lon="6.60562">
        <ele>423.59302</ele>
        <time>2020-09-13T10:16:26Z</time>
      </trkpt>
      <trkpt lat="47.83248" lon="6.6055">
        <ele>424.76617</ele>
        <time>2020-09-13T10:16:31Z</time>
      </trkpt>
      <trkpt lat="47.83261" lon="6.60544">
        <ele>425.6718</ele>
        <time>2020-09-13T10:16:36Z</time>
      </trkpt>
      <trkpt lat="47.83276" lon="6.60544">
        <ele>426.47147</ele>
        <time>2020-09-13T10:16:41Z</time>
      </trkpt>
      <trkpt lat="47.83286" lon="6.6054">
        <ele>426.28265</ele>
        <time>2020-09-13T10:16:46Z</time>
      </trkpt>
      <trkpt lat="47.83291" lon="6.60528">
        <ele>427.55188</ele>
        <time>2020-09-13T10:16:51Z</time>
      </trkpt>
      <trkpt lat="47.83281" lon="6.60523">
        <ele>428.7818</ele>
        <time>2020-09-13T10:16:56Z</time>
      </trkpt>
      <trkpt lat="47.83253" lon="6.60524">
        <ele>430.82672</ele>
        <time>2020-09-13T10:17:06Z</time>
      </trkpt>
      <trkpt lat="47.83224" lon="6.6053">
        <ele>431.79422</ele>
        <time>2020-09-13T10:17:16Z</time>
      </trkpt>
      <trkpt lat="47.83207" lon="6.60534">
        <ele>431.59427</ele>
        <time>2020-09-13T10:17:21Z</time>
      </trkpt>
      <trkpt lat="47.83193" lon="6.60538">
        <ele>433.05164</ele>
        <time>2020-09-13T10:17:26Z</time>
      </trkpt>
      <trkpt lat="47.83178" lon="6.60543">
        <ele>433.38596</ele>
        <time>2020-09-13T10:17:31Z</time>
      </trkpt>
      <trkpt lat="47.83165" lon="6.60547">
        <ele>433.43747</ele>
        <time>2020-09-13T10:17:36Z</time>
      </trkpt>
      <trkpt lat="47.83152" lon="6.60554">
        <ele>434.40308</ele>
        <time>2020-09-13T10:17:41Z</time>
      </trkpt>
      <trkpt lat="47.83129" lon="6.60576">
        <ele>435.69498</ele>
        <time>2020-09-13T10:17:51Z</time>
      </trkpt>
      <trkpt lat="47.83101" lon="6.60591">
        <ele>436.24146</ele>
        <time>2020-09-13T10:18:01Z</time>
      </trkpt>
      <trkpt lat="47.83087" lon="6.60602">
        <ele>435.8576</ele>
        <time>2020-09-13T10:18:06Z</time>
      </trkpt>
      <trkpt lat="47.83073" lon="6.6061">
        <ele>438.55075</ele>
        <time>2020-09-13T10:18:11Z</time>
      </trkpt>
      <trkpt lat="47.8306" lon="6.6062">
        <ele>439.41452</ele>
        <time>2020-09-13T10:18:16Z</time>
      </trkpt>
      <trkpt lat="47.83048" lon="6.60631">
        <ele>440.7522</ele>
        <time>2020-09-13T10:18:21Z</time>
      </trkpt>
      <trkpt lat="47.83038" lon="6.60644">
        <ele>439.72165</ele>
        <time>2020-09-13T10:18:26Z</time>
      </trkpt>
      <trkpt lat="47.83024" lon="6.60684">
        <ele>443.13574</ele>
        <time>2020-09-13T10:18:36Z</time>
      </trkpt>
      <trkpt lat="47.83022" lon="6.60721">
        <ele>444.29373</ele>
        <time>2020-09-13T10:18:46Z</time>
      </trkpt>
      <trkpt lat="47.83021" lon="6.60741">
        <ele>444.61307</ele>
        <time>2020-09-13T10:18:51Z</time>
      </trkpt>
      <trkpt lat="47.83016" lon="6.60758">
        <ele>445.2113</ele>
        <time>2020-09-13T10:18:56Z</time>
      </trkpt>
      <trkpt lat="47.83006" lon="6.60767">
        <ele>446.32596</ele>
        <time>2020-09-13T10:19:01Z</time>
      </trkpt>
      <trkpt lat="47.82991" lon="6.60768">
        <ele>447.14456</ele>
        <time>2020-09-13T10:19:06Z</time>
      </trkpt>
      <trkpt lat="47.82977" lon="6.6077">
        <ele>447.42453</ele>
        <time>2020-09-13T10:19:11Z</time>
      </trkpt>
      <trkpt lat="47.82964" lon="6.60771">
        <ele>449.3782</ele>
        <time>2020-09-13T10:19:16Z</time>
      </trkpt>
      <trkpt lat="47.8295" lon="6.60781">
        <ele>450.3748</ele>
        <time>2020-09-13T10:19:21Z</time>
      </trkpt>
      <trkpt lat="47.82922" lon="6.60798">
        <ele>451.2734</ele>
        <time>2020-09-13T10:19:31Z</time>
      </trkpt>
      <trkpt lat="47.82882" lon="6.60812">
        <ele>451.0581</ele>
        <time>2020-09-13T10:19:41Z</time>
      </trkpt>
      <trkpt lat="47.82856" lon="6.60823">
        <ele>450.4678</ele>
        <time>2020-09-13T10:19:46Z</time>
      </trkpt>
      <trkpt lat="47.8283" lon="6.60834">
        <ele>450.86505</ele>
        <time>2020-09-13T10:19:51Z</time>
      </trkpt>
      <trkpt lat="47.82811" lon="6.60853">
        <ele>451.75558</ele>
        <time>2020-09-13T10:19:56Z</time>
      </trkpt>
      <trkpt lat="47.82791" lon="6.60864">
        <ele>452.51877</ele>
        <time>2020-09-13T10:20:01Z</time>
      </trkpt>
      <trkpt lat="47.82765" lon="6.60871">
        <ele>451.20972</ele>
        <time>2020-09-13T10:20:06Z</time>
      </trkpt>
      <trkpt lat="47.82713" lon="6.60892">
        <ele>454.1777</ele>
        <time>2020-09-13T10:20:16Z</time>
      </trkpt>
      <trkpt lat="47.82664" lon="6.60918">
        <ele>455.01984</ele>
        <time>2020-09-13T10:20:26Z</time>
      </trkpt>
      <trkpt lat="47.82642" lon="6.60929">
        <ele>455.5324</ele>
        <time>2020-09-13T10:20:31Z</time>
      </trkpt>
      <trkpt lat="47.8262" lon="6.60935">
        <ele>456.28665</ele>
        <time>2020-09-13T10:20:36Z</time>
      </trkpt>
      <trkpt lat="47.82595" lon="6.60934">
        <ele>455.95706</ele>
        <time>2020-09-13T10:20:41Z</time>
      </trkpt>
      <trkpt lat="47.82573" lon="6.60938">
        <ele>456.13095</ele>
        <time>2020-09-13T10:20:46Z</time>
      </trkpt>
      <trkpt lat="47.82549" lon="6.60934">
        <ele>455.81754</ele>
        <time>2020-09-13T10:20:51Z</time>
      </trkpt>
      <trkpt lat="47.82515" lon="6.60926">
        <ele>456.99844</ele>
        <time>2020-09-13T10:21:01Z</time>
      </trkpt>
      <trkpt lat="47.82483" lon="6.60906">
        <ele>455.66992</ele>
        <time>2020-09-13T10:21:11Z</time>
      </trkpt>
      <trkpt lat="47.82469" lon="6.60897">
        <ele>459.79327</ele>
        <time>2020-09-13T10:21:16Z</time>
      </trkpt>
      <trkpt lat="47.82452" lon="6.60891">
        <ele>461.41125</ele>
        <time>2020-09-13T10:21:21Z</time>
      </trkpt>
      <trkpt lat="47.82431" lon="6.60881">
        <ele>462.4428</ele>
        <time>2020-09-13T10:21:26Z</time>
      </trkpt>
      <trkpt lat="47.82415" lon="6.60868">
        <ele>461.3152</ele>
        <time>2020-09-13T10:21:31Z</time>
      </trkpt>
      <trkpt lat="47.82395" lon="6.60845">
        <ele>464.1773</ele>
        <time>2020-09-13T10:21:36Z</time>
      </trkpt>
      <trkpt lat="47.82374" lon="6.60827">
        <ele>464.32498</ele>
        <time>2020-09-13T10:21:41Z</time>
      </trkpt>
      <trkpt lat="47.82347" lon="6.60822">
        <ele>464.6112</ele>
        <time>2020-09-13T10:21:46Z</time>
      </trkpt>
      <trkpt lat="47.82301" lon="6.60808">
        <ele>465.1513</ele>
        <time>2020-09-13T10:21:56Z</time>
      </trkpt>
      <trkpt lat="47.82266" lon="6.60793">
        <ele>465.88364</ele>
        <time>2020-09-13T10:22:06Z</time>
      </trkpt>
      <trkpt lat="47.82253" lon="6.60785">
        <ele>465.8968</ele>
        <time>2020-09-13T10:22:11Z</time>
      </trkpt>
      <trkpt lat="47.82241" lon="6.60773">
        <ele>466.86276</ele>
        <time>2020-09-13T10:22:16Z</time>
      </trkpt>
      <trkpt lat="47.82232" lon="6.60756">
        <ele>468.89807</ele>
        <time>2020-09-13T10:22:21Z</time>
      </trkpt>
      <trkpt lat="47.82222" lon="6.60738">
        <ele>471.1359</ele>
        <time>2020-09-13T10:22:26Z</time>
      </trkpt>
      <trkpt lat="47.82212" lon="6.60717">
        <ele>472.6566</ele>
        <time>2020-09-13T10:22:31Z</time>
      </trkpt>
      <trkpt lat="47.82195" lon="6.60677">
        <ele>473.26367</ele>
        <time>2020-09-13T10:22:41Z</time>
      </trkpt>
      <trkpt lat="47.82184" lon="6.60655">
        <ele>475.38254</ele>
        <time>2020-09-13T10:22:51Z</time>
      </trkpt>
      <trkpt lat="47.82163" lon="6.60654">
        <ele>473.61276</ele>
        <time>2020-09-13T10:22:56Z</time>
      </trkpt>
      <trkpt lat="47.82138" lon="6.60663">
        <ele>472.75775</ele>
        <time>2020-09-13T10:23:01Z</time>
      </trkpt>
      <trkpt lat="47.82117" lon="6.60647">
        <ele>469.5587</ele>
        <time>2020-09-13T10:23:06Z</time>
      </trkpt>
      <trkpt lat="47.82103" lon="6.60625">
        <ele>472.79724</ele>
        <time>2020-09-13T10:23:11Z</time>
      </trkpt>
      <trkpt lat="47.82082" lon="6.60622">
        <ele>474.10855</ele>
        <time>2020-09-13T10:23:16Z</time>
      </trkpt>
      <trkpt lat="47.82061" lon="6.60605">
        <ele>474.26236</ele>
        <time>2020-09-13T10:23:21Z</time>
      </trkpt>
      <trkpt lat="47.82036" lon="6.60577">
        <ele>472.78912</ele>
        <time>2020-09-13T10:23:26Z</time>
      </trkpt>
      <trkpt lat="47.81955" lon="6.6055">
        <ele>471.15005</ele>
        <time>2020-09-13T10:23:36Z</time>
      </trkpt>
      <trkpt lat="47.81919" lon="6.60564">
        <ele>466.34995</ele>
        <time>2020-09-13T10:23:41Z</time>
      </trkpt>
      <trkpt lat="47.81887" lon="6.60584">
        <ele>465.4254</ele>
        <time>2020-09-13T10:23:46Z</time>
      </trkpt>
      <trkpt lat="47.81854" lon="6.60574">
        <ele>462.6471</ele>
        <time>2020-09-13T10:23:51Z</time>
      </trkpt>
      <trkpt lat="47.81832" lon="6.60581">
        <ele>460.4809</ele>
        <time>2020-09-13T10:23:56Z</time>
      </trkpt>
      <trkpt lat="47.81821" lon="6.6062">
        <ele>459.97833</ele>
        <time>2020-09-13T10:24:01Z</time>
      </trkpt>
      <trkpt lat="47.818" lon="6.60624">
        <ele>461.4244</ele>
        <time>2020-09-13T10:24:06Z</time>
      </trkpt>
      <trkpt lat="47.81792" lon="6.60596">
        <ele>461.50836</ele>
        <time>2020-09-13T10:24:11Z</time>
      </trkpt>
      <trkpt lat="47.81749" lon="6.60633">
        <ele>458.15515</ele>
        <time>2020-09-13T10:24:21Z</time>
      </trkpt>
      <trkpt lat="47.81704" lon="6.607">
        <ele>451.91025</ele>
        <time>2020-09-13T10:24:31Z</time>
      </trkpt>
      <trkpt lat="47.81669" lon="6.60706">
        <ele>451.35226</ele>
        <time>2020-09-13T10:24:36Z</time>
      </trkpt>
      <trkpt lat="47.81644" lon="6.60692">
        <ele>450.05945</ele>
        <time>2020-09-13T10:24:41Z</time>
      </trkpt>
      <trkpt lat="47.81634" lon="6.60659">
        <ele>448.87183</ele>
        <time>2020-09-13T10:24:46Z</time>
      </trkpt>
      <trkpt lat="47.81616" lon="6.60619">
        <ele>447.02026</ele>
        <time>2020-09-13T10:24:51Z</time>
      </trkpt>
      <trkpt lat="47.81606" lon="6.60564">
        <ele>445.68524</ele>
        <time>2020-09-13T10:24:56Z</time>
      </trkpt>
      <trkpt lat="47.8163" lon="6.60481">
        <ele>442.3961</ele>
        <time>2020-09-13T10:25:06Z</time>
      </trkpt>
      <trkpt lat="47.81587" lon="6.6047">
        <ele>444.07748</ele>
        <time>2020-09-13T10:25:16Z</time>
      </trkpt>
      <trkpt lat="47.8157" lon="6.60493">
        <ele>443.85922</ele>
        <time>2020-09-13T10:25:21Z</time>
      </trkpt>
      <trkpt lat="47.81552" lon="6.60517">
        <ele>443.62985</ele>
        <time>2020-09-13T10:25:26Z</time>
      </trkpt>
      <trkpt lat="47.81536" lon="6.60536">
        <ele>446.18448</ele>
        <time>2020-09-13T10:25:31Z</time>
      </trkpt>
      <trkpt lat="47.81518" lon="6.60547">
        <ele>446.82724</ele>
        <time>2020-09-13T10:25:36Z</time>
      </trkpt>
      <trkpt lat="47.815" lon="6.60541">
        <ele>447.6024</ele>
        <time>2020-09-13T10:25:41Z</time>
      </trkpt>
      <trkpt lat="47.81489" lon="6.60525">
        <ele>448.16837</ele>
        <time>2020-09-13T10:25:46Z</time>
      </trkpt>
      <trkpt lat="47.81477" lon="6.60508">
        <ele>447.01016</ele>
        <time>2020-09-13T10:25:51Z</time>
      </trkpt>
      <trkpt lat="47.81445" lon="6.60507">
        <ele>449.29633</ele>
        <time>2020-09-13T10:26:01Z</time>
      </trkpt>
      <trkpt lat="47.81438" lon="6.60529">
        <ele>448.65552</ele>
        <time>2020-09-13T10:26:06Z</time>
      </trkpt>
      <trkpt lat="47.81434" lon="6.60551">
        <ele>447.75903</ele>
        <time>2020-09-13T10:26:11Z</time>
      </trkpt>
      <trkpt lat="47.81427" lon="6.60559">
        <ele>449.1417</ele>
        <time>2020-09-13T10:26:16Z</time>
      </trkpt>
      <trkpt lat="47.81417" lon="6.60558">
        <ele>451.4786</ele>
        <time>2020-09-13T10:26:21Z</time>
      </trkpt>
      <trkpt lat="47.81406" lon="6.60551">
        <ele>453.65503</ele>
        <time>2020-09-13T10:26:26Z</time>
      </trkpt>
      <trkpt lat="47.81397" lon="6.60543">
        <ele>455.2362</ele>
        <time>2020-09-13T10:26:31Z</time>
      </trkpt>
      <trkpt lat="47.81385" lon="6.60542">
        <ele>456.1724</ele>
        <time>2020-09-13T10:26:36Z</time>
      </trkpt>
      <trkpt lat="47.81345" lon="6.60533">
        <ele>455.8529</ele>
        <time>2020-09-13T10:26:46Z</time>
      </trkpt>
      <trkpt lat="47.81302" lon="6.60564">
        <ele>456.35138</ele>
        <time>2020-09-13T10:26:56Z</time>
      </trkpt>
      <trkpt lat="47.81272" lon="6.60574">
        <ele>456.68097</ele>
        <time>2020-09-13T10:27:01Z</time>
      </trkpt>
      <trkpt lat="47.81228" lon="6.60564">
        <ele>456.98126</ele>
        <time>2020-09-13T10:27:06Z</time>
      </trkpt>
      <trkpt lat="47.81199" lon="6.60553">
        <ele>458.24414</ele>
        <time>2020-09-13T10:27:11Z</time>
      </trkpt>
      <trkpt lat="47.81179" lon="6.60545">
        <ele>458.46356</ele>
        <time>2020-09-13T10:27:16Z</time>
      </trkpt>
      <trkpt lat="47.81162" lon="6.60535">
        <ele>458.7224</ele>
        <time>2020-09-13T10:27:21Z</time>
      </trkpt>
      <trkpt lat="47.81132" lon="6.60515">
        <ele>460.35147</ele>
        <time>2020-09-13T10:27:31Z</time>
      </trkpt>
      <trkpt lat="47.81104" lon="6.60493">
        <ele>462.2284</ele>
        <time>2020-09-13T10:27:41Z</time>
      </trkpt>
      <trkpt lat="47.81093" lon="6.60489">
        <ele>464.0782</ele>
        <time>2020-09-13T10:27:46Z</time>
      </trkpt>
      <trkpt lat="47.8108" lon="6.60487">
        <ele>464.73563</ele>
        <time>2020-09-13T10:27:51Z</time>
      </trkpt>
      <trkpt lat="47.81065" lon="6.60488">
        <ele>467.99368</ele>
        <time>2020-09-13T10:27:56Z</time>
      </trkpt>
      <trkpt lat="47.81052" lon="6.60492">
        <ele>468.6664</ele>
        <time>2020-09-13T10:28:01Z</time>
      </trkpt>
      <trkpt lat="47.81035" lon="6.60499">
        <ele>470.17783</ele>
        <time>2020-09-13T10:28:06Z</time>
      </trkpt>
      <trkpt lat="47.81004" lon="6.6052">
        <ele>472.42892</ele>
        <time>2020-09-13T10:28:16Z</time>
      </trkpt>
      <trkpt lat="47.80959" lon="6.60525">
        <ele>471.489</ele>
        <time>2020-09-13T10:28:26Z</time>
      </trkpt>
      <trkpt lat="47.80938" lon="6.60492">
        <ele>471.58005</ele>
        <time>2020-09-13T10:28:31Z</time>
      </trkpt>
      <trkpt lat="47.80922" lon="6.60453">
        <ele>470.8597</ele>
        <time>2020-09-13T10:28:36Z</time>
      </trkpt>
      <trkpt lat="47.80889" lon="6.60432">
        <ele>468.99417</ele>
        <time>2020-09-13T10:28:41Z</time>
      </trkpt>
      <trkpt lat="47.8085" lon="6.6044">
        <ele>467.43024</ele>
        <time>2020-09-13T10:28:46Z</time>
      </trkpt>
      <trkpt lat="47.80808" lon="6.6044">
        <ele>467.48993</ele>
        <time>2020-09-13T10:28:51Z</time>
      </trkpt>
      <trkpt lat="47.80763" lon="6.60436">
        <ele>465.95038</ele>
        <time>2020-09-13T10:28:56Z</time>
      </trkpt>
      <trkpt lat="47.80718" lon="6.60425">
        <ele>465.01984</ele>
        <time>2020-09-13T10:29:01Z</time>
      </trkpt>
      <trkpt lat="47.80645" lon="6.60367">
        <ele>461.03406</ele>
        <time>2020-09-13T10:29:11Z</time>
      </trkpt>
      <trkpt lat="47.80564" lon="6.60377">
        <ele>453.52664</ele>
        <time>2020-09-13T10:29:21Z</time>
      </trkpt>
      <trkpt lat="47.80532" lon="6.60364">
        <ele>452.7806</ele>
        <time>2020-09-13T10:29:26Z</time>
      </trkpt>
      <trkpt lat="47.80511" lon="6.60336">
        <ele>453.31943</ele>
        <time>2020-09-13T10:29:31Z</time>
      </trkpt>
      <trkpt lat="47.80484" lon="6.60299">
        <ele>453.65</ele>
        <time>2020-09-13T10:29:36Z</time>
      </trkpt>
      <trkpt lat="47.80454" lon="6.60282">
        <ele>454.99863</ele>
        <time>2020-09-13T10:29:41Z</time>
      </trkpt>
      <trkpt lat="47.80428" lon="6.60269">
        <ele>454.4628</ele>
        <time>2020-09-13T10:29:46Z</time>
      </trkpt>
      <trkpt lat="47.80362" lon="6.60266">
        <ele>454.24847</ele>
        <time>2020-09-13T10:29:56Z</time>
      </trkpt>
      <trkpt lat="47.80296" lon="6.60253">
        <ele>451.6181</ele>
        <time>2020-09-13T10:30:06Z</time>
      </trkpt>
      <trkpt lat="47.8026" lon="6.60246">
        <ele>450.45264</ele>
        <time>2020-09-13T10:30:11Z</time>
      </trkpt>
      <trkpt lat="47.80217" lon="6.60242">
        <ele>448.20172</ele>
        <time>2020-09-13T10:30:16Z</time>
      </trkpt>
      <trkpt lat="47.8018" lon="6.60265">
        <ele>446.11676</ele>
        <time>2020-09-13T10:30:21Z</time>
      </trkpt>
      <trkpt lat="47.80158" lon="6.60267">
        <ele>445.67615</ele>
        <time>2020-09-13T10:30:26Z</time>
      </trkpt>
      <trkpt lat="47.80126" lon="6.60255">
        <ele>444.84348</ele>
        <time>2020-09-13T10:30:31Z</time>
      </trkpt>
      <trkpt lat="47.80061" lon="6.60166">
        <ele>441.46146</ele>
        <time>2020-09-13T10:30:41Z</time>
      </trkpt>
      <trkpt lat="47.80019" lon="6.60062">
        <ele>437.55365</ele>
        <time>2020-09-13T10:30:51Z</time>
      </trkpt>
      <trkpt lat="47.79997" lon="6.60016">
        <ele>436.39096</ele>
        <time>2020-09-13T10:30:56Z</time>
      </trkpt>
      <trkpt lat="47.79978" lon="6.59962">
        <ele>435.9879</ele>
        <time>2020-09-13T10:31:01Z</time>
      </trkpt>
      <trkpt lat="47.79953" lon="6.59907">
        <ele>433.19</ele>
        <time>2020-09-13T10:31:06Z</time>
      </trkpt>
      <trkpt lat="47.79914" lon="6.59859">
        <ele>428.7212</ele>
        <time>2020-09-13T10:31:11Z</time>
      </trkpt>
      <trkpt lat="47.79893" lon="6.59786">
        <ele>426.93896</ele>
        <time>2020-09-13T10:31:16Z</time>
      </trkpt>
      <trkpt lat="47.79874" lon="6.59731">
        <ele>423.39816</ele>
        <time>2020-09-13T10:31:21Z</time>
      </trkpt>
      <trkpt lat="47.79846" lon="6.59674">
        <ele>422.98828</ele>
        <time>2020-09-13T10:31:26Z</time>
      </trkpt>
      <trkpt lat="47.79786" lon="6.5958">
        <ele>425.52338</ele>
        <time>2020-09-13T10:31:36Z</time>
      </trkpt>
      <trkpt lat="47.79736" lon="6.59477">
        <ele>424.9923</ele>
        <time>2020-09-13T10:31:46Z</time>
      </trkpt>
      <trkpt lat="47.79725" lon="6.59423">
        <ele>425.04483</ele>
        <time>2020-09-13T10:31:51Z</time>
      </trkpt>
      <trkpt lat="47.79702" lon="6.59386">
        <ele>425.88788</ele>
        <time>2020-09-13T10:31:56Z</time>
      </trkpt>
      <trkpt lat="47.79672" lon="6.59357">
        <ele>425.75055</ele>
        <time>2020-09-13T10:32:01Z</time>
      </trkpt>
      <trkpt lat="47.79651" lon="6.59325">
        <ele>424.64197</ele>
        <time>2020-09-13T10:32:06Z</time>
      </trkpt>
      <trkpt lat="47.79634" lon="6.59297">
        <ele>424.10284</ele>
        <time>2020-09-13T10:32:11Z</time>
      </trkpt>
      <trkpt lat="47.79599" lon="6.59243">
        <ele>426.20087</ele>
        <time>2020-09-13T10:32:21Z</time>
      </trkpt>
      <trkpt lat="47.79559" lon="6.59192">
        <ele>426.10696</ele>
        <time>2020-09-13T10:32:31Z</time>
      </trkpt>
      <trkpt lat="47.79532" lon="6.59162">
        <ele>425.9858</ele>
        <time>2020-09-13T10:32:36Z</time>
      </trkpt>
      <trkpt lat="47.79508" lon="6.59132">
        <ele>425.3063</ele>
        <time>2020-09-13T10:32:41Z</time>
      </trkpt>
      <trkpt lat="47.79479" lon="6.591">
        <ele>425.35074</ele>
        <time>2020-09-13T10:32:46Z</time>
      </trkpt>
      <trkpt lat="47.79454" lon="6.59072">
        <ele>425.07812</ele>
        <time>2020-09-13T10:32:51Z</time>
      </trkpt>
      <trkpt lat="47.79429" lon="6.59046">
        <ele>425.04987</ele>
        <time>2020-09-13T10:32:56Z</time>
      </trkpt>
      <trkpt lat="47.7938" lon="6.59">
        <ele>425.35074</ele>
        <time>2020-09-13T10:33:06Z</time>
      </trkpt>
      <trkpt lat="47.79328" lon="6.58941">
        <ele>425.5476</ele>
        <time>2020-09-13T10:33:16Z</time>
      </trkpt>
      <trkpt lat="47.79303" lon="6.58908">
        <ele>424.02512</ele>
        <time>2020-09-13T10:33:21Z</time>
      </trkpt>
      <trkpt lat="47.79273" lon="6.58882">
        <ele>422.44214</ele>
        <time>2020-09-13T10:33:26Z</time>
      </trkpt>
      <trkpt lat="47.79234" lon="6.5886">
        <ele>421.79</ele>
        <time>2020-09-13T10:33:31Z</time>
      </trkpt>
      <trkpt lat="47.79195" lon="6.58837">
        <ele>421.82532</ele>
        <time>2020-09-13T10:33:36Z</time>
      </trkpt>
      <trkpt lat="47.79155" lon="6.5881">
        <ele>420.62003</ele>
        <time>2020-09-13T10:33:41Z</time>
      </trkpt>
      <trkpt lat="47.79112" lon="6.58794">
        <ele>420.4979</ele>
        <time>2020-09-13T10:33:46Z</time>
      </trkpt>
      <trkpt lat="47.79071" lon="6.58785">
        <ele>418.93536</ele>
        <time>2020-09-13T10:33:51Z</time>
      </trkpt>
      <trkpt lat="47.78992" lon="6.58799">
        <ele>416.51202</ele>
        <time>2020-09-13T10:34:01Z</time>
      </trkpt>
      <trkpt lat="47.78907" lon="6.58812">
        <ele>414.55014</ele>
        <time>2020-09-13T10:34:11Z</time>
      </trkpt>
      <trkpt lat="47.78866" lon="6.58812">
        <ele>414.75095</ele>
        <time>2020-09-13T10:34:16Z</time>
      </trkpt>
      <trkpt lat="47.7883" lon="6.58809">
        <ele>414.37756</ele>
        <time>2020-09-13T10:34:21Z</time>
      </trkpt>
      <trkpt lat="47.78791" lon="6.58797">
        <ele>413.54404</ele>
        <time>2020-09-13T10:34:26Z</time>
      </trkpt>
      <trkpt lat="47.7876" lon="6.58767">
        <ele>412.28772</ele>
        <time>2020-09-13T10:34:31Z</time>
      </trkpt>
      <trkpt lat="47.78724" lon="6.58747">
        <ele>411.68735</ele>
        <time>2020-09-13T10:34:36Z</time>
      </trkpt>
      <trkpt lat="47.7864" lon="6.58732">
        <ele>410.0689</ele>
        <time>2020-09-13T10:34:46Z</time>
      </trkpt>
      <trkpt lat="47.78563" lon="6.58696">
        <ele>410.4826</ele>
        <time>2020-09-13T10:34:56Z</time>
      </trkpt>
      <trkpt lat="47.78525" lon="6.5868">
        <ele>408.53033</ele>
        <time>2020-09-13T10:35:01Z</time>
      </trkpt>
      <trkpt lat="47.78484" lon="6.58668">
        <ele>406.2635</ele>
        <time>2020-09-13T10:35:06Z</time>
      </trkpt>
      <trkpt lat="47.78436" lon="6.5866">
        <ele>402.7522</ele>
        <time>2020-09-13T10:35:11Z</time>
      </trkpt>
      <trkpt lat="47.7839" lon="6.58643">
        <ele>399.57626</ele>
        <time>2020-09-13T10:35:16Z</time>
      </trkpt>
      <trkpt lat="47.78355" lon="6.58596">
        <ele>396.8475</ele>
        <time>2020-09-13T10:35:21Z</time>
      </trkpt>
      <trkpt lat="47.78271" lon="6.58524">
        <ele>395.6829</ele>
        <time>2020-09-13T10:35:31Z</time>
      </trkpt>
      <trkpt lat="47.78171" lon="6.58457">
        <ele>394.74216</ele>
        <time>2020-09-13T10:35:41Z</time>
      </trkpt>
      <trkpt lat="47.78125" lon="6.58423">
        <ele>393.8438</ele>
        <time>2020-09-13T10:35:46Z</time>
      </trkpt>
      <trkpt lat="47.7808" lon="6.58401">
        <ele>393.23083</ele>
        <time>2020-09-13T10:35:51Z</time>
      </trkpt>
      <trkpt lat="47.78034" lon="6.58374">
        <ele>392.66425</ele>
        <time>2020-09-13T10:35:56Z</time>
      </trkpt>
      <trkpt lat="47.77993" lon="6.58341">
        <ele>390.45447</ele>
        <time>2020-09-13T10:36:01Z</time>
      </trkpt>
      <trkpt lat="47.77946" lon="6.58313">
        <ele>386.96884</ele>
        <time>2020-09-13T10:36:06Z</time>
      </trkpt>
      <trkpt lat="47.77905" lon="6.58273">
        <ele>383.58557</ele>
        <time>2020-09-13T10:36:11Z</time>
      </trkpt>
      <trkpt lat="47.77861" lon="6.58234">
        <ele>381.35352</ele>
        <time>2020-09-13T10:36:16Z</time>
      </trkpt>
      <trkpt lat="47.77747" lon="6.58193">
        <ele>375.32153</ele>
        <time>2020-09-13T10:36:26Z</time>
      </trkpt>
      <trkpt lat="47.77654" lon="6.5817">
        <ele>373.1729</ele>
        <time>2020-09-13T10:36:36Z</time>
      </trkpt>
      <trkpt lat="47.77613" lon="6.58147">
        <ele>371.42938</ele>
        <time>2020-09-13T10:36:41Z</time>
      </trkpt>
      <trkpt lat="47.77569" lon="6.58124">
        <ele>371.7255</ele>
        <time>2020-09-13T10:36:46Z</time>
      </trkpt>
      <trkpt lat="47.7753" lon="6.58093">
        <ele>372.43158</ele>
        <time>2020-09-13T10:36:51Z</time>
      </trkpt>
      <trkpt lat="47.77483" lon="6.58082">
        <ele>370.34668</ele>
        <time>2020-09-13T10:36:56Z</time>
      </trkpt>
      <trkpt lat="47.7744" lon="6.58075">
        <ele>368.74637</ele>
        <time>2020-09-13T10:37:01Z</time>
      </trkpt>
      <trkpt lat="47.77345" lon="6.58057">
        <ele>365.22488</ele>
        <time>2020-09-13T10:37:11Z</time>
      </trkpt>
      <trkpt lat="47.77246" lon="6.58063">
        <ele>362.79132</ele>
        <time>2020-09-13T10:37:21Z</time>
      </trkpt>
      <trkpt lat="47.77204" lon="6.5807">
        <ele>362.54565</ele>
        <time>2020-09-13T10:37:26Z</time>
      </trkpt>
      <trkpt lat="47.77161" lon="6.5807">
        <ele>361.69492</ele>
        <time>2020-09-13T10:37:31Z</time>
      </trkpt>
      <trkpt lat="47.77127" lon="6.58035">
        <ele>360.6862</ele>
        <time>2020-09-13T10:37:36Z</time>
      </trkpt>
      <trkpt lat="47.77111" lon="6.5798">
        <ele>360.1929</ele>
        <time>2020-09-13T10:37:41Z</time>
      </trkpt>
      <trkpt lat="47.77107" lon="6.57917">
        <ele>360.27042</ele>
        <time>2020-09-13T10:37:46Z</time>
      </trkpt>
      <trkpt lat="47.77089" lon="6.57821">
        <ele>356.92642</ele>
        <time>2020-09-13T10:37:56Z</time>
      </trkpt>
      <trkpt lat="47.77032" lon="6.57795">
        <ele>357.10358</ele>
        <time>2020-09-13T10:38:06Z</time>
      </trkpt>
      <trkpt lat="47.77004" lon="6.57773">
        <ele>357.23947</ele>
        <time>2020-09-13T10:38:11Z</time>
      </trkpt>
      <trkpt lat="47.76969" lon="6.57752">
        <ele>355.1419</ele>
        <time>2020-09-13T10:38:16Z</time>
      </trkpt>
      <trkpt lat="47.76928" lon="6.57757">
        <ele>353.68762</ele>
        <time>2020-09-13T10:38:21Z</time>
      </trkpt>
      <trkpt lat="47.76888" lon="6.57774">
        <ele>350.99466</ele>
        <time>2020-09-13T10:38:26Z</time>
      </trkpt>
      <trkpt lat="47.76846" lon="6.57774">
        <ele>348.27588</ele>
        <time>2020-09-13T10:38:31Z</time>
      </trkpt>
      <trkpt lat="47.76762" lon="6.57753">
        <ele>346.8271</ele>
        <time>2020-09-13T10:38:41Z</time>
      </trkpt>
      <trkpt lat="47.76662" lon="6.57724">
        <ele>346.316</ele>
        <time>2020-09-13T10:38:51Z</time>
      </trkpt>
      <trkpt lat="47.7658" lon="6.57726">
        <ele>346.29385</ele>
        <time>2020-09-13T10:39:01Z</time>
      </trkpt>
      <trkpt lat="47.76541" lon="6.57743">
        <ele>343.7366</ele>
        <time>2020-09-13T10:39:06Z</time>
      </trkpt>
      <trkpt lat="47.76499" lon="6.57743">
        <ele>339.89624</ele>
        <time>2020-09-13T10:39:11Z</time>
      </trkpt>
      <trkpt lat="47.76441" lon="6.57737">
        <ele>337.99643</ele>
        <time>2020-09-13T10:39:16Z</time>
      </trkpt>
      <trkpt lat="47.76387" lon="6.57731">
        <ele>336.98978</ele>
        <time>2020-09-13T10:39:21Z</time>
      </trkpt>
      <trkpt lat="47.76339" lon="6.57722">
        <ele>334.55023</ele>
        <time>2020-09-13T10:39:26Z</time>
      </trkpt>
      <trkpt lat="47.76248" lon="6.57704">
        <ele>332.88013</ele>
        <time>2020-09-13T10:39:36Z</time>
      </trkpt>
      <trkpt lat="47.76181" lon="6.57722">
        <ele>327.05228</ele>
        <time>2020-09-13T10:39:46Z</time>
      </trkpt>
      <trkpt lat="47.76152" lon="6.57742">
        <ele>324.5073</ele>
        <time>2020-09-13T10:39:51Z</time>
      </trkpt>
      <trkpt lat="47.76121" lon="6.57757">
        <ele>327.29654</ele>
        <time>2020-09-13T10:39:56Z</time>
      </trkpt>
      <trkpt lat="47.76089" lon="6.57768">
        <ele>322.7485</ele>
        <time>2020-09-13T10:40:01Z</time>
      </trkpt>
      <trkpt lat="47.7606" lon="6.57768">
        <ele>322.1998</ele>
        <time>2020-09-13T10:40:06Z</time>
      </trkpt>
      <trkpt lat="47.76034" lon="6.5774">
        <ele>326.0401</ele>
        <time>2020-09-13T10:40:11Z</time>
      </trkpt>
      <trkpt lat="47.7598" lon="6.57739">
        <ele>326.98294</ele>
        <time>2020-09-13T10:40:21Z</time>
      </trkpt>
      <trkpt lat="47.75945" lon="6.57809">
        <ele>326.45624</ele>
        <time>2020-09-13T10:40:31Z</time>
      </trkpt>
      <trkpt lat="47.7593" lon="6.57838">
        <ele>324.43796</ele>
        <time>2020-09-13T10:40:36Z</time>
      </trkpt>
      <trkpt lat="47.7592" lon="6.5787">
        <ele>327.4433</ele>
        <time>2020-09-13T10:40:41Z</time>
      </trkpt>
      <trkpt lat="47.75907" lon="6.57902">
        <ele>327.20407</ele>
        <time>2020-09-13T10:40:46Z</time>
      </trkpt>
      <trkpt lat="47.7589" lon="6.57925">
        <ele>320.49042</ele>
        <time>2020-09-13T10:40:51Z</time>
      </trkpt>
      <trkpt lat="47.7587" lon="6.57949">
        <ele>327.08948</ele>
        <time>2020-09-13T10:40:56Z</time>
      </trkpt>
      <trkpt lat="47.75853" lon="6.57975">
        <ele>326.26825</ele>
        <time>2020-09-13T10:41:01Z</time>
      </trkpt>
      <trkpt lat="47.75836" lon="6.58003">
        <ele>326.57382</ele>
        <time>2020-09-13T10:41:06Z</time>
      </trkpt>
      <trkpt lat="47.75792" lon="6.58071">
        <ele>327.53983</ele>
        <time>2020-09-13T10:41:16Z</time>
      </trkpt>
      <trkpt lat="47.75744" lon="6.58121">
        <ele>322.2842</ele>
        <time>2020-09-13T10:41:26Z</time>
      </trkpt>
      <trkpt lat="47.75717" lon="6.58142">
        <ele>320.56778</ele>
        <time>2020-09-13T10:41:31Z</time>
      </trkpt>
      <trkpt lat="47.75688" lon="6.58154">
        <ele>321.99878</ele>
        <time>2020-09-13T10:41:36Z</time>
      </trkpt>
      <trkpt lat="47.75657" lon="6.58157">
        <ele>322.45908</ele>
        <time>2020-09-13T10:41:41Z</time>
      </trkpt>
      <trkpt lat="47.75625" lon="6.58157">
        <ele>323.39673</ele>
        <time>2020-09-13T10:41:46Z</time>
      </trkpt>
      <trkpt lat="47.75591" lon="6.58154">
        <ele>321.9023</ele>
        <time>2020-09-13T10:41:51Z</time>
      </trkpt>
      <trkpt lat="47.75524" lon="6.58153">
        <ele>320.23013</ele>
        <time>2020-09-13T10:42:01Z</time>
      </trkpt>
      <trkpt lat="47.75475" lon="6.58117">
        <ele>321.81488</ele>
        <time>2020-09-13T10:42:11Z</time>
      </trkpt>
      <trkpt lat="47.75445" lon="6.58132">
        <ele>322.648</ele>
        <time>2020-09-13T10:42:16Z</time>
      </trkpt>
      <trkpt lat="47.75422" lon="6.58158">
        <ele>322.5033</ele>
        <time>2020-09-13T10:42:21Z</time>
      </trkpt>
      <trkpt lat="47.75405" lon="6.58165">
        <ele>321.0391</ele>
        <time>2020-09-13T10:42:26Z</time>
      </trkpt>
      <trkpt lat="47.75392" lon="6.58159">
        <ele>321.94955</ele>
        <time>2020-09-13T10:42:31Z</time>
      </trkpt>
      <trkpt lat="47.75374" lon="6.58173">
        <ele>321.01193</ele>
        <time>2020-09-13T10:42:36Z</time>
      </trkpt>
      <trkpt lat="47.7532" lon="6.58208">
        <ele>318.82135</ele>
        <time>2020-09-13T10:42:46Z</time>
      </trkpt>
      <trkpt lat="47.75253" lon="6.58232">
        <ele>316.29437</ele>
        <time>2020-09-13T10:42:56Z</time>
      </trkpt>
      <trkpt lat="47.75229" lon="6.5826">
        <ele>317.77234</ele>
        <time>2020-09-13T10:43:01Z</time>
      </trkpt>
      <trkpt lat="47.75207" lon="6.58294">
        <ele>317.20566</ele>
        <time>2020-09-13T10:43:06Z</time>
      </trkpt>
      <trkpt lat="47.75185" lon="6.58302">
        <ele>317.54126</ele>
        <time>2020-09-13T10:43:11Z</time>
      </trkpt>
      <trkpt lat="47.75164" lon="6.58301">
        <ele>316.2934</ele>
        <time>2020-09-13T10:43:16Z</time>
      </trkpt>
      <trkpt lat="47.7514" lon="6.58304">
        <ele>317.58444</ele>
        <time>2020-09-13T10:43:21Z</time>
      </trkpt>
      <trkpt lat="47.75119" lon="6.58305">
        <ele>318.7731</ele>
        <time>2020-09-13T10:43:26Z</time>
      </trkpt>
      <trkpt lat="47.751" lon="6.58302">
        <ele>317.39456</ele>
        <time>2020-09-13T10:43:31Z</time>
      </trkpt>
      <trkpt lat="47.75091" lon="6.58366">
        <ele>317.8678</ele>
        <time>2020-09-13T10:43:41Z</time>
      </trkpt>
      <trkpt lat="47.75081" lon="6.58436">
        <ele>318.328</ele>
        <time>2020-09-13T10:43:51Z</time>
      </trkpt>
      <trkpt lat="47.75077" lon="6.5847">
        <ele>316.96854</ele>
        <time>2020-09-13T10:43:56Z</time>
      </trkpt>
      <trkpt lat="47.75074" lon="6.585">
        <ele>318.44153</ele>
        <time>2020-09-13T10:44:01Z</time>
      </trkpt>
      <trkpt lat="47.75071" lon="6.58538">
        <ele>317.30615</ele>
        <time>2020-09-13T10:44:06Z</time>
      </trkpt>
      <trkpt lat="47.75061" lon="6.58576">
        <ele>317.65176</ele>
        <time>2020-09-13T10:44:11Z</time>
      </trkpt>
      <trkpt lat="47.75047" lon="6.58608">
        <ele>318.07477</ele>
        <time>2020-09-13T10:44:16Z</time>
      </trkpt>
      <trkpt lat="47.75021" lon="6.58678">
        <ele>318.57114</ele>
        <time>2020-09-13T10:44:26Z</time>
      </trkpt>
      <trkpt lat="47.74997" lon="6.58737">
        <ele>319.0193</ele>
        <time>2020-09-13T10:44:36Z</time>
      </trkpt>
      <trkpt lat="47.74984" lon="6.58768">
        <ele>318.0738</ele>
        <time>2020-09-13T10:44:41Z</time>
      </trkpt>
      <trkpt lat="47.74982" lon="6.58803">
        <ele>317.51913</ele>
        <time>2020-09-13T10:44:46Z</time>
      </trkpt>
      <trkpt lat="47.74978" lon="6.58849">
        <ele>315.6795</ele>
        <time>2020-09-13T10:44:51Z</time>
      </trkpt>
      <trkpt lat="47.74978" lon="6.58872">
        <ele>314.32828</ele>
        <time>2020-09-13T10:44:56Z</time>
      </trkpt>
      <trkpt lat="47.75005" lon="6.58887">
        <ele>313.43118</ele>
        <time>2020-09-13T10:45:01Z</time>
      </trkpt>
      <trkpt lat="47.75058" lon="6.5892">
        <ele>313.4101</ele>
        <time>2020-09-13T10:45:11Z</time>
      </trkpt>
      <trkpt lat="47.7509" lon="6.58988">
        <ele>313.607</ele>
        <time>2020-09-13T10:45:21Z</time>
      </trkpt>
      <trkpt lat="47.75102" lon="6.59022">
        <ele>313.48843</ele>
        <time>2020-09-13T10:45:26Z</time>
      </trkpt>
      <trkpt lat="47.75115" lon="6.59054">
        <ele>310.88876</ele>
        <time>2020-09-13T10:45:31Z</time>
      </trkpt>
      <trkpt lat="47.75127" lon="6.59088">
        <ele>314.92804</ele>
        <time>2020-09-13T10:45:36Z</time>
      </trkpt>
      <trkpt lat="47.75142" lon="6.59117">
        <ele>315.94577</ele>
        <time>2020-09-13T10:45:41Z</time>
      </trkpt>
      <trkpt lat="47.7516" lon="6.59151">
        <ele>314.86072</ele>
        <time>2020-09-13T10:45:46Z</time>
      </trkpt>
      <trkpt lat="47.75178" lon="6.59184">
        <ele>313.12378</ele>
        <time>2020-09-13T10:45:51Z</time>
      </trkpt>
      <trkpt lat="47.75195" lon="6.59217">
        <ele>312.6818</ele>
        <time>2020-09-13T10:45:56Z</time>
      </trkpt>
      <trkpt lat="47.75215" lon="6.59294">
        <ele>312.16345</ele>
        <time>2020-09-13T10:46:06Z</time>
      </trkpt>
      <trkpt lat="47.75231" lon="6.59372">
        <ele>308.90103</ele>
        <time>2020-09-13T10:46:16Z</time>
      </trkpt>
      <trkpt lat="47.75239" lon="6.59406">
        <ele>309.4404</ele>
        <time>2020-09-13T10:46:21Z</time>
      </trkpt>
      <trkpt lat="47.75248" lon="6.59432">
        <ele>309.45847</ele>
        <time>2020-09-13T10:46:26Z</time>
      </trkpt>
      <trkpt lat="47.75253" lon="6.59446">
        <ele>311.6391</ele>
        <time>2020-09-13T10:46:31Z</time>
      </trkpt>
      <trkpt lat="47.7526" lon="6.5945">
        <ele>301.62964</ele>
        <time>2020-09-13T10:46:41Z</time>
      </trkpt>
      <trkpt lat="47.7526" lon="6.5945">
        <ele>307.56528</ele>
        <time>2020-09-13T10:47:36Z</time>
      </trkpt>
    </trkseg>
  </trk>
</gpx>